<?xml version="1.0" encoding="UTF-8" standalone="no" ?>
<gpx xmlns="http://www.topografix.com/GPX/1/1" xmlns:xsi="http://www.w3.org/2001/XMLSchema-instance" xsi:schemaLocation="http://www.topografix.com/GPX/1/1 http://www.topografix.com/GPX/1/1/gpx.xsd" version="1.1" creator="VisuGPX - https://www.visugpx.com">
  <metadata>
    <name>VTT du dimanche 18 octobre 2020 (à deux)</name>
    <desc><![CDATA[Une température à 12-14° et du soleil pour un parcours sans originalité, avec beaucoup de route : Emmaüs, Pusy, Moulin Gabeuret. A la ferme du Val des Charmes, 2 gros chiens, potentiellement dangereux d'après Christine, nous ont incités à faire demi-tour et passer par Charmoille avant de rallier le Trou de l'Enfer, le réservoir, Pusy, Epenoux, Villeparois et Coulevon.
Jacky étant absent pour cause de lumbago, nous n'étions que deux, équipés de cuissards longs.
[i]PS : je ne sais pas pourquoi je décris le parcours alors qu'il se voit très bien sur la carte ! [/i]]]></desc>
  </metadata>
  <wpt lat="47.64444" lon="6.18327">
    <ele>231</ele>
    <name><![CDATA[0000094]]></name>
    <type><![CDATA[Point de départ]]></type>
  </wpt>
  <wpt lat="47.64441" lon="6.18326">
    <ele>231</ele>
    <name><![CDATA[0000095]]></name>
    <type><![CDATA[Point d'arrivée]]></type>
  </wpt>
  <trk>
    <name><![CDATA[2020-10-18 14:59]]></name>
    <desc><![CDATA[<p>Heure de départ: 10/18/2020 14:59<br/>Heure d'arrivée: 10/18/2020 16:40<br/>Distance: 22,9 km (01:41)<br/>Temps déplacement: 01:35<br/>Vitesse moyenne: 13,54 km/h<br/>Vitesse moyenne mouv.: 14,31 km/h<br/>Vitesse Max.: 36,77 km/h<br/>Altitude minimale: 115 m<br/>Altitude maximale: 278 m<br/>Vitesse de montée: 148,4 m/h<br/>Vitesse de descente: -195,3 m/h<br/>Gain d'altitude: 127 m<br/>Perte d'altitude: -116 m<br/>Temps de montée: 00:51<br/>Temps de descente: 00:35<br/></p><hr align="center" width="480" style="height: 2px; width: 517px"/>]]></desc>
    <trkseg>
      <trkpt lat="47.64444" lon="6.18327">
        <ele>231</ele>
        <time>2020-10-18T12:59:15Z</time>
      </trkpt>
      <trkpt lat="47.64443" lon="6.1832">
        <ele>231</ele>
        <time>2020-10-18T12:59:22Z</time>
      </trkpt>
      <trkpt lat="47.64446" lon="6.18313">
        <ele>231</ele>
        <time>2020-10-18T12:59:25Z</time>
      </trkpt>
      <trkpt lat="47.64449" lon="6.18309">
        <ele>231</ele>
        <time>2020-10-18T12:59:32Z</time>
      </trkpt>
      <trkpt lat="47.64447" lon="6.18303">
        <ele>231</ele>
        <time>2020-10-18T12:59:33Z</time>
      </trkpt>
      <trkpt lat="47.64443" lon="6.18297">
        <ele>230</ele>
        <time>2020-10-18T12:59:34Z</time>
      </trkpt>
      <trkpt lat="47.64438" lon="6.18296">
        <ele>230</ele>
        <time>2020-10-18T12:59:36Z</time>
      </trkpt>
      <trkpt lat="47.64443" lon="6.18297">
        <ele>230</ele>
        <time>2020-10-18T12:59:42Z</time>
      </trkpt>
      <trkpt lat="47.64447" lon="6.18292">
        <ele>230</ele>
        <time>2020-10-18T12:59:46Z</time>
      </trkpt>
      <trkpt lat="47.64451" lon="6.18286">
        <ele>230</ele>
        <time>2020-10-18T12:59:49Z</time>
      </trkpt>
      <trkpt lat="47.64455" lon="6.18281">
        <ele>230</ele>
        <time>2020-10-18T12:59:50Z</time>
      </trkpt>
      <trkpt lat="47.64459" lon="6.18275">
        <ele>230</ele>
        <time>2020-10-18T12:59:53Z</time>
      </trkpt>
      <trkpt lat="47.64462" lon="6.1827">
        <ele>230</ele>
        <time>2020-10-18T12:59:56Z</time>
      </trkpt>
      <trkpt lat="47.64467" lon="6.18266">
        <ele>230</ele>
        <time>2020-10-18T12:59:59Z</time>
      </trkpt>
      <trkpt lat="47.64472" lon="6.18258">
        <ele>231</ele>
        <time>2020-10-18T13:00:03Z</time>
      </trkpt>
      <trkpt lat="47.64477" lon="6.1825">
        <ele>231</ele>
        <time>2020-10-18T13:00:05Z</time>
      </trkpt>
      <trkpt lat="47.64482" lon="6.18242">
        <ele>228</ele>
        <time>2020-10-18T13:00:06Z</time>
      </trkpt>
      <trkpt lat="47.64485" lon="6.18235">
        <ele>228</ele>
        <time>2020-10-18T13:00:09Z</time>
      </trkpt>
      <trkpt lat="47.64488" lon="6.18228">
        <ele>227</ele>
        <time>2020-10-18T13:00:10Z</time>
      </trkpt>
      <trkpt lat="47.64491" lon="6.18219">
        <ele>227</ele>
        <time>2020-10-18T13:00:11Z</time>
      </trkpt>
      <trkpt lat="47.64494" lon="6.18212">
        <ele>226</ele>
        <time>2020-10-18T13:00:14Z</time>
      </trkpt>
      <trkpt lat="47.64497" lon="6.18204">
        <ele>226</ele>
        <time>2020-10-18T13:00:15Z</time>
      </trkpt>
      <trkpt lat="47.645" lon="6.18197">
        <ele>226</ele>
        <time>2020-10-18T13:00:18Z</time>
      </trkpt>
      <trkpt lat="47.64502" lon="6.18188">
        <ele>231</ele>
        <time>2020-10-18T13:00:20Z</time>
      </trkpt>
      <trkpt lat="47.64502" lon="6.18179">
        <ele>229</ele>
        <time>2020-10-18T13:00:21Z</time>
      </trkpt>
      <trkpt lat="47.64501" lon="6.18173">
        <ele>227</ele>
        <time>2020-10-18T13:00:21Z</time>
      </trkpt>
      <trkpt lat="47.64499" lon="6.18164">
        <ele>225</ele>
        <time>2020-10-18T13:00:24Z</time>
      </trkpt>
      <trkpt lat="47.64497" lon="6.18157">
        <ele>224</ele>
        <time>2020-10-18T13:00:25Z</time>
      </trkpt>
      <trkpt lat="47.64496" lon="6.1815">
        <ele>224</ele>
        <time>2020-10-18T13:00:26Z</time>
      </trkpt>
      <trkpt lat="47.64495" lon="6.18142">
        <ele>224</ele>
        <time>2020-10-18T13:00:28Z</time>
      </trkpt>
      <trkpt lat="47.64495" lon="6.18134">
        <ele>224</ele>
        <time>2020-10-18T13:00:29Z</time>
      </trkpt>
      <trkpt lat="47.64496" lon="6.18127">
        <ele>224</ele>
        <time>2020-10-18T13:00:29Z</time>
      </trkpt>
      <trkpt lat="47.64497" lon="6.18118">
        <ele>224</ele>
        <time>2020-10-18T13:00:31Z</time>
      </trkpt>
      <trkpt lat="47.64499" lon="6.18109">
        <ele>223</ele>
        <time>2020-10-18T13:00:34Z</time>
      </trkpt>
      <trkpt lat="47.64501" lon="6.181">
        <ele>227</ele>
        <time>2020-10-18T13:00:36Z</time>
      </trkpt>
      <trkpt lat="47.64502" lon="6.18092">
        <ele>226</ele>
        <time>2020-10-18T13:00:38Z</time>
      </trkpt>
      <trkpt lat="47.64504" lon="6.18086">
        <ele>225</ele>
        <time>2020-10-18T13:00:40Z</time>
      </trkpt>
      <trkpt lat="47.64506" lon="6.18076">
        <ele>225</ele>
        <time>2020-10-18T13:00:42Z</time>
      </trkpt>
      <trkpt lat="47.64509" lon="6.18068">
        <ele>226</ele>
        <time>2020-10-18T13:00:44Z</time>
      </trkpt>
      <trkpt lat="47.6451" lon="6.18062">
        <ele>227</ele>
        <time>2020-10-18T13:00:44Z</time>
      </trkpt>
      <trkpt lat="47.6451" lon="6.18054">
        <ele>227</ele>
        <time>2020-10-18T13:00:47Z</time>
      </trkpt>
      <trkpt lat="47.64506" lon="6.18049">
        <ele>227</ele>
        <time>2020-10-18T13:00:49Z</time>
      </trkpt>
      <trkpt lat="47.64502" lon="6.18046">
        <ele>227</ele>
        <time>2020-10-18T13:00:50Z</time>
      </trkpt>
      <trkpt lat="47.64495" lon="6.18044">
        <ele>223</ele>
        <time>2020-10-18T13:00:52Z</time>
      </trkpt>
      <trkpt lat="47.64488" lon="6.18041">
        <ele>223</ele>
        <time>2020-10-18T13:00:54Z</time>
      </trkpt>
      <trkpt lat="47.64483" lon="6.18038">
        <ele>223</ele>
        <time>2020-10-18T13:00:55Z</time>
      </trkpt>
      <trkpt lat="47.64478" lon="6.18035">
        <ele>223</ele>
        <time>2020-10-18T13:00:56Z</time>
      </trkpt>
      <trkpt lat="47.64474" lon="6.18031">
        <ele>223</ele>
        <time>2020-10-18T13:00:56Z</time>
      </trkpt>
      <trkpt lat="47.64468" lon="6.18027">
        <ele>223</ele>
        <time>2020-10-18T13:00:59Z</time>
      </trkpt>
      <trkpt lat="47.64462" lon="6.1802">
        <ele>223</ele>
        <time>2020-10-18T13:00:59Z</time>
      </trkpt>
      <trkpt lat="47.64456" lon="6.18013">
        <ele>223</ele>
        <time>2020-10-18T13:01:02Z</time>
      </trkpt>
      <trkpt lat="47.64453" lon="6.18008">
        <ele>223</ele>
        <time>2020-10-18T13:01:03Z</time>
      </trkpt>
      <trkpt lat="47.64448" lon="6.18">
        <ele>223</ele>
        <time>2020-10-18T13:01:04Z</time>
      </trkpt>
      <trkpt lat="47.64445" lon="6.17994">
        <ele>222</ele>
        <time>2020-10-18T13:01:04Z</time>
      </trkpt>
      <trkpt lat="47.64442" lon="6.17987">
        <ele>222</ele>
        <time>2020-10-18T13:01:07Z</time>
      </trkpt>
      <trkpt lat="47.64438" lon="6.1798">
        <ele>222</ele>
        <time>2020-10-18T13:01:07Z</time>
      </trkpt>
      <trkpt lat="47.64435" lon="6.17973">
        <ele>222</ele>
        <time>2020-10-18T13:01:10Z</time>
      </trkpt>
      <trkpt lat="47.64432" lon="6.17966">
        <ele>222</ele>
        <time>2020-10-18T13:01:12Z</time>
      </trkpt>
      <trkpt lat="47.64428" lon="6.17956">
        <ele>222</ele>
        <time>2020-10-18T13:01:13Z</time>
      </trkpt>
      <trkpt lat="47.64425" lon="6.17951">
        <ele>222</ele>
        <time>2020-10-18T13:01:16Z</time>
      </trkpt>
      <trkpt lat="47.64419" lon="6.1794">
        <ele>222</ele>
        <time>2020-10-18T13:01:17Z</time>
      </trkpt>
      <trkpt lat="47.64415" lon="6.17933">
        <ele>221</ele>
        <time>2020-10-18T13:01:20Z</time>
      </trkpt>
      <trkpt lat="47.64412" lon="6.17928">
        <ele>221</ele>
        <time>2020-10-18T13:01:20Z</time>
      </trkpt>
      <trkpt lat="47.64408" lon="6.17919">
        <ele>221</ele>
        <time>2020-10-18T13:01:23Z</time>
      </trkpt>
      <trkpt lat="47.64405" lon="6.17912">
        <ele>221</ele>
        <time>2020-10-18T13:01:25Z</time>
      </trkpt>
      <trkpt lat="47.64401" lon="6.17904">
        <ele>221</ele>
        <time>2020-10-18T13:01:25Z</time>
      </trkpt>
      <trkpt lat="47.64397" lon="6.17896">
        <ele>221</ele>
        <time>2020-10-18T13:01:28Z</time>
      </trkpt>
      <trkpt lat="47.64393" lon="6.17889">
        <ele>220</ele>
        <time>2020-10-18T13:01:29Z</time>
      </trkpt>
      <trkpt lat="47.64388" lon="6.17882">
        <ele>220</ele>
        <time>2020-10-18T13:01:31Z</time>
      </trkpt>
      <trkpt lat="47.64384" lon="6.17875">
        <ele>220</ele>
        <time>2020-10-18T13:01:31Z</time>
      </trkpt>
      <trkpt lat="47.64378" lon="6.17868">
        <ele>220</ele>
        <time>2020-10-18T13:01:34Z</time>
      </trkpt>
      <trkpt lat="47.64374" lon="6.17862">
        <ele>220</ele>
        <time>2020-10-18T13:01:34Z</time>
      </trkpt>
      <trkpt lat="47.64369" lon="6.17856">
        <ele>220</ele>
        <time>2020-10-18T13:01:37Z</time>
      </trkpt>
      <trkpt lat="47.64365" lon="6.17852">
        <ele>220</ele>
        <time>2020-10-18T13:01:38Z</time>
      </trkpt>
      <trkpt lat="47.64361" lon="6.17847">
        <ele>220</ele>
        <time>2020-10-18T13:01:39Z</time>
      </trkpt>
      <trkpt lat="47.64357" lon="6.17842">
        <ele>220</ele>
        <time>2020-10-18T13:01:40Z</time>
      </trkpt>
      <trkpt lat="47.64351" lon="6.17836">
        <ele>220</ele>
        <time>2020-10-18T13:01:42Z</time>
      </trkpt>
      <trkpt lat="47.64347" lon="6.17831">
        <ele>220</ele>
        <time>2020-10-18T13:01:42Z</time>
      </trkpt>
      <trkpt lat="47.64344" lon="6.1782">
        <ele>220</ele>
        <time>2020-10-18T13:01:44Z</time>
      </trkpt>
      <trkpt lat="47.6434" lon="6.17811">
        <ele>220</ele>
        <time>2020-10-18T13:01:46Z</time>
      </trkpt>
      <trkpt lat="47.64333" lon="6.17807">
        <ele>219</ele>
        <time>2020-10-18T13:01:49Z</time>
      </trkpt>
      <trkpt lat="47.64323" lon="6.178">
        <ele>219</ele>
        <time>2020-10-18T13:01:51Z</time>
      </trkpt>
      <trkpt lat="47.64319" lon="6.17797">
        <ele>219</ele>
        <time>2020-10-18T13:01:51Z</time>
      </trkpt>
      <trkpt lat="47.64311" lon="6.17792">
        <ele>219</ele>
        <time>2020-10-18T13:01:53Z</time>
      </trkpt>
      <trkpt lat="47.64304" lon="6.17788">
        <ele>219</ele>
        <time>2020-10-18T13:01:56Z</time>
      </trkpt>
      <trkpt lat="47.64297" lon="6.17786">
        <ele>219</ele>
        <time>2020-10-18T13:01:56Z</time>
      </trkpt>
      <trkpt lat="47.64289" lon="6.17781">
        <ele>219</ele>
        <time>2020-10-18T13:01:58Z</time>
      </trkpt>
      <trkpt lat="47.64281" lon="6.17777">
        <ele>219</ele>
        <time>2020-10-18T13:02:00Z</time>
      </trkpt>
      <trkpt lat="47.64275" lon="6.17773">
        <ele>218</ele>
        <time>2020-10-18T13:02:03Z</time>
      </trkpt>
      <trkpt lat="47.64269" lon="6.17769">
        <ele>218</ele>
        <time>2020-10-18T13:02:03Z</time>
      </trkpt>
      <trkpt lat="47.64263" lon="6.17765">
        <ele>218</ele>
        <time>2020-10-18T13:02:06Z</time>
      </trkpt>
      <trkpt lat="47.64254" lon="6.1776">
        <ele>218</ele>
        <time>2020-10-18T13:02:07Z</time>
      </trkpt>
      <trkpt lat="47.64247" lon="6.17755">
        <ele>217</ele>
        <time>2020-10-18T13:02:10Z</time>
      </trkpt>
      <trkpt lat="47.64241" lon="6.1775">
        <ele>217</ele>
        <time>2020-10-18T13:02:12Z</time>
      </trkpt>
      <trkpt lat="47.64235" lon="6.17745">
        <ele>217</ele>
        <time>2020-10-18T13:02:12Z</time>
      </trkpt>
      <trkpt lat="47.6423" lon="6.17739">
        <ele>217</ele>
        <time>2020-10-18T13:02:15Z</time>
      </trkpt>
      <trkpt lat="47.64224" lon="6.17733">
        <ele>217</ele>
        <time>2020-10-18T13:02:15Z</time>
      </trkpt>
      <trkpt lat="47.64218" lon="6.17726">
        <ele>217</ele>
        <time>2020-10-18T13:02:18Z</time>
      </trkpt>
      <trkpt lat="47.64211" lon="6.17717">
        <ele>217</ele>
        <time>2020-10-18T13:02:19Z</time>
      </trkpt>
      <trkpt lat="47.64204" lon="6.17709">
        <ele>217</ele>
        <time>2020-10-18T13:02:21Z</time>
      </trkpt>
      <trkpt lat="47.64199" lon="6.17703">
        <ele>217</ele>
        <time>2020-10-18T13:02:24Z</time>
      </trkpt>
      <trkpt lat="47.64195" lon="6.17697">
        <ele>218</ele>
        <time>2020-10-18T13:02:25Z</time>
      </trkpt>
      <trkpt lat="47.64191" lon="6.17692">
        <ele>218</ele>
        <time>2020-10-18T13:02:25Z</time>
      </trkpt>
      <trkpt lat="47.64185" lon="6.17684">
        <ele>218</ele>
        <time>2020-10-18T13:02:28Z</time>
      </trkpt>
      <trkpt lat="47.64181" lon="6.1768">
        <ele>218</ele>
        <time>2020-10-18T13:02:28Z</time>
      </trkpt>
      <trkpt lat="47.64177" lon="6.17674">
        <ele>218</ele>
        <time>2020-10-18T13:02:31Z</time>
      </trkpt>
      <trkpt lat="47.64173" lon="6.17669">
        <ele>218</ele>
        <time>2020-10-18T13:02:32Z</time>
      </trkpt>
      <trkpt lat="47.6417" lon="6.17664">
        <ele>218</ele>
        <time>2020-10-18T13:02:33Z</time>
      </trkpt>
      <trkpt lat="47.64166" lon="6.17658">
        <ele>218</ele>
        <time>2020-10-18T13:02:34Z</time>
      </trkpt>
      <trkpt lat="47.64163" lon="6.17653">
        <ele>218</ele>
        <time>2020-10-18T13:02:34Z</time>
      </trkpt>
      <trkpt lat="47.64157" lon="6.17646">
        <ele>218</ele>
        <time>2020-10-18T13:02:37Z</time>
      </trkpt>
      <trkpt lat="47.64154" lon="6.17642">
        <ele>218</ele>
        <time>2020-10-18T13:02:38Z</time>
      </trkpt>
      <trkpt lat="47.6415" lon="6.17637">
        <ele>218</ele>
        <time>2020-10-18T13:02:40Z</time>
      </trkpt>
      <trkpt lat="47.64145" lon="6.17629">
        <ele>218</ele>
        <time>2020-10-18T13:02:40Z</time>
      </trkpt>
      <trkpt lat="47.6414" lon="6.17622">
        <ele>217</ele>
        <time>2020-10-18T13:02:43Z</time>
      </trkpt>
      <trkpt lat="47.64136" lon="6.17616">
        <ele>217</ele>
        <time>2020-10-18T13:02:44Z</time>
      </trkpt>
      <trkpt lat="47.64132" lon="6.17611">
        <ele>217</ele>
        <time>2020-10-18T13:02:44Z</time>
      </trkpt>
      <trkpt lat="47.64127" lon="6.17605">
        <ele>217</ele>
        <time>2020-10-18T13:02:47Z</time>
      </trkpt>
      <trkpt lat="47.64123" lon="6.17599">
        <ele>217</ele>
        <time>2020-10-18T13:02:48Z</time>
      </trkpt>
      <trkpt lat="47.64119" lon="6.17594">
        <ele>217</ele>
        <time>2020-10-18T13:02:49Z</time>
      </trkpt>
      <trkpt lat="47.64113" lon="6.17584">
        <ele>217</ele>
        <time>2020-10-18T13:02:51Z</time>
      </trkpt>
      <trkpt lat="47.64109" lon="6.17579">
        <ele>217</ele>
        <time>2020-10-18T13:02:51Z</time>
      </trkpt>
      <trkpt lat="47.64105" lon="6.17572">
        <ele>217</ele>
        <time>2020-10-18T13:02:54Z</time>
      </trkpt>
      <trkpt lat="47.64102" lon="6.17567">
        <ele>217</ele>
        <time>2020-10-18T13:02:55Z</time>
      </trkpt>
      <trkpt lat="47.64098" lon="6.17563">
        <ele>217</ele>
        <time>2020-10-18T13:02:56Z</time>
      </trkpt>
      <trkpt lat="47.64093" lon="6.17556">
        <ele>217</ele>
        <time>2020-10-18T13:02:56Z</time>
      </trkpt>
      <trkpt lat="47.64089" lon="6.17549">
        <ele>217</ele>
        <time>2020-10-18T13:02:59Z</time>
      </trkpt>
      <trkpt lat="47.64085" lon="6.17543">
        <ele>217</ele>
        <time>2020-10-18T13:03:00Z</time>
      </trkpt>
      <trkpt lat="47.64081" lon="6.17539">
        <ele>217</ele>
        <time>2020-10-18T13:03:00Z</time>
      </trkpt>
      <trkpt lat="47.64075" lon="6.17531">
        <ele>217</ele>
        <time>2020-10-18T13:03:02Z</time>
      </trkpt>
      <trkpt lat="47.6407" lon="6.17524">
        <ele>217</ele>
        <time>2020-10-18T13:03:05Z</time>
      </trkpt>
      <trkpt lat="47.64066" lon="6.17517">
        <ele>217</ele>
        <time>2020-10-18T13:03:05Z</time>
      </trkpt>
      <trkpt lat="47.6406" lon="6.1751">
        <ele>217</ele>
        <time>2020-10-18T13:03:08Z</time>
      </trkpt>
      <trkpt lat="47.64054" lon="6.17501">
        <ele>217</ele>
        <time>2020-10-18T13:03:10Z</time>
      </trkpt>
      <trkpt lat="47.64048" lon="6.17493">
        <ele>218</ele>
        <time>2020-10-18T13:03:11Z</time>
      </trkpt>
      <trkpt lat="47.64042" lon="6.17484">
        <ele>218</ele>
        <time>2020-10-18T13:03:13Z</time>
      </trkpt>
      <trkpt lat="47.64036" lon="6.17475">
        <ele>218</ele>
        <time>2020-10-18T13:03:15Z</time>
      </trkpt>
      <trkpt lat="47.6403" lon="6.17465">
        <ele>218</ele>
        <time>2020-10-18T13:03:17Z</time>
      </trkpt>
      <trkpt lat="47.64025" lon="6.17457">
        <ele>218</ele>
        <time>2020-10-18T13:03:19Z</time>
      </trkpt>
      <trkpt lat="47.64019" lon="6.17449">
        <ele>218</ele>
        <time>2020-10-18T13:03:22Z</time>
      </trkpt>
      <trkpt lat="47.64013" lon="6.1744">
        <ele>218</ele>
        <time>2020-10-18T13:03:23Z</time>
      </trkpt>
      <trkpt lat="47.64007" lon="6.17432">
        <ele>219</ele>
        <time>2020-10-18T13:03:25Z</time>
      </trkpt>
      <trkpt lat="47.64001" lon="6.17431">
        <ele>219</ele>
        <time>2020-10-18T13:03:28Z</time>
      </trkpt>
      <trkpt lat="47.63996" lon="6.17424">
        <ele>219</ele>
        <time>2020-10-18T13:03:29Z</time>
      </trkpt>
      <trkpt lat="47.63997" lon="6.17414">
        <ele>219</ele>
        <time>2020-10-18T13:03:33Z</time>
      </trkpt>
      <trkpt lat="47.64003" lon="6.17407">
        <ele>219</ele>
        <time>2020-10-18T13:03:34Z</time>
      </trkpt>
      <trkpt lat="47.64008" lon="6.17403">
        <ele>219</ele>
        <time>2020-10-18T13:03:37Z</time>
      </trkpt>
      <trkpt lat="47.64014" lon="6.17399">
        <ele>219</ele>
        <time>2020-10-18T13:03:39Z</time>
      </trkpt>
      <trkpt lat="47.64019" lon="6.17397">
        <ele>219</ele>
        <time>2020-10-18T13:03:39Z</time>
      </trkpt>
      <trkpt lat="47.64023" lon="6.17394">
        <ele>219</ele>
        <time>2020-10-18T13:03:42Z</time>
      </trkpt>
      <trkpt lat="47.64029" lon="6.1739">
        <ele>219</ele>
        <time>2020-10-18T13:03:44Z</time>
      </trkpt>
      <trkpt lat="47.64033" lon="6.17387">
        <ele>219</ele>
        <time>2020-10-18T13:03:45Z</time>
      </trkpt>
      <trkpt lat="47.64039" lon="6.17383">
        <ele>219</ele>
        <time>2020-10-18T13:03:47Z</time>
      </trkpt>
      <trkpt lat="47.64045" lon="6.17379">
        <ele>219</ele>
        <time>2020-10-18T13:03:49Z</time>
      </trkpt>
      <trkpt lat="47.64051" lon="6.17375">
        <ele>219</ele>
        <time>2020-10-18T13:03:50Z</time>
      </trkpt>
      <trkpt lat="47.64056" lon="6.1737">
        <ele>219</ele>
        <time>2020-10-18T13:03:52Z</time>
      </trkpt>
      <trkpt lat="47.64061" lon="6.17366">
        <ele>219</ele>
        <time>2020-10-18T13:03:55Z</time>
      </trkpt>
      <trkpt lat="47.64066" lon="6.17361">
        <ele>220</ele>
        <time>2020-10-18T13:03:56Z</time>
      </trkpt>
      <trkpt lat="47.64071" lon="6.17356">
        <ele>220</ele>
        <time>2020-10-18T13:03:59Z</time>
      </trkpt>
      <trkpt lat="47.64075" lon="6.17351">
        <ele>220</ele>
        <time>2020-10-18T13:04:01Z</time>
      </trkpt>
      <trkpt lat="47.6408" lon="6.17345">
        <ele>220</ele>
        <time>2020-10-18T13:04:03Z</time>
      </trkpt>
      <trkpt lat="47.64084" lon="6.1734">
        <ele>220</ele>
        <time>2020-10-18T13:04:05Z</time>
      </trkpt>
      <trkpt lat="47.64089" lon="6.17332">
        <ele>220</ele>
        <time>2020-10-18T13:04:06Z</time>
      </trkpt>
      <trkpt lat="47.64093" lon="6.17326">
        <ele>220</ele>
        <time>2020-10-18T13:04:08Z</time>
      </trkpt>
      <trkpt lat="47.64096" lon="6.17319">
        <ele>221</ele>
        <time>2020-10-18T13:04:10Z</time>
      </trkpt>
      <trkpt lat="47.64099" lon="6.17313">
        <ele>221</ele>
        <time>2020-10-18T13:04:13Z</time>
      </trkpt>
      <trkpt lat="47.64103" lon="6.17308">
        <ele>221</ele>
        <time>2020-10-18T13:04:15Z</time>
      </trkpt>
      <trkpt lat="47.64107" lon="6.17303">
        <ele>221</ele>
        <time>2020-10-18T13:04:17Z</time>
      </trkpt>
      <trkpt lat="47.64111" lon="6.17294">
        <ele>221</ele>
        <time>2020-10-18T13:04:19Z</time>
      </trkpt>
      <trkpt lat="47.64115" lon="6.17287">
        <ele>221</ele>
        <time>2020-10-18T13:04:20Z</time>
      </trkpt>
      <trkpt lat="47.64118" lon="6.17281">
        <ele>222</ele>
        <time>2020-10-18T13:04:23Z</time>
      </trkpt>
      <trkpt lat="47.64122" lon="6.17274">
        <ele>222</ele>
        <time>2020-10-18T13:04:24Z</time>
      </trkpt>
      <trkpt lat="47.64125" lon="6.17267">
        <ele>222</ele>
        <time>2020-10-18T13:04:27Z</time>
      </trkpt>
      <trkpt lat="47.6413" lon="6.17257">
        <ele>222</ele>
        <time>2020-10-18T13:04:29Z</time>
      </trkpt>
      <trkpt lat="47.64134" lon="6.17251">
        <ele>222</ele>
        <time>2020-10-18T13:04:31Z</time>
      </trkpt>
      <trkpt lat="47.64137" lon="6.17245">
        <ele>223</ele>
        <time>2020-10-18T13:04:33Z</time>
      </trkpt>
      <trkpt lat="47.6414" lon="6.1724">
        <ele>223</ele>
        <time>2020-10-18T13:04:36Z</time>
      </trkpt>
      <trkpt lat="47.64145" lon="6.17232">
        <ele>223</ele>
        <time>2020-10-18T13:04:37Z</time>
      </trkpt>
      <trkpt lat="47.64149" lon="6.17226">
        <ele>223</ele>
        <time>2020-10-18T13:04:39Z</time>
      </trkpt>
      <trkpt lat="47.64155" lon="6.17221">
        <ele>223</ele>
        <time>2020-10-18T13:04:43Z</time>
      </trkpt>
      <trkpt lat="47.6416" lon="6.17216">
        <ele>223</ele>
        <time>2020-10-18T13:04:45Z</time>
      </trkpt>
      <trkpt lat="47.64166" lon="6.1721">
        <ele>223</ele>
        <time>2020-10-18T13:04:47Z</time>
      </trkpt>
      <trkpt lat="47.64171" lon="6.17206">
        <ele>223</ele>
        <time>2020-10-18T13:04:49Z</time>
      </trkpt>
      <trkpt lat="47.64176" lon="6.17202">
        <ele>223</ele>
        <time>2020-10-18T13:04:51Z</time>
      </trkpt>
      <trkpt lat="47.64181" lon="6.17197">
        <ele>223</ele>
        <time>2020-10-18T13:04:53Z</time>
      </trkpt>
      <trkpt lat="47.64186" lon="6.17194">
        <ele>223</ele>
        <time>2020-10-18T13:04:55Z</time>
      </trkpt>
      <trkpt lat="47.64192" lon="6.17189">
        <ele>223</ele>
        <time>2020-10-18T13:04:57Z</time>
      </trkpt>
      <trkpt lat="47.64196" lon="6.17185">
        <ele>223</ele>
        <time>2020-10-18T13:05:00Z</time>
      </trkpt>
      <trkpt lat="47.64201" lon="6.17181">
        <ele>223</ele>
        <time>2020-10-18T13:05:02Z</time>
      </trkpt>
      <trkpt lat="47.64205" lon="6.17177">
        <ele>223</ele>
        <time>2020-10-18T13:05:04Z</time>
      </trkpt>
      <trkpt lat="47.64212" lon="6.17172">
        <ele>223</ele>
        <time>2020-10-18T13:05:06Z</time>
      </trkpt>
      <trkpt lat="47.64217" lon="6.17167">
        <ele>223</ele>
        <time>2020-10-18T13:05:08Z</time>
      </trkpt>
      <trkpt lat="47.64222" lon="6.17163">
        <ele>225</ele>
        <time>2020-10-18T13:05:10Z</time>
      </trkpt>
      <trkpt lat="47.64226" lon="6.17159">
        <ele>225</ele>
        <time>2020-10-18T13:05:11Z</time>
      </trkpt>
      <trkpt lat="47.64231" lon="6.17155">
        <ele>225</ele>
        <time>2020-10-18T13:05:13Z</time>
      </trkpt>
      <trkpt lat="47.64235" lon="6.1715">
        <ele>225</ele>
        <time>2020-10-18T13:05:15Z</time>
      </trkpt>
      <trkpt lat="47.64239" lon="6.17145">
        <ele>225</ele>
        <time>2020-10-18T13:05:17Z</time>
      </trkpt>
      <trkpt lat="47.64242" lon="6.1714">
        <ele>225</ele>
        <time>2020-10-18T13:05:19Z</time>
      </trkpt>
      <trkpt lat="47.64248" lon="6.17132">
        <ele>225</ele>
        <time>2020-10-18T13:05:22Z</time>
      </trkpt>
      <trkpt lat="47.64254" lon="6.17128">
        <ele>224</ele>
        <time>2020-10-18T13:05:24Z</time>
      </trkpt>
      <trkpt lat="47.64259" lon="6.17125">
        <ele>224</ele>
        <time>2020-10-18T13:05:26Z</time>
      </trkpt>
      <trkpt lat="47.64265" lon="6.17121">
        <ele>224</ele>
        <time>2020-10-18T13:05:28Z</time>
      </trkpt>
      <trkpt lat="47.64271" lon="6.17118">
        <ele>224</ele>
        <time>2020-10-18T13:05:30Z</time>
      </trkpt>
      <trkpt lat="47.64276" lon="6.17116">
        <ele>224</ele>
        <time>2020-10-18T13:05:32Z</time>
      </trkpt>
      <trkpt lat="47.64281" lon="6.17111">
        <ele>224</ele>
        <time>2020-10-18T13:05:34Z</time>
      </trkpt>
      <trkpt lat="47.64288" lon="6.17104">
        <ele>224</ele>
        <time>2020-10-18T13:05:36Z</time>
      </trkpt>
      <trkpt lat="47.64294" lon="6.17098">
        <ele>224</ele>
        <time>2020-10-18T13:05:38Z</time>
      </trkpt>
      <trkpt lat="47.64299" lon="6.17094">
        <ele>224</ele>
        <time>2020-10-18T13:05:40Z</time>
      </trkpt>
      <trkpt lat="47.64305" lon="6.17089">
        <ele>224</ele>
        <time>2020-10-18T13:05:42Z</time>
      </trkpt>
      <trkpt lat="47.6431" lon="6.17085">
        <ele>224</ele>
        <time>2020-10-18T13:05:44Z</time>
      </trkpt>
      <trkpt lat="47.64315" lon="6.1708">
        <ele>225</ele>
        <time>2020-10-18T13:05:46Z</time>
      </trkpt>
      <trkpt lat="47.64321" lon="6.17074">
        <ele>225</ele>
        <time>2020-10-18T13:05:48Z</time>
      </trkpt>
      <trkpt lat="47.64326" lon="6.17069">
        <ele>225</ele>
        <time>2020-10-18T13:05:50Z</time>
      </trkpt>
      <trkpt lat="47.64331" lon="6.17064">
        <ele>225</ele>
        <time>2020-10-18T13:05:52Z</time>
      </trkpt>
      <trkpt lat="47.64336" lon="6.17059">
        <ele>224</ele>
        <time>2020-10-18T13:05:54Z</time>
      </trkpt>
      <trkpt lat="47.64339" lon="6.17055">
        <ele>224</ele>
        <time>2020-10-18T13:05:56Z</time>
      </trkpt>
      <trkpt lat="47.64344" lon="6.17049">
        <ele>224</ele>
        <time>2020-10-18T13:05:58Z</time>
      </trkpt>
      <trkpt lat="47.64349" lon="6.17045">
        <ele>224</ele>
        <time>2020-10-18T13:06:01Z</time>
      </trkpt>
      <trkpt lat="47.64355" lon="6.17043">
        <ele>224</ele>
        <time>2020-10-18T13:06:03Z</time>
      </trkpt>
      <trkpt lat="47.6436" lon="6.1704">
        <ele>224</ele>
        <time>2020-10-18T13:06:05Z</time>
      </trkpt>
      <trkpt lat="47.64364" lon="6.17037">
        <ele>224</ele>
        <time>2020-10-18T13:06:07Z</time>
      </trkpt>
      <trkpt lat="47.64371" lon="6.17031">
        <ele>224</ele>
        <time>2020-10-18T13:06:09Z</time>
      </trkpt>
      <trkpt lat="47.64376" lon="6.17025">
        <ele>224</ele>
        <time>2020-10-18T13:06:11Z</time>
      </trkpt>
      <trkpt lat="47.64382" lon="6.1702">
        <ele>224</ele>
        <time>2020-10-18T13:06:13Z</time>
      </trkpt>
      <trkpt lat="47.64387" lon="6.17014">
        <ele>224</ele>
        <time>2020-10-18T13:06:15Z</time>
      </trkpt>
      <trkpt lat="47.64391" lon="6.17009">
        <ele>224</ele>
        <time>2020-10-18T13:06:17Z</time>
      </trkpt>
      <trkpt lat="47.64396" lon="6.17002">
        <ele>225</ele>
        <time>2020-10-18T13:06:19Z</time>
      </trkpt>
      <trkpt lat="47.64402" lon="6.16995">
        <ele>226</ele>
        <time>2020-10-18T13:06:21Z</time>
      </trkpt>
      <trkpt lat="47.64406" lon="6.16988">
        <ele>226</ele>
        <time>2020-10-18T13:06:23Z</time>
      </trkpt>
      <trkpt lat="47.64411" lon="6.16981">
        <ele>226</ele>
        <time>2020-10-18T13:06:25Z</time>
      </trkpt>
      <trkpt lat="47.64415" lon="6.16976">
        <ele>226</ele>
        <time>2020-10-18T13:06:27Z</time>
      </trkpt>
      <trkpt lat="47.64419" lon="6.1697">
        <ele>226</ele>
        <time>2020-10-18T13:06:29Z</time>
      </trkpt>
      <trkpt lat="47.64424" lon="6.16963">
        <ele>226</ele>
        <time>2020-10-18T13:06:31Z</time>
      </trkpt>
      <trkpt lat="47.64429" lon="6.16955">
        <ele>226</ele>
        <time>2020-10-18T13:06:33Z</time>
      </trkpt>
      <trkpt lat="47.64433" lon="6.16949">
        <ele>226</ele>
        <time>2020-10-18T13:06:35Z</time>
      </trkpt>
      <trkpt lat="47.64437" lon="6.16942">
        <ele>226</ele>
        <time>2020-10-18T13:06:37Z</time>
      </trkpt>
      <trkpt lat="47.64441" lon="6.16937">
        <ele>226</ele>
        <time>2020-10-18T13:06:39Z</time>
      </trkpt>
      <trkpt lat="47.64444" lon="6.16932">
        <ele>226</ele>
        <time>2020-10-18T13:06:40Z</time>
      </trkpt>
      <trkpt lat="47.64449" lon="6.16925">
        <ele>226</ele>
        <time>2020-10-18T13:06:42Z</time>
      </trkpt>
      <trkpt lat="47.64453" lon="6.16919">
        <ele>226</ele>
        <time>2020-10-18T13:06:44Z</time>
      </trkpt>
      <trkpt lat="47.64457" lon="6.16913">
        <ele>227</ele>
        <time>2020-10-18T13:06:46Z</time>
      </trkpt>
      <trkpt lat="47.64461" lon="6.16906">
        <ele>227</ele>
        <time>2020-10-18T13:06:48Z</time>
      </trkpt>
      <trkpt lat="47.64466" lon="6.16899">
        <ele>227</ele>
        <time>2020-10-18T13:06:50Z</time>
      </trkpt>
      <trkpt lat="47.6447" lon="6.16893">
        <ele>227</ele>
        <time>2020-10-18T13:06:52Z</time>
      </trkpt>
      <trkpt lat="47.64474" lon="6.16885">
        <ele>227</ele>
        <time>2020-10-18T13:06:54Z</time>
      </trkpt>
      <trkpt lat="47.64475" lon="6.16876">
        <ele>227</ele>
        <time>2020-10-18T13:06:56Z</time>
      </trkpt>
      <trkpt lat="47.64475" lon="6.16868">
        <ele>228</ele>
        <time>2020-10-18T13:06:58Z</time>
      </trkpt>
      <trkpt lat="47.64472" lon="6.16861">
        <ele>228</ele>
        <time>2020-10-18T13:07:00Z</time>
      </trkpt>
      <trkpt lat="47.64466" lon="6.16852">
        <ele>228</ele>
        <time>2020-10-18T13:07:02Z</time>
      </trkpt>
      <trkpt lat="47.64462" lon="6.16848">
        <ele>228</ele>
        <time>2020-10-18T13:07:04Z</time>
      </trkpt>
      <trkpt lat="47.64455" lon="6.16842">
        <ele>228</ele>
        <time>2020-10-18T13:07:06Z</time>
      </trkpt>
      <trkpt lat="47.64448" lon="6.16838">
        <ele>228</ele>
        <time>2020-10-18T13:07:08Z</time>
      </trkpt>
      <trkpt lat="47.64443" lon="6.16835">
        <ele>228</ele>
        <time>2020-10-18T13:07:10Z</time>
      </trkpt>
      <trkpt lat="47.64439" lon="6.16832">
        <ele>229</ele>
        <time>2020-10-18T13:07:11Z</time>
      </trkpt>
      <trkpt lat="47.64435" lon="6.16828">
        <ele>229</ele>
        <time>2020-10-18T13:07:13Z</time>
      </trkpt>
      <trkpt lat="47.64429" lon="6.16824">
        <ele>229</ele>
        <time>2020-10-18T13:07:15Z</time>
      </trkpt>
      <trkpt lat="47.64425" lon="6.16821">
        <ele>229</ele>
        <time>2020-10-18T13:07:17Z</time>
      </trkpt>
      <trkpt lat="47.6442" lon="6.16818">
        <ele>229</ele>
        <time>2020-10-18T13:07:19Z</time>
      </trkpt>
      <trkpt lat="47.64414" lon="6.16814">
        <ele>230</ele>
        <time>2020-10-18T13:07:21Z</time>
      </trkpt>
      <trkpt lat="47.64407" lon="6.1681">
        <ele>231</ele>
        <time>2020-10-18T13:07:24Z</time>
      </trkpt>
      <trkpt lat="47.64402" lon="6.16806">
        <ele>231</ele>
        <time>2020-10-18T13:07:26Z</time>
      </trkpt>
      <trkpt lat="47.64397" lon="6.16803">
        <ele>231</ele>
        <time>2020-10-18T13:07:28Z</time>
      </trkpt>
      <trkpt lat="47.6439" lon="6.16799">
        <ele>231</ele>
        <time>2020-10-18T13:07:31Z</time>
      </trkpt>
      <trkpt lat="47.64384" lon="6.16793">
        <ele>232</ele>
        <time>2020-10-18T13:07:33Z</time>
      </trkpt>
      <trkpt lat="47.6438" lon="6.16789">
        <ele>232</ele>
        <time>2020-10-18T13:07:35Z</time>
      </trkpt>
      <trkpt lat="47.64375" lon="6.16787">
        <ele>232</ele>
        <time>2020-10-18T13:07:37Z</time>
      </trkpt>
      <trkpt lat="47.6437" lon="6.16782">
        <ele>232</ele>
        <time>2020-10-18T13:07:40Z</time>
      </trkpt>
      <trkpt lat="47.64365" lon="6.16779">
        <ele>232</ele>
        <time>2020-10-18T13:07:43Z</time>
      </trkpt>
      <trkpt lat="47.64359" lon="6.16776">
        <ele>233</ele>
        <time>2020-10-18T13:07:46Z</time>
      </trkpt>
      <trkpt lat="47.64355" lon="6.16772">
        <ele>233</ele>
        <time>2020-10-18T13:07:49Z</time>
      </trkpt>
      <trkpt lat="47.64351" lon="6.16767">
        <ele>233</ele>
        <time>2020-10-18T13:07:52Z</time>
      </trkpt>
      <trkpt lat="47.64347" lon="6.16764">
        <ele>233</ele>
        <time>2020-10-18T13:07:55Z</time>
      </trkpt>
      <trkpt lat="47.64341" lon="6.16764">
        <ele>234</ele>
        <time>2020-10-18T13:07:58Z</time>
      </trkpt>
      <trkpt lat="47.64336" lon="6.16761">
        <ele>234</ele>
        <time>2020-10-18T13:08:01Z</time>
      </trkpt>
      <trkpt lat="47.64332" lon="6.16757">
        <ele>235</ele>
        <time>2020-10-18T13:08:04Z</time>
      </trkpt>
      <trkpt lat="47.64328" lon="6.16753">
        <ele>235</ele>
        <time>2020-10-18T13:08:06Z</time>
      </trkpt>
      <trkpt lat="47.64323" lon="6.16748">
        <ele>236</ele>
        <time>2020-10-18T13:08:09Z</time>
      </trkpt>
      <trkpt lat="47.64318" lon="6.16744">
        <ele>236</ele>
        <time>2020-10-18T13:08:11Z</time>
      </trkpt>
      <trkpt lat="47.64313" lon="6.16739">
        <ele>236</ele>
        <time>2020-10-18T13:08:14Z</time>
      </trkpt>
      <trkpt lat="47.64309" lon="6.16735">
        <ele>237</ele>
        <time>2020-10-18T13:08:16Z</time>
      </trkpt>
      <trkpt lat="47.64304" lon="6.16731">
        <ele>237</ele>
        <time>2020-10-18T13:08:18Z</time>
      </trkpt>
      <trkpt lat="47.64299" lon="6.16726">
        <ele>237</ele>
        <time>2020-10-18T13:08:21Z</time>
      </trkpt>
      <trkpt lat="47.64294" lon="6.16723">
        <ele>237</ele>
        <time>2020-10-18T13:08:24Z</time>
      </trkpt>
      <trkpt lat="47.6429" lon="6.16719">
        <ele>237</ele>
        <time>2020-10-18T13:08:26Z</time>
      </trkpt>
      <trkpt lat="47.64285" lon="6.16715">
        <ele>237</ele>
        <time>2020-10-18T13:08:28Z</time>
      </trkpt>
      <trkpt lat="47.64279" lon="6.1671">
        <ele>238</ele>
        <time>2020-10-18T13:08:30Z</time>
      </trkpt>
      <trkpt lat="47.64274" lon="6.16706">
        <ele>238</ele>
        <time>2020-10-18T13:08:32Z</time>
      </trkpt>
      <trkpt lat="47.6427" lon="6.16701">
        <ele>238</ele>
        <time>2020-10-18T13:08:34Z</time>
      </trkpt>
      <trkpt lat="47.64267" lon="6.16696">
        <ele>238</ele>
        <time>2020-10-18T13:08:36Z</time>
      </trkpt>
      <trkpt lat="47.64269" lon="6.16689">
        <ele>238</ele>
        <time>2020-10-18T13:08:38Z</time>
      </trkpt>
      <trkpt lat="47.64272" lon="6.16678">
        <ele>238</ele>
        <time>2020-10-18T13:08:41Z</time>
      </trkpt>
      <trkpt lat="47.64273" lon="6.16672">
        <ele>238</ele>
        <time>2020-10-18T13:08:42Z</time>
      </trkpt>
      <trkpt lat="47.64275" lon="6.16663">
        <ele>238</ele>
        <time>2020-10-18T13:08:44Z</time>
      </trkpt>
      <trkpt lat="47.64277" lon="6.16653">
        <ele>238</ele>
        <time>2020-10-18T13:08:46Z</time>
      </trkpt>
      <trkpt lat="47.64278" lon="6.16646">
        <ele>237</ele>
        <time>2020-10-18T13:08:47Z</time>
      </trkpt>
      <trkpt lat="47.6428" lon="6.1664">
        <ele>237</ele>
        <time>2020-10-18T13:08:48Z</time>
      </trkpt>
      <trkpt lat="47.64284" lon="6.16629">
        <ele>237</ele>
        <time>2020-10-18T13:08:50Z</time>
      </trkpt>
      <trkpt lat="47.64288" lon="6.16617">
        <ele>237</ele>
        <time>2020-10-18T13:08:52Z</time>
      </trkpt>
      <trkpt lat="47.64292" lon="6.166">
        <ele>237</ele>
        <time>2020-10-18T13:08:54Z</time>
      </trkpt>
      <trkpt lat="47.64294" lon="6.16593">
        <ele>237</ele>
        <time>2020-10-18T13:08:55Z</time>
      </trkpt>
      <trkpt lat="47.64296" lon="6.16586">
        <ele>237</ele>
        <time>2020-10-18T13:08:56Z</time>
      </trkpt>
      <trkpt lat="47.643" lon="6.16573">
        <ele>236</ele>
        <time>2020-10-18T13:08:58Z</time>
      </trkpt>
      <trkpt lat="47.64302" lon="6.16567">
        <ele>236</ele>
        <time>2020-10-18T13:08:59Z</time>
      </trkpt>
      <trkpt lat="47.64305" lon="6.16555">
        <ele>236</ele>
        <time>2020-10-18T13:09:01Z</time>
      </trkpt>
      <trkpt lat="47.64309" lon="6.16542">
        <ele>236</ele>
        <time>2020-10-18T13:09:02Z</time>
      </trkpt>
      <trkpt lat="47.64311" lon="6.16535">
        <ele>236</ele>
        <time>2020-10-18T13:09:03Z</time>
      </trkpt>
      <trkpt lat="47.64313" lon="6.16528">
        <ele>236</ele>
        <time>2020-10-18T13:09:04Z</time>
      </trkpt>
      <trkpt lat="47.64315" lon="6.16521">
        <ele>236</ele>
        <time>2020-10-18T13:09:05Z</time>
      </trkpt>
      <trkpt lat="47.64318" lon="6.16509">
        <ele>236</ele>
        <time>2020-10-18T13:09:07Z</time>
      </trkpt>
      <trkpt lat="47.64319" lon="6.16499">
        <ele>236</ele>
        <time>2020-10-18T13:09:09Z</time>
      </trkpt>
      <trkpt lat="47.64322" lon="6.16492">
        <ele>236</ele>
        <time>2020-10-18T13:09:11Z</time>
      </trkpt>
      <trkpt lat="47.64325" lon="6.16482">
        <ele>236</ele>
        <time>2020-10-18T13:09:13Z</time>
      </trkpt>
      <trkpt lat="47.64328" lon="6.16473">
        <ele>236</ele>
        <time>2020-10-18T13:09:14Z</time>
      </trkpt>
      <trkpt lat="47.6433" lon="6.16464">
        <ele>236</ele>
        <time>2020-10-18T13:09:16Z</time>
      </trkpt>
      <trkpt lat="47.64332" lon="6.16457">
        <ele>236</ele>
        <time>2020-10-18T13:09:18Z</time>
      </trkpt>
      <trkpt lat="47.64335" lon="6.1645">
        <ele>234</ele>
        <time>2020-10-18T13:09:19Z</time>
      </trkpt>
      <trkpt lat="47.64337" lon="6.16444">
        <ele>234</ele>
        <time>2020-10-18T13:09:20Z</time>
      </trkpt>
      <trkpt lat="47.64338" lon="6.16437">
        <ele>235</ele>
        <time>2020-10-18T13:09:22Z</time>
      </trkpt>
      <trkpt lat="47.6434" lon="6.16431">
        <ele>235</ele>
        <time>2020-10-18T13:09:23Z</time>
      </trkpt>
      <trkpt lat="47.64343" lon="6.16423">
        <ele>235</ele>
        <time>2020-10-18T13:09:25Z</time>
      </trkpt>
      <trkpt lat="47.64345" lon="6.16415">
        <ele>235</ele>
        <time>2020-10-18T13:09:27Z</time>
      </trkpt>
      <trkpt lat="47.64348" lon="6.16406">
        <ele>235</ele>
        <time>2020-10-18T13:09:29Z</time>
      </trkpt>
      <trkpt lat="47.64349" lon="6.16399">
        <ele>235</ele>
        <time>2020-10-18T13:09:31Z</time>
      </trkpt>
      <trkpt lat="47.64351" lon="6.1639">
        <ele>235</ele>
        <time>2020-10-18T13:09:33Z</time>
      </trkpt>
      <trkpt lat="47.64353" lon="6.16384">
        <ele>235</ele>
        <time>2020-10-18T13:09:35Z</time>
      </trkpt>
      <trkpt lat="47.64356" lon="6.16377">
        <ele>235</ele>
        <time>2020-10-18T13:09:37Z</time>
      </trkpt>
      <trkpt lat="47.64358" lon="6.16368">
        <ele>235</ele>
        <time>2020-10-18T13:09:39Z</time>
      </trkpt>
      <trkpt lat="47.6436" lon="6.1636">
        <ele>235</ele>
        <time>2020-10-18T13:09:41Z</time>
      </trkpt>
      <trkpt lat="47.64362" lon="6.16352">
        <ele>235</ele>
        <time>2020-10-18T13:09:44Z</time>
      </trkpt>
      <trkpt lat="47.64365" lon="6.16345">
        <ele>235</ele>
        <time>2020-10-18T13:09:46Z</time>
      </trkpt>
      <trkpt lat="47.64369" lon="6.1634">
        <ele>235</ele>
        <time>2020-10-18T13:09:48Z</time>
      </trkpt>
      <trkpt lat="47.64375" lon="6.16338">
        <ele>235</ele>
        <time>2020-10-18T13:09:51Z</time>
      </trkpt>
      <trkpt lat="47.64379" lon="6.16338">
        <ele>235</ele>
        <time>2020-10-18T13:09:53Z</time>
      </trkpt>
      <trkpt lat="47.64384" lon="6.16338">
        <ele>235</ele>
        <time>2020-10-18T13:09:55Z</time>
      </trkpt>
      <trkpt lat="47.64389" lon="6.16338">
        <ele>235</ele>
        <time>2020-10-18T13:09:57Z</time>
      </trkpt>
      <trkpt lat="47.64394" lon="6.16339">
        <ele>235</ele>
        <time>2020-10-18T13:09:58Z</time>
      </trkpt>
      <trkpt lat="47.644" lon="6.16341">
        <ele>234</ele>
        <time>2020-10-18T13:10:00Z</time>
      </trkpt>
      <trkpt lat="47.64407" lon="6.16344">
        <ele>234</ele>
        <time>2020-10-18T13:10:02Z</time>
      </trkpt>
      <trkpt lat="47.64412" lon="6.16345">
        <ele>234</ele>
        <time>2020-10-18T13:10:03Z</time>
      </trkpt>
      <trkpt lat="47.64419" lon="6.16345">
        <ele>234</ele>
        <time>2020-10-18T13:10:05Z</time>
      </trkpt>
      <trkpt lat="47.64428" lon="6.16346">
        <ele>234</ele>
        <time>2020-10-18T13:10:07Z</time>
      </trkpt>
      <trkpt lat="47.64435" lon="6.16348">
        <ele>234</ele>
        <time>2020-10-18T13:10:09Z</time>
      </trkpt>
      <trkpt lat="47.64441" lon="6.1635">
        <ele>234</ele>
        <time>2020-10-18T13:10:10Z</time>
      </trkpt>
      <trkpt lat="47.64446" lon="6.16352">
        <ele>234</ele>
        <time>2020-10-18T13:10:11Z</time>
      </trkpt>
      <trkpt lat="47.64452" lon="6.16355">
        <ele>234</ele>
        <time>2020-10-18T13:10:13Z</time>
      </trkpt>
      <trkpt lat="47.64459" lon="6.16358">
        <ele>234</ele>
        <time>2020-10-18T13:10:14Z</time>
      </trkpt>
      <trkpt lat="47.64465" lon="6.16359">
        <ele>234</ele>
        <time>2020-10-18T13:10:15Z</time>
      </trkpt>
      <trkpt lat="47.64472" lon="6.16361">
        <ele>234</ele>
        <time>2020-10-18T13:10:16Z</time>
      </trkpt>
      <trkpt lat="47.64477" lon="6.16362">
        <ele>234</ele>
        <time>2020-10-18T13:10:17Z</time>
      </trkpt>
      <trkpt lat="47.64485" lon="6.16363">
        <ele>234</ele>
        <time>2020-10-18T13:10:18Z</time>
      </trkpt>
      <trkpt lat="47.6449" lon="6.16364">
        <ele>234</ele>
        <time>2020-10-18T13:10:19Z</time>
      </trkpt>
      <trkpt lat="47.64495" lon="6.16365">
        <ele>234</ele>
        <time>2020-10-18T13:10:20Z</time>
      </trkpt>
      <trkpt lat="47.64499" lon="6.16366">
        <ele>234</ele>
        <time>2020-10-18T13:10:21Z</time>
      </trkpt>
      <trkpt lat="47.64504" lon="6.16366">
        <ele>234</ele>
        <time>2020-10-18T13:10:22Z</time>
      </trkpt>
      <trkpt lat="47.64513" lon="6.16367">
        <ele>234</ele>
        <time>2020-10-18T13:10:24Z</time>
      </trkpt>
      <trkpt lat="47.64522" lon="6.16369">
        <ele>234</ele>
        <time>2020-10-18T13:10:26Z</time>
      </trkpt>
      <trkpt lat="47.64529" lon="6.1637">
        <ele>234</ele>
        <time>2020-10-18T13:10:28Z</time>
      </trkpt>
      <trkpt lat="47.64536" lon="6.16372">
        <ele>234</ele>
        <time>2020-10-18T13:10:30Z</time>
      </trkpt>
      <trkpt lat="47.64541" lon="6.16373">
        <ele>234</ele>
        <time>2020-10-18T13:10:31Z</time>
      </trkpt>
      <trkpt lat="47.64548" lon="6.16373">
        <ele>234</ele>
        <time>2020-10-18T13:10:33Z</time>
      </trkpt>
      <trkpt lat="47.64553" lon="6.16374">
        <ele>234</ele>
        <time>2020-10-18T13:10:34Z</time>
      </trkpt>
      <trkpt lat="47.64561" lon="6.16375">
        <ele>234</ele>
        <time>2020-10-18T13:10:36Z</time>
      </trkpt>
      <trkpt lat="47.64569" lon="6.16376">
        <ele>234</ele>
        <time>2020-10-18T13:10:38Z</time>
      </trkpt>
      <trkpt lat="47.64577" lon="6.16378">
        <ele>234</ele>
        <time>2020-10-18T13:10:40Z</time>
      </trkpt>
      <trkpt lat="47.64584" lon="6.16379">
        <ele>234</ele>
        <time>2020-10-18T13:10:42Z</time>
      </trkpt>
      <trkpt lat="47.6459" lon="6.1638">
        <ele>234</ele>
        <time>2020-10-18T13:10:43Z</time>
      </trkpt>
      <trkpt lat="47.64598" lon="6.16381">
        <ele>234</ele>
        <time>2020-10-18T13:10:45Z</time>
      </trkpt>
      <trkpt lat="47.64606" lon="6.16383">
        <ele>234</ele>
        <time>2020-10-18T13:10:47Z</time>
      </trkpt>
      <trkpt lat="47.64614" lon="6.16384">
        <ele>234</ele>
        <time>2020-10-18T13:10:49Z</time>
      </trkpt>
      <trkpt lat="47.64618" lon="6.16385">
        <ele>235</ele>
        <time>2020-10-18T13:10:50Z</time>
      </trkpt>
      <trkpt lat="47.64625" lon="6.16387">
        <ele>235</ele>
        <time>2020-10-18T13:10:52Z</time>
      </trkpt>
      <trkpt lat="47.64633" lon="6.16388">
        <ele>235</ele>
        <time>2020-10-18T13:10:54Z</time>
      </trkpt>
      <trkpt lat="47.6464" lon="6.1639">
        <ele>235</ele>
        <time>2020-10-18T13:10:56Z</time>
      </trkpt>
      <trkpt lat="47.64647" lon="6.16391">
        <ele>235</ele>
        <time>2020-10-18T13:10:58Z</time>
      </trkpt>
      <trkpt lat="47.64653" lon="6.16392">
        <ele>235</ele>
        <time>2020-10-18T13:11:00Z</time>
      </trkpt>
      <trkpt lat="47.64661" lon="6.16394">
        <ele>235</ele>
        <time>2020-10-18T13:11:02Z</time>
      </trkpt>
      <trkpt lat="47.64667" lon="6.16396">
        <ele>236</ele>
        <time>2020-10-18T13:11:04Z</time>
      </trkpt>
      <trkpt lat="47.64672" lon="6.16397">
        <ele>236</ele>
        <time>2020-10-18T13:11:06Z</time>
      </trkpt>
      <trkpt lat="47.64676" lon="6.16398">
        <ele>236</ele>
        <time>2020-10-18T13:11:07Z</time>
      </trkpt>
      <trkpt lat="47.64682" lon="6.16398">
        <ele>237</ele>
        <time>2020-10-18T13:11:09Z</time>
      </trkpt>
      <trkpt lat="47.64689" lon="6.164">
        <ele>237</ele>
        <time>2020-10-18T13:11:11Z</time>
      </trkpt>
      <trkpt lat="47.64694" lon="6.16401">
        <ele>237</ele>
        <time>2020-10-18T13:11:13Z</time>
      </trkpt>
      <trkpt lat="47.64702" lon="6.16403">
        <ele>237</ele>
        <time>2020-10-18T13:11:15Z</time>
      </trkpt>
      <trkpt lat="47.64709" lon="6.16404">
        <ele>237</ele>
        <time>2020-10-18T13:11:17Z</time>
      </trkpt>
      <trkpt lat="47.64716" lon="6.16405">
        <ele>237</ele>
        <time>2020-10-18T13:11:19Z</time>
      </trkpt>
      <trkpt lat="47.64722" lon="6.16406">
        <ele>238</ele>
        <time>2020-10-18T13:11:21Z</time>
      </trkpt>
      <trkpt lat="47.64729" lon="6.16407">
        <ele>238</ele>
        <time>2020-10-18T13:11:23Z</time>
      </trkpt>
      <trkpt lat="47.64736" lon="6.16408">
        <ele>238</ele>
        <time>2020-10-18T13:11:25Z</time>
      </trkpt>
      <trkpt lat="47.6474" lon="6.16409">
        <ele>238</ele>
        <time>2020-10-18T13:11:27Z</time>
      </trkpt>
      <trkpt lat="47.64747" lon="6.16409">
        <ele>238</ele>
        <time>2020-10-18T13:11:29Z</time>
      </trkpt>
      <trkpt lat="47.64751" lon="6.1641">
        <ele>239</ele>
        <time>2020-10-18T13:11:30Z</time>
      </trkpt>
      <trkpt lat="47.64757" lon="6.16411">
        <ele>239</ele>
        <time>2020-10-18T13:11:32Z</time>
      </trkpt>
      <trkpt lat="47.64763" lon="6.16413">
        <ele>240</ele>
        <time>2020-10-18T13:11:34Z</time>
      </trkpt>
      <trkpt lat="47.6477" lon="6.16415">
        <ele>240</ele>
        <time>2020-10-18T13:11:36Z</time>
      </trkpt>
      <trkpt lat="47.64775" lon="6.16416">
        <ele>240</ele>
        <time>2020-10-18T13:11:38Z</time>
      </trkpt>
      <trkpt lat="47.64781" lon="6.16418">
        <ele>239</ele>
        <time>2020-10-18T13:11:40Z</time>
      </trkpt>
      <trkpt lat="47.64786" lon="6.1642">
        <ele>239</ele>
        <time>2020-10-18T13:11:42Z</time>
      </trkpt>
      <trkpt lat="47.64791" lon="6.1642">
        <ele>239</ele>
        <time>2020-10-18T13:11:43Z</time>
      </trkpt>
      <trkpt lat="47.64796" lon="6.16421">
        <ele>239</ele>
        <time>2020-10-18T13:11:45Z</time>
      </trkpt>
      <trkpt lat="47.64801" lon="6.16422">
        <ele>239</ele>
        <time>2020-10-18T13:11:46Z</time>
      </trkpt>
      <trkpt lat="47.64808" lon="6.16423">
        <ele>239</ele>
        <time>2020-10-18T13:11:48Z</time>
      </trkpt>
      <trkpt lat="47.64813" lon="6.16425">
        <ele>239</ele>
        <time>2020-10-18T13:11:50Z</time>
      </trkpt>
      <trkpt lat="47.64822" lon="6.16426">
        <ele>240</ele>
        <time>2020-10-18T13:11:52Z</time>
      </trkpt>
      <trkpt lat="47.6483" lon="6.16427">
        <ele>240</ele>
        <time>2020-10-18T13:11:54Z</time>
      </trkpt>
      <trkpt lat="47.64837" lon="6.16428">
        <ele>240</ele>
        <time>2020-10-18T13:11:56Z</time>
      </trkpt>
      <trkpt lat="47.64844" lon="6.16429">
        <ele>239</ele>
        <time>2020-10-18T13:11:57Z</time>
      </trkpt>
      <trkpt lat="47.64854" lon="6.16431">
        <ele>239</ele>
        <time>2020-10-18T13:11:59Z</time>
      </trkpt>
      <trkpt lat="47.64859" lon="6.16432">
        <ele>239</ele>
        <time>2020-10-18T13:12:00Z</time>
      </trkpt>
      <trkpt lat="47.64869" lon="6.16434">
        <ele>238</ele>
        <time>2020-10-18T13:12:02Z</time>
      </trkpt>
      <trkpt lat="47.64878" lon="6.16435">
        <ele>238</ele>
        <time>2020-10-18T13:12:03Z</time>
      </trkpt>
      <trkpt lat="47.64884" lon="6.16437">
        <ele>238</ele>
        <time>2020-10-18T13:12:04Z</time>
      </trkpt>
      <trkpt lat="47.6489" lon="6.16438">
        <ele>238</ele>
        <time>2020-10-18T13:12:05Z</time>
      </trkpt>
      <trkpt lat="47.64896" lon="6.16439">
        <ele>238</ele>
        <time>2020-10-18T13:12:06Z</time>
      </trkpt>
      <trkpt lat="47.64901" lon="6.1644">
        <ele>238</ele>
        <time>2020-10-18T13:12:07Z</time>
      </trkpt>
      <trkpt lat="47.64906" lon="6.16441">
        <ele>238</ele>
        <time>2020-10-18T13:12:08Z</time>
      </trkpt>
      <trkpt lat="47.64911" lon="6.16442">
        <ele>238</ele>
        <time>2020-10-18T13:12:09Z</time>
      </trkpt>
      <trkpt lat="47.64916" lon="6.16443">
        <ele>238</ele>
        <time>2020-10-18T13:12:10Z</time>
      </trkpt>
      <trkpt lat="47.64921" lon="6.16443">
        <ele>237</ele>
        <time>2020-10-18T13:12:11Z</time>
      </trkpt>
      <trkpt lat="47.64926" lon="6.16444">
        <ele>237</ele>
        <time>2020-10-18T13:12:12Z</time>
      </trkpt>
      <trkpt lat="47.64931" lon="6.16444">
        <ele>237</ele>
        <time>2020-10-18T13:12:13Z</time>
      </trkpt>
      <trkpt lat="47.64936" lon="6.16445">
        <ele>237</ele>
        <time>2020-10-18T13:12:14Z</time>
      </trkpt>
      <trkpt lat="47.64941" lon="6.16446">
        <ele>237</ele>
        <time>2020-10-18T13:12:15Z</time>
      </trkpt>
      <trkpt lat="47.64946" lon="6.16447">
        <ele>237</ele>
        <time>2020-10-18T13:12:16Z</time>
      </trkpt>
      <trkpt lat="47.64951" lon="6.16447">
        <ele>237</ele>
        <time>2020-10-18T13:12:17Z</time>
      </trkpt>
      <trkpt lat="47.64955" lon="6.16448">
        <ele>236</ele>
        <time>2020-10-18T13:12:18Z</time>
      </trkpt>
      <trkpt lat="47.6496" lon="6.16449">
        <ele>236</ele>
        <time>2020-10-18T13:12:19Z</time>
      </trkpt>
      <trkpt lat="47.64969" lon="6.16451">
        <ele>236</ele>
        <time>2020-10-18T13:12:21Z</time>
      </trkpt>
      <trkpt lat="47.64977" lon="6.16452">
        <ele>236</ele>
        <time>2020-10-18T13:12:23Z</time>
      </trkpt>
      <trkpt lat="47.64986" lon="6.16453">
        <ele>236</ele>
        <time>2020-10-18T13:12:25Z</time>
      </trkpt>
      <trkpt lat="47.64994" lon="6.16455">
        <ele>236</ele>
        <time>2020-10-18T13:12:27Z</time>
      </trkpt>
      <trkpt lat="47.65002" lon="6.16456">
        <ele>235</ele>
        <time>2020-10-18T13:12:29Z</time>
      </trkpt>
      <trkpt lat="47.65009" lon="6.16457">
        <ele>235</ele>
        <time>2020-10-18T13:12:31Z</time>
      </trkpt>
      <trkpt lat="47.65018" lon="6.16459">
        <ele>235</ele>
        <time>2020-10-18T13:12:33Z</time>
      </trkpt>
      <trkpt lat="47.65025" lon="6.1646">
        <ele>235</ele>
        <time>2020-10-18T13:12:35Z</time>
      </trkpt>
      <trkpt lat="47.65037" lon="6.16467">
        <ele>235</ele>
        <time>2020-10-18T13:12:37Z</time>
      </trkpt>
      <trkpt lat="47.65042" lon="6.16466">
        <ele>235</ele>
        <time>2020-10-18T13:12:39Z</time>
      </trkpt>
      <trkpt lat="47.6505" lon="6.16465">
        <ele>235</ele>
        <time>2020-10-18T13:12:41Z</time>
      </trkpt>
      <trkpt lat="47.65063" lon="6.16466">
        <ele>235</ele>
        <time>2020-10-18T13:12:43Z</time>
      </trkpt>
      <trkpt lat="47.65068" lon="6.16467">
        <ele>235</ele>
        <time>2020-10-18T13:12:44Z</time>
      </trkpt>
      <trkpt lat="47.65074" lon="6.16468">
        <ele>235</ele>
        <time>2020-10-18T13:12:45Z</time>
      </trkpt>
      <trkpt lat="47.6508" lon="6.16469">
        <ele>235</ele>
        <time>2020-10-18T13:12:46Z</time>
      </trkpt>
      <trkpt lat="47.65086" lon="6.1647">
        <ele>233</ele>
        <time>2020-10-18T13:12:47Z</time>
      </trkpt>
      <trkpt lat="47.65092" lon="6.16471">
        <ele>233</ele>
        <time>2020-10-18T13:12:48Z</time>
      </trkpt>
      <trkpt lat="47.65098" lon="6.16472">
        <ele>233</ele>
        <time>2020-10-18T13:12:49Z</time>
      </trkpt>
      <trkpt lat="47.65105" lon="6.16473">
        <ele>233</ele>
        <time>2020-10-18T13:12:50Z</time>
      </trkpt>
      <trkpt lat="47.65112" lon="6.16474">
        <ele>233</ele>
        <time>2020-10-18T13:12:51Z</time>
      </trkpt>
      <trkpt lat="47.65119" lon="6.16475">
        <ele>233</ele>
        <time>2020-10-18T13:12:52Z</time>
      </trkpt>
      <trkpt lat="47.65126" lon="6.16476">
        <ele>233</ele>
        <time>2020-10-18T13:12:53Z</time>
      </trkpt>
      <trkpt lat="47.65133" lon="6.16477">
        <ele>233</ele>
        <time>2020-10-18T13:12:54Z</time>
      </trkpt>
      <trkpt lat="47.65141" lon="6.16478">
        <ele>233</ele>
        <time>2020-10-18T13:12:55Z</time>
      </trkpt>
      <trkpt lat="47.65148" lon="6.1648">
        <ele>233</ele>
        <time>2020-10-18T13:12:56Z</time>
      </trkpt>
      <trkpt lat="47.65156" lon="6.16481">
        <ele>233</ele>
        <time>2020-10-18T13:12:57Z</time>
      </trkpt>
      <trkpt lat="47.65163" lon="6.16482">
        <ele>233</ele>
        <time>2020-10-18T13:12:58Z</time>
      </trkpt>
      <trkpt lat="47.6517" lon="6.16484">
        <ele>232</ele>
        <time>2020-10-18T13:12:59Z</time>
      </trkpt>
      <trkpt lat="47.65178" lon="6.16485">
        <ele>232</ele>
        <time>2020-10-18T13:13:00Z</time>
      </trkpt>
      <trkpt lat="47.65186" lon="6.16487">
        <ele>232</ele>
        <time>2020-10-18T13:13:01Z</time>
      </trkpt>
      <trkpt lat="47.65194" lon="6.16489">
        <ele>232</ele>
        <time>2020-10-18T13:13:02Z</time>
      </trkpt>
      <trkpt lat="47.65202" lon="6.1649">
        <ele>231</ele>
        <time>2020-10-18T13:13:03Z</time>
      </trkpt>
      <trkpt lat="47.6521" lon="6.16492">
        <ele>231</ele>
        <time>2020-10-18T13:13:04Z</time>
      </trkpt>
      <trkpt lat="47.65218" lon="6.16493">
        <ele>231</ele>
        <time>2020-10-18T13:13:05Z</time>
      </trkpt>
      <trkpt lat="47.65226" lon="6.16494">
        <ele>231</ele>
        <time>2020-10-18T13:13:06Z</time>
      </trkpt>
      <trkpt lat="47.65233" lon="6.16496">
        <ele>231</ele>
        <time>2020-10-18T13:13:07Z</time>
      </trkpt>
      <trkpt lat="47.65241" lon="6.16497">
        <ele>231</ele>
        <time>2020-10-18T13:13:08Z</time>
      </trkpt>
      <trkpt lat="47.65249" lon="6.16498">
        <ele>231</ele>
        <time>2020-10-18T13:13:09Z</time>
      </trkpt>
      <trkpt lat="47.65256" lon="6.165">
        <ele>230</ele>
        <time>2020-10-18T13:13:10Z</time>
      </trkpt>
      <trkpt lat="47.65264" lon="6.16501">
        <ele>231</ele>
        <time>2020-10-18T13:13:11Z</time>
      </trkpt>
      <trkpt lat="47.65271" lon="6.16502">
        <ele>232</ele>
        <time>2020-10-18T13:13:12Z</time>
      </trkpt>
      <trkpt lat="47.65278" lon="6.16503">
        <ele>232</ele>
        <time>2020-10-18T13:13:13Z</time>
      </trkpt>
      <trkpt lat="47.65285" lon="6.16504">
        <ele>232</ele>
        <time>2020-10-18T13:13:14Z</time>
      </trkpt>
      <trkpt lat="47.65291" lon="6.16504">
        <ele>231</ele>
        <time>2020-10-18T13:13:15Z</time>
      </trkpt>
      <trkpt lat="47.65297" lon="6.16505">
        <ele>231</ele>
        <time>2020-10-18T13:13:16Z</time>
      </trkpt>
      <trkpt lat="47.65303" lon="6.16506">
        <ele>231</ele>
        <time>2020-10-18T13:13:17Z</time>
      </trkpt>
      <trkpt lat="47.6531" lon="6.16507">
        <ele>231</ele>
        <time>2020-10-18T13:13:18Z</time>
      </trkpt>
      <trkpt lat="47.65316" lon="6.16508">
        <ele>231</ele>
        <time>2020-10-18T13:13:19Z</time>
      </trkpt>
      <trkpt lat="47.65322" lon="6.16509">
        <ele>230</ele>
        <time>2020-10-18T13:13:20Z</time>
      </trkpt>
      <trkpt lat="47.65328" lon="6.1651">
        <ele>230</ele>
        <time>2020-10-18T13:13:21Z</time>
      </trkpt>
      <trkpt lat="47.65334" lon="6.16511">
        <ele>230</ele>
        <time>2020-10-18T13:13:22Z</time>
      </trkpt>
      <trkpt lat="47.6534" lon="6.16512">
        <ele>230</ele>
        <time>2020-10-18T13:13:23Z</time>
      </trkpt>
      <trkpt lat="47.65346" lon="6.16513">
        <ele>230</ele>
        <time>2020-10-18T13:13:24Z</time>
      </trkpt>
      <trkpt lat="47.65352" lon="6.16515">
        <ele>230</ele>
        <time>2020-10-18T13:13:25Z</time>
      </trkpt>
      <trkpt lat="47.65358" lon="6.16516">
        <ele>230</ele>
        <time>2020-10-18T13:13:26Z</time>
      </trkpt>
      <trkpt lat="47.65364" lon="6.16517">
        <ele>231</ele>
        <time>2020-10-18T13:13:27Z</time>
      </trkpt>
      <trkpt lat="47.6537" lon="6.16518">
        <ele>231</ele>
        <time>2020-10-18T13:13:28Z</time>
      </trkpt>
      <trkpt lat="47.65376" lon="6.1652">
        <ele>231</ele>
        <time>2020-10-18T13:13:29Z</time>
      </trkpt>
      <trkpt lat="47.65382" lon="6.16521">
        <ele>231</ele>
        <time>2020-10-18T13:13:30Z</time>
      </trkpt>
      <trkpt lat="47.65388" lon="6.16522">
        <ele>231</ele>
        <time>2020-10-18T13:13:31Z</time>
      </trkpt>
      <trkpt lat="47.65393" lon="6.16522">
        <ele>230</ele>
        <time>2020-10-18T13:13:32Z</time>
      </trkpt>
      <trkpt lat="47.65399" lon="6.16523">
        <ele>230</ele>
        <time>2020-10-18T13:13:33Z</time>
      </trkpt>
      <trkpt lat="47.65404" lon="6.16524">
        <ele>230</ele>
        <time>2020-10-18T13:13:34Z</time>
      </trkpt>
      <trkpt lat="47.65409" lon="6.16525">
        <ele>230</ele>
        <time>2020-10-18T13:13:35Z</time>
      </trkpt>
      <trkpt lat="47.65414" lon="6.16526">
        <ele>230</ele>
        <time>2020-10-18T13:13:36Z</time>
      </trkpt>
      <trkpt lat="47.6542" lon="6.16527">
        <ele>231</ele>
        <time>2020-10-18T13:13:37Z</time>
      </trkpt>
      <trkpt lat="47.65425" lon="6.16529">
        <ele>231</ele>
        <time>2020-10-18T13:13:38Z</time>
      </trkpt>
      <trkpt lat="47.6543" lon="6.1653">
        <ele>231</ele>
        <time>2020-10-18T13:13:39Z</time>
      </trkpt>
      <trkpt lat="47.65435" lon="6.16531">
        <ele>231</ele>
        <time>2020-10-18T13:13:40Z</time>
      </trkpt>
      <trkpt lat="47.6544" lon="6.16532">
        <ele>232</ele>
        <time>2020-10-18T13:13:41Z</time>
      </trkpt>
      <trkpt lat="47.65445" lon="6.16532">
        <ele>232</ele>
        <time>2020-10-18T13:13:42Z</time>
      </trkpt>
      <trkpt lat="47.6545" lon="6.16533">
        <ele>232</ele>
        <time>2020-10-18T13:13:43Z</time>
      </trkpt>
      <trkpt lat="47.65455" lon="6.16534">
        <ele>232</ele>
        <time>2020-10-18T13:13:44Z</time>
      </trkpt>
      <trkpt lat="47.6546" lon="6.16535">
        <ele>232</ele>
        <time>2020-10-18T13:13:45Z</time>
      </trkpt>
      <trkpt lat="47.65465" lon="6.16535">
        <ele>232</ele>
        <time>2020-10-18T13:13:46Z</time>
      </trkpt>
      <trkpt lat="47.65469" lon="6.16536">
        <ele>232</ele>
        <time>2020-10-18T13:13:47Z</time>
      </trkpt>
      <trkpt lat="47.65475" lon="6.16537">
        <ele>232</ele>
        <time>2020-10-18T13:13:48Z</time>
      </trkpt>
      <trkpt lat="47.6548" lon="6.16537">
        <ele>232</ele>
        <time>2020-10-18T13:13:49Z</time>
      </trkpt>
      <trkpt lat="47.65484" lon="6.16537">
        <ele>232</ele>
        <time>2020-10-18T13:13:50Z</time>
      </trkpt>
      <trkpt lat="47.65489" lon="6.16538">
        <ele>232</ele>
        <time>2020-10-18T13:13:51Z</time>
      </trkpt>
      <trkpt lat="47.65494" lon="6.16538">
        <ele>232</ele>
        <time>2020-10-18T13:13:52Z</time>
      </trkpt>
      <trkpt lat="47.65499" lon="6.16539">
        <ele>232</ele>
        <time>2020-10-18T13:13:53Z</time>
      </trkpt>
      <trkpt lat="47.65504" lon="6.1654">
        <ele>234</ele>
        <time>2020-10-18T13:13:54Z</time>
      </trkpt>
      <trkpt lat="47.65508" lon="6.1654">
        <ele>234</ele>
        <time>2020-10-18T13:13:55Z</time>
      </trkpt>
      <trkpt lat="47.65516" lon="6.16541">
        <ele>234</ele>
        <time>2020-10-18T13:13:57Z</time>
      </trkpt>
      <trkpt lat="47.65521" lon="6.16541">
        <ele>235</ele>
        <time>2020-10-18T13:13:58Z</time>
      </trkpt>
      <trkpt lat="47.65528" lon="6.16542">
        <ele>235</ele>
        <time>2020-10-18T13:14:00Z</time>
      </trkpt>
      <trkpt lat="47.65536" lon="6.16543">
        <ele>235</ele>
        <time>2020-10-18T13:14:02Z</time>
      </trkpt>
      <trkpt lat="47.65543" lon="6.16541">
        <ele>235</ele>
        <time>2020-10-18T13:14:04Z</time>
      </trkpt>
      <trkpt lat="47.65548" lon="6.16533">
        <ele>235</ele>
        <time>2020-10-18T13:14:06Z</time>
      </trkpt>
      <trkpt lat="47.65551" lon="6.16527">
        <ele>235</ele>
        <time>2020-10-18T13:14:07Z</time>
      </trkpt>
      <trkpt lat="47.65553" lon="6.16521">
        <ele>235</ele>
        <time>2020-10-18T13:14:08Z</time>
      </trkpt>
      <trkpt lat="47.65556" lon="6.16514">
        <ele>236</ele>
        <time>2020-10-18T13:14:09Z</time>
      </trkpt>
      <trkpt lat="47.65558" lon="6.16508">
        <ele>236</ele>
        <time>2020-10-18T13:14:10Z</time>
      </trkpt>
      <trkpt lat="47.65562" lon="6.16502">
        <ele>236</ele>
        <time>2020-10-18T13:14:11Z</time>
      </trkpt>
      <trkpt lat="47.65565" lon="6.16496">
        <ele>235</ele>
        <time>2020-10-18T13:14:12Z</time>
      </trkpt>
      <trkpt lat="47.65568" lon="6.1649">
        <ele>235</ele>
        <time>2020-10-18T13:14:13Z</time>
      </trkpt>
      <trkpt lat="47.65571" lon="6.16484">
        <ele>235</ele>
        <time>2020-10-18T13:14:14Z</time>
      </trkpt>
      <trkpt lat="47.65575" lon="6.16478">
        <ele>235</ele>
        <time>2020-10-18T13:14:15Z</time>
      </trkpt>
      <trkpt lat="47.65579" lon="6.16471">
        <ele>234</ele>
        <time>2020-10-18T13:14:16Z</time>
      </trkpt>
      <trkpt lat="47.65582" lon="6.16466">
        <ele>234</ele>
        <time>2020-10-18T13:14:17Z</time>
      </trkpt>
      <trkpt lat="47.65586" lon="6.1646">
        <ele>236</ele>
        <time>2020-10-18T13:14:18Z</time>
      </trkpt>
      <trkpt lat="47.6559" lon="6.16455">
        <ele>236</ele>
        <time>2020-10-18T13:14:19Z</time>
      </trkpt>
      <trkpt lat="47.65594" lon="6.16449">
        <ele>236</ele>
        <time>2020-10-18T13:14:20Z</time>
      </trkpt>
      <trkpt lat="47.65598" lon="6.16443">
        <ele>236</ele>
        <time>2020-10-18T13:14:21Z</time>
      </trkpt>
      <trkpt lat="47.65602" lon="6.16438">
        <ele>236</ele>
        <time>2020-10-18T13:14:22Z</time>
      </trkpt>
      <trkpt lat="47.65606" lon="6.16432">
        <ele>235</ele>
        <time>2020-10-18T13:14:23Z</time>
      </trkpt>
      <trkpt lat="47.65611" lon="6.16426">
        <ele>236</ele>
        <time>2020-10-18T13:14:24Z</time>
      </trkpt>
      <trkpt lat="47.65615" lon="6.16422">
        <ele>236</ele>
        <time>2020-10-18T13:14:25Z</time>
      </trkpt>
      <trkpt lat="47.65619" lon="6.16416">
        <ele>233</ele>
        <time>2020-10-18T13:14:26Z</time>
      </trkpt>
      <trkpt lat="47.65623" lon="6.1641">
        <ele>233</ele>
        <time>2020-10-18T13:14:27Z</time>
      </trkpt>
      <trkpt lat="47.65627" lon="6.16404">
        <ele>233</ele>
        <time>2020-10-18T13:14:28Z</time>
      </trkpt>
      <trkpt lat="47.65631" lon="6.16397">
        <ele>233</ele>
        <time>2020-10-18T13:14:29Z</time>
      </trkpt>
      <trkpt lat="47.65635" lon="6.16391">
        <ele>233</ele>
        <time>2020-10-18T13:14:30Z</time>
      </trkpt>
      <trkpt lat="47.65639" lon="6.16384">
        <ele>233</ele>
        <time>2020-10-18T13:14:31Z</time>
      </trkpt>
      <trkpt lat="47.65643" lon="6.16378">
        <ele>233</ele>
        <time>2020-10-18T13:14:32Z</time>
      </trkpt>
      <trkpt lat="47.65647" lon="6.16373">
        <ele>233</ele>
        <time>2020-10-18T13:14:33Z</time>
      </trkpt>
      <trkpt lat="47.6565" lon="6.16367">
        <ele>233</ele>
        <time>2020-10-18T13:14:34Z</time>
      </trkpt>
      <trkpt lat="47.65654" lon="6.16361">
        <ele>233</ele>
        <time>2020-10-18T13:14:35Z</time>
      </trkpt>
      <trkpt lat="47.65657" lon="6.16356">
        <ele>233</ele>
        <time>2020-10-18T13:14:36Z</time>
      </trkpt>
      <trkpt lat="47.65661" lon="6.16351">
        <ele>232</ele>
        <time>2020-10-18T13:14:37Z</time>
      </trkpt>
      <trkpt lat="47.65664" lon="6.16346">
        <ele>232</ele>
        <time>2020-10-18T13:14:38Z</time>
      </trkpt>
      <trkpt lat="47.6567" lon="6.16337">
        <ele>233</ele>
        <time>2020-10-18T13:14:40Z</time>
      </trkpt>
      <trkpt lat="47.65674" lon="6.16332">
        <ele>232</ele>
        <time>2020-10-18T13:14:41Z</time>
      </trkpt>
      <trkpt lat="47.65677" lon="6.16327">
        <ele>232</ele>
        <time>2020-10-18T13:14:42Z</time>
      </trkpt>
      <trkpt lat="47.65684" lon="6.16319">
        <ele>233</ele>
        <time>2020-10-18T13:14:44Z</time>
      </trkpt>
      <trkpt lat="47.65687" lon="6.16314">
        <ele>233</ele>
        <time>2020-10-18T13:14:45Z</time>
      </trkpt>
      <trkpt lat="47.65693" lon="6.16305">
        <ele>233</ele>
        <time>2020-10-18T13:14:47Z</time>
      </trkpt>
      <trkpt lat="47.65699" lon="6.16296">
        <ele>233</ele>
        <time>2020-10-18T13:14:49Z</time>
      </trkpt>
      <trkpt lat="47.65705" lon="6.16287">
        <ele>233</ele>
        <time>2020-10-18T13:14:51Z</time>
      </trkpt>
      <trkpt lat="47.65712" lon="6.16278">
        <ele>233</ele>
        <time>2020-10-18T13:14:53Z</time>
      </trkpt>
      <trkpt lat="47.65716" lon="6.16274">
        <ele>233</ele>
        <time>2020-10-18T13:14:54Z</time>
      </trkpt>
      <trkpt lat="47.65719" lon="6.16269">
        <ele>233</ele>
        <time>2020-10-18T13:14:55Z</time>
      </trkpt>
      <trkpt lat="47.65723" lon="6.16263">
        <ele>233</ele>
        <time>2020-10-18T13:14:56Z</time>
      </trkpt>
      <trkpt lat="47.65727" lon="6.16258">
        <ele>234</ele>
        <time>2020-10-18T13:14:57Z</time>
      </trkpt>
      <trkpt lat="47.6573" lon="6.16253">
        <ele>234</ele>
        <time>2020-10-18T13:14:58Z</time>
      </trkpt>
      <trkpt lat="47.65734" lon="6.16247">
        <ele>234</ele>
        <time>2020-10-18T13:14:59Z</time>
      </trkpt>
      <trkpt lat="47.65738" lon="6.16241">
        <ele>234</ele>
        <time>2020-10-18T13:15:00Z</time>
      </trkpt>
      <trkpt lat="47.65742" lon="6.16236">
        <ele>234</ele>
        <time>2020-10-18T13:15:01Z</time>
      </trkpt>
      <trkpt lat="47.65746" lon="6.1623">
        <ele>234</ele>
        <time>2020-10-18T13:15:02Z</time>
      </trkpt>
      <trkpt lat="47.65749" lon="6.16224">
        <ele>233</ele>
        <time>2020-10-18T13:15:03Z</time>
      </trkpt>
      <trkpt lat="47.65753" lon="6.16219">
        <ele>238</ele>
        <time>2020-10-18T13:15:04Z</time>
      </trkpt>
      <trkpt lat="47.65756" lon="6.16214">
        <ele>238</ele>
        <time>2020-10-18T13:15:05Z</time>
      </trkpt>
      <trkpt lat="47.65759" lon="6.16209">
        <ele>238</ele>
        <time>2020-10-18T13:15:06Z</time>
      </trkpt>
      <trkpt lat="47.65762" lon="6.16204">
        <ele>238</ele>
        <time>2020-10-18T13:15:07Z</time>
      </trkpt>
      <trkpt lat="47.65768" lon="6.16195">
        <ele>238</ele>
        <time>2020-10-18T13:15:09Z</time>
      </trkpt>
      <trkpt lat="47.65774" lon="6.16186">
        <ele>238</ele>
        <time>2020-10-18T13:15:11Z</time>
      </trkpt>
      <trkpt lat="47.65778" lon="6.16179">
        <ele>239</ele>
        <time>2020-10-18T13:15:13Z</time>
      </trkpt>
      <trkpt lat="47.65783" lon="6.1617">
        <ele>239</ele>
        <time>2020-10-18T13:15:15Z</time>
      </trkpt>
      <trkpt lat="47.65788" lon="6.16164">
        <ele>240</ele>
        <time>2020-10-18T13:15:17Z</time>
      </trkpt>
      <trkpt lat="47.65793" lon="6.16158">
        <ele>240</ele>
        <time>2020-10-18T13:15:19Z</time>
      </trkpt>
      <trkpt lat="47.658" lon="6.16161">
        <ele>240</ele>
        <time>2020-10-18T13:15:20Z</time>
      </trkpt>
      <trkpt lat="47.65802" lon="6.16151">
        <ele>241</ele>
        <time>2020-10-18T13:15:22Z</time>
      </trkpt>
      <trkpt lat="47.65804" lon="6.16145">
        <ele>241</ele>
        <time>2020-10-18T13:15:24Z</time>
      </trkpt>
      <trkpt lat="47.65807" lon="6.1614">
        <ele>241</ele>
        <time>2020-10-18T13:15:26Z</time>
      </trkpt>
      <trkpt lat="47.65811" lon="6.16134">
        <ele>241</ele>
        <time>2020-10-18T13:15:28Z</time>
      </trkpt>
      <trkpt lat="47.65814" lon="6.1613">
        <ele>241</ele>
        <time>2020-10-18T13:15:30Z</time>
      </trkpt>
      <trkpt lat="47.65819" lon="6.16126">
        <ele>241</ele>
        <time>2020-10-18T13:15:32Z</time>
      </trkpt>
      <trkpt lat="47.65824" lon="6.16119">
        <ele>241</ele>
        <time>2020-10-18T13:15:35Z</time>
      </trkpt>
      <trkpt lat="47.65828" lon="6.16113">
        <ele>241</ele>
        <time>2020-10-18T13:15:37Z</time>
      </trkpt>
      <trkpt lat="47.65833" lon="6.16107">
        <ele>242</ele>
        <time>2020-10-18T13:15:40Z</time>
      </trkpt>
      <trkpt lat="47.65838" lon="6.16102">
        <ele>243</ele>
        <time>2020-10-18T13:15:43Z</time>
      </trkpt>
      <trkpt lat="47.65841" lon="6.16097">
        <ele>243</ele>
        <time>2020-10-18T13:15:46Z</time>
      </trkpt>
      <trkpt lat="47.65845" lon="6.16092">
        <ele>243</ele>
        <time>2020-10-18T13:15:48Z</time>
      </trkpt>
      <trkpt lat="47.65848" lon="6.16087">
        <ele>243</ele>
        <time>2020-10-18T13:15:50Z</time>
      </trkpt>
      <trkpt lat="47.65852" lon="6.16081">
        <ele>242</ele>
        <time>2020-10-18T13:15:52Z</time>
      </trkpt>
      <trkpt lat="47.65857" lon="6.16075">
        <ele>242</ele>
        <time>2020-10-18T13:15:54Z</time>
      </trkpt>
      <trkpt lat="47.65862" lon="6.16069">
        <ele>242</ele>
        <time>2020-10-18T13:15:56Z</time>
      </trkpt>
      <trkpt lat="47.65866" lon="6.16064">
        <ele>242</ele>
        <time>2020-10-18T13:15:58Z</time>
      </trkpt>
      <trkpt lat="47.6587" lon="6.1606">
        <ele>242</ele>
        <time>2020-10-18T13:16:00Z</time>
      </trkpt>
      <trkpt lat="47.65874" lon="6.16053">
        <ele>242</ele>
        <time>2020-10-18T13:16:02Z</time>
      </trkpt>
      <trkpt lat="47.65878" lon="6.16046">
        <ele>242</ele>
        <time>2020-10-18T13:16:04Z</time>
      </trkpt>
      <trkpt lat="47.65881" lon="6.16039">
        <ele>242</ele>
        <time>2020-10-18T13:16:06Z</time>
      </trkpt>
      <trkpt lat="47.65885" lon="6.16031">
        <ele>241</ele>
        <time>2020-10-18T13:16:08Z</time>
      </trkpt>
      <trkpt lat="47.65888" lon="6.16023">
        <ele>241</ele>
        <time>2020-10-18T13:16:10Z</time>
      </trkpt>
      <trkpt lat="47.65893" lon="6.16016">
        <ele>241</ele>
        <time>2020-10-18T13:16:12Z</time>
      </trkpt>
      <trkpt lat="47.65897" lon="6.1601">
        <ele>241</ele>
        <time>2020-10-18T13:16:14Z</time>
      </trkpt>
      <trkpt lat="47.65901" lon="6.16003">
        <ele>240</ele>
        <time>2020-10-18T13:16:16Z</time>
      </trkpt>
      <trkpt lat="47.65904" lon="6.15997">
        <ele>239</ele>
        <time>2020-10-18T13:16:17Z</time>
      </trkpt>
      <trkpt lat="47.65911" lon="6.15987">
        <ele>239</ele>
        <time>2020-10-18T13:16:19Z</time>
      </trkpt>
      <trkpt lat="47.65917" lon="6.15977">
        <ele>236</ele>
        <time>2020-10-18T13:16:21Z</time>
      </trkpt>
      <trkpt lat="47.65921" lon="6.15972">
        <ele>236</ele>
        <time>2020-10-18T13:16:22Z</time>
      </trkpt>
      <trkpt lat="47.65924" lon="6.1596">
        <ele>235</ele>
        <time>2020-10-18T13:16:24Z</time>
      </trkpt>
      <trkpt lat="47.65922" lon="6.15948">
        <ele>235</ele>
        <time>2020-10-18T13:16:26Z</time>
      </trkpt>
      <trkpt lat="47.65919" lon="6.1594">
        <ele>235</ele>
        <time>2020-10-18T13:16:28Z</time>
      </trkpt>
      <trkpt lat="47.65916" lon="6.15932">
        <ele>238</ele>
        <time>2020-10-18T13:16:30Z</time>
      </trkpt>
      <trkpt lat="47.65911" lon="6.15921">
        <ele>237</ele>
        <time>2020-10-18T13:16:32Z</time>
      </trkpt>
      <trkpt lat="47.65907" lon="6.15913">
        <ele>236</ele>
        <time>2020-10-18T13:16:34Z</time>
      </trkpt>
      <trkpt lat="47.65902" lon="6.15904">
        <ele>236</ele>
        <time>2020-10-18T13:16:36Z</time>
      </trkpt>
      <trkpt lat="47.65899" lon="6.15897">
        <ele>236</ele>
        <time>2020-10-18T13:16:38Z</time>
      </trkpt>
      <trkpt lat="47.65893" lon="6.15888">
        <ele>236</ele>
        <time>2020-10-18T13:16:40Z</time>
      </trkpt>
      <trkpt lat="47.65889" lon="6.1588">
        <ele>235</ele>
        <time>2020-10-18T13:16:42Z</time>
      </trkpt>
      <trkpt lat="47.65885" lon="6.15874">
        <ele>235</ele>
        <time>2020-10-18T13:16:44Z</time>
      </trkpt>
      <trkpt lat="47.65881" lon="6.15867">
        <ele>235</ele>
        <time>2020-10-18T13:16:46Z</time>
      </trkpt>
      <trkpt lat="47.65877" lon="6.15861">
        <ele>235</ele>
        <time>2020-10-18T13:16:48Z</time>
      </trkpt>
      <trkpt lat="47.65874" lon="6.15854">
        <ele>235</ele>
        <time>2020-10-18T13:16:50Z</time>
      </trkpt>
      <trkpt lat="47.6587" lon="6.15845">
        <ele>235</ele>
        <time>2020-10-18T13:16:52Z</time>
      </trkpt>
      <trkpt lat="47.65868" lon="6.15838">
        <ele>235</ele>
        <time>2020-10-18T13:16:54Z</time>
      </trkpt>
      <trkpt lat="47.65865" lon="6.15828">
        <ele>232</ele>
        <time>2020-10-18T13:16:56Z</time>
      </trkpt>
      <trkpt lat="47.65864" lon="6.1582">
        <ele>231</ele>
        <time>2020-10-18T13:16:58Z</time>
      </trkpt>
      <trkpt lat="47.65862" lon="6.15811">
        <ele>231</ele>
        <time>2020-10-18T13:17:00Z</time>
      </trkpt>
      <trkpt lat="47.6586" lon="6.15803">
        <ele>231</ele>
        <time>2020-10-18T13:17:02Z</time>
      </trkpt>
      <trkpt lat="47.65858" lon="6.15791">
        <ele>231</ele>
        <time>2020-10-18T13:17:04Z</time>
      </trkpt>
      <trkpt lat="47.65856" lon="6.15782">
        <ele>230</ele>
        <time>2020-10-18T13:17:06Z</time>
      </trkpt>
      <trkpt lat="47.65855" lon="6.15775">
        <ele>230</ele>
        <time>2020-10-18T13:17:08Z</time>
      </trkpt>
      <trkpt lat="47.65853" lon="6.15765">
        <ele>230</ele>
        <time>2020-10-18T13:17:10Z</time>
      </trkpt>
      <trkpt lat="47.65852" lon="6.15755">
        <ele>230</ele>
        <time>2020-10-18T13:17:12Z</time>
      </trkpt>
      <trkpt lat="47.65849" lon="6.15746">
        <ele>228</ele>
        <time>2020-10-18T13:17:14Z</time>
      </trkpt>
      <trkpt lat="47.65847" lon="6.15735">
        <ele>228</ele>
        <time>2020-10-18T13:17:16Z</time>
      </trkpt>
      <trkpt lat="47.65846" lon="6.15727">
        <ele>228</ele>
        <time>2020-10-18T13:17:17Z</time>
      </trkpt>
      <trkpt lat="47.65844" lon="6.15717">
        <ele>228</ele>
        <time>2020-10-18T13:17:19Z</time>
      </trkpt>
      <trkpt lat="47.65843" lon="6.1571">
        <ele>228</ele>
        <time>2020-10-18T13:17:20Z</time>
      </trkpt>
      <trkpt lat="47.65841" lon="6.15702">
        <ele>228</ele>
        <time>2020-10-18T13:17:21Z</time>
      </trkpt>
      <trkpt lat="47.65839" lon="6.1569">
        <ele>228</ele>
        <time>2020-10-18T13:17:23Z</time>
      </trkpt>
      <trkpt lat="47.65836" lon="6.15678">
        <ele>228</ele>
        <time>2020-10-18T13:17:25Z</time>
      </trkpt>
      <trkpt lat="47.65835" lon="6.15669">
        <ele>228</ele>
        <time>2020-10-18T13:17:27Z</time>
      </trkpt>
      <trkpt lat="47.65833" lon="6.15659">
        <ele>228</ele>
        <time>2020-10-18T13:17:28Z</time>
      </trkpt>
      <trkpt lat="47.65831" lon="6.15651">
        <ele>227</ele>
        <time>2020-10-18T13:17:29Z</time>
      </trkpt>
      <trkpt lat="47.6583" lon="6.15645">
        <ele>227</ele>
        <time>2020-10-18T13:17:30Z</time>
      </trkpt>
      <trkpt lat="47.65828" lon="6.15638">
        <ele>227</ele>
        <time>2020-10-18T13:17:30Z</time>
      </trkpt>
      <trkpt lat="47.65826" lon="6.15627">
        <ele>227</ele>
        <time>2020-10-18T13:17:33Z</time>
      </trkpt>
      <trkpt lat="47.65823" lon="6.1561">
        <ele>226</ele>
        <time>2020-10-18T13:17:33Z</time>
      </trkpt>
      <trkpt lat="47.65822" lon="6.15602">
        <ele>226</ele>
        <time>2020-10-18T13:17:34Z</time>
      </trkpt>
      <trkpt lat="47.6582" lon="6.15595">
        <ele>226</ele>
        <time>2020-10-18T13:17:35Z</time>
      </trkpt>
      <trkpt lat="47.65818" lon="6.15587">
        <ele>226</ele>
        <time>2020-10-18T13:17:36Z</time>
      </trkpt>
      <trkpt lat="47.65817" lon="6.1558">
        <ele>225</ele>
        <time>2020-10-18T13:17:37Z</time>
      </trkpt>
      <trkpt lat="47.65815" lon="6.15573">
        <ele>225</ele>
        <time>2020-10-18T13:17:38Z</time>
      </trkpt>
      <trkpt lat="47.65814" lon="6.15565">
        <ele>225</ele>
        <time>2020-10-18T13:17:39Z</time>
      </trkpt>
      <trkpt lat="47.65812" lon="6.15558">
        <ele>224</ele>
        <time>2020-10-18T13:17:40Z</time>
      </trkpt>
      <trkpt lat="47.65811" lon="6.1555">
        <ele>224</ele>
        <time>2020-10-18T13:17:41Z</time>
      </trkpt>
      <trkpt lat="47.65809" lon="6.15543">
        <ele>224</ele>
        <time>2020-10-18T13:17:42Z</time>
      </trkpt>
      <trkpt lat="47.65808" lon="6.15535">
        <ele>224</ele>
        <time>2020-10-18T13:17:43Z</time>
      </trkpt>
      <trkpt lat="47.65806" lon="6.15527">
        <ele>224</ele>
        <time>2020-10-18T13:17:44Z</time>
      </trkpt>
      <trkpt lat="47.65805" lon="6.15518">
        <ele>224</ele>
        <time>2020-10-18T13:17:45Z</time>
      </trkpt>
      <trkpt lat="47.65803" lon="6.1551">
        <ele>224</ele>
        <time>2020-10-18T13:17:46Z</time>
      </trkpt>
      <trkpt lat="47.65801" lon="6.155">
        <ele>222</ele>
        <time>2020-10-18T13:17:47Z</time>
      </trkpt>
      <trkpt lat="47.65799" lon="6.15491">
        <ele>222</ele>
        <time>2020-10-18T13:17:48Z</time>
      </trkpt>
      <trkpt lat="47.65797" lon="6.15481">
        <ele>222</ele>
        <time>2020-10-18T13:17:49Z</time>
      </trkpt>
      <trkpt lat="47.65796" lon="6.15471">
        <ele>222</ele>
        <time>2020-10-18T13:17:50Z</time>
      </trkpt>
      <trkpt lat="47.65794" lon="6.15461">
        <ele>222</ele>
        <time>2020-10-18T13:17:51Z</time>
      </trkpt>
      <trkpt lat="47.65792" lon="6.15451">
        <ele>222</ele>
        <time>2020-10-18T13:17:52Z</time>
      </trkpt>
      <trkpt lat="47.6579" lon="6.15442">
        <ele>222</ele>
        <time>2020-10-18T13:17:53Z</time>
      </trkpt>
      <trkpt lat="47.65789" lon="6.15432">
        <ele>221</ele>
        <time>2020-10-18T13:17:54Z</time>
      </trkpt>
      <trkpt lat="47.65787" lon="6.15423">
        <ele>221</ele>
        <time>2020-10-18T13:17:55Z</time>
      </trkpt>
      <trkpt lat="47.65786" lon="6.15414">
        <ele>221</ele>
        <time>2020-10-18T13:17:56Z</time>
      </trkpt>
      <trkpt lat="47.65784" lon="6.15405">
        <ele>221</ele>
        <time>2020-10-18T13:17:57Z</time>
      </trkpt>
      <trkpt lat="47.65782" lon="6.15396">
        <ele>221</ele>
        <time>2020-10-18T13:17:58Z</time>
      </trkpt>
      <trkpt lat="47.6578" lon="6.15389">
        <ele>221</ele>
        <time>2020-10-18T13:17:59Z</time>
      </trkpt>
      <trkpt lat="47.65779" lon="6.15381">
        <ele>221</ele>
        <time>2020-10-18T13:18:00Z</time>
      </trkpt>
      <trkpt lat="47.65777" lon="6.15373">
        <ele>221</ele>
        <time>2020-10-18T13:18:01Z</time>
      </trkpt>
      <trkpt lat="47.65776" lon="6.15365">
        <ele>221</ele>
        <time>2020-10-18T13:18:02Z</time>
      </trkpt>
      <trkpt lat="47.65774" lon="6.15358">
        <ele>221</ele>
        <time>2020-10-18T13:18:03Z</time>
      </trkpt>
      <trkpt lat="47.65772" lon="6.1535">
        <ele>221</ele>
        <time>2020-10-18T13:18:04Z</time>
      </trkpt>
      <trkpt lat="47.65771" lon="6.15343">
        <ele>221</ele>
        <time>2020-10-18T13:18:05Z</time>
      </trkpt>
      <trkpt lat="47.65769" lon="6.15336">
        <ele>221</ele>
        <time>2020-10-18T13:18:06Z</time>
      </trkpt>
      <trkpt lat="47.65767" lon="6.15324">
        <ele>222</ele>
        <time>2020-10-18T13:18:08Z</time>
      </trkpt>
      <trkpt lat="47.65765" lon="6.15314">
        <ele>222</ele>
        <time>2020-10-18T13:18:10Z</time>
      </trkpt>
      <trkpt lat="47.65763" lon="6.15304">
        <ele>222</ele>
        <time>2020-10-18T13:18:12Z</time>
      </trkpt>
      <trkpt lat="47.65762" lon="6.15293">
        <ele>223</ele>
        <time>2020-10-18T13:18:14Z</time>
      </trkpt>
      <trkpt lat="47.6576" lon="6.15286">
        <ele>223</ele>
        <time>2020-10-18T13:18:18Z</time>
      </trkpt>
      <trkpt lat="47.65759" lon="6.15277">
        <ele>223</ele>
        <time>2020-10-18T13:18:19Z</time>
      </trkpt>
      <trkpt lat="47.65757" lon="6.15268">
        <ele>224</ele>
        <time>2020-10-18T13:18:20Z</time>
      </trkpt>
      <trkpt lat="47.65756" lon="6.1526">
        <ele>224</ele>
        <time>2020-10-18T13:18:23Z</time>
      </trkpt>
      <trkpt lat="47.65754" lon="6.15251">
        <ele>224</ele>
        <time>2020-10-18T13:18:26Z</time>
      </trkpt>
      <trkpt lat="47.65753" lon="6.15243">
        <ele>225</ele>
        <time>2020-10-18T13:18:28Z</time>
      </trkpt>
      <trkpt lat="47.65751" lon="6.15236">
        <ele>225</ele>
        <time>2020-10-18T13:18:29Z</time>
      </trkpt>
      <trkpt lat="47.65749" lon="6.15228">
        <ele>225</ele>
        <time>2020-10-18T13:18:32Z</time>
      </trkpt>
      <trkpt lat="47.65747" lon="6.15221">
        <ele>225</ele>
        <time>2020-10-18T13:18:36Z</time>
      </trkpt>
      <trkpt lat="47.65745" lon="6.15215">
        <ele>225</ele>
        <time>2020-10-18T13:18:38Z</time>
      </trkpt>
      <trkpt lat="47.65744" lon="6.15208">
        <ele>225</ele>
        <time>2020-10-18T13:18:40Z</time>
      </trkpt>
      <trkpt lat="47.65742" lon="6.15201">
        <ele>225</ele>
        <time>2020-10-18T13:18:42Z</time>
      </trkpt>
      <trkpt lat="47.6574" lon="6.15191">
        <ele>226</ele>
        <time>2020-10-18T13:18:45Z</time>
      </trkpt>
      <trkpt lat="47.65739" lon="6.15183">
        <ele>226</ele>
        <time>2020-10-18T13:18:46Z</time>
      </trkpt>
      <trkpt lat="47.65737" lon="6.15175">
        <ele>226</ele>
        <time>2020-10-18T13:18:50Z</time>
      </trkpt>
      <trkpt lat="47.65736" lon="6.15167">
        <ele>226</ele>
        <time>2020-10-18T13:18:53Z</time>
      </trkpt>
      <trkpt lat="47.65733" lon="6.15158">
        <ele>227</ele>
        <time>2020-10-18T13:18:56Z</time>
      </trkpt>
      <trkpt lat="47.65731" lon="6.1515">
        <ele>227</ele>
        <time>2020-10-18T13:18:59Z</time>
      </trkpt>
      <trkpt lat="47.6573" lon="6.15142">
        <ele>227</ele>
        <time>2020-10-18T13:19:00Z</time>
      </trkpt>
      <trkpt lat="47.65729" lon="6.15135">
        <ele>228</ele>
        <time>2020-10-18T13:19:03Z</time>
      </trkpt>
      <trkpt lat="47.65728" lon="6.15128">
        <ele>228</ele>
        <time>2020-10-18T13:19:05Z</time>
      </trkpt>
      <trkpt lat="47.65726" lon="6.1512">
        <ele>228</ele>
        <time>2020-10-18T13:19:06Z</time>
      </trkpt>
      <trkpt lat="47.65725" lon="6.15113">
        <ele>228</ele>
        <time>2020-10-18T13:19:09Z</time>
      </trkpt>
      <trkpt lat="47.65723" lon="6.15104">
        <ele>228</ele>
        <time>2020-10-18T13:19:12Z</time>
      </trkpt>
      <trkpt lat="47.65722" lon="6.15096">
        <ele>228</ele>
        <time>2020-10-18T13:19:14Z</time>
      </trkpt>
      <trkpt lat="47.6572" lon="6.15088">
        <ele>228</ele>
        <time>2020-10-18T13:19:16Z</time>
      </trkpt>
      <trkpt lat="47.65718" lon="6.15081">
        <ele>229</ele>
        <time>2020-10-18T13:19:16Z</time>
      </trkpt>
      <trkpt lat="47.65717" lon="6.15074">
        <ele>229</ele>
        <time>2020-10-18T13:19:19Z</time>
      </trkpt>
      <trkpt lat="47.65715" lon="6.15066">
        <ele>229</ele>
        <time>2020-10-18T13:19:21Z</time>
      </trkpt>
      <trkpt lat="47.65713" lon="6.15059">
        <ele>229</ele>
        <time>2020-10-18T13:19:23Z</time>
      </trkpt>
      <trkpt lat="47.65712" lon="6.15052">
        <ele>229</ele>
        <time>2020-10-18T13:19:23Z</time>
      </trkpt>
      <trkpt lat="47.6571" lon="6.15044">
        <ele>229</ele>
        <time>2020-10-18T13:19:26Z</time>
      </trkpt>
      <trkpt lat="47.65709" lon="6.15036">
        <ele>229</ele>
        <time>2020-10-18T13:19:28Z</time>
      </trkpt>
      <trkpt lat="47.65709" lon="6.15029">
        <ele>229</ele>
        <time>2020-10-18T13:19:30Z</time>
      </trkpt>
      <trkpt lat="47.65712" lon="6.15021">
        <ele>229</ele>
        <time>2020-10-18T13:19:31Z</time>
      </trkpt>
      <trkpt lat="47.65717" lon="6.15021">
        <ele>229</ele>
        <time>2020-10-18T13:19:33Z</time>
      </trkpt>
      <trkpt lat="47.65722" lon="6.1502">
        <ele>229</ele>
        <time>2020-10-18T13:19:35Z</time>
      </trkpt>
      <trkpt lat="47.65728" lon="6.1502">
        <ele>230</ele>
        <time>2020-10-18T13:19:39Z</time>
      </trkpt>
      <trkpt lat="47.65735" lon="6.15021">
        <ele>230</ele>
        <time>2020-10-18T13:19:41Z</time>
      </trkpt>
      <trkpt lat="47.6574" lon="6.15021">
        <ele>230</ele>
        <time>2020-10-18T13:19:43Z</time>
      </trkpt>
      <trkpt lat="47.65747" lon="6.15022">
        <ele>230</ele>
        <time>2020-10-18T13:19:45Z</time>
      </trkpt>
      <trkpt lat="47.65753" lon="6.15023">
        <ele>231</ele>
        <time>2020-10-18T13:19:47Z</time>
      </trkpt>
      <trkpt lat="47.65757" lon="6.15023">
        <ele>231</ele>
        <time>2020-10-18T13:19:49Z</time>
      </trkpt>
      <trkpt lat="47.65762" lon="6.15023">
        <ele>231</ele>
        <time>2020-10-18T13:19:51Z</time>
      </trkpt>
      <trkpt lat="47.65768" lon="6.15023">
        <ele>231</ele>
        <time>2020-10-18T13:19:53Z</time>
      </trkpt>
      <trkpt lat="47.65772" lon="6.15022">
        <ele>230</ele>
        <time>2020-10-18T13:19:54Z</time>
      </trkpt>
      <trkpt lat="47.65778" lon="6.15022">
        <ele>230</ele>
        <time>2020-10-18T13:19:56Z</time>
      </trkpt>
      <trkpt lat="47.65784" lon="6.15022">
        <ele>230</ele>
        <time>2020-10-18T13:19:58Z</time>
      </trkpt>
      <trkpt lat="47.65789" lon="6.15022">
        <ele>230</ele>
        <time>2020-10-18T13:20:00Z</time>
      </trkpt>
      <trkpt lat="47.65796" lon="6.15021">
        <ele>230</ele>
        <time>2020-10-18T13:20:02Z</time>
      </trkpt>
      <trkpt lat="47.65802" lon="6.15021">
        <ele>230</ele>
        <time>2020-10-18T13:20:04Z</time>
      </trkpt>
      <trkpt lat="47.65807" lon="6.15021">
        <ele>230</ele>
        <time>2020-10-18T13:20:05Z</time>
      </trkpt>
      <trkpt lat="47.65813" lon="6.1502">
        <ele>230</ele>
        <time>2020-10-18T13:20:07Z</time>
      </trkpt>
      <trkpt lat="47.65817" lon="6.1502">
        <ele>230</ele>
        <time>2020-10-18T13:20:08Z</time>
      </trkpt>
      <trkpt lat="47.65822" lon="6.1502">
        <ele>230</ele>
        <time>2020-10-18T13:20:09Z</time>
      </trkpt>
      <trkpt lat="47.65828" lon="6.15019">
        <ele>231</ele>
        <time>2020-10-18T13:20:11Z</time>
      </trkpt>
      <trkpt lat="47.65833" lon="6.15019">
        <ele>231</ele>
        <time>2020-10-18T13:20:12Z</time>
      </trkpt>
      <trkpt lat="47.65838" lon="6.15018">
        <ele>230</ele>
        <time>2020-10-18T13:20:13Z</time>
      </trkpt>
      <trkpt lat="47.65842" lon="6.15017">
        <ele>230</ele>
        <time>2020-10-18T13:20:14Z</time>
      </trkpt>
      <trkpt lat="47.65851" lon="6.15018">
        <ele>229</ele>
        <time>2020-10-18T13:20:15Z</time>
      </trkpt>
      <trkpt lat="47.6586" lon="6.15018">
        <ele>229</ele>
        <time>2020-10-18T13:20:18Z</time>
      </trkpt>
      <trkpt lat="47.65865" lon="6.15018">
        <ele>229</ele>
        <time>2020-10-18T13:20:18Z</time>
      </trkpt>
      <trkpt lat="47.65873" lon="6.15018">
        <ele>229</ele>
        <time>2020-10-18T13:20:21Z</time>
      </trkpt>
      <trkpt lat="47.65878" lon="6.15018">
        <ele>229</ele>
        <time>2020-10-18T13:20:22Z</time>
      </trkpt>
      <trkpt lat="47.65884" lon="6.15019">
        <ele>229</ele>
        <time>2020-10-18T13:20:23Z</time>
      </trkpt>
      <trkpt lat="47.65895" lon="6.15019">
        <ele>228</ele>
        <time>2020-10-18T13:20:23Z</time>
      </trkpt>
      <trkpt lat="47.65902" lon="6.15019">
        <ele>228</ele>
        <time>2020-10-18T13:20:24Z</time>
      </trkpt>
      <trkpt lat="47.65909" lon="6.15019">
        <ele>228</ele>
        <time>2020-10-18T13:20:25Z</time>
      </trkpt>
      <trkpt lat="47.65916" lon="6.15019">
        <ele>228</ele>
        <time>2020-10-18T13:20:26Z</time>
      </trkpt>
      <trkpt lat="47.65922" lon="6.1502">
        <ele>227</ele>
        <time>2020-10-18T13:20:27Z</time>
      </trkpt>
      <trkpt lat="47.65929" lon="6.1502">
        <ele>227</ele>
        <time>2020-10-18T13:20:28Z</time>
      </trkpt>
      <trkpt lat="47.65937" lon="6.1502">
        <ele>226</ele>
        <time>2020-10-18T13:20:29Z</time>
      </trkpt>
      <trkpt lat="47.65944" lon="6.1502">
        <ele>226</ele>
        <time>2020-10-18T13:20:30Z</time>
      </trkpt>
      <trkpt lat="47.65952" lon="6.15019">
        <ele>226</ele>
        <time>2020-10-18T13:20:31Z</time>
      </trkpt>
      <trkpt lat="47.65959" lon="6.1502">
        <ele>226</ele>
        <time>2020-10-18T13:20:32Z</time>
      </trkpt>
      <trkpt lat="47.65966" lon="6.1502">
        <ele>226</ele>
        <time>2020-10-18T13:20:33Z</time>
      </trkpt>
      <trkpt lat="47.65973" lon="6.15021">
        <ele>226</ele>
        <time>2020-10-18T13:20:34Z</time>
      </trkpt>
      <trkpt lat="47.6598" lon="6.15021">
        <ele>226</ele>
        <time>2020-10-18T13:20:35Z</time>
      </trkpt>
      <trkpt lat="47.65986" lon="6.15022">
        <ele>225</ele>
        <time>2020-10-18T13:20:36Z</time>
      </trkpt>
      <trkpt lat="47.65992" lon="6.15022">
        <ele>225</ele>
        <time>2020-10-18T13:20:37Z</time>
      </trkpt>
      <trkpt lat="47.65999" lon="6.15022">
        <ele>225</ele>
        <time>2020-10-18T13:20:38Z</time>
      </trkpt>
      <trkpt lat="47.66005" lon="6.15023">
        <ele>225</ele>
        <time>2020-10-18T13:20:39Z</time>
      </trkpt>
      <trkpt lat="47.66011" lon="6.15023">
        <ele>225</ele>
        <time>2020-10-18T13:20:40Z</time>
      </trkpt>
      <trkpt lat="47.66017" lon="6.15023">
        <ele>225</ele>
        <time>2020-10-18T13:20:41Z</time>
      </trkpt>
      <trkpt lat="47.66023" lon="6.15024">
        <ele>225</ele>
        <time>2020-10-18T13:20:42Z</time>
      </trkpt>
      <trkpt lat="47.66029" lon="6.15024">
        <ele>225</ele>
        <time>2020-10-18T13:20:43Z</time>
      </trkpt>
      <trkpt lat="47.66034" lon="6.15024">
        <ele>225</ele>
        <time>2020-10-18T13:20:44Z</time>
      </trkpt>
      <trkpt lat="47.66039" lon="6.15024">
        <ele>226</ele>
        <time>2020-10-18T13:20:45Z</time>
      </trkpt>
      <trkpt lat="47.66044" lon="6.15024">
        <ele>226</ele>
        <time>2020-10-18T13:20:46Z</time>
      </trkpt>
      <trkpt lat="47.66048" lon="6.15023">
        <ele>226</ele>
        <time>2020-10-18T13:20:47Z</time>
      </trkpt>
      <trkpt lat="47.66053" lon="6.15023">
        <ele>226</ele>
        <time>2020-10-18T13:20:48Z</time>
      </trkpt>
      <trkpt lat="47.66061" lon="6.15023">
        <ele>226</ele>
        <time>2020-10-18T13:20:50Z</time>
      </trkpt>
      <trkpt lat="47.66067" lon="6.15023">
        <ele>226</ele>
        <time>2020-10-18T13:20:52Z</time>
      </trkpt>
      <trkpt lat="47.66075" lon="6.15023">
        <ele>226</ele>
        <time>2020-10-18T13:20:54Z</time>
      </trkpt>
      <trkpt lat="47.66083" lon="6.15023">
        <ele>226</ele>
        <time>2020-10-18T13:20:56Z</time>
      </trkpt>
      <trkpt lat="47.6609" lon="6.15024">
        <ele>228</ele>
        <time>2020-10-18T13:20:58Z</time>
      </trkpt>
      <trkpt lat="47.66095" lon="6.15025">
        <ele>228</ele>
        <time>2020-10-18T13:21:00Z</time>
      </trkpt>
      <trkpt lat="47.661" lon="6.15024">
        <ele>228</ele>
        <time>2020-10-18T13:21:04Z</time>
      </trkpt>
      <trkpt lat="47.66104" lon="6.15023">
        <ele>228</ele>
        <time>2020-10-18T13:21:05Z</time>
      </trkpt>
      <trkpt lat="47.6611" lon="6.15023">
        <ele>228</ele>
        <time>2020-10-18T13:21:09Z</time>
      </trkpt>
      <trkpt lat="47.66116" lon="6.15022">
        <ele>228</ele>
        <time>2020-10-18T13:21:12Z</time>
      </trkpt>
      <trkpt lat="47.66122" lon="6.15021">
        <ele>229</ele>
        <time>2020-10-18T13:21:14Z</time>
      </trkpt>
      <trkpt lat="47.66129" lon="6.15022">
        <ele>229</ele>
        <time>2020-10-18T13:21:18Z</time>
      </trkpt>
      <trkpt lat="47.66134" lon="6.15022">
        <ele>229</ele>
        <time>2020-10-18T13:21:19Z</time>
      </trkpt>
      <trkpt lat="47.66139" lon="6.15022">
        <ele>229</ele>
        <time>2020-10-18T13:21:23Z</time>
      </trkpt>
      <trkpt lat="47.66146" lon="6.15022">
        <ele>229</ele>
        <time>2020-10-18T13:21:26Z</time>
      </trkpt>
      <trkpt lat="47.66153" lon="6.15023">
        <ele>230</ele>
        <time>2020-10-18T13:21:29Z</time>
      </trkpt>
      <trkpt lat="47.66158" lon="6.15023">
        <ele>230</ele>
        <time>2020-10-18T13:21:32Z</time>
      </trkpt>
      <trkpt lat="47.66163" lon="6.15021">
        <ele>230</ele>
        <time>2020-10-18T13:21:35Z</time>
      </trkpt>
      <trkpt lat="47.66168" lon="6.15024">
        <ele>232</ele>
        <time>2020-10-18T13:21:38Z</time>
      </trkpt>
      <trkpt lat="47.66175" lon="6.15024">
        <ele>232</ele>
        <time>2020-10-18T13:21:40Z</time>
      </trkpt>
      <trkpt lat="47.6618" lon="6.15024">
        <ele>233</ele>
        <time>2020-10-18T13:21:44Z</time>
      </trkpt>
      <trkpt lat="47.66185" lon="6.15024">
        <ele>233</ele>
        <time>2020-10-18T13:21:47Z</time>
      </trkpt>
      <trkpt lat="47.66189" lon="6.15025">
        <ele>233</ele>
        <time>2020-10-18T13:21:49Z</time>
      </trkpt>
      <trkpt lat="47.66194" lon="6.15025">
        <ele>233</ele>
        <time>2020-10-18T13:21:51Z</time>
      </trkpt>
      <trkpt lat="47.66201" lon="6.15026">
        <ele>233</ele>
        <time>2020-10-18T13:21:53Z</time>
      </trkpt>
      <trkpt lat="47.66207" lon="6.15028">
        <ele>233</ele>
        <time>2020-10-18T13:21:56Z</time>
      </trkpt>
      <trkpt lat="47.66214" lon="6.1503">
        <ele>234</ele>
        <time>2020-10-18T13:22:00Z</time>
      </trkpt>
      <trkpt lat="47.66219" lon="6.15032">
        <ele>234</ele>
        <time>2020-10-18T13:22:04Z</time>
      </trkpt>
      <trkpt lat="47.66224" lon="6.15033">
        <ele>234</ele>
        <time>2020-10-18T13:22:08Z</time>
      </trkpt>
      <trkpt lat="47.6623" lon="6.15035">
        <ele>234</ele>
        <time>2020-10-18T13:22:10Z</time>
      </trkpt>
      <trkpt lat="47.66236" lon="6.15037">
        <ele>234</ele>
        <time>2020-10-18T13:22:15Z</time>
      </trkpt>
      <trkpt lat="47.66242" lon="6.15037">
        <ele>234</ele>
        <time>2020-10-18T13:22:17Z</time>
      </trkpt>
      <trkpt lat="47.66247" lon="6.15039">
        <ele>234</ele>
        <time>2020-10-18T13:22:20Z</time>
      </trkpt>
      <trkpt lat="47.66253" lon="6.1504">
        <ele>237</ele>
        <time>2020-10-18T13:22:23Z</time>
      </trkpt>
      <trkpt lat="47.6626" lon="6.15041">
        <ele>237</ele>
        <time>2020-10-18T13:22:28Z</time>
      </trkpt>
      <trkpt lat="47.66265" lon="6.15042">
        <ele>237</ele>
        <time>2020-10-18T13:22:31Z</time>
      </trkpt>
      <trkpt lat="47.6627" lon="6.15044">
        <ele>237</ele>
        <time>2020-10-18T13:22:34Z</time>
      </trkpt>
      <trkpt lat="47.66276" lon="6.15045">
        <ele>237</ele>
        <time>2020-10-18T13:22:37Z</time>
      </trkpt>
      <trkpt lat="47.66281" lon="6.15046">
        <ele>237</ele>
        <time>2020-10-18T13:22:39Z</time>
      </trkpt>
      <trkpt lat="47.66286" lon="6.15046">
        <ele>237</ele>
        <time>2020-10-18T13:22:43Z</time>
      </trkpt>
      <trkpt lat="47.66291" lon="6.15048">
        <ele>237</ele>
        <time>2020-10-18T13:22:46Z</time>
      </trkpt>
      <trkpt lat="47.66296" lon="6.15049">
        <ele>238</ele>
        <time>2020-10-18T13:22:47Z</time>
      </trkpt>
      <trkpt lat="47.66302" lon="6.1505">
        <ele>238</ele>
        <time>2020-10-18T13:22:51Z</time>
      </trkpt>
      <trkpt lat="47.66308" lon="6.15051">
        <ele>238</ele>
        <time>2020-10-18T13:22:53Z</time>
      </trkpt>
      <trkpt lat="47.66314" lon="6.15052">
        <ele>238</ele>
        <time>2020-10-18T13:22:57Z</time>
      </trkpt>
      <trkpt lat="47.66318" lon="6.15052">
        <ele>238</ele>
        <time>2020-10-18T13:22:59Z</time>
      </trkpt>
      <trkpt lat="47.66324" lon="6.15053">
        <ele>238</ele>
        <time>2020-10-18T13:22:59Z</time>
      </trkpt>
      <trkpt lat="47.66328" lon="6.15053">
        <ele>238</ele>
        <time>2020-10-18T13:23:02Z</time>
      </trkpt>
      <trkpt lat="47.66337" lon="6.15055">
        <ele>239</ele>
        <time>2020-10-18T13:23:03Z</time>
      </trkpt>
      <trkpt lat="47.66344" lon="6.15056">
        <ele>239</ele>
        <time>2020-10-18T13:23:06Z</time>
      </trkpt>
      <trkpt lat="47.6635" lon="6.15056">
        <ele>239</ele>
        <time>2020-10-18T13:23:08Z</time>
      </trkpt>
      <trkpt lat="47.66356" lon="6.15056">
        <ele>239</ele>
        <time>2020-10-18T13:23:10Z</time>
      </trkpt>
      <trkpt lat="47.66361" lon="6.15055">
        <ele>239</ele>
        <time>2020-10-18T13:23:12Z</time>
      </trkpt>
      <trkpt lat="47.66367" lon="6.15054">
        <ele>239</ele>
        <time>2020-10-18T13:23:14Z</time>
      </trkpt>
      <trkpt lat="47.66373" lon="6.15053">
        <ele>239</ele>
        <time>2020-10-18T13:23:16Z</time>
      </trkpt>
      <trkpt lat="47.66379" lon="6.15052">
        <ele>239</ele>
        <time>2020-10-18T13:23:17Z</time>
      </trkpt>
      <trkpt lat="47.66385" lon="6.15051">
        <ele>239</ele>
        <time>2020-10-18T13:23:20Z</time>
      </trkpt>
      <trkpt lat="47.66392" lon="6.15051">
        <ele>239</ele>
        <time>2020-10-18T13:23:21Z</time>
      </trkpt>
      <trkpt lat="47.66397" lon="6.15049">
        <ele>239</ele>
        <time>2020-10-18T13:23:24Z</time>
      </trkpt>
      <trkpt lat="47.66403" lon="6.15048">
        <ele>239</ele>
        <time>2020-10-18T13:23:26Z</time>
      </trkpt>
      <trkpt lat="47.6641" lon="6.15047">
        <ele>240</ele>
        <time>2020-10-18T13:23:28Z</time>
      </trkpt>
      <trkpt lat="47.66416" lon="6.15045">
        <ele>240</ele>
        <time>2020-10-18T13:23:30Z</time>
      </trkpt>
      <trkpt lat="47.66422" lon="6.15044">
        <ele>240</ele>
        <time>2020-10-18T13:23:31Z</time>
      </trkpt>
      <trkpt lat="47.66428" lon="6.15042">
        <ele>240</ele>
        <time>2020-10-18T13:23:34Z</time>
      </trkpt>
      <trkpt lat="47.66435" lon="6.15039">
        <ele>240</ele>
        <time>2020-10-18T13:23:35Z</time>
      </trkpt>
      <trkpt lat="47.6644" lon="6.15038">
        <ele>240</ele>
        <time>2020-10-18T13:23:38Z</time>
      </trkpt>
      <trkpt lat="47.66447" lon="6.15037">
        <ele>241</ele>
        <time>2020-10-18T13:23:40Z</time>
      </trkpt>
      <trkpt lat="47.66456" lon="6.15036">
        <ele>241</ele>
        <time>2020-10-18T13:23:41Z</time>
      </trkpt>
      <trkpt lat="47.66463" lon="6.15036">
        <ele>241</ele>
        <time>2020-10-18T13:23:43Z</time>
      </trkpt>
      <trkpt lat="47.6647" lon="6.15038">
        <ele>241</ele>
        <time>2020-10-18T13:23:46Z</time>
      </trkpt>
      <trkpt lat="47.66479" lon="6.15042">
        <ele>241</ele>
        <time>2020-10-18T13:23:48Z</time>
      </trkpt>
      <trkpt lat="47.66484" lon="6.15044">
        <ele>241</ele>
        <time>2020-10-18T13:23:48Z</time>
      </trkpt>
      <trkpt lat="47.6649" lon="6.15047">
        <ele>241</ele>
        <time>2020-10-18T13:23:51Z</time>
      </trkpt>
      <trkpt lat="47.66495" lon="6.15049">
        <ele>241</ele>
        <time>2020-10-18T13:23:51Z</time>
      </trkpt>
      <trkpt lat="47.66502" lon="6.1505">
        <ele>243</ele>
        <time>2020-10-18T13:23:54Z</time>
      </trkpt>
      <trkpt lat="47.66507" lon="6.1505">
        <ele>243</ele>
        <time>2020-10-18T13:23:56Z</time>
      </trkpt>
      <trkpt lat="47.66513" lon="6.1505">
        <ele>243</ele>
        <time>2020-10-18T13:23:58Z</time>
      </trkpt>
      <trkpt lat="47.66519" lon="6.1505">
        <ele>243</ele>
        <time>2020-10-18T13:23:58Z</time>
      </trkpt>
      <trkpt lat="47.66526" lon="6.15049">
        <ele>243</ele>
        <time>2020-10-18T13:24:00Z</time>
      </trkpt>
      <trkpt lat="47.66531" lon="6.15048">
        <ele>243</ele>
        <time>2020-10-18T13:24:03Z</time>
      </trkpt>
      <trkpt lat="47.66538" lon="6.15048">
        <ele>244</ele>
        <time>2020-10-18T13:24:04Z</time>
      </trkpt>
      <trkpt lat="47.66543" lon="6.15047">
        <ele>244</ele>
        <time>2020-10-18T13:24:08Z</time>
      </trkpt>
      <trkpt lat="47.66549" lon="6.15047">
        <ele>244</ele>
        <time>2020-10-18T13:24:09Z</time>
      </trkpt>
      <trkpt lat="47.66555" lon="6.15047">
        <ele>244</ele>
        <time>2020-10-18T13:24:13Z</time>
      </trkpt>
      <trkpt lat="47.66559" lon="6.15042">
        <ele>244</ele>
        <time>2020-10-18T13:24:16Z</time>
      </trkpt>
      <trkpt lat="47.66563" lon="6.15037">
        <ele>244</ele>
        <time>2020-10-18T13:24:17Z</time>
      </trkpt>
      <trkpt lat="47.66567" lon="6.15033">
        <ele>245</ele>
        <time>2020-10-18T13:24:19Z</time>
      </trkpt>
      <trkpt lat="47.6657" lon="6.15028">
        <ele>245</ele>
        <time>2020-10-18T13:24:23Z</time>
      </trkpt>
      <trkpt lat="47.66573" lon="6.15022">
        <ele>245</ele>
        <time>2020-10-18T13:24:24Z</time>
      </trkpt>
      <trkpt lat="47.66577" lon="6.15017">
        <ele>245</ele>
        <time>2020-10-18T13:24:27Z</time>
      </trkpt>
      <trkpt lat="47.66581" lon="6.15011">
        <ele>245</ele>
        <time>2020-10-18T13:24:31Z</time>
      </trkpt>
      <trkpt lat="47.66585" lon="6.15005">
        <ele>247</ele>
        <time>2020-10-18T13:24:34Z</time>
      </trkpt>
      <trkpt lat="47.66587" lon="6.15">
        <ele>247</ele>
        <time>2020-10-18T13:24:37Z</time>
      </trkpt>
      <trkpt lat="47.66591" lon="6.14994">
        <ele>247</ele>
        <time>2020-10-18T13:24:39Z</time>
      </trkpt>
      <trkpt lat="47.66595" lon="6.14991">
        <ele>248</ele>
        <time>2020-10-18T13:24:42Z</time>
      </trkpt>
      <trkpt lat="47.66599" lon="6.14986">
        <ele>248</ele>
        <time>2020-10-18T13:24:45Z</time>
      </trkpt>
      <trkpt lat="47.66602" lon="6.1498">
        <ele>249</ele>
        <time>2020-10-18T13:24:50Z</time>
      </trkpt>
      <trkpt lat="47.66605" lon="6.14973">
        <ele>249</ele>
        <time>2020-10-18T13:24:54Z</time>
      </trkpt>
      <trkpt lat="47.66609" lon="6.14969">
        <ele>249</ele>
        <time>2020-10-18T13:24:57Z</time>
      </trkpt>
      <trkpt lat="47.66611" lon="6.14963">
        <ele>249</ele>
        <time>2020-10-18T13:24:59Z</time>
      </trkpt>
      <trkpt lat="47.66614" lon="6.14958">
        <ele>249</ele>
        <time>2020-10-18T13:25:04Z</time>
      </trkpt>
      <trkpt lat="47.66618" lon="6.14952">
        <ele>250</ele>
        <time>2020-10-18T13:25:07Z</time>
      </trkpt>
      <trkpt lat="47.66621" lon="6.14947">
        <ele>250</ele>
        <time>2020-10-18T13:25:11Z</time>
      </trkpt>
      <trkpt lat="47.66624" lon="6.14941">
        <ele>250</ele>
        <time>2020-10-18T13:25:15Z</time>
      </trkpt>
      <trkpt lat="47.66627" lon="6.14936">
        <ele>250</ele>
        <time>2020-10-18T13:25:20Z</time>
      </trkpt>
      <trkpt lat="47.66631" lon="6.14931">
        <ele>250</ele>
        <time>2020-10-18T13:25:24Z</time>
      </trkpt>
      <trkpt lat="47.66634" lon="6.14925">
        <ele>251</ele>
        <time>2020-10-18T13:25:27Z</time>
      </trkpt>
      <trkpt lat="47.66637" lon="6.14919">
        <ele>251</ele>
        <time>2020-10-18T13:25:30Z</time>
      </trkpt>
      <trkpt lat="47.66639" lon="6.14913">
        <ele>252</ele>
        <time>2020-10-18T13:25:32Z</time>
      </trkpt>
      <trkpt lat="47.66641" lon="6.14905">
        <ele>252</ele>
        <time>2020-10-18T13:25:35Z</time>
      </trkpt>
      <trkpt lat="47.66644" lon="6.14897">
        <ele>252</ele>
        <time>2020-10-18T13:25:38Z</time>
      </trkpt>
      <trkpt lat="47.66646" lon="6.14891">
        <ele>252</ele>
        <time>2020-10-18T13:25:40Z</time>
      </trkpt>
      <trkpt lat="47.66649" lon="6.14882">
        <ele>253</ele>
        <time>2020-10-18T13:25:42Z</time>
      </trkpt>
      <trkpt lat="47.66651" lon="6.14875">
        <ele>253</ele>
        <time>2020-10-18T13:25:45Z</time>
      </trkpt>
      <trkpt lat="47.66654" lon="6.14868">
        <ele>253</ele>
        <time>2020-10-18T13:25:48Z</time>
      </trkpt>
      <trkpt lat="47.66655" lon="6.14861">
        <ele>253</ele>
        <time>2020-10-18T13:25:51Z</time>
      </trkpt>
      <trkpt lat="47.66657" lon="6.14854">
        <ele>253</ele>
        <time>2020-10-18T13:25:54Z</time>
      </trkpt>
      <trkpt lat="47.6666" lon="6.14848">
        <ele>254</ele>
        <time>2020-10-18T13:25:57Z</time>
      </trkpt>
      <trkpt lat="47.66662" lon="6.14841">
        <ele>254</ele>
        <time>2020-10-18T13:26:01Z</time>
      </trkpt>
      <trkpt lat="47.66665" lon="6.14835">
        <ele>255</ele>
        <time>2020-10-18T13:26:03Z</time>
      </trkpt>
      <trkpt lat="47.66667" lon="6.14827">
        <ele>255</ele>
        <time>2020-10-18T13:26:07Z</time>
      </trkpt>
      <trkpt lat="47.66669" lon="6.14819">
        <ele>256</ele>
        <time>2020-10-18T13:26:11Z</time>
      </trkpt>
      <trkpt lat="47.66672" lon="6.14811">
        <ele>256</ele>
        <time>2020-10-18T13:26:13Z</time>
      </trkpt>
      <trkpt lat="47.66675" lon="6.14805">
        <ele>256</ele>
        <time>2020-10-18T13:26:15Z</time>
      </trkpt>
      <trkpt lat="47.66679" lon="6.14797">
        <ele>257</ele>
        <time>2020-10-18T13:26:16Z</time>
      </trkpt>
      <trkpt lat="47.66684" lon="6.14795">
        <ele>257</ele>
        <time>2020-10-18T13:26:18Z</time>
      </trkpt>
      <trkpt lat="47.6669" lon="6.14798">
        <ele>257</ele>
        <time>2020-10-18T13:26:21Z</time>
      </trkpt>
      <trkpt lat="47.66695" lon="6.14801">
        <ele>257</ele>
        <time>2020-10-18T13:26:23Z</time>
      </trkpt>
      <trkpt lat="47.66699" lon="6.14805">
        <ele>257</ele>
        <time>2020-10-18T13:26:25Z</time>
      </trkpt>
      <trkpt lat="47.66704" lon="6.14808">
        <ele>257</ele>
        <time>2020-10-18T13:26:27Z</time>
      </trkpt>
      <trkpt lat="47.66709" lon="6.14809">
        <ele>257</ele>
        <time>2020-10-18T13:26:29Z</time>
      </trkpt>
      <trkpt lat="47.66714" lon="6.14806">
        <ele>257</ele>
        <time>2020-10-18T13:26:32Z</time>
      </trkpt>
      <trkpt lat="47.66718" lon="6.148">
        <ele>257</ele>
        <time>2020-10-18T13:26:33Z</time>
      </trkpt>
      <trkpt lat="47.6672" lon="6.14793">
        <ele>257</ele>
        <time>2020-10-18T13:26:36Z</time>
      </trkpt>
      <trkpt lat="47.66722" lon="6.14786">
        <ele>257</ele>
        <time>2020-10-18T13:26:38Z</time>
      </trkpt>
      <trkpt lat="47.66724" lon="6.14777">
        <ele>257</ele>
        <time>2020-10-18T13:26:39Z</time>
      </trkpt>
      <trkpt lat="47.66725" lon="6.1477">
        <ele>258</ele>
        <time>2020-10-18T13:26:41Z</time>
      </trkpt>
      <trkpt lat="47.66726" lon="6.14764">
        <ele>258</ele>
        <time>2020-10-18T13:26:43Z</time>
      </trkpt>
      <trkpt lat="47.66727" lon="6.14756">
        <ele>258</ele>
        <time>2020-10-18T13:26:45Z</time>
      </trkpt>
      <trkpt lat="47.66729" lon="6.14746">
        <ele>258</ele>
        <time>2020-10-18T13:26:49Z</time>
      </trkpt>
      <trkpt lat="47.6673" lon="6.14737">
        <ele>258</ele>
        <time>2020-10-18T13:26:50Z</time>
      </trkpt>
      <trkpt lat="47.66732" lon="6.14728">
        <ele>258</ele>
        <time>2020-10-18T13:26:53Z</time>
      </trkpt>
      <trkpt lat="47.66733" lon="6.1472">
        <ele>258</ele>
        <time>2020-10-18T13:26:55Z</time>
      </trkpt>
      <trkpt lat="47.66734" lon="6.1471">
        <ele>258</ele>
        <time>2020-10-18T13:26:57Z</time>
      </trkpt>
      <trkpt lat="47.66735" lon="6.14702">
        <ele>258</ele>
        <time>2020-10-18T13:26:58Z</time>
      </trkpt>
      <trkpt lat="47.66734" lon="6.14693">
        <ele>258</ele>
        <time>2020-10-18T13:27:00Z</time>
      </trkpt>
      <trkpt lat="47.66734" lon="6.14684">
        <ele>258</ele>
        <time>2020-10-18T13:27:02Z</time>
      </trkpt>
      <trkpt lat="47.66733" lon="6.14674">
        <ele>258</ele>
        <time>2020-10-18T13:27:04Z</time>
      </trkpt>
      <trkpt lat="47.66733" lon="6.14666">
        <ele>257</ele>
        <time>2020-10-18T13:27:06Z</time>
      </trkpt>
      <trkpt lat="47.66732" lon="6.14658">
        <ele>257</ele>
        <time>2020-10-18T13:27:06Z</time>
      </trkpt>
      <trkpt lat="47.66732" lon="6.14651">
        <ele>257</ele>
        <time>2020-10-18T13:27:09Z</time>
      </trkpt>
      <trkpt lat="47.66731" lon="6.14644">
        <ele>256</ele>
        <time>2020-10-18T13:27:09Z</time>
      </trkpt>
      <trkpt lat="47.66731" lon="6.14636">
        <ele>256</ele>
        <time>2020-10-18T13:27:12Z</time>
      </trkpt>
      <trkpt lat="47.6673" lon="6.14627">
        <ele>256</ele>
        <time>2020-10-18T13:27:14Z</time>
      </trkpt>
      <trkpt lat="47.66729" lon="6.14617">
        <ele>256</ele>
        <time>2020-10-18T13:27:15Z</time>
      </trkpt>
      <trkpt lat="47.66728" lon="6.1461">
        <ele>256</ele>
        <time>2020-10-18T13:27:18Z</time>
      </trkpt>
      <trkpt lat="47.66726" lon="6.14599">
        <ele>256</ele>
        <time>2020-10-18T13:27:19Z</time>
      </trkpt>
      <trkpt lat="47.66725" lon="6.14591">
        <ele>256</ele>
        <time>2020-10-18T13:27:22Z</time>
      </trkpt>
      <trkpt lat="47.66724" lon="6.1458">
        <ele>255</ele>
        <time>2020-10-18T13:27:24Z</time>
      </trkpt>
      <trkpt lat="47.66723" lon="6.14571">
        <ele>255</ele>
        <time>2020-10-18T13:27:26Z</time>
      </trkpt>
      <trkpt lat="47.66722" lon="6.14564">
        <ele>255</ele>
        <time>2020-10-18T13:27:27Z</time>
      </trkpt>
      <trkpt lat="47.66721" lon="6.14557">
        <ele>255</ele>
        <time>2020-10-18T13:27:27Z</time>
      </trkpt>
      <trkpt lat="47.6672" lon="6.14546">
        <ele>255</ele>
        <time>2020-10-18T13:27:30Z</time>
      </trkpt>
      <trkpt lat="47.66718" lon="6.14535">
        <ele>255</ele>
        <time>2020-10-18T13:27:31Z</time>
      </trkpt>
      <trkpt lat="47.66718" lon="6.14522">
        <ele>255</ele>
        <time>2020-10-18T13:27:33Z</time>
      </trkpt>
      <trkpt lat="47.66717" lon="6.14515">
        <ele>255</ele>
        <time>2020-10-18T13:27:34Z</time>
      </trkpt>
      <trkpt lat="47.66716" lon="6.14502">
        <ele>255</ele>
        <time>2020-10-18T13:27:37Z</time>
      </trkpt>
      <trkpt lat="47.66715" lon="6.14496">
        <ele>254</ele>
        <time>2020-10-18T13:27:39Z</time>
      </trkpt>
      <trkpt lat="47.66715" lon="6.14479">
        <ele>254</ele>
        <time>2020-10-18T13:27:39Z</time>
      </trkpt>
      <trkpt lat="47.66715" lon="6.14468">
        <ele>254</ele>
        <time>2020-10-18T13:27:42Z</time>
      </trkpt>
      <trkpt lat="47.66716" lon="6.14456">
        <ele>254</ele>
        <time>2020-10-18T13:27:42Z</time>
      </trkpt>
      <trkpt lat="47.66716" lon="6.14444">
        <ele>253</ele>
        <time>2020-10-18T13:27:45Z</time>
      </trkpt>
      <trkpt lat="47.66718" lon="6.14429">
        <ele>253</ele>
        <time>2020-10-18T13:27:45Z</time>
      </trkpt>
      <trkpt lat="47.66718" lon="6.14421">
        <ele>253</ele>
        <time>2020-10-18T13:27:46Z</time>
      </trkpt>
      <trkpt lat="47.66719" lon="6.14414">
        <ele>252</ele>
        <time>2020-10-18T13:27:47Z</time>
      </trkpt>
      <trkpt lat="47.6672" lon="6.14406">
        <ele>252</ele>
        <time>2020-10-18T13:27:48Z</time>
      </trkpt>
      <trkpt lat="47.66721" lon="6.14398">
        <ele>252</ele>
        <time>2020-10-18T13:27:49Z</time>
      </trkpt>
      <trkpt lat="47.66723" lon="6.14391">
        <ele>251</ele>
        <time>2020-10-18T13:27:50Z</time>
      </trkpt>
      <trkpt lat="47.66724" lon="6.14383">
        <ele>251</ele>
        <time>2020-10-18T13:27:51Z</time>
      </trkpt>
      <trkpt lat="47.66726" lon="6.14374">
        <ele>251</ele>
        <time>2020-10-18T13:27:52Z</time>
      </trkpt>
      <trkpt lat="47.66728" lon="6.14364">
        <ele>251</ele>
        <time>2020-10-18T13:27:53Z</time>
      </trkpt>
      <trkpt lat="47.66729" lon="6.14354">
        <ele>250</ele>
        <time>2020-10-18T13:27:54Z</time>
      </trkpt>
      <trkpt lat="47.66731" lon="6.14343">
        <ele>250</ele>
        <time>2020-10-18T13:27:55Z</time>
      </trkpt>
      <trkpt lat="47.66733" lon="6.14332">
        <ele>248</ele>
        <time>2020-10-18T13:27:56Z</time>
      </trkpt>
      <trkpt lat="47.66735" lon="6.1432">
        <ele>248</ele>
        <time>2020-10-18T13:27:57Z</time>
      </trkpt>
      <trkpt lat="47.66738" lon="6.14309">
        <ele>247</ele>
        <time>2020-10-18T13:27:58Z</time>
      </trkpt>
      <trkpt lat="47.66741" lon="6.14299">
        <ele>247</ele>
        <time>2020-10-18T13:27:59Z</time>
      </trkpt>
      <trkpt lat="47.66743" lon="6.1429">
        <ele>247</ele>
        <time>2020-10-18T13:28:00Z</time>
      </trkpt>
      <trkpt lat="47.66745" lon="6.14282">
        <ele>247</ele>
        <time>2020-10-18T13:28:01Z</time>
      </trkpt>
      <trkpt lat="47.66747" lon="6.14275">
        <ele>246</ele>
        <time>2020-10-18T13:28:02Z</time>
      </trkpt>
      <trkpt lat="47.66748" lon="6.14268">
        <ele>245</ele>
        <time>2020-10-18T13:28:03Z</time>
      </trkpt>
      <trkpt lat="47.6675" lon="6.14261">
        <ele>245</ele>
        <time>2020-10-18T13:28:04Z</time>
      </trkpt>
      <trkpt lat="47.66752" lon="6.14252">
        <ele>243</ele>
        <time>2020-10-18T13:28:06Z</time>
      </trkpt>
      <trkpt lat="47.66754" lon="6.14243">
        <ele>242</ele>
        <time>2020-10-18T13:28:08Z</time>
      </trkpt>
      <trkpt lat="47.66756" lon="6.14234">
        <ele>242</ele>
        <time>2020-10-18T13:28:11Z</time>
      </trkpt>
      <trkpt lat="47.66751" lon="6.14228">
        <ele>242</ele>
        <time>2020-10-18T13:28:14Z</time>
      </trkpt>
      <trkpt lat="47.66755" lon="6.14222">
        <ele>241</ele>
        <time>2020-10-18T13:28:14Z</time>
      </trkpt>
      <trkpt lat="47.66759" lon="6.14213">
        <ele>241</ele>
        <time>2020-10-18T13:28:17Z</time>
      </trkpt>
      <trkpt lat="47.66762" lon="6.14202">
        <ele>241</ele>
        <time>2020-10-18T13:28:17Z</time>
      </trkpt>
      <trkpt lat="47.66763" lon="6.14194">
        <ele>241</ele>
        <time>2020-10-18T13:28:18Z</time>
      </trkpt>
      <trkpt lat="47.66765" lon="6.14185">
        <ele>241</ele>
        <time>2020-10-18T13:28:19Z</time>
      </trkpt>
      <trkpt lat="47.66766" lon="6.14176">
        <ele>240</ele>
        <time>2020-10-18T13:28:20Z</time>
      </trkpt>
      <trkpt lat="47.66767" lon="6.14166">
        <ele>240</ele>
        <time>2020-10-18T13:28:21Z</time>
      </trkpt>
      <trkpt lat="47.66768" lon="6.14155">
        <ele>240</ele>
        <time>2020-10-18T13:28:22Z</time>
      </trkpt>
      <trkpt lat="47.66769" lon="6.14146">
        <ele>239</ele>
        <time>2020-10-18T13:28:23Z</time>
      </trkpt>
      <trkpt lat="47.6677" lon="6.14137">
        <ele>239</ele>
        <time>2020-10-18T13:28:24Z</time>
      </trkpt>
      <trkpt lat="47.66771" lon="6.14129">
        <ele>239</ele>
        <time>2020-10-18T13:28:25Z</time>
      </trkpt>
      <trkpt lat="47.66771" lon="6.14121">
        <ele>239</ele>
        <time>2020-10-18T13:28:26Z</time>
      </trkpt>
      <trkpt lat="47.66771" lon="6.14114">
        <ele>239</ele>
        <time>2020-10-18T13:28:27Z</time>
      </trkpt>
      <trkpt lat="47.66769" lon="6.14108">
        <ele>239</ele>
        <time>2020-10-18T13:28:28Z</time>
      </trkpt>
      <trkpt lat="47.66766" lon="6.14102">
        <ele>239</ele>
        <time>2020-10-18T13:28:29Z</time>
      </trkpt>
      <trkpt lat="47.66764" lon="6.14097">
        <ele>238</ele>
        <time>2020-10-18T13:28:30Z</time>
      </trkpt>
      <trkpt lat="47.66761" lon="6.1409">
        <ele>238</ele>
        <time>2020-10-18T13:28:31Z</time>
      </trkpt>
      <trkpt lat="47.66758" lon="6.14084">
        <ele>238</ele>
        <time>2020-10-18T13:28:32Z</time>
      </trkpt>
      <trkpt lat="47.66756" lon="6.14078">
        <ele>237</ele>
        <time>2020-10-18T13:28:33Z</time>
      </trkpt>
      <trkpt lat="47.66753" lon="6.14071">
        <ele>237</ele>
        <time>2020-10-18T13:28:34Z</time>
      </trkpt>
      <trkpt lat="47.6675" lon="6.14065">
        <ele>238</ele>
        <time>2020-10-18T13:28:35Z</time>
      </trkpt>
      <trkpt lat="47.66747" lon="6.14059">
        <ele>237</ele>
        <time>2020-10-18T13:28:36Z</time>
      </trkpt>
      <trkpt lat="47.66745" lon="6.14053">
        <ele>237</ele>
        <time>2020-10-18T13:28:37Z</time>
      </trkpt>
      <trkpt lat="47.66741" lon="6.14043">
        <ele>237</ele>
        <time>2020-10-18T13:28:39Z</time>
      </trkpt>
      <trkpt lat="47.66739" lon="6.14037">
        <ele>237</ele>
        <time>2020-10-18T13:28:40Z</time>
      </trkpt>
      <trkpt lat="47.66736" lon="6.14031">
        <ele>237</ele>
        <time>2020-10-18T13:28:41Z</time>
      </trkpt>
      <trkpt lat="47.66731" lon="6.14021">
        <ele>237</ele>
        <time>2020-10-18T13:28:43Z</time>
      </trkpt>
      <trkpt lat="47.6672" lon="6.14012">
        <ele>237</ele>
        <time>2020-10-18T13:28:46Z</time>
      </trkpt>
      <trkpt lat="47.6672" lon="6.14004">
        <ele>237</ele>
        <time>2020-10-18T13:28:48Z</time>
      </trkpt>
      <trkpt lat="47.66719" lon="6.13997">
        <ele>235</ele>
        <time>2020-10-18T13:28:49Z</time>
      </trkpt>
      <trkpt lat="47.66716" lon="6.13986">
        <ele>235</ele>
        <time>2020-10-18T13:28:50Z</time>
      </trkpt>
      <trkpt lat="47.66713" lon="6.13979">
        <ele>235</ele>
        <time>2020-10-18T13:28:53Z</time>
      </trkpt>
      <trkpt lat="47.6671" lon="6.13972">
        <ele>235</ele>
        <time>2020-10-18T13:28:53Z</time>
      </trkpt>
      <trkpt lat="47.66707" lon="6.13963">
        <ele>235</ele>
        <time>2020-10-18T13:28:56Z</time>
      </trkpt>
      <trkpt lat="47.66704" lon="6.13957">
        <ele>235</ele>
        <time>2020-10-18T13:28:56Z</time>
      </trkpt>
      <trkpt lat="47.667" lon="6.13948">
        <ele>235</ele>
        <time>2020-10-18T13:28:59Z</time>
      </trkpt>
      <trkpt lat="47.66698" lon="6.13941">
        <ele>234</ele>
        <time>2020-10-18T13:29:00Z</time>
      </trkpt>
      <trkpt lat="47.66697" lon="6.13933">
        <ele>234</ele>
        <time>2020-10-18T13:29:00Z</time>
      </trkpt>
      <trkpt lat="47.66695" lon="6.13924">
        <ele>234</ele>
        <time>2020-10-18T13:29:03Z</time>
      </trkpt>
      <trkpt lat="47.66694" lon="6.13916">
        <ele>233</ele>
        <time>2020-10-18T13:29:04Z</time>
      </trkpt>
      <trkpt lat="47.66693" lon="6.13909">
        <ele>233</ele>
        <time>2020-10-18T13:29:05Z</time>
      </trkpt>
      <trkpt lat="47.66692" lon="6.13896">
        <ele>233</ele>
        <time>2020-10-18T13:29:07Z</time>
      </trkpt>
      <trkpt lat="47.66691" lon="6.13887">
        <ele>233</ele>
        <time>2020-10-18T13:29:08Z</time>
      </trkpt>
      <trkpt lat="47.6669" lon="6.1388">
        <ele>233</ele>
        <time>2020-10-18T13:29:08Z</time>
      </trkpt>
      <trkpt lat="47.66688" lon="6.13868">
        <ele>232</ele>
        <time>2020-10-18T13:29:11Z</time>
      </trkpt>
      <trkpt lat="47.66687" lon="6.13861">
        <ele>232</ele>
        <time>2020-10-18T13:29:12Z</time>
      </trkpt>
      <trkpt lat="47.66685" lon="6.13847">
        <ele>232</ele>
        <time>2020-10-18T13:29:13Z</time>
      </trkpt>
      <trkpt lat="47.66684" lon="6.13838">
        <ele>232</ele>
        <time>2020-10-18T13:29:16Z</time>
      </trkpt>
      <trkpt lat="47.66683" lon="6.13829">
        <ele>232</ele>
        <time>2020-10-18T13:29:16Z</time>
      </trkpt>
      <trkpt lat="47.66681" lon="6.13818">
        <ele>232</ele>
        <time>2020-10-18T13:29:19Z</time>
      </trkpt>
      <trkpt lat="47.6668" lon="6.1381">
        <ele>232</ele>
        <time>2020-10-18T13:29:21Z</time>
      </trkpt>
      <trkpt lat="47.66679" lon="6.138">
        <ele>232</ele>
        <time>2020-10-18T13:29:22Z</time>
      </trkpt>
      <trkpt lat="47.66678" lon="6.1379">
        <ele>232</ele>
        <time>2020-10-18T13:29:24Z</time>
      </trkpt>
      <trkpt lat="47.66677" lon="6.13782">
        <ele>232</ele>
        <time>2020-10-18T13:29:25Z</time>
      </trkpt>
      <trkpt lat="47.66675" lon="6.13771">
        <ele>232</ele>
        <time>2020-10-18T13:29:27Z</time>
      </trkpt>
      <trkpt lat="47.66673" lon="6.13763">
        <ele>232</ele>
        <time>2020-10-18T13:29:29Z</time>
      </trkpt>
      <trkpt lat="47.66669" lon="6.13752">
        <ele>231</ele>
        <time>2020-10-18T13:29:31Z</time>
      </trkpt>
      <trkpt lat="47.66666" lon="6.13745">
        <ele>231</ele>
        <time>2020-10-18T13:29:33Z</time>
      </trkpt>
      <trkpt lat="47.66661" lon="6.1374">
        <ele>231</ele>
        <time>2020-10-18T13:29:33Z</time>
      </trkpt>
      <trkpt lat="47.66654" lon="6.13736">
        <ele>232</ele>
        <time>2020-10-18T13:29:35Z</time>
      </trkpt>
      <trkpt lat="47.66648" lon="6.13733">
        <ele>232</ele>
        <time>2020-10-18T13:29:38Z</time>
      </trkpt>
      <trkpt lat="47.66642" lon="6.13731">
        <ele>232</ele>
        <time>2020-10-18T13:29:39Z</time>
      </trkpt>
      <trkpt lat="47.66634" lon="6.13727">
        <ele>232</ele>
        <time>2020-10-18T13:29:41Z</time>
      </trkpt>
      <trkpt lat="47.66628" lon="6.13725">
        <ele>232</ele>
        <time>2020-10-18T13:29:43Z</time>
      </trkpt>
      <trkpt lat="47.66623" lon="6.13722">
        <ele>232</ele>
        <time>2020-10-18T13:29:44Z</time>
      </trkpt>
      <trkpt lat="47.66615" lon="6.13719">
        <ele>232</ele>
        <time>2020-10-18T13:29:46Z</time>
      </trkpt>
      <trkpt lat="47.6661" lon="6.13718">
        <ele>232</ele>
        <time>2020-10-18T13:29:47Z</time>
      </trkpt>
      <trkpt lat="47.66605" lon="6.13716">
        <ele>232</ele>
        <time>2020-10-18T13:29:48Z</time>
      </trkpt>
      <trkpt lat="47.66597" lon="6.13713">
        <ele>232</ele>
        <time>2020-10-18T13:29:50Z</time>
      </trkpt>
      <trkpt lat="47.66593" lon="6.13711">
        <ele>232</ele>
        <time>2020-10-18T13:29:51Z</time>
      </trkpt>
      <trkpt lat="47.66587" lon="6.13709">
        <ele>232</ele>
        <time>2020-10-18T13:29:53Z</time>
      </trkpt>
      <trkpt lat="47.66581" lon="6.13707">
        <ele>232</ele>
        <time>2020-10-18T13:29:54Z</time>
      </trkpt>
      <trkpt lat="47.66576" lon="6.13705">
        <ele>232</ele>
        <time>2020-10-18T13:29:56Z</time>
      </trkpt>
      <trkpt lat="47.66571" lon="6.13701">
        <ele>232</ele>
        <time>2020-10-18T13:29:57Z</time>
      </trkpt>
      <trkpt lat="47.66568" lon="6.13693">
        <ele>232</ele>
        <time>2020-10-18T13:29:59Z</time>
      </trkpt>
      <trkpt lat="47.66568" lon="6.13685">
        <ele>232</ele>
        <time>2020-10-18T13:30:00Z</time>
      </trkpt>
      <trkpt lat="47.66569" lon="6.13678">
        <ele>232</ele>
        <time>2020-10-18T13:30:02Z</time>
      </trkpt>
      <trkpt lat="47.6657" lon="6.13671">
        <ele>232</ele>
        <time>2020-10-18T13:30:03Z</time>
      </trkpt>
      <trkpt lat="47.6657" lon="6.13664">
        <ele>232</ele>
        <time>2020-10-18T13:30:04Z</time>
      </trkpt>
      <trkpt lat="47.66572" lon="6.13652">
        <ele>232</ele>
        <time>2020-10-18T13:30:06Z</time>
      </trkpt>
      <trkpt lat="47.66573" lon="6.13642">
        <ele>231</ele>
        <time>2020-10-18T13:30:08Z</time>
      </trkpt>
      <trkpt lat="47.66575" lon="6.13633">
        <ele>231</ele>
        <time>2020-10-18T13:30:10Z</time>
      </trkpt>
      <trkpt lat="47.66576" lon="6.13624">
        <ele>231</ele>
        <time>2020-10-18T13:30:12Z</time>
      </trkpt>
      <trkpt lat="47.66577" lon="6.13616">
        <ele>231</ele>
        <time>2020-10-18T13:30:14Z</time>
      </trkpt>
      <trkpt lat="47.66578" lon="6.13605">
        <ele>231</ele>
        <time>2020-10-18T13:30:17Z</time>
      </trkpt>
      <trkpt lat="47.66579" lon="6.13596">
        <ele>231</ele>
        <time>2020-10-18T13:30:19Z</time>
      </trkpt>
      <trkpt lat="47.66579" lon="6.13588">
        <ele>232</ele>
        <time>2020-10-18T13:30:21Z</time>
      </trkpt>
      <trkpt lat="47.66579" lon="6.13578">
        <ele>231</ele>
        <time>2020-10-18T13:30:24Z</time>
      </trkpt>
      <trkpt lat="47.6658" lon="6.13571">
        <ele>231</ele>
        <time>2020-10-18T13:30:26Z</time>
      </trkpt>
      <trkpt lat="47.66582" lon="6.13559">
        <ele>231</ele>
        <time>2020-10-18T13:30:29Z</time>
      </trkpt>
      <trkpt lat="47.66582" lon="6.13552">
        <ele>230</ele>
        <time>2020-10-18T13:30:31Z</time>
      </trkpt>
      <trkpt lat="47.66583" lon="6.13543">
        <ele>232</ele>
        <time>2020-10-18T13:30:33Z</time>
      </trkpt>
      <trkpt lat="47.66584" lon="6.13532">
        <ele>232</ele>
        <time>2020-10-18T13:30:35Z</time>
      </trkpt>
      <trkpt lat="47.66585" lon="6.13523">
        <ele>232</ele>
        <time>2020-10-18T13:30:37Z</time>
      </trkpt>
      <trkpt lat="47.66587" lon="6.13511">
        <ele>231</ele>
        <time>2020-10-18T13:30:39Z</time>
      </trkpt>
      <trkpt lat="47.66589" lon="6.13502">
        <ele>231</ele>
        <time>2020-10-18T13:30:41Z</time>
      </trkpt>
      <trkpt lat="47.66589" lon="6.13496">
        <ele>231</ele>
        <time>2020-10-18T13:30:42Z</time>
      </trkpt>
      <trkpt lat="47.6659" lon="6.13488">
        <ele>231</ele>
        <time>2020-10-18T13:30:43Z</time>
      </trkpt>
      <trkpt lat="47.66591" lon="6.13479">
        <ele>231</ele>
        <time>2020-10-18T13:30:45Z</time>
      </trkpt>
      <trkpt lat="47.66592" lon="6.13471">
        <ele>231</ele>
        <time>2020-10-18T13:30:46Z</time>
      </trkpt>
      <trkpt lat="47.66592" lon="6.13462">
        <ele>231</ele>
        <time>2020-10-18T13:30:48Z</time>
      </trkpt>
      <trkpt lat="47.66593" lon="6.13453">
        <ele>231</ele>
        <time>2020-10-18T13:30:50Z</time>
      </trkpt>
      <trkpt lat="47.66593" lon="6.13445">
        <ele>231</ele>
        <time>2020-10-18T13:30:52Z</time>
      </trkpt>
      <trkpt lat="47.66594" lon="6.13438">
        <ele>231</ele>
        <time>2020-10-18T13:30:53Z</time>
      </trkpt>
      <trkpt lat="47.66594" lon="6.13431">
        <ele>231</ele>
        <time>2020-10-18T13:30:54Z</time>
      </trkpt>
      <trkpt lat="47.66595" lon="6.13423">
        <ele>230</ele>
        <time>2020-10-18T13:30:56Z</time>
      </trkpt>
      <trkpt lat="47.66595" lon="6.13415">
        <ele>230</ele>
        <time>2020-10-18T13:30:58Z</time>
      </trkpt>
      <trkpt lat="47.66596" lon="6.13408">
        <ele>230</ele>
        <time>2020-10-18T13:31:00Z</time>
      </trkpt>
      <trkpt lat="47.66597" lon="6.13401">
        <ele>230</ele>
        <time>2020-10-18T13:31:01Z</time>
      </trkpt>
      <trkpt lat="47.66597" lon="6.13392">
        <ele>231</ele>
        <time>2020-10-18T13:31:03Z</time>
      </trkpt>
      <trkpt lat="47.66598" lon="6.13386">
        <ele>231</ele>
        <time>2020-10-18T13:31:05Z</time>
      </trkpt>
      <trkpt lat="47.666" lon="6.13377">
        <ele>231</ele>
        <time>2020-10-18T13:31:07Z</time>
      </trkpt>
      <trkpt lat="47.666" lon="6.13367">
        <ele>231</ele>
        <time>2020-10-18T13:31:10Z</time>
      </trkpt>
      <trkpt lat="47.66601" lon="6.13359">
        <ele>231</ele>
        <time>2020-10-18T13:31:12Z</time>
      </trkpt>
      <trkpt lat="47.66602" lon="6.13352">
        <ele>231</ele>
        <time>2020-10-18T13:31:14Z</time>
      </trkpt>
      <trkpt lat="47.66602" lon="6.13345">
        <ele>231</ele>
        <time>2020-10-18T13:31:16Z</time>
      </trkpt>
      <trkpt lat="47.66603" lon="6.13337">
        <ele>231</ele>
        <time>2020-10-18T13:31:19Z</time>
      </trkpt>
      <trkpt lat="47.66604" lon="6.13328">
        <ele>231</ele>
        <time>2020-10-18T13:31:21Z</time>
      </trkpt>
      <trkpt lat="47.66604" lon="6.1332">
        <ele>231</ele>
        <time>2020-10-18T13:31:24Z</time>
      </trkpt>
      <trkpt lat="47.66604" lon="6.13312">
        <ele>231</ele>
        <time>2020-10-18T13:31:26Z</time>
      </trkpt>
      <trkpt lat="47.66606" lon="6.13303">
        <ele>231</ele>
        <time>2020-10-18T13:31:29Z</time>
      </trkpt>
      <trkpt lat="47.66607" lon="6.13294">
        <ele>230</ele>
        <time>2020-10-18T13:31:32Z</time>
      </trkpt>
      <trkpt lat="47.66607" lon="6.13288">
        <ele>230</ele>
        <time>2020-10-18T13:31:33Z</time>
      </trkpt>
      <trkpt lat="47.66608" lon="6.1328">
        <ele>230</ele>
        <time>2020-10-18T13:31:35Z</time>
      </trkpt>
      <trkpt lat="47.66609" lon="6.13272">
        <ele>230</ele>
        <time>2020-10-18T13:31:37Z</time>
      </trkpt>
      <trkpt lat="47.66611" lon="6.13266">
        <ele>230</ele>
        <time>2020-10-18T13:31:39Z</time>
      </trkpt>
      <trkpt lat="47.66612" lon="6.13256">
        <ele>230</ele>
        <time>2020-10-18T13:31:41Z</time>
      </trkpt>
      <trkpt lat="47.66613" lon="6.13247">
        <ele>229</ele>
        <time>2020-10-18T13:31:43Z</time>
      </trkpt>
      <trkpt lat="47.66613" lon="6.13239">
        <ele>229</ele>
        <time>2020-10-18T13:31:45Z</time>
      </trkpt>
      <trkpt lat="47.66614" lon="6.13227">
        <ele>229</ele>
        <time>2020-10-18T13:31:47Z</time>
      </trkpt>
      <trkpt lat="47.66615" lon="6.1322">
        <ele>229</ele>
        <time>2020-10-18T13:31:48Z</time>
      </trkpt>
      <trkpt lat="47.66616" lon="6.13207">
        <ele>229</ele>
        <time>2020-10-18T13:31:51Z</time>
      </trkpt>
      <trkpt lat="47.66616" lon="6.132">
        <ele>229</ele>
        <time>2020-10-18T13:31:52Z</time>
      </trkpt>
      <trkpt lat="47.66617" lon="6.13192">
        <ele>229</ele>
        <time>2020-10-18T13:31:54Z</time>
      </trkpt>
      <trkpt lat="47.66617" lon="6.13183">
        <ele>229</ele>
        <time>2020-10-18T13:31:56Z</time>
      </trkpt>
      <trkpt lat="47.66618" lon="6.13174">
        <ele>229</ele>
        <time>2020-10-18T13:31:58Z</time>
      </trkpt>
      <trkpt lat="47.66619" lon="6.13166">
        <ele>229</ele>
        <time>2020-10-18T13:32:00Z</time>
      </trkpt>
      <trkpt lat="47.66619" lon="6.13159">
        <ele>229</ele>
        <time>2020-10-18T13:32:01Z</time>
      </trkpt>
      <trkpt lat="47.6662" lon="6.13151">
        <ele>229</ele>
        <time>2020-10-18T13:32:03Z</time>
      </trkpt>
      <trkpt lat="47.66621" lon="6.1314">
        <ele>229</ele>
        <time>2020-10-18T13:32:05Z</time>
      </trkpt>
      <trkpt lat="47.66622" lon="6.13131">
        <ele>229</ele>
        <time>2020-10-18T13:32:07Z</time>
      </trkpt>
      <trkpt lat="47.66622" lon="6.13124">
        <ele>229</ele>
        <time>2020-10-18T13:32:09Z</time>
      </trkpt>
      <trkpt lat="47.66623" lon="6.13115">
        <ele>229</ele>
        <time>2020-10-18T13:32:11Z</time>
      </trkpt>
      <trkpt lat="47.66624" lon="6.13105">
        <ele>229</ele>
        <time>2020-10-18T13:32:13Z</time>
      </trkpt>
      <trkpt lat="47.66625" lon="6.13095">
        <ele>229</ele>
        <time>2020-10-18T13:32:15Z</time>
      </trkpt>
      <trkpt lat="47.66626" lon="6.13087">
        <ele>229</ele>
        <time>2020-10-18T13:32:17Z</time>
      </trkpt>
      <trkpt lat="47.66627" lon="6.13079">
        <ele>229</ele>
        <time>2020-10-18T13:32:19Z</time>
      </trkpt>
      <trkpt lat="47.66627" lon="6.1307">
        <ele>229</ele>
        <time>2020-10-18T13:32:21Z</time>
      </trkpt>
      <trkpt lat="47.66624" lon="6.13062">
        <ele>229</ele>
        <time>2020-10-18T13:32:25Z</time>
      </trkpt>
      <trkpt lat="47.66621" lon="6.13056">
        <ele>229</ele>
        <time>2020-10-18T13:32:27Z</time>
      </trkpt>
      <trkpt lat="47.66619" lon="6.13048">
        <ele>229</ele>
        <time>2020-10-18T13:32:29Z</time>
      </trkpt>
      <trkpt lat="47.66618" lon="6.13039">
        <ele>229</ele>
        <time>2020-10-18T13:32:30Z</time>
      </trkpt>
      <trkpt lat="47.66618" lon="6.13032">
        <ele>229</ele>
        <time>2020-10-18T13:32:31Z</time>
      </trkpt>
      <trkpt lat="47.66617" lon="6.13025">
        <ele>229</ele>
        <time>2020-10-18T13:32:32Z</time>
      </trkpt>
      <trkpt lat="47.66617" lon="6.13013">
        <ele>229</ele>
        <time>2020-10-18T13:32:34Z</time>
      </trkpt>
      <trkpt lat="47.66616" lon="6.13003">
        <ele>229</ele>
        <time>2020-10-18T13:32:35Z</time>
      </trkpt>
      <trkpt lat="47.66615" lon="6.12993">
        <ele>229</ele>
        <time>2020-10-18T13:32:36Z</time>
      </trkpt>
      <trkpt lat="47.66616" lon="6.12981">
        <ele>229</ele>
        <time>2020-10-18T13:32:38Z</time>
      </trkpt>
      <trkpt lat="47.66616" lon="6.12974">
        <ele>229</ele>
        <time>2020-10-18T13:32:39Z</time>
      </trkpt>
      <trkpt lat="47.66615" lon="6.12965">
        <ele>229</ele>
        <time>2020-10-18T13:32:41Z</time>
      </trkpt>
      <trkpt lat="47.66615" lon="6.12957">
        <ele>229</ele>
        <time>2020-10-18T13:32:42Z</time>
      </trkpt>
      <trkpt lat="47.66615" lon="6.1295">
        <ele>229</ele>
        <time>2020-10-18T13:32:43Z</time>
      </trkpt>
      <trkpt lat="47.66614" lon="6.12941">
        <ele>229</ele>
        <time>2020-10-18T13:32:45Z</time>
      </trkpt>
      <trkpt lat="47.66614" lon="6.12931">
        <ele>229</ele>
        <time>2020-10-18T13:32:47Z</time>
      </trkpt>
      <trkpt lat="47.66613" lon="6.12921">
        <ele>229</ele>
        <time>2020-10-18T13:32:49Z</time>
      </trkpt>
      <trkpt lat="47.66613" lon="6.12913">
        <ele>231</ele>
        <time>2020-10-18T13:32:51Z</time>
      </trkpt>
      <trkpt lat="47.66613" lon="6.12905">
        <ele>232</ele>
        <time>2020-10-18T13:32:53Z</time>
      </trkpt>
      <trkpt lat="47.66614" lon="6.12897">
        <ele>232</ele>
        <time>2020-10-18T13:32:55Z</time>
      </trkpt>
      <trkpt lat="47.66617" lon="6.12888">
        <ele>232</ele>
        <time>2020-10-18T13:32:57Z</time>
      </trkpt>
      <trkpt lat="47.6662" lon="6.12883">
        <ele>233</ele>
        <time>2020-10-18T13:32:59Z</time>
      </trkpt>
      <trkpt lat="47.66623" lon="6.12876">
        <ele>233</ele>
        <time>2020-10-18T13:33:01Z</time>
      </trkpt>
      <trkpt lat="47.66626" lon="6.1287">
        <ele>233</ele>
        <time>2020-10-18T13:33:03Z</time>
      </trkpt>
      <trkpt lat="47.66629" lon="6.12863">
        <ele>233</ele>
        <time>2020-10-18T13:33:05Z</time>
      </trkpt>
      <trkpt lat="47.66631" lon="6.12854">
        <ele>233</ele>
        <time>2020-10-18T13:33:08Z</time>
      </trkpt>
      <trkpt lat="47.66633" lon="6.12847">
        <ele>233</ele>
        <time>2020-10-18T13:33:10Z</time>
      </trkpt>
      <trkpt lat="47.66635" lon="6.12841">
        <ele>233</ele>
        <time>2020-10-18T13:33:12Z</time>
      </trkpt>
      <trkpt lat="47.66637" lon="6.12833">
        <ele>239</ele>
        <time>2020-10-18T13:33:14Z</time>
      </trkpt>
      <trkpt lat="47.6664" lon="6.12824">
        <ele>239</ele>
        <time>2020-10-18T13:33:17Z</time>
      </trkpt>
      <trkpt lat="47.66644" lon="6.12818">
        <ele>239</ele>
        <time>2020-10-18T13:33:19Z</time>
      </trkpt>
      <trkpt lat="47.66649" lon="6.12811">
        <ele>240</ele>
        <time>2020-10-18T13:33:22Z</time>
      </trkpt>
      <trkpt lat="47.66653" lon="6.12808">
        <ele>240</ele>
        <time>2020-10-18T13:33:24Z</time>
      </trkpt>
      <trkpt lat="47.66658" lon="6.12804">
        <ele>240</ele>
        <time>2020-10-18T13:33:26Z</time>
      </trkpt>
      <trkpt lat="47.66663" lon="6.128">
        <ele>241</ele>
        <time>2020-10-18T13:33:28Z</time>
      </trkpt>
      <trkpt lat="47.66667" lon="6.12795">
        <ele>237</ele>
        <time>2020-10-18T13:33:30Z</time>
      </trkpt>
      <trkpt lat="47.66673" lon="6.12789">
        <ele>238</ele>
        <time>2020-10-18T13:33:32Z</time>
      </trkpt>
      <trkpt lat="47.66679" lon="6.12781">
        <ele>238</ele>
        <time>2020-10-18T13:33:34Z</time>
      </trkpt>
      <trkpt lat="47.66684" lon="6.12776">
        <ele>239</ele>
        <time>2020-10-18T13:33:36Z</time>
      </trkpt>
      <trkpt lat="47.6669" lon="6.12768">
        <ele>239</ele>
        <time>2020-10-18T13:33:38Z</time>
      </trkpt>
      <trkpt lat="47.66694" lon="6.12764">
        <ele>239</ele>
        <time>2020-10-18T13:33:40Z</time>
      </trkpt>
      <trkpt lat="47.66698" lon="6.12759">
        <ele>239</ele>
        <time>2020-10-18T13:33:42Z</time>
      </trkpt>
      <trkpt lat="47.66704" lon="6.12753">
        <ele>238</ele>
        <time>2020-10-18T13:33:44Z</time>
      </trkpt>
      <trkpt lat="47.66709" lon="6.12747">
        <ele>242</ele>
        <time>2020-10-18T13:33:46Z</time>
      </trkpt>
      <trkpt lat="47.66714" lon="6.12741">
        <ele>241</ele>
        <time>2020-10-18T13:33:48Z</time>
      </trkpt>
      <trkpt lat="47.66721" lon="6.12734">
        <ele>241</ele>
        <time>2020-10-18T13:33:50Z</time>
      </trkpt>
      <trkpt lat="47.66726" lon="6.1273">
        <ele>240</ele>
        <time>2020-10-18T13:33:51Z</time>
      </trkpt>
      <trkpt lat="47.66731" lon="6.12724">
        <ele>240</ele>
        <time>2020-10-18T13:33:53Z</time>
      </trkpt>
      <trkpt lat="47.66735" lon="6.1272">
        <ele>240</ele>
        <time>2020-10-18T13:33:54Z</time>
      </trkpt>
      <trkpt lat="47.66739" lon="6.12716">
        <ele>240</ele>
        <time>2020-10-18T13:33:55Z</time>
      </trkpt>
      <trkpt lat="47.66743" lon="6.12712">
        <ele>240</ele>
        <time>2020-10-18T13:33:56Z</time>
      </trkpt>
      <trkpt lat="47.66748" lon="6.12708">
        <ele>240</ele>
        <time>2020-10-18T13:33:57Z</time>
      </trkpt>
      <trkpt lat="47.66754" lon="6.12702">
        <ele>234</ele>
        <time>2020-10-18T13:33:59Z</time>
      </trkpt>
      <trkpt lat="47.66759" lon="6.12697">
        <ele>234</ele>
        <time>2020-10-18T13:34:00Z</time>
      </trkpt>
      <trkpt lat="47.66766" lon="6.12691">
        <ele>234</ele>
        <time>2020-10-18T13:34:02Z</time>
      </trkpt>
      <trkpt lat="47.6677" lon="6.12688">
        <ele>234</ele>
        <time>2020-10-18T13:34:03Z</time>
      </trkpt>
      <trkpt lat="47.66774" lon="6.12684">
        <ele>234</ele>
        <time>2020-10-18T13:34:05Z</time>
      </trkpt>
      <trkpt lat="47.66779" lon="6.1268">
        <ele>234</ele>
        <time>2020-10-18T13:34:06Z</time>
      </trkpt>
      <trkpt lat="47.66784" lon="6.12676">
        <ele>233</ele>
        <time>2020-10-18T13:34:07Z</time>
      </trkpt>
      <trkpt lat="47.66791" lon="6.12672">
        <ele>233</ele>
        <time>2020-10-18T13:34:09Z</time>
      </trkpt>
      <trkpt lat="47.66796" lon="6.12668">
        <ele>233</ele>
        <time>2020-10-18T13:34:11Z</time>
      </trkpt>
      <trkpt lat="47.66803" lon="6.12662">
        <ele>234</ele>
        <time>2020-10-18T13:34:13Z</time>
      </trkpt>
      <trkpt lat="47.66808" lon="6.12658">
        <ele>234</ele>
        <time>2020-10-18T13:34:14Z</time>
      </trkpt>
      <trkpt lat="47.66814" lon="6.12652">
        <ele>234</ele>
        <time>2020-10-18T13:34:16Z</time>
      </trkpt>
      <trkpt lat="47.66819" lon="6.12649">
        <ele>234</ele>
        <time>2020-10-18T13:34:17Z</time>
      </trkpt>
      <trkpt lat="47.66824" lon="6.12645">
        <ele>234</ele>
        <time>2020-10-18T13:34:19Z</time>
      </trkpt>
      <trkpt lat="47.66829" lon="6.12642">
        <ele>234</ele>
        <time>2020-10-18T13:34:21Z</time>
      </trkpt>
      <trkpt lat="47.66835" lon="6.12637">
        <ele>232</ele>
        <time>2020-10-18T13:34:22Z</time>
      </trkpt>
      <trkpt lat="47.6684" lon="6.12634">
        <ele>232</ele>
        <time>2020-10-18T13:34:24Z</time>
      </trkpt>
      <trkpt lat="47.66844" lon="6.12631">
        <ele>232</ele>
        <time>2020-10-18T13:34:25Z</time>
      </trkpt>
      <trkpt lat="47.66851" lon="6.12626">
        <ele>232</ele>
        <time>2020-10-18T13:34:27Z</time>
      </trkpt>
      <trkpt lat="47.66857" lon="6.12622">
        <ele>232</ele>
        <time>2020-10-18T13:34:29Z</time>
      </trkpt>
      <trkpt lat="47.66864" lon="6.12619">
        <ele>232</ele>
        <time>2020-10-18T13:34:31Z</time>
      </trkpt>
      <trkpt lat="47.6687" lon="6.12615">
        <ele>232</ele>
        <time>2020-10-18T13:34:33Z</time>
      </trkpt>
      <trkpt lat="47.66876" lon="6.12613">
        <ele>232</ele>
        <time>2020-10-18T13:34:35Z</time>
      </trkpt>
      <trkpt lat="47.66883" lon="6.1261">
        <ele>232</ele>
        <time>2020-10-18T13:34:37Z</time>
      </trkpt>
      <trkpt lat="47.6689" lon="6.12608">
        <ele>231</ele>
        <time>2020-10-18T13:34:39Z</time>
      </trkpt>
      <trkpt lat="47.66894" lon="6.12607">
        <ele>231</ele>
        <time>2020-10-18T13:34:40Z</time>
      </trkpt>
      <trkpt lat="47.669" lon="6.12605">
        <ele>231</ele>
        <time>2020-10-18T13:34:41Z</time>
      </trkpt>
      <trkpt lat="47.66904" lon="6.12604">
        <ele>231</ele>
        <time>2020-10-18T13:34:42Z</time>
      </trkpt>
      <trkpt lat="47.6691" lon="6.12604">
        <ele>231</ele>
        <time>2020-10-18T13:34:43Z</time>
      </trkpt>
      <trkpt lat="47.66917" lon="6.12602">
        <ele>231</ele>
        <time>2020-10-18T13:34:45Z</time>
      </trkpt>
      <trkpt lat="47.66923" lon="6.12601">
        <ele>231</ele>
        <time>2020-10-18T13:34:46Z</time>
      </trkpt>
      <trkpt lat="47.6693" lon="6.126">
        <ele>231</ele>
        <time>2020-10-18T13:34:48Z</time>
      </trkpt>
      <trkpt lat="47.66938" lon="6.12602">
        <ele>231</ele>
        <time>2020-10-18T13:34:50Z</time>
      </trkpt>
      <trkpt lat="47.66942" lon="6.12603">
        <ele>231</ele>
        <time>2020-10-18T13:34:52Z</time>
      </trkpt>
      <trkpt lat="47.66948" lon="6.12604">
        <ele>231</ele>
        <time>2020-10-18T13:34:54Z</time>
      </trkpt>
      <trkpt lat="47.66956" lon="6.12605">
        <ele>231</ele>
        <time>2020-10-18T13:34:56Z</time>
      </trkpt>
      <trkpt lat="47.66962" lon="6.12606">
        <ele>231</ele>
        <time>2020-10-18T13:34:58Z</time>
      </trkpt>
      <trkpt lat="47.66969" lon="6.12608">
        <ele>231</ele>
        <time>2020-10-18T13:35:00Z</time>
      </trkpt>
      <trkpt lat="47.66976" lon="6.12609">
        <ele>231</ele>
        <time>2020-10-18T13:35:02Z</time>
      </trkpt>
      <trkpt lat="47.66982" lon="6.1261">
        <ele>231</ele>
        <time>2020-10-18T13:35:03Z</time>
      </trkpt>
      <trkpt lat="47.66988" lon="6.1261">
        <ele>231</ele>
        <time>2020-10-18T13:35:05Z</time>
      </trkpt>
      <trkpt lat="47.66993" lon="6.12611">
        <ele>231</ele>
        <time>2020-10-18T13:35:07Z</time>
      </trkpt>
      <trkpt lat="47.66999" lon="6.12612">
        <ele>231</ele>
        <time>2020-10-18T13:35:09Z</time>
      </trkpt>
      <trkpt lat="47.67004" lon="6.1261">
        <ele>232</ele>
        <time>2020-10-18T13:35:10Z</time>
      </trkpt>
      <trkpt lat="47.67009" lon="6.12609">
        <ele>232</ele>
        <time>2020-10-18T13:35:12Z</time>
      </trkpt>
      <trkpt lat="47.67013" lon="6.12607">
        <ele>232</ele>
        <time>2020-10-18T13:35:14Z</time>
      </trkpt>
      <trkpt lat="47.6702" lon="6.12605">
        <ele>232</ele>
        <time>2020-10-18T13:35:16Z</time>
      </trkpt>
      <trkpt lat="47.67026" lon="6.12603">
        <ele>232</ele>
        <time>2020-10-18T13:35:18Z</time>
      </trkpt>
      <trkpt lat="47.67031" lon="6.12602">
        <ele>232</ele>
        <time>2020-10-18T13:35:20Z</time>
      </trkpt>
      <trkpt lat="47.67036" lon="6.12599">
        <ele>232</ele>
        <time>2020-10-18T13:35:22Z</time>
      </trkpt>
      <trkpt lat="47.67041" lon="6.12597">
        <ele>233</ele>
        <time>2020-10-18T13:35:24Z</time>
      </trkpt>
      <trkpt lat="47.67046" lon="6.12593">
        <ele>233</ele>
        <time>2020-10-18T13:35:25Z</time>
      </trkpt>
      <trkpt lat="47.67054" lon="6.12588">
        <ele>233</ele>
        <time>2020-10-18T13:35:28Z</time>
      </trkpt>
      <trkpt lat="47.67059" lon="6.12585">
        <ele>233</ele>
        <time>2020-10-18T13:35:30Z</time>
      </trkpt>
      <trkpt lat="47.67063" lon="6.12583">
        <ele>234</ele>
        <time>2020-10-18T13:35:32Z</time>
      </trkpt>
      <trkpt lat="47.67068" lon="6.12579">
        <ele>235</ele>
        <time>2020-10-18T13:35:34Z</time>
      </trkpt>
      <trkpt lat="47.67074" lon="6.12574">
        <ele>235</ele>
        <time>2020-10-18T13:35:37Z</time>
      </trkpt>
      <trkpt lat="47.67079" lon="6.1257">
        <ele>235</ele>
        <time>2020-10-18T13:35:40Z</time>
      </trkpt>
      <trkpt lat="47.67084" lon="6.12568">
        <ele>236</ele>
        <time>2020-10-18T13:35:42Z</time>
      </trkpt>
      <trkpt lat="47.6709" lon="6.12564">
        <ele>236</ele>
        <time>2020-10-18T13:35:45Z</time>
      </trkpt>
      <trkpt lat="47.67095" lon="6.12562">
        <ele>236</ele>
        <time>2020-10-18T13:35:48Z</time>
      </trkpt>
      <trkpt lat="47.67099" lon="6.12559">
        <ele>236</ele>
        <time>2020-10-18T13:35:50Z</time>
      </trkpt>
      <trkpt lat="47.67105" lon="6.12554">
        <ele>236</ele>
        <time>2020-10-18T13:35:53Z</time>
      </trkpt>
      <trkpt lat="47.6711" lon="6.12551">
        <ele>236</ele>
        <time>2020-10-18T13:35:56Z</time>
      </trkpt>
      <trkpt lat="47.67114" lon="6.12548">
        <ele>236</ele>
        <time>2020-10-18T13:35:58Z</time>
      </trkpt>
      <trkpt lat="47.67119" lon="6.12546">
        <ele>236</ele>
        <time>2020-10-18T13:36:01Z</time>
      </trkpt>
      <trkpt lat="47.67125" lon="6.12542">
        <ele>236</ele>
        <time>2020-10-18T13:36:04Z</time>
      </trkpt>
      <trkpt lat="47.67129" lon="6.12539">
        <ele>237</ele>
        <time>2020-10-18T13:36:07Z</time>
      </trkpt>
      <trkpt lat="47.67134" lon="6.12535">
        <ele>237</ele>
        <time>2020-10-18T13:36:10Z</time>
      </trkpt>
      <trkpt lat="47.67139" lon="6.12532">
        <ele>237</ele>
        <time>2020-10-18T13:36:13Z</time>
      </trkpt>
      <trkpt lat="47.67144" lon="6.12529">
        <ele>237</ele>
        <time>2020-10-18T13:36:16Z</time>
      </trkpt>
      <trkpt lat="47.67148" lon="6.12527">
        <ele>237</ele>
        <time>2020-10-18T13:36:19Z</time>
      </trkpt>
      <trkpt lat="47.67153" lon="6.12523">
        <ele>237</ele>
        <time>2020-10-18T13:36:22Z</time>
      </trkpt>
      <trkpt lat="47.67157" lon="6.1252">
        <ele>237</ele>
        <time>2020-10-18T13:36:25Z</time>
      </trkpt>
      <trkpt lat="47.67152" lon="6.12521">
        <ele>237</ele>
        <time>2020-10-18T13:37:12Z</time>
      </trkpt>
      <trkpt lat="47.67148" lon="6.12525">
        <ele>237</ele>
        <time>2020-10-18T13:37:15Z</time>
      </trkpt>
      <trkpt lat="47.67143" lon="6.12527">
        <ele>237</ele>
        <time>2020-10-18T13:37:17Z</time>
      </trkpt>
      <trkpt lat="47.67138" lon="6.12531">
        <ele>237</ele>
        <time>2020-10-18T13:37:19Z</time>
      </trkpt>
      <trkpt lat="47.67134" lon="6.12535">
        <ele>237</ele>
        <time>2020-10-18T13:37:20Z</time>
      </trkpt>
      <trkpt lat="47.67126" lon="6.12541">
        <ele>237</ele>
        <time>2020-10-18T13:37:21Z</time>
      </trkpt>
      <trkpt lat="47.67119" lon="6.12545">
        <ele>236</ele>
        <time>2020-10-18T13:37:22Z</time>
      </trkpt>
      <trkpt lat="47.67112" lon="6.12548">
        <ele>236</ele>
        <time>2020-10-18T13:37:23Z</time>
      </trkpt>
      <trkpt lat="47.67105" lon="6.1255">
        <ele>236</ele>
        <time>2020-10-18T13:37:25Z</time>
      </trkpt>
      <trkpt lat="47.671" lon="6.12553">
        <ele>236</ele>
        <time>2020-10-18T13:37:29Z</time>
      </trkpt>
      <trkpt lat="47.67096" lon="6.12556">
        <ele>236</ele>
        <time>2020-10-18T13:37:31Z</time>
      </trkpt>
      <trkpt lat="47.67091" lon="6.12559">
        <ele>236</ele>
        <time>2020-10-18T13:37:33Z</time>
      </trkpt>
      <trkpt lat="47.67085" lon="6.12563">
        <ele>236</ele>
        <time>2020-10-18T13:37:35Z</time>
      </trkpt>
      <trkpt lat="47.67078" lon="6.12567">
        <ele>235</ele>
        <time>2020-10-18T13:37:37Z</time>
      </trkpt>
      <trkpt lat="47.6707" lon="6.12572">
        <ele>235</ele>
        <time>2020-10-18T13:37:39Z</time>
      </trkpt>
      <trkpt lat="47.67064" lon="6.12576">
        <ele>234</ele>
        <time>2020-10-18T13:37:41Z</time>
      </trkpt>
      <trkpt lat="47.67059" lon="6.12579">
        <ele>234</ele>
        <time>2020-10-18T13:37:42Z</time>
      </trkpt>
      <trkpt lat="47.67053" lon="6.12583">
        <ele>234</ele>
        <time>2020-10-18T13:37:44Z</time>
      </trkpt>
      <trkpt lat="47.67045" lon="6.12589">
        <ele>233</ele>
        <time>2020-10-18T13:37:45Z</time>
      </trkpt>
      <trkpt lat="47.6704" lon="6.12591">
        <ele>233</ele>
        <time>2020-10-18T13:37:46Z</time>
      </trkpt>
      <trkpt lat="47.67035" lon="6.12594">
        <ele>232</ele>
        <time>2020-10-18T13:37:47Z</time>
      </trkpt>
      <trkpt lat="47.6703" lon="6.12597">
        <ele>232</ele>
        <time>2020-10-18T13:37:48Z</time>
      </trkpt>
      <trkpt lat="47.67026" lon="6.12599">
        <ele>232</ele>
        <time>2020-10-18T13:37:49Z</time>
      </trkpt>
      <trkpt lat="47.67021" lon="6.12602">
        <ele>232</ele>
        <time>2020-10-18T13:37:50Z</time>
      </trkpt>
      <trkpt lat="47.67017" lon="6.12603">
        <ele>232</ele>
        <time>2020-10-18T13:37:51Z</time>
      </trkpt>
      <trkpt lat="47.6701" lon="6.12605">
        <ele>232</ele>
        <time>2020-10-18T13:37:53Z</time>
      </trkpt>
      <trkpt lat="47.67003" lon="6.12606">
        <ele>232</ele>
        <time>2020-10-18T13:37:55Z</time>
      </trkpt>
      <trkpt lat="47.66998" lon="6.12607">
        <ele>231</ele>
        <time>2020-10-18T13:37:56Z</time>
      </trkpt>
      <trkpt lat="47.66991" lon="6.12607">
        <ele>231</ele>
        <time>2020-10-18T13:37:58Z</time>
      </trkpt>
      <trkpt lat="47.66986" lon="6.12606">
        <ele>231</ele>
        <time>2020-10-18T13:37:59Z</time>
      </trkpt>
      <trkpt lat="47.66978" lon="6.12605">
        <ele>231</ele>
        <time>2020-10-18T13:38:01Z</time>
      </trkpt>
      <trkpt lat="47.66971" lon="6.12604">
        <ele>231</ele>
        <time>2020-10-18T13:38:02Z</time>
      </trkpt>
      <trkpt lat="47.66964" lon="6.12604">
        <ele>231</ele>
        <time>2020-10-18T13:38:04Z</time>
      </trkpt>
      <trkpt lat="47.66956" lon="6.12602">
        <ele>231</ele>
        <time>2020-10-18T13:38:05Z</time>
      </trkpt>
      <trkpt lat="47.66951" lon="6.12601">
        <ele>231</ele>
        <time>2020-10-18T13:38:06Z</time>
      </trkpt>
      <trkpt lat="47.66946" lon="6.126">
        <ele>231</ele>
        <time>2020-10-18T13:38:07Z</time>
      </trkpt>
      <trkpt lat="47.66941" lon="6.126">
        <ele>231</ele>
        <time>2020-10-18T13:38:08Z</time>
      </trkpt>
      <trkpt lat="47.66936" lon="6.12599">
        <ele>231</ele>
        <time>2020-10-18T13:38:09Z</time>
      </trkpt>
      <trkpt lat="47.66931" lon="6.12599">
        <ele>231</ele>
        <time>2020-10-18T13:38:10Z</time>
      </trkpt>
      <trkpt lat="47.66926" lon="6.12599">
        <ele>231</ele>
        <time>2020-10-18T13:38:11Z</time>
      </trkpt>
      <trkpt lat="47.66919" lon="6.12598">
        <ele>231</ele>
        <time>2020-10-18T13:38:13Z</time>
      </trkpt>
      <trkpt lat="47.66914" lon="6.12598">
        <ele>231</ele>
        <time>2020-10-18T13:38:15Z</time>
      </trkpt>
      <trkpt lat="47.66909" lon="6.12602">
        <ele>231</ele>
        <time>2020-10-18T13:38:56Z</time>
      </trkpt>
      <trkpt lat="47.66902" lon="6.12603">
        <ele>231</ele>
        <time>2020-10-18T13:38:58Z</time>
      </trkpt>
      <trkpt lat="47.66897" lon="6.12603">
        <ele>231</ele>
        <time>2020-10-18T13:39:03Z</time>
      </trkpt>
      <trkpt lat="47.66892" lon="6.12605">
        <ele>231</ele>
        <time>2020-10-18T13:39:05Z</time>
      </trkpt>
      <trkpt lat="47.66888" lon="6.12607">
        <ele>231</ele>
        <time>2020-10-18T13:39:07Z</time>
      </trkpt>
      <trkpt lat="47.66881" lon="6.12609">
        <ele>232</ele>
        <time>2020-10-18T13:39:08Z</time>
      </trkpt>
      <trkpt lat="47.66873" lon="6.12612">
        <ele>232</ele>
        <time>2020-10-18T13:39:10Z</time>
      </trkpt>
      <trkpt lat="47.66866" lon="6.12616">
        <ele>232</ele>
        <time>2020-10-18T13:39:11Z</time>
      </trkpt>
      <trkpt lat="47.66859" lon="6.12619">
        <ele>232</ele>
        <time>2020-10-18T13:39:13Z</time>
      </trkpt>
      <trkpt lat="47.66855" lon="6.12622">
        <ele>232</ele>
        <time>2020-10-18T13:39:14Z</time>
      </trkpt>
      <trkpt lat="47.6685" lon="6.12626">
        <ele>232</ele>
        <time>2020-10-18T13:39:15Z</time>
      </trkpt>
      <trkpt lat="47.66846" lon="6.12628">
        <ele>232</ele>
        <time>2020-10-18T13:39:17Z</time>
      </trkpt>
      <trkpt lat="47.66841" lon="6.12632">
        <ele>232</ele>
        <time>2020-10-18T13:39:18Z</time>
      </trkpt>
      <trkpt lat="47.66836" lon="6.12635">
        <ele>232</ele>
        <time>2020-10-18T13:39:19Z</time>
      </trkpt>
      <trkpt lat="47.6683" lon="6.1264">
        <ele>234</ele>
        <time>2020-10-18T13:39:21Z</time>
      </trkpt>
      <trkpt lat="47.66826" lon="6.12643">
        <ele>234</ele>
        <time>2020-10-18T13:39:22Z</time>
      </trkpt>
      <trkpt lat="47.66822" lon="6.12647">
        <ele>234</ele>
        <time>2020-10-18T13:39:23Z</time>
      </trkpt>
      <trkpt lat="47.66816" lon="6.12651">
        <ele>234</ele>
        <time>2020-10-18T13:39:25Z</time>
      </trkpt>
      <trkpt lat="47.66812" lon="6.12655">
        <ele>234</ele>
        <time>2020-10-18T13:39:26Z</time>
      </trkpt>
      <trkpt lat="47.66808" lon="6.12658">
        <ele>234</ele>
        <time>2020-10-18T13:39:27Z</time>
      </trkpt>
      <trkpt lat="47.66802" lon="6.12663">
        <ele>234</ele>
        <time>2020-10-18T13:39:28Z</time>
      </trkpt>
      <trkpt lat="47.66797" lon="6.12667">
        <ele>233</ele>
        <time>2020-10-18T13:39:30Z</time>
      </trkpt>
      <trkpt lat="47.66793" lon="6.1267">
        <ele>233</ele>
        <time>2020-10-18T13:39:31Z</time>
      </trkpt>
      <trkpt lat="47.66788" lon="6.12675">
        <ele>233</ele>
        <time>2020-10-18T13:39:32Z</time>
      </trkpt>
      <trkpt lat="47.66781" lon="6.12681">
        <ele>233</ele>
        <time>2020-10-18T13:39:34Z</time>
      </trkpt>
      <trkpt lat="47.66775" lon="6.12685">
        <ele>234</ele>
        <time>2020-10-18T13:39:36Z</time>
      </trkpt>
      <trkpt lat="47.66767" lon="6.12693">
        <ele>234</ele>
        <time>2020-10-18T13:39:38Z</time>
      </trkpt>
      <trkpt lat="47.66762" lon="6.12697">
        <ele>234</ele>
        <time>2020-10-18T13:39:40Z</time>
      </trkpt>
      <trkpt lat="47.66758" lon="6.12701">
        <ele>234</ele>
        <time>2020-10-18T13:39:41Z</time>
      </trkpt>
      <trkpt lat="47.66754" lon="6.12704">
        <ele>233</ele>
        <time>2020-10-18T13:39:42Z</time>
      </trkpt>
      <trkpt lat="47.66749" lon="6.12708">
        <ele>240</ele>
        <time>2020-10-18T13:39:44Z</time>
      </trkpt>
      <trkpt lat="47.66744" lon="6.12713">
        <ele>240</ele>
        <time>2020-10-18T13:39:45Z</time>
      </trkpt>
      <trkpt lat="47.66739" lon="6.12718">
        <ele>240</ele>
        <time>2020-10-18T13:39:47Z</time>
      </trkpt>
      <trkpt lat="47.66733" lon="6.12724">
        <ele>240</ele>
        <time>2020-10-18T13:39:49Z</time>
      </trkpt>
      <trkpt lat="47.66728" lon="6.12729">
        <ele>240</ele>
        <time>2020-10-18T13:39:51Z</time>
      </trkpt>
      <trkpt lat="47.66724" lon="6.12733">
        <ele>240</ele>
        <time>2020-10-18T13:39:52Z</time>
      </trkpt>
      <trkpt lat="47.66718" lon="6.12739">
        <ele>241</ele>
        <time>2020-10-18T13:39:54Z</time>
      </trkpt>
      <trkpt lat="47.66714" lon="6.12744">
        <ele>241</ele>
        <time>2020-10-18T13:39:56Z</time>
      </trkpt>
      <trkpt lat="47.6671" lon="6.12749">
        <ele>242</ele>
        <time>2020-10-18T13:39:57Z</time>
      </trkpt>
      <trkpt lat="47.66706" lon="6.12754">
        <ele>238</ele>
        <time>2020-10-18T13:39:59Z</time>
      </trkpt>
      <trkpt lat="47.66702" lon="6.12758">
        <ele>238</ele>
        <time>2020-10-18T13:40:00Z</time>
      </trkpt>
      <trkpt lat="47.66695" lon="6.12765">
        <ele>239</ele>
        <time>2020-10-18T13:40:02Z</time>
      </trkpt>
      <trkpt lat="47.66689" lon="6.12773">
        <ele>239</ele>
        <time>2020-10-18T13:40:04Z</time>
      </trkpt>
      <trkpt lat="47.66684" lon="6.12779">
        <ele>238</ele>
        <time>2020-10-18T13:40:06Z</time>
      </trkpt>
      <trkpt lat="47.66679" lon="6.12785">
        <ele>238</ele>
        <time>2020-10-18T13:40:08Z</time>
      </trkpt>
      <trkpt lat="47.66674" lon="6.12792">
        <ele>237</ele>
        <time>2020-10-18T13:40:10Z</time>
      </trkpt>
      <trkpt lat="47.66668" lon="6.128">
        <ele>237</ele>
        <time>2020-10-18T13:40:12Z</time>
      </trkpt>
      <trkpt lat="47.66663" lon="6.12806">
        <ele>240</ele>
        <time>2020-10-18T13:40:14Z</time>
      </trkpt>
      <trkpt lat="47.66657" lon="6.12812">
        <ele>239</ele>
        <time>2020-10-18T13:40:16Z</time>
      </trkpt>
      <trkpt lat="47.6665" lon="6.12816">
        <ele>239</ele>
        <time>2020-10-18T13:40:18Z</time>
      </trkpt>
      <trkpt lat="47.66642" lon="6.12819">
        <ele>239</ele>
        <time>2020-10-18T13:40:20Z</time>
      </trkpt>
      <trkpt lat="47.66636" lon="6.1282">
        <ele>240</ele>
        <time>2020-10-18T13:40:22Z</time>
      </trkpt>
      <trkpt lat="47.66631" lon="6.1282">
        <ele>240</ele>
        <time>2020-10-18T13:40:23Z</time>
      </trkpt>
      <trkpt lat="47.66626" lon="6.12821">
        <ele>241</ele>
        <time>2020-10-18T13:40:25Z</time>
      </trkpt>
      <trkpt lat="47.6662" lon="6.1282">
        <ele>241</ele>
        <time>2020-10-18T13:40:27Z</time>
      </trkpt>
      <trkpt lat="47.66613" lon="6.12818">
        <ele>241</ele>
        <time>2020-10-18T13:40:30Z</time>
      </trkpt>
      <trkpt lat="47.66606" lon="6.12816">
        <ele>241</ele>
        <time>2020-10-18T13:40:32Z</time>
      </trkpt>
      <trkpt lat="47.66599" lon="6.12814">
        <ele>241</ele>
        <time>2020-10-18T13:40:34Z</time>
      </trkpt>
      <trkpt lat="47.66595" lon="6.12812">
        <ele>241</ele>
        <time>2020-10-18T13:40:35Z</time>
      </trkpt>
      <trkpt lat="47.66588" lon="6.1281">
        <ele>241</ele>
        <time>2020-10-18T13:40:37Z</time>
      </trkpt>
      <trkpt lat="47.66583" lon="6.12807">
        <ele>240</ele>
        <time>2020-10-18T13:40:39Z</time>
      </trkpt>
      <trkpt lat="47.66577" lon="6.12805">
        <ele>241</ele>
        <time>2020-10-18T13:40:41Z</time>
      </trkpt>
      <trkpt lat="47.66572" lon="6.12802">
        <ele>241</ele>
        <time>2020-10-18T13:40:43Z</time>
      </trkpt>
      <trkpt lat="47.66567" lon="6.12799">
        <ele>241</ele>
        <time>2020-10-18T13:40:45Z</time>
      </trkpt>
      <trkpt lat="47.66562" lon="6.12795">
        <ele>241</ele>
        <time>2020-10-18T13:40:46Z</time>
      </trkpt>
      <trkpt lat="47.66558" lon="6.12792">
        <ele>241</ele>
        <time>2020-10-18T13:40:47Z</time>
      </trkpt>
      <trkpt lat="47.66551" lon="6.12787">
        <ele>241</ele>
        <time>2020-10-18T13:40:49Z</time>
      </trkpt>
      <trkpt lat="47.66547" lon="6.12783">
        <ele>241</ele>
        <time>2020-10-18T13:40:50Z</time>
      </trkpt>
      <trkpt lat="47.6654" lon="6.12776">
        <ele>241</ele>
        <time>2020-10-18T13:40:52Z</time>
      </trkpt>
      <trkpt lat="47.66536" lon="6.12772">
        <ele>241</ele>
        <time>2020-10-18T13:40:53Z</time>
      </trkpt>
      <trkpt lat="47.66526" lon="6.12762">
        <ele>241</ele>
        <time>2020-10-18T13:40:55Z</time>
      </trkpt>
      <trkpt lat="47.66521" lon="6.12757">
        <ele>241</ele>
        <time>2020-10-18T13:40:56Z</time>
      </trkpt>
      <trkpt lat="47.66517" lon="6.12752">
        <ele>241</ele>
        <time>2020-10-18T13:40:57Z</time>
      </trkpt>
      <trkpt lat="47.66513" lon="6.12747">
        <ele>244</ele>
        <time>2020-10-18T13:40:58Z</time>
      </trkpt>
      <trkpt lat="47.66508" lon="6.12742">
        <ele>244</ele>
        <time>2020-10-18T13:40:59Z</time>
      </trkpt>
      <trkpt lat="47.66504" lon="6.12736">
        <ele>244</ele>
        <time>2020-10-18T13:41:00Z</time>
      </trkpt>
      <trkpt lat="47.66499" lon="6.1273">
        <ele>239</ele>
        <time>2020-10-18T13:41:01Z</time>
      </trkpt>
      <trkpt lat="47.66495" lon="6.12723">
        <ele>239</ele>
        <time>2020-10-18T13:41:02Z</time>
      </trkpt>
      <trkpt lat="47.66491" lon="6.12716">
        <ele>239</ele>
        <time>2020-10-18T13:41:03Z</time>
      </trkpt>
      <trkpt lat="47.66486" lon="6.12709">
        <ele>239</ele>
        <time>2020-10-18T13:41:04Z</time>
      </trkpt>
      <trkpt lat="47.66481" lon="6.12702">
        <ele>240</ele>
        <time>2020-10-18T13:41:05Z</time>
      </trkpt>
      <trkpt lat="47.66477" lon="6.12694">
        <ele>240</ele>
        <time>2020-10-18T13:41:06Z</time>
      </trkpt>
      <trkpt lat="47.66472" lon="6.12687">
        <ele>240</ele>
        <time>2020-10-18T13:41:07Z</time>
      </trkpt>
      <trkpt lat="47.66467" lon="6.12679">
        <ele>240</ele>
        <time>2020-10-18T13:41:08Z</time>
      </trkpt>
      <trkpt lat="47.66462" lon="6.12673">
        <ele>239</ele>
        <time>2020-10-18T13:41:09Z</time>
      </trkpt>
      <trkpt lat="47.66456" lon="6.12666">
        <ele>243</ele>
        <time>2020-10-18T13:41:10Z</time>
      </trkpt>
      <trkpt lat="47.66451" lon="6.12659">
        <ele>242</ele>
        <time>2020-10-18T13:41:11Z</time>
      </trkpt>
      <trkpt lat="47.66446" lon="6.12651">
        <ele>242</ele>
        <time>2020-10-18T13:41:12Z</time>
      </trkpt>
      <trkpt lat="47.66441" lon="6.12644">
        <ele>242</ele>
        <time>2020-10-18T13:41:13Z</time>
      </trkpt>
      <trkpt lat="47.66435" lon="6.12636">
        <ele>242</ele>
        <time>2020-10-18T13:41:14Z</time>
      </trkpt>
      <trkpt lat="47.6643" lon="6.12629">
        <ele>242</ele>
        <time>2020-10-18T13:41:15Z</time>
      </trkpt>
      <trkpt lat="47.66424" lon="6.12622">
        <ele>242</ele>
        <time>2020-10-18T13:41:16Z</time>
      </trkpt>
      <trkpt lat="47.66419" lon="6.12614">
        <ele>242</ele>
        <time>2020-10-18T13:41:17Z</time>
      </trkpt>
      <trkpt lat="47.66414" lon="6.12607">
        <ele>236</ele>
        <time>2020-10-18T13:41:18Z</time>
      </trkpt>
      <trkpt lat="47.66408" lon="6.12601">
        <ele>236</ele>
        <time>2020-10-18T13:41:19Z</time>
      </trkpt>
      <trkpt lat="47.66403" lon="6.12596">
        <ele>237</ele>
        <time>2020-10-18T13:41:20Z</time>
      </trkpt>
      <trkpt lat="47.66398" lon="6.12591">
        <ele>236</ele>
        <time>2020-10-18T13:41:21Z</time>
      </trkpt>
      <trkpt lat="47.66393" lon="6.12586">
        <ele>236</ele>
        <time>2020-10-18T13:41:22Z</time>
      </trkpt>
      <trkpt lat="47.66388" lon="6.12583">
        <ele>239</ele>
        <time>2020-10-18T13:41:23Z</time>
      </trkpt>
      <trkpt lat="47.66383" lon="6.1258">
        <ele>238</ele>
        <time>2020-10-18T13:41:24Z</time>
      </trkpt>
      <trkpt lat="47.66377" lon="6.12578">
        <ele>238</ele>
        <time>2020-10-18T13:41:25Z</time>
      </trkpt>
      <trkpt lat="47.66372" lon="6.12577">
        <ele>237</ele>
        <time>2020-10-18T13:41:26Z</time>
      </trkpt>
      <trkpt lat="47.66367" lon="6.12577">
        <ele>237</ele>
        <time>2020-10-18T13:41:27Z</time>
      </trkpt>
      <trkpt lat="47.66361" lon="6.12578">
        <ele>236</ele>
        <time>2020-10-18T13:41:28Z</time>
      </trkpt>
      <trkpt lat="47.66355" lon="6.12579">
        <ele>236</ele>
        <time>2020-10-18T13:41:29Z</time>
      </trkpt>
      <trkpt lat="47.66349" lon="6.12581">
        <ele>235</ele>
        <time>2020-10-18T13:41:30Z</time>
      </trkpt>
      <trkpt lat="47.66343" lon="6.12583">
        <ele>233</ele>
        <time>2020-10-18T13:41:31Z</time>
      </trkpt>
      <trkpt lat="47.66337" lon="6.12586">
        <ele>231</ele>
        <time>2020-10-18T13:41:32Z</time>
      </trkpt>
      <trkpt lat="47.66331" lon="6.12589">
        <ele>230</ele>
        <time>2020-10-18T13:41:33Z</time>
      </trkpt>
      <trkpt lat="47.66324" lon="6.12593">
        <ele>230</ele>
        <time>2020-10-18T13:41:34Z</time>
      </trkpt>
      <trkpt lat="47.66319" lon="6.12597">
        <ele>229</ele>
        <time>2020-10-18T13:41:35Z</time>
      </trkpt>
      <trkpt lat="47.66314" lon="6.12602">
        <ele>229</ele>
        <time>2020-10-18T13:41:36Z</time>
      </trkpt>
      <trkpt lat="47.66309" lon="6.12607">
        <ele>229</ele>
        <time>2020-10-18T13:41:37Z</time>
      </trkpt>
      <trkpt lat="47.66305" lon="6.12612">
        <ele>228</ele>
        <time>2020-10-18T13:41:38Z</time>
      </trkpt>
      <trkpt lat="47.663" lon="6.12617">
        <ele>228</ele>
        <time>2020-10-18T13:41:39Z</time>
      </trkpt>
      <trkpt lat="47.66295" lon="6.12621">
        <ele>228</ele>
        <time>2020-10-18T13:41:40Z</time>
      </trkpt>
      <trkpt lat="47.66291" lon="6.12626">
        <ele>228</ele>
        <time>2020-10-18T13:41:41Z</time>
      </trkpt>
      <trkpt lat="47.66286" lon="6.12631">
        <ele>228</ele>
        <time>2020-10-18T13:41:42Z</time>
      </trkpt>
      <trkpt lat="47.66282" lon="6.12635">
        <ele>228</ele>
        <time>2020-10-18T13:41:43Z</time>
      </trkpt>
      <trkpt lat="47.66278" lon="6.1264">
        <ele>228</ele>
        <time>2020-10-18T13:41:44Z</time>
      </trkpt>
      <trkpt lat="47.66274" lon="6.12644">
        <ele>228</ele>
        <time>2020-10-18T13:41:45Z</time>
      </trkpt>
      <trkpt lat="47.6627" lon="6.12648">
        <ele>228</ele>
        <time>2020-10-18T13:41:46Z</time>
      </trkpt>
      <trkpt lat="47.66266" lon="6.12652">
        <ele>227</ele>
        <time>2020-10-18T13:41:47Z</time>
      </trkpt>
      <trkpt lat="47.66262" lon="6.12656">
        <ele>227</ele>
        <time>2020-10-18T13:41:48Z</time>
      </trkpt>
      <trkpt lat="47.66257" lon="6.12659">
        <ele>227</ele>
        <time>2020-10-18T13:41:49Z</time>
      </trkpt>
      <trkpt lat="47.6625" lon="6.12662">
        <ele>227</ele>
        <time>2020-10-18T13:41:51Z</time>
      </trkpt>
      <trkpt lat="47.66243" lon="6.12663">
        <ele>228</ele>
        <time>2020-10-18T13:41:53Z</time>
      </trkpt>
      <trkpt lat="47.66237" lon="6.12662">
        <ele>228</ele>
        <time>2020-10-18T13:41:55Z</time>
      </trkpt>
      <trkpt lat="47.66228" lon="6.12657">
        <ele>228</ele>
        <time>2020-10-18T13:41:57Z</time>
      </trkpt>
      <trkpt lat="47.66222" lon="6.12656">
        <ele>229</ele>
        <time>2020-10-18T13:42:01Z</time>
      </trkpt>
      <trkpt lat="47.66216" lon="6.12652">
        <ele>229</ele>
        <time>2020-10-18T13:42:03Z</time>
      </trkpt>
      <trkpt lat="47.66212" lon="6.12648">
        <ele>229</ele>
        <time>2020-10-18T13:42:04Z</time>
      </trkpt>
      <trkpt lat="47.66208" lon="6.12645">
        <ele>229</ele>
        <time>2020-10-18T13:42:06Z</time>
      </trkpt>
      <trkpt lat="47.66201" lon="6.1264">
        <ele>229</ele>
        <time>2020-10-18T13:42:10Z</time>
      </trkpt>
      <trkpt lat="47.66196" lon="6.12638">
        <ele>229</ele>
        <time>2020-10-18T13:42:11Z</time>
      </trkpt>
      <trkpt lat="47.66192" lon="6.12636">
        <ele>229</ele>
        <time>2020-10-18T13:42:13Z</time>
      </trkpt>
      <trkpt lat="47.66188" lon="6.12633">
        <ele>230</ele>
        <time>2020-10-18T13:42:15Z</time>
      </trkpt>
      <trkpt lat="47.6618" lon="6.1263">
        <ele>230</ele>
        <time>2020-10-18T13:42:18Z</time>
      </trkpt>
      <trkpt lat="47.66175" lon="6.12627">
        <ele>230</ele>
        <time>2020-10-18T13:42:22Z</time>
      </trkpt>
      <trkpt lat="47.6617" lon="6.12626">
        <ele>230</ele>
        <time>2020-10-18T13:42:23Z</time>
      </trkpt>
      <trkpt lat="47.66165" lon="6.12625">
        <ele>233</ele>
        <time>2020-10-18T13:42:25Z</time>
      </trkpt>
      <trkpt lat="47.6616" lon="6.12625">
        <ele>233</ele>
        <time>2020-10-18T13:42:29Z</time>
      </trkpt>
      <trkpt lat="47.66155" lon="6.12624">
        <ele>233</ele>
        <time>2020-10-18T13:42:31Z</time>
      </trkpt>
      <trkpt lat="47.66149" lon="6.12626">
        <ele>233</ele>
        <time>2020-10-18T13:42:33Z</time>
      </trkpt>
      <trkpt lat="47.66144" lon="6.12629">
        <ele>233</ele>
        <time>2020-10-18T13:42:36Z</time>
      </trkpt>
      <trkpt lat="47.6614" lon="6.12633">
        <ele>233</ele>
        <time>2020-10-18T13:42:40Z</time>
      </trkpt>
      <trkpt lat="47.66135" lon="6.12636">
        <ele>233</ele>
        <time>2020-10-18T13:42:41Z</time>
      </trkpt>
      <trkpt lat="47.6613" lon="6.1264">
        <ele>234</ele>
        <time>2020-10-18T13:42:45Z</time>
      </trkpt>
      <trkpt lat="47.66124" lon="6.12645">
        <ele>234</ele>
        <time>2020-10-18T13:42:47Z</time>
      </trkpt>
      <trkpt lat="47.6612" lon="6.12648">
        <ele>234</ele>
        <time>2020-10-18T13:42:51Z</time>
      </trkpt>
      <trkpt lat="47.66116" lon="6.12651">
        <ele>234</ele>
        <time>2020-10-18T13:42:52Z</time>
      </trkpt>
      <trkpt lat="47.66112" lon="6.12655">
        <ele>234</ele>
        <time>2020-10-18T13:42:56Z</time>
      </trkpt>
      <trkpt lat="47.66107" lon="6.12658">
        <ele>235</ele>
        <time>2020-10-18T13:42:58Z</time>
      </trkpt>
      <trkpt lat="47.66101" lon="6.12661">
        <ele>235</ele>
        <time>2020-10-18T13:43:02Z</time>
      </trkpt>
      <trkpt lat="47.66097" lon="6.12663">
        <ele>235</ele>
        <time>2020-10-18T13:43:04Z</time>
      </trkpt>
      <trkpt lat="47.66091" lon="6.12663">
        <ele>235</ele>
        <time>2020-10-18T13:43:06Z</time>
      </trkpt>
      <trkpt lat="47.66085" lon="6.12663">
        <ele>236</ele>
        <time>2020-10-18T13:43:10Z</time>
      </trkpt>
      <trkpt lat="47.6608" lon="6.12661">
        <ele>237</ele>
        <time>2020-10-18T13:43:12Z</time>
      </trkpt>
      <trkpt lat="47.66074" lon="6.12659">
        <ele>237</ele>
        <time>2020-10-18T13:43:15Z</time>
      </trkpt>
      <trkpt lat="47.66069" lon="6.12657">
        <ele>237</ele>
        <time>2020-10-18T13:43:18Z</time>
      </trkpt>
      <trkpt lat="47.66063" lon="6.12655">
        <ele>238</ele>
        <time>2020-10-18T13:43:22Z</time>
      </trkpt>
      <trkpt lat="47.66059" lon="6.12651">
        <ele>238</ele>
        <time>2020-10-18T13:43:25Z</time>
      </trkpt>
      <trkpt lat="47.66054" lon="6.12647">
        <ele>238</ele>
        <time>2020-10-18T13:43:28Z</time>
      </trkpt>
      <trkpt lat="47.66049" lon="6.12644">
        <ele>238</ele>
        <time>2020-10-18T13:43:30Z</time>
      </trkpt>
      <trkpt lat="47.66044" lon="6.12642">
        <ele>238</ele>
        <time>2020-10-18T13:43:33Z</time>
      </trkpt>
      <trkpt lat="47.66039" lon="6.1264">
        <ele>238</ele>
        <time>2020-10-18T13:43:34Z</time>
      </trkpt>
      <trkpt lat="47.66034" lon="6.12638">
        <ele>239</ele>
        <time>2020-10-18T13:43:38Z</time>
      </trkpt>
      <trkpt lat="47.66029" lon="6.12636">
        <ele>239</ele>
        <time>2020-10-18T13:43:39Z</time>
      </trkpt>
      <trkpt lat="47.66024" lon="6.12634">
        <ele>239</ele>
        <time>2020-10-18T13:43:43Z</time>
      </trkpt>
      <trkpt lat="47.66019" lon="6.12632">
        <ele>239</ele>
        <time>2020-10-18T13:43:44Z</time>
      </trkpt>
      <trkpt lat="47.66014" lon="6.12631">
        <ele>239</ele>
        <time>2020-10-18T13:43:46Z</time>
      </trkpt>
      <trkpt lat="47.6601" lon="6.12629">
        <ele>239</ele>
        <time>2020-10-18T13:43:48Z</time>
      </trkpt>
      <trkpt lat="47.66005" lon="6.12628">
        <ele>239</ele>
        <time>2020-10-18T13:43:51Z</time>
      </trkpt>
      <trkpt lat="47.66" lon="6.12626">
        <ele>239</ele>
        <time>2020-10-18T13:43:52Z</time>
      </trkpt>
      <trkpt lat="47.65995" lon="6.12625">
        <ele>240</ele>
        <time>2020-10-18T13:43:55Z</time>
      </trkpt>
      <trkpt lat="47.6599" lon="6.12624">
        <ele>239</ele>
        <time>2020-10-18T13:43:57Z</time>
      </trkpt>
      <trkpt lat="47.65983" lon="6.12622">
        <ele>239</ele>
        <time>2020-10-18T13:43:58Z</time>
      </trkpt>
      <trkpt lat="47.65976" lon="6.1262">
        <ele>239</ele>
        <time>2020-10-18T13:44:00Z</time>
      </trkpt>
      <trkpt lat="47.6597" lon="6.12618">
        <ele>239</ele>
        <time>2020-10-18T13:44:03Z</time>
      </trkpt>
      <trkpt lat="47.6596" lon="6.12617">
        <ele>239</ele>
        <time>2020-10-18T13:44:05Z</time>
      </trkpt>
      <trkpt lat="47.65954" lon="6.12615">
        <ele>239</ele>
        <time>2020-10-18T13:44:07Z</time>
      </trkpt>
      <trkpt lat="47.65949" lon="6.12615">
        <ele>239</ele>
        <time>2020-10-18T13:44:08Z</time>
      </trkpt>
      <trkpt lat="47.65941" lon="6.12613">
        <ele>239</ele>
        <time>2020-10-18T13:44:08Z</time>
      </trkpt>
      <trkpt lat="47.65935" lon="6.12612">
        <ele>239</ele>
        <time>2020-10-18T13:44:09Z</time>
      </trkpt>
      <trkpt lat="47.6593" lon="6.12611">
        <ele>239</ele>
        <time>2020-10-18T13:44:10Z</time>
      </trkpt>
      <trkpt lat="47.65926" lon="6.1261">
        <ele>239</ele>
        <time>2020-10-18T13:44:11Z</time>
      </trkpt>
      <trkpt lat="47.65921" lon="6.12609">
        <ele>239</ele>
        <time>2020-10-18T13:44:12Z</time>
      </trkpt>
      <trkpt lat="47.65916" lon="6.12608">
        <ele>238</ele>
        <time>2020-10-18T13:44:13Z</time>
      </trkpt>
      <trkpt lat="47.65911" lon="6.12604">
        <ele>238</ele>
        <time>2020-10-18T13:44:15Z</time>
      </trkpt>
      <trkpt lat="47.65906" lon="6.12605">
        <ele>238</ele>
        <time>2020-10-18T13:44:18Z</time>
      </trkpt>
      <trkpt lat="47.65899" lon="6.12604">
        <ele>238</ele>
        <time>2020-10-18T13:44:19Z</time>
      </trkpt>
      <trkpt lat="47.65892" lon="6.12603">
        <ele>237</ele>
        <time>2020-10-18T13:44:21Z</time>
      </trkpt>
      <trkpt lat="47.65886" lon="6.12602">
        <ele>237</ele>
        <time>2020-10-18T13:44:24Z</time>
      </trkpt>
      <trkpt lat="47.65881" lon="6.12601">
        <ele>237</ele>
        <time>2020-10-18T13:44:24Z</time>
      </trkpt>
      <trkpt lat="47.65876" lon="6.126">
        <ele>237</ele>
        <time>2020-10-18T13:44:25Z</time>
      </trkpt>
      <trkpt lat="47.65871" lon="6.12599">
        <ele>237</ele>
        <time>2020-10-18T13:44:28Z</time>
      </trkpt>
      <trkpt lat="47.65866" lon="6.12597">
        <ele>237</ele>
        <time>2020-10-18T13:44:29Z</time>
      </trkpt>
      <trkpt lat="47.65858" lon="6.12596">
        <ele>237</ele>
        <time>2020-10-18T13:44:31Z</time>
      </trkpt>
      <trkpt lat="47.65853" lon="6.12594">
        <ele>237</ele>
        <time>2020-10-18T13:44:32Z</time>
      </trkpt>
      <trkpt lat="47.65845" lon="6.12591">
        <ele>237</ele>
        <time>2020-10-18T13:44:34Z</time>
      </trkpt>
      <trkpt lat="47.65836" lon="6.12588">
        <ele>236</ele>
        <time>2020-10-18T13:44:34Z</time>
      </trkpt>
      <trkpt lat="47.65831" lon="6.12586">
        <ele>236</ele>
        <time>2020-10-18T13:44:35Z</time>
      </trkpt>
      <trkpt lat="47.65826" lon="6.12585">
        <ele>236</ele>
        <time>2020-10-18T13:44:36Z</time>
      </trkpt>
      <trkpt lat="47.65821" lon="6.12584">
        <ele>235</ele>
        <time>2020-10-18T13:44:37Z</time>
      </trkpt>
      <trkpt lat="47.65815" lon="6.12582">
        <ele>235</ele>
        <time>2020-10-18T13:44:38Z</time>
      </trkpt>
      <trkpt lat="47.6581" lon="6.12581">
        <ele>235</ele>
        <time>2020-10-18T13:44:39Z</time>
      </trkpt>
      <trkpt lat="47.65805" lon="6.12579">
        <ele>234</ele>
        <time>2020-10-18T13:44:40Z</time>
      </trkpt>
      <trkpt lat="47.658" lon="6.12579">
        <ele>234</ele>
        <time>2020-10-18T13:44:41Z</time>
      </trkpt>
      <trkpt lat="47.65796" lon="6.1258">
        <ele>234</ele>
        <time>2020-10-18T13:44:42Z</time>
      </trkpt>
      <trkpt lat="47.65791" lon="6.12581">
        <ele>234</ele>
        <time>2020-10-18T13:44:43Z</time>
      </trkpt>
      <trkpt lat="47.65783" lon="6.12583">
        <ele>234</ele>
        <time>2020-10-18T13:44:45Z</time>
      </trkpt>
      <trkpt lat="47.65778" lon="6.12586">
        <ele>234</ele>
        <time>2020-10-18T13:44:47Z</time>
      </trkpt>
      <trkpt lat="47.65772" lon="6.1259">
        <ele>234</ele>
        <time>2020-10-18T13:44:50Z</time>
      </trkpt>
      <trkpt lat="47.65768" lon="6.12595">
        <ele>234</ele>
        <time>2020-10-18T13:44:52Z</time>
      </trkpt>
      <trkpt lat="47.65763" lon="6.12602">
        <ele>234</ele>
        <time>2020-10-18T13:44:57Z</time>
      </trkpt>
      <trkpt lat="47.65759" lon="6.12601">
        <ele>234</ele>
        <time>2020-10-18T13:44:57Z</time>
      </trkpt>
      <trkpt lat="47.65755" lon="6.12596">
        <ele>234</ele>
        <time>2020-10-18T13:45:00Z</time>
      </trkpt>
      <trkpt lat="47.65754" lon="6.12587">
        <ele>233</ele>
        <time>2020-10-18T13:45:01Z</time>
      </trkpt>
      <trkpt lat="47.65757" lon="6.12581">
        <ele>233</ele>
        <time>2020-10-18T13:45:04Z</time>
      </trkpt>
      <trkpt lat="47.65762" lon="6.1257">
        <ele>233</ele>
        <time>2020-10-18T13:45:06Z</time>
      </trkpt>
      <trkpt lat="47.65764" lon="6.12564">
        <ele>233</ele>
        <time>2020-10-18T13:45:09Z</time>
      </trkpt>
      <trkpt lat="47.65769" lon="6.12553">
        <ele>234</ele>
        <time>2020-10-18T13:45:10Z</time>
      </trkpt>
      <trkpt lat="47.65772" lon="6.12545">
        <ele>233</ele>
        <time>2020-10-18T13:45:12Z</time>
      </trkpt>
      <trkpt lat="47.65775" lon="6.12537">
        <ele>233</ele>
        <time>2020-10-18T13:45:14Z</time>
      </trkpt>
      <trkpt lat="47.65778" lon="6.12529">
        <ele>233</ele>
        <time>2020-10-18T13:45:16Z</time>
      </trkpt>
      <trkpt lat="47.6578" lon="6.12523">
        <ele>233</ele>
        <time>2020-10-18T13:45:18Z</time>
      </trkpt>
      <trkpt lat="47.65783" lon="6.12515">
        <ele>233</ele>
        <time>2020-10-18T13:45:20Z</time>
      </trkpt>
      <trkpt lat="47.65786" lon="6.12506">
        <ele>233</ele>
        <time>2020-10-18T13:45:24Z</time>
      </trkpt>
      <trkpt lat="47.65788" lon="6.12498">
        <ele>233</ele>
        <time>2020-10-18T13:45:26Z</time>
      </trkpt>
      <trkpt lat="47.6579" lon="6.1249">
        <ele>233</ele>
        <time>2020-10-18T13:45:27Z</time>
      </trkpt>
      <trkpt lat="47.65792" lon="6.12484">
        <ele>233</ele>
        <time>2020-10-18T13:45:29Z</time>
      </trkpt>
      <trkpt lat="47.65794" lon="6.12477">
        <ele>233</ele>
        <time>2020-10-18T13:45:33Z</time>
      </trkpt>
      <trkpt lat="47.65796" lon="6.12467">
        <ele>233</ele>
        <time>2020-10-18T13:45:35Z</time>
      </trkpt>
      <trkpt lat="47.65798" lon="6.12459">
        <ele>233</ele>
        <time>2020-10-18T13:45:36Z</time>
      </trkpt>
      <trkpt lat="47.658" lon="6.1245">
        <ele>233</ele>
        <time>2020-10-18T13:45:40Z</time>
      </trkpt>
      <trkpt lat="47.65802" lon="6.12442">
        <ele>233</ele>
        <time>2020-10-18T13:45:41Z</time>
      </trkpt>
      <trkpt lat="47.65804" lon="6.12435">
        <ele>233</ele>
        <time>2020-10-18T13:45:43Z</time>
      </trkpt>
      <trkpt lat="47.65806" lon="6.12428">
        <ele>233</ele>
        <time>2020-10-18T13:45:45Z</time>
      </trkpt>
      <trkpt lat="47.65808" lon="6.12421">
        <ele>233</ele>
        <time>2020-10-18T13:45:48Z</time>
      </trkpt>
      <trkpt lat="47.6581" lon="6.12413">
        <ele>234</ele>
        <time>2020-10-18T13:45:51Z</time>
      </trkpt>
      <trkpt lat="47.65814" lon="6.12405">
        <ele>234</ele>
        <time>2020-10-18T13:45:54Z</time>
      </trkpt>
      <trkpt lat="47.65815" lon="6.12397">
        <ele>234</ele>
        <time>2020-10-18T13:45:55Z</time>
      </trkpt>
      <trkpt lat="47.65817" lon="6.12391">
        <ele>234</ele>
        <time>2020-10-18T13:45:57Z</time>
      </trkpt>
      <trkpt lat="47.6582" lon="6.12382">
        <ele>234</ele>
        <time>2020-10-18T13:46:01Z</time>
      </trkpt>
      <trkpt lat="47.65824" lon="6.12374">
        <ele>234</ele>
        <time>2020-10-18T13:46:04Z</time>
      </trkpt>
      <trkpt lat="47.65827" lon="6.12369">
        <ele>234</ele>
        <time>2020-10-18T13:46:06Z</time>
      </trkpt>
      <trkpt lat="47.65829" lon="6.12363">
        <ele>234</ele>
        <time>2020-10-18T13:46:08Z</time>
      </trkpt>
      <trkpt lat="47.65832" lon="6.12357">
        <ele>235</ele>
        <time>2020-10-18T13:46:10Z</time>
      </trkpt>
      <trkpt lat="47.65836" lon="6.12349">
        <ele>236</ele>
        <time>2020-10-18T13:46:11Z</time>
      </trkpt>
      <trkpt lat="47.65839" lon="6.12342">
        <ele>236</ele>
        <time>2020-10-18T13:46:14Z</time>
      </trkpt>
      <trkpt lat="47.65844" lon="6.12333">
        <ele>236</ele>
        <time>2020-10-18T13:46:16Z</time>
      </trkpt>
      <trkpt lat="47.65846" lon="6.12327">
        <ele>236</ele>
        <time>2020-10-18T13:46:16Z</time>
      </trkpt>
      <trkpt lat="47.6585" lon="6.12319">
        <ele>236</ele>
        <time>2020-10-18T13:46:19Z</time>
      </trkpt>
      <trkpt lat="47.65852" lon="6.12313">
        <ele>237</ele>
        <time>2020-10-18T13:46:20Z</time>
      </trkpt>
      <trkpt lat="47.65857" lon="6.12304">
        <ele>237</ele>
        <time>2020-10-18T13:46:22Z</time>
      </trkpt>
      <trkpt lat="47.65862" lon="6.12295">
        <ele>237</ele>
        <time>2020-10-18T13:46:24Z</time>
      </trkpt>
      <trkpt lat="47.65866" lon="6.12286">
        <ele>237</ele>
        <time>2020-10-18T13:46:26Z</time>
      </trkpt>
      <trkpt lat="47.65869" lon="6.12281">
        <ele>237</ele>
        <time>2020-10-18T13:46:26Z</time>
      </trkpt>
      <trkpt lat="47.65872" lon="6.12275">
        <ele>237</ele>
        <time>2020-10-18T13:46:29Z</time>
      </trkpt>
      <trkpt lat="47.65875" lon="6.12269">
        <ele>237</ele>
        <time>2020-10-18T13:46:30Z</time>
      </trkpt>
      <trkpt lat="47.65878" lon="6.12264">
        <ele>237</ele>
        <time>2020-10-18T13:46:32Z</time>
      </trkpt>
      <trkpt lat="47.65881" lon="6.12257">
        <ele>237</ele>
        <time>2020-10-18T13:46:34Z</time>
      </trkpt>
      <trkpt lat="47.65884" lon="6.12251">
        <ele>237</ele>
        <time>2020-10-18T13:46:34Z</time>
      </trkpt>
      <trkpt lat="47.65887" lon="6.12244">
        <ele>237</ele>
        <time>2020-10-18T13:46:36Z</time>
      </trkpt>
      <trkpt lat="47.6589" lon="6.12238">
        <ele>237</ele>
        <time>2020-10-18T13:46:38Z</time>
      </trkpt>
      <trkpt lat="47.65893" lon="6.12232">
        <ele>237</ele>
        <time>2020-10-18T13:46:41Z</time>
      </trkpt>
      <trkpt lat="47.65896" lon="6.12226">
        <ele>237</ele>
        <time>2020-10-18T13:46:43Z</time>
      </trkpt>
      <trkpt lat="47.65899" lon="6.1222">
        <ele>237</ele>
        <time>2020-10-18T13:46:45Z</time>
      </trkpt>
      <trkpt lat="47.65902" lon="6.12214">
        <ele>237</ele>
        <time>2020-10-18T13:46:46Z</time>
      </trkpt>
      <trkpt lat="47.65906" lon="6.12207">
        <ele>237</ele>
        <time>2020-10-18T13:46:48Z</time>
      </trkpt>
      <trkpt lat="47.65911" lon="6.12198">
        <ele>237</ele>
        <time>2020-10-18T13:46:50Z</time>
      </trkpt>
      <trkpt lat="47.65915" lon="6.1219">
        <ele>237</ele>
        <time>2020-10-18T13:46:52Z</time>
      </trkpt>
      <trkpt lat="47.65919" lon="6.12182">
        <ele>238</ele>
        <time>2020-10-18T13:46:53Z</time>
      </trkpt>
      <trkpt lat="47.65922" lon="6.12176">
        <ele>238</ele>
        <time>2020-10-18T13:46:56Z</time>
      </trkpt>
      <trkpt lat="47.65925" lon="6.1217">
        <ele>238</ele>
        <time>2020-10-18T13:46:56Z</time>
      </trkpt>
      <trkpt lat="47.65928" lon="6.12164">
        <ele>239</ele>
        <time>2020-10-18T13:46:59Z</time>
      </trkpt>
      <trkpt lat="47.65931" lon="6.12158">
        <ele>239</ele>
        <time>2020-10-18T13:47:01Z</time>
      </trkpt>
      <trkpt lat="47.65935" lon="6.12151">
        <ele>239</ele>
        <time>2020-10-18T13:47:03Z</time>
      </trkpt>
      <trkpt lat="47.65939" lon="6.12144">
        <ele>239</ele>
        <time>2020-10-18T13:47:05Z</time>
      </trkpt>
      <trkpt lat="47.65943" lon="6.12137">
        <ele>239</ele>
        <time>2020-10-18T13:47:07Z</time>
      </trkpt>
      <trkpt lat="47.65947" lon="6.12131">
        <ele>239</ele>
        <time>2020-10-18T13:47:09Z</time>
      </trkpt>
      <trkpt lat="47.65951" lon="6.12125">
        <ele>239</ele>
        <time>2020-10-18T13:47:11Z</time>
      </trkpt>
      <trkpt lat="47.65955" lon="6.12119">
        <ele>239</ele>
        <time>2020-10-18T13:47:13Z</time>
      </trkpt>
      <trkpt lat="47.6596" lon="6.12111">
        <ele>240</ele>
        <time>2020-10-18T13:47:15Z</time>
      </trkpt>
      <trkpt lat="47.65963" lon="6.12106">
        <ele>240</ele>
        <time>2020-10-18T13:47:17Z</time>
      </trkpt>
      <trkpt lat="47.65969" lon="6.12098">
        <ele>240</ele>
        <time>2020-10-18T13:47:18Z</time>
      </trkpt>
      <trkpt lat="47.65974" lon="6.1209">
        <ele>240</ele>
        <time>2020-10-18T13:47:22Z</time>
      </trkpt>
      <trkpt lat="47.65977" lon="6.12085">
        <ele>240</ele>
        <time>2020-10-18T13:47:22Z</time>
      </trkpt>
      <trkpt lat="47.65981" lon="6.12079">
        <ele>241</ele>
        <time>2020-10-18T13:47:24Z</time>
      </trkpt>
      <trkpt lat="47.65985" lon="6.12072">
        <ele>241</ele>
        <time>2020-10-18T13:47:28Z</time>
      </trkpt>
      <trkpt lat="47.6599" lon="6.12066">
        <ele>241</ele>
        <time>2020-10-18T13:47:31Z</time>
      </trkpt>
      <trkpt lat="47.65993" lon="6.12061">
        <ele>241</ele>
        <time>2020-10-18T13:47:32Z</time>
      </trkpt>
      <trkpt lat="47.65996" lon="6.12056">
        <ele>241</ele>
        <time>2020-10-18T13:47:34Z</time>
      </trkpt>
      <trkpt lat="47.66" lon="6.12049">
        <ele>242</ele>
        <time>2020-10-18T13:47:37Z</time>
      </trkpt>
      <trkpt lat="47.66004" lon="6.12042">
        <ele>242</ele>
        <time>2020-10-18T13:47:41Z</time>
      </trkpt>
      <trkpt lat="47.66008" lon="6.12035">
        <ele>242</ele>
        <time>2020-10-18T13:47:43Z</time>
      </trkpt>
      <trkpt lat="47.66011" lon="6.1203">
        <ele>242</ele>
        <time>2020-10-18T13:47:44Z</time>
      </trkpt>
      <trkpt lat="47.66014" lon="6.12025">
        <ele>242</ele>
        <time>2020-10-18T13:47:47Z</time>
      </trkpt>
      <trkpt lat="47.66018" lon="6.12018">
        <ele>242</ele>
        <time>2020-10-18T13:47:50Z</time>
      </trkpt>
      <trkpt lat="47.66021" lon="6.12013">
        <ele>242</ele>
        <time>2020-10-18T13:47:52Z</time>
      </trkpt>
      <trkpt lat="47.66025" lon="6.12007">
        <ele>242</ele>
        <time>2020-10-18T13:47:54Z</time>
      </trkpt>
      <trkpt lat="47.66029" lon="6.12002">
        <ele>242</ele>
        <time>2020-10-18T13:47:56Z</time>
      </trkpt>
      <trkpt lat="47.66033" lon="6.11996">
        <ele>242</ele>
        <time>2020-10-18T13:47:57Z</time>
      </trkpt>
      <trkpt lat="47.66034" lon="6.11989">
        <ele>242</ele>
        <time>2020-10-18T13:48:00Z</time>
      </trkpt>
      <trkpt lat="47.66035" lon="6.1198">
        <ele>242</ele>
        <time>2020-10-18T13:48:02Z</time>
      </trkpt>
      <trkpt lat="47.66033" lon="6.11972">
        <ele>243</ele>
        <time>2020-10-18T13:48:05Z</time>
      </trkpt>
      <trkpt lat="47.66031" lon="6.11966">
        <ele>243</ele>
        <time>2020-10-18T13:48:07Z</time>
      </trkpt>
      <trkpt lat="47.66027" lon="6.11958">
        <ele>243</ele>
        <time>2020-10-18T13:48:10Z</time>
      </trkpt>
      <trkpt lat="47.66024" lon="6.11952">
        <ele>243</ele>
        <time>2020-10-18T13:48:12Z</time>
      </trkpt>
      <trkpt lat="47.6602" lon="6.11945">
        <ele>243</ele>
        <time>2020-10-18T13:48:13Z</time>
      </trkpt>
      <trkpt lat="47.66017" lon="6.1194">
        <ele>243</ele>
        <time>2020-10-18T13:48:16Z</time>
      </trkpt>
      <trkpt lat="47.66014" lon="6.11933">
        <ele>244</ele>
        <time>2020-10-18T13:48:18Z</time>
      </trkpt>
      <trkpt lat="47.66011" lon="6.11927">
        <ele>244</ele>
        <time>2020-10-18T13:48:20Z</time>
      </trkpt>
      <trkpt lat="47.66008" lon="6.11922">
        <ele>244</ele>
        <time>2020-10-18T13:48:22Z</time>
      </trkpt>
      <trkpt lat="47.66005" lon="6.11917">
        <ele>245</ele>
        <time>2020-10-18T13:48:24Z</time>
      </trkpt>
      <trkpt lat="47.66001" lon="6.11911">
        <ele>245</ele>
        <time>2020-10-18T13:48:26Z</time>
      </trkpt>
      <trkpt lat="47.65998" lon="6.11903">
        <ele>245</ele>
        <time>2020-10-18T13:48:29Z</time>
      </trkpt>
      <trkpt lat="47.65995" lon="6.11897">
        <ele>245</ele>
        <time>2020-10-18T13:48:31Z</time>
      </trkpt>
      <trkpt lat="47.65993" lon="6.11892">
        <ele>245</ele>
        <time>2020-10-18T13:48:33Z</time>
      </trkpt>
      <trkpt lat="47.65989" lon="6.11884">
        <ele>245</ele>
        <time>2020-10-18T13:48:36Z</time>
      </trkpt>
      <trkpt lat="47.65985" lon="6.11878">
        <ele>245</ele>
        <time>2020-10-18T13:48:39Z</time>
      </trkpt>
      <trkpt lat="47.65982" lon="6.11871">
        <ele>245</ele>
        <time>2020-10-18T13:48:41Z</time>
      </trkpt>
      <trkpt lat="47.65979" lon="6.11866">
        <ele>245</ele>
        <time>2020-10-18T13:48:43Z</time>
      </trkpt>
      <trkpt lat="47.65974" lon="6.11856">
        <ele>245</ele>
        <time>2020-10-18T13:48:46Z</time>
      </trkpt>
      <trkpt lat="47.6597" lon="6.11849">
        <ele>245</ele>
        <time>2020-10-18T13:48:49Z</time>
      </trkpt>
      <trkpt lat="47.65967" lon="6.11844">
        <ele>245</ele>
        <time>2020-10-18T13:48:51Z</time>
      </trkpt>
      <trkpt lat="47.65963" lon="6.11837">
        <ele>245</ele>
        <time>2020-10-18T13:48:53Z</time>
      </trkpt>
      <trkpt lat="47.65959" lon="6.1183">
        <ele>247</ele>
        <time>2020-10-18T13:48:55Z</time>
      </trkpt>
      <trkpt lat="47.65956" lon="6.11824">
        <ele>247</ele>
        <time>2020-10-18T13:48:57Z</time>
      </trkpt>
      <trkpt lat="47.65953" lon="6.11817">
        <ele>247</ele>
        <time>2020-10-18T13:48:57Z</time>
      </trkpt>
      <trkpt lat="47.6595" lon="6.11811">
        <ele>247</ele>
        <time>2020-10-18T13:49:00Z</time>
      </trkpt>
      <trkpt lat="47.65946" lon="6.11805">
        <ele>247</ele>
        <time>2020-10-18T13:49:02Z</time>
      </trkpt>
      <trkpt lat="47.65943" lon="6.11799">
        <ele>247</ele>
        <time>2020-10-18T13:49:03Z</time>
      </trkpt>
      <trkpt lat="47.6594" lon="6.11792">
        <ele>247</ele>
        <time>2020-10-18T13:49:05Z</time>
      </trkpt>
      <trkpt lat="47.65936" lon="6.11785">
        <ele>247</ele>
        <time>2020-10-18T13:49:07Z</time>
      </trkpt>
      <trkpt lat="47.65933" lon="6.11779">
        <ele>247</ele>
        <time>2020-10-18T13:49:07Z</time>
      </trkpt>
      <trkpt lat="47.65928" lon="6.11769">
        <ele>247</ele>
        <time>2020-10-18T13:49:11Z</time>
      </trkpt>
      <trkpt lat="47.65924" lon="6.11762">
        <ele>247</ele>
        <time>2020-10-18T13:49:13Z</time>
      </trkpt>
      <trkpt lat="47.65921" lon="6.11757">
        <ele>247</ele>
        <time>2020-10-18T13:49:15Z</time>
      </trkpt>
      <trkpt lat="47.65917" lon="6.11749">
        <ele>247</ele>
        <time>2020-10-18T13:49:17Z</time>
      </trkpt>
      <trkpt lat="47.65913" lon="6.11741">
        <ele>247</ele>
        <time>2020-10-18T13:49:19Z</time>
      </trkpt>
      <trkpt lat="47.6591" lon="6.11733">
        <ele>247</ele>
        <time>2020-10-18T13:49:21Z</time>
      </trkpt>
      <trkpt lat="47.65906" lon="6.11727">
        <ele>247</ele>
        <time>2020-10-18T13:49:23Z</time>
      </trkpt>
      <trkpt lat="47.65903" lon="6.11722">
        <ele>247</ele>
        <time>2020-10-18T13:49:25Z</time>
      </trkpt>
      <trkpt lat="47.659" lon="6.11716">
        <ele>247</ele>
        <time>2020-10-18T13:49:27Z</time>
      </trkpt>
      <trkpt lat="47.65897" lon="6.1171">
        <ele>248</ele>
        <time>2020-10-18T13:49:28Z</time>
      </trkpt>
      <trkpt lat="47.65892" lon="6.11702">
        <ele>248</ele>
        <time>2020-10-18T13:49:30Z</time>
      </trkpt>
      <trkpt lat="47.65888" lon="6.11694">
        <ele>248</ele>
        <time>2020-10-18T13:49:32Z</time>
      </trkpt>
      <trkpt lat="47.65885" lon="6.11688">
        <ele>248</ele>
        <time>2020-10-18T13:49:33Z</time>
      </trkpt>
      <trkpt lat="47.65882" lon="6.11682">
        <ele>248</ele>
        <time>2020-10-18T13:49:34Z</time>
      </trkpt>
      <trkpt lat="47.6588" lon="6.11677">
        <ele>248</ele>
        <time>2020-10-18T13:49:35Z</time>
      </trkpt>
      <trkpt lat="47.65877" lon="6.11671">
        <ele>248</ele>
        <time>2020-10-18T13:49:35Z</time>
      </trkpt>
      <trkpt lat="47.65872" lon="6.11661">
        <ele>249</ele>
        <time>2020-10-18T13:49:37Z</time>
      </trkpt>
      <trkpt lat="47.65867" lon="6.11652">
        <ele>249</ele>
        <time>2020-10-18T13:49:40Z</time>
      </trkpt>
      <trkpt lat="47.65863" lon="6.11643">
        <ele>249</ele>
        <time>2020-10-18T13:49:42Z</time>
      </trkpt>
      <trkpt lat="47.6586" lon="6.11638">
        <ele>249</ele>
        <time>2020-10-18T13:49:43Z</time>
      </trkpt>
      <trkpt lat="47.65856" lon="6.1163">
        <ele>249</ele>
        <time>2020-10-18T13:49:44Z</time>
      </trkpt>
      <trkpt lat="47.65851" lon="6.11622">
        <ele>248</ele>
        <time>2020-10-18T13:49:46Z</time>
      </trkpt>
      <trkpt lat="47.65847" lon="6.11615">
        <ele>248</ele>
        <time>2020-10-18T13:49:46Z</time>
      </trkpt>
      <trkpt lat="47.65844" lon="6.1161">
        <ele>248</ele>
        <time>2020-10-18T13:49:48Z</time>
      </trkpt>
      <trkpt lat="47.65841" lon="6.11605">
        <ele>248</ele>
        <time>2020-10-18T13:49:49Z</time>
      </trkpt>
      <trkpt lat="47.65837" lon="6.11598">
        <ele>248</ele>
        <time>2020-10-18T13:49:50Z</time>
      </trkpt>
      <trkpt lat="47.65833" lon="6.1159">
        <ele>247</ele>
        <time>2020-10-18T13:49:52Z</time>
      </trkpt>
      <trkpt lat="47.6583" lon="6.11582">
        <ele>247</ele>
        <time>2020-10-18T13:49:53Z</time>
      </trkpt>
      <trkpt lat="47.65826" lon="6.11575">
        <ele>246</ele>
        <time>2020-10-18T13:49:54Z</time>
      </trkpt>
      <trkpt lat="47.65821" lon="6.11566">
        <ele>246</ele>
        <time>2020-10-18T13:49:54Z</time>
      </trkpt>
      <trkpt lat="47.65818" lon="6.11559">
        <ele>246</ele>
        <time>2020-10-18T13:49:55Z</time>
      </trkpt>
      <trkpt lat="47.65815" lon="6.11553">
        <ele>246</ele>
        <time>2020-10-18T13:49:56Z</time>
      </trkpt>
      <trkpt lat="47.65812" lon="6.11548">
        <ele>246</ele>
        <time>2020-10-18T13:49:57Z</time>
      </trkpt>
      <trkpt lat="47.65809" lon="6.11542">
        <ele>246</ele>
        <time>2020-10-18T13:49:58Z</time>
      </trkpt>
      <trkpt lat="47.65806" lon="6.11536">
        <ele>246</ele>
        <time>2020-10-18T13:49:59Z</time>
      </trkpt>
      <trkpt lat="47.65803" lon="6.1153">
        <ele>246</ele>
        <time>2020-10-18T13:50:00Z</time>
      </trkpt>
      <trkpt lat="47.658" lon="6.11524">
        <ele>246</ele>
        <time>2020-10-18T13:50:01Z</time>
      </trkpt>
      <trkpt lat="47.65797" lon="6.11518">
        <ele>246</ele>
        <time>2020-10-18T13:50:02Z</time>
      </trkpt>
      <trkpt lat="47.65794" lon="6.11512">
        <ele>246</ele>
        <time>2020-10-18T13:50:03Z</time>
      </trkpt>
      <trkpt lat="47.65791" lon="6.11506">
        <ele>245</ele>
        <time>2020-10-18T13:50:04Z</time>
      </trkpt>
      <trkpt lat="47.65788" lon="6.115">
        <ele>246</ele>
        <time>2020-10-18T13:50:05Z</time>
      </trkpt>
      <trkpt lat="47.65784" lon="6.11494">
        <ele>246</ele>
        <time>2020-10-18T13:50:06Z</time>
      </trkpt>
      <trkpt lat="47.65781" lon="6.11487">
        <ele>246</ele>
        <time>2020-10-18T13:50:07Z</time>
      </trkpt>
      <trkpt lat="47.65778" lon="6.11481">
        <ele>246</ele>
        <time>2020-10-18T13:50:08Z</time>
      </trkpt>
      <trkpt lat="47.65775" lon="6.11475">
        <ele>246</ele>
        <time>2020-10-18T13:50:09Z</time>
      </trkpt>
      <trkpt lat="47.65771" lon="6.11469">
        <ele>246</ele>
        <time>2020-10-18T13:50:10Z</time>
      </trkpt>
      <trkpt lat="47.65768" lon="6.11463">
        <ele>246</ele>
        <time>2020-10-18T13:50:11Z</time>
      </trkpt>
      <trkpt lat="47.65765" lon="6.11457">
        <ele>246</ele>
        <time>2020-10-18T13:50:12Z</time>
      </trkpt>
      <trkpt lat="47.65763" lon="6.11451">
        <ele>246</ele>
        <time>2020-10-18T13:50:13Z</time>
      </trkpt>
      <trkpt lat="47.6576" lon="6.11443">
        <ele>246</ele>
        <time>2020-10-18T13:50:15Z</time>
      </trkpt>
      <trkpt lat="47.65759" lon="6.11434">
        <ele>246</ele>
        <time>2020-10-18T13:50:19Z</time>
      </trkpt>
      <trkpt lat="47.65762" lon="6.11428">
        <ele>246</ele>
        <time>2020-10-18T13:50:23Z</time>
      </trkpt>
      <trkpt lat="47.65764" lon="6.11421">
        <ele>246</ele>
        <time>2020-10-18T13:50:28Z</time>
      </trkpt>
      <trkpt lat="47.65767" lon="6.11416">
        <ele>246</ele>
        <time>2020-10-18T13:50:30Z</time>
      </trkpt>
      <trkpt lat="47.65772" lon="6.11408">
        <ele>246</ele>
        <time>2020-10-18T13:50:32Z</time>
      </trkpt>
      <trkpt lat="47.65776" lon="6.11402">
        <ele>246</ele>
        <time>2020-10-18T13:50:34Z</time>
      </trkpt>
      <trkpt lat="47.6578" lon="6.11396">
        <ele>246</ele>
        <time>2020-10-18T13:50:35Z</time>
      </trkpt>
      <trkpt lat="47.65783" lon="6.11392">
        <ele>246</ele>
        <time>2020-10-18T13:50:35Z</time>
      </trkpt>
      <trkpt lat="47.65788" lon="6.11383">
        <ele>246</ele>
        <time>2020-10-18T13:50:37Z</time>
      </trkpt>
      <trkpt lat="47.65792" lon="6.11377">
        <ele>246</ele>
        <time>2020-10-18T13:50:40Z</time>
      </trkpt>
      <trkpt lat="47.65795" lon="6.11371">
        <ele>246</ele>
        <time>2020-10-18T13:50:41Z</time>
      </trkpt>
      <trkpt lat="47.65798" lon="6.11366">
        <ele>246</ele>
        <time>2020-10-18T13:50:41Z</time>
      </trkpt>
      <trkpt lat="47.65802" lon="6.1136">
        <ele>246</ele>
        <time>2020-10-18T13:50:44Z</time>
      </trkpt>
      <trkpt lat="47.65806" lon="6.11354">
        <ele>246</ele>
        <time>2020-10-18T13:50:45Z</time>
      </trkpt>
      <trkpt lat="47.6581" lon="6.11347">
        <ele>246</ele>
        <time>2020-10-18T13:50:47Z</time>
      </trkpt>
      <trkpt lat="47.65817" lon="6.11337">
        <ele>246</ele>
        <time>2020-10-18T13:50:49Z</time>
      </trkpt>
      <trkpt lat="47.6582" lon="6.11331">
        <ele>246</ele>
        <time>2020-10-18T13:50:51Z</time>
      </trkpt>
      <trkpt lat="47.65824" lon="6.11326">
        <ele>246</ele>
        <time>2020-10-18T13:50:52Z</time>
      </trkpt>
      <trkpt lat="47.65828" lon="6.11319">
        <ele>246</ele>
        <time>2020-10-18T13:50:54Z</time>
      </trkpt>
      <trkpt lat="47.65832" lon="6.11314">
        <ele>246</ele>
        <time>2020-10-18T13:50:55Z</time>
      </trkpt>
      <trkpt lat="47.65835" lon="6.11308">
        <ele>247</ele>
        <time>2020-10-18T13:50:57Z</time>
      </trkpt>
      <trkpt lat="47.6584" lon="6.11302">
        <ele>247</ele>
        <time>2020-10-18T13:50:59Z</time>
      </trkpt>
      <trkpt lat="47.65844" lon="6.11295">
        <ele>247</ele>
        <time>2020-10-18T13:50:59Z</time>
      </trkpt>
      <trkpt lat="47.65849" lon="6.11288">
        <ele>247</ele>
        <time>2020-10-18T13:51:02Z</time>
      </trkpt>
      <trkpt lat="47.65853" lon="6.11283">
        <ele>247</ele>
        <time>2020-10-18T13:51:04Z</time>
      </trkpt>
      <trkpt lat="47.65857" lon="6.11275">
        <ele>248</ele>
        <time>2020-10-18T13:51:05Z</time>
      </trkpt>
      <trkpt lat="47.65862" lon="6.11269">
        <ele>248</ele>
        <time>2020-10-18T13:51:08Z</time>
      </trkpt>
      <trkpt lat="47.65865" lon="6.11262">
        <ele>248</ele>
        <time>2020-10-18T13:51:10Z</time>
      </trkpt>
      <trkpt lat="47.6587" lon="6.11256">
        <ele>248</ele>
        <time>2020-10-18T13:51:12Z</time>
      </trkpt>
      <trkpt lat="47.65875" lon="6.11249">
        <ele>248</ele>
        <time>2020-10-18T13:51:14Z</time>
      </trkpt>
      <trkpt lat="47.65879" lon="6.11244">
        <ele>249</ele>
        <time>2020-10-18T13:51:16Z</time>
      </trkpt>
      <trkpt lat="47.65883" lon="6.11238">
        <ele>249</ele>
        <time>2020-10-18T13:51:18Z</time>
      </trkpt>
      <trkpt lat="47.65888" lon="6.1123">
        <ele>249</ele>
        <time>2020-10-18T13:51:19Z</time>
      </trkpt>
      <trkpt lat="47.65893" lon="6.11224">
        <ele>249</ele>
        <time>2020-10-18T13:51:21Z</time>
      </trkpt>
      <trkpt lat="47.65896" lon="6.11219">
        <ele>249</ele>
        <time>2020-10-18T13:51:24Z</time>
      </trkpt>
      <trkpt lat="47.65902" lon="6.11211">
        <ele>249</ele>
        <time>2020-10-18T13:51:26Z</time>
      </trkpt>
      <trkpt lat="47.65906" lon="6.11204">
        <ele>249</ele>
        <time>2020-10-18T13:51:27Z</time>
      </trkpt>
      <trkpt lat="47.6591" lon="6.11199">
        <ele>249</ele>
        <time>2020-10-18T13:51:30Z</time>
      </trkpt>
      <trkpt lat="47.65915" lon="6.11191">
        <ele>250</ele>
        <time>2020-10-18T13:51:32Z</time>
      </trkpt>
      <trkpt lat="47.6592" lon="6.11185">
        <ele>252</ele>
        <time>2020-10-18T13:51:34Z</time>
      </trkpt>
      <trkpt lat="47.65923" lon="6.1118">
        <ele>252</ele>
        <time>2020-10-18T13:51:36Z</time>
      </trkpt>
      <trkpt lat="47.65928" lon="6.11172">
        <ele>252</ele>
        <time>2020-10-18T13:51:37Z</time>
      </trkpt>
      <trkpt lat="47.65932" lon="6.11168">
        <ele>252</ele>
        <time>2020-10-18T13:51:39Z</time>
      </trkpt>
      <trkpt lat="47.65936" lon="6.11163">
        <ele>253</ele>
        <time>2020-10-18T13:51:42Z</time>
      </trkpt>
      <trkpt lat="47.65939" lon="6.11158">
        <ele>253</ele>
        <time>2020-10-18T13:51:44Z</time>
      </trkpt>
      <trkpt lat="47.65944" lon="6.11152">
        <ele>253</ele>
        <time>2020-10-18T13:51:47Z</time>
      </trkpt>
      <trkpt lat="47.65947" lon="6.11147">
        <ele>254</ele>
        <time>2020-10-18T13:51:49Z</time>
      </trkpt>
      <trkpt lat="47.65951" lon="6.11141">
        <ele>254</ele>
        <time>2020-10-18T13:51:52Z</time>
      </trkpt>
      <trkpt lat="47.65954" lon="6.11136">
        <ele>254</ele>
        <time>2020-10-18T13:51:55Z</time>
      </trkpt>
      <trkpt lat="47.65957" lon="6.11131">
        <ele>254</ele>
        <time>2020-10-18T13:51:56Z</time>
      </trkpt>
      <trkpt lat="47.65961" lon="6.11126">
        <ele>254</ele>
        <time>2020-10-18T13:51:59Z</time>
      </trkpt>
      <trkpt lat="47.65965" lon="6.11121">
        <ele>255</ele>
        <time>2020-10-18T13:52:02Z</time>
      </trkpt>
      <trkpt lat="47.65969" lon="6.11117">
        <ele>255</ele>
        <time>2020-10-18T13:52:06Z</time>
      </trkpt>
      <trkpt lat="47.65973" lon="6.11112">
        <ele>255</ele>
        <time>2020-10-18T13:52:10Z</time>
      </trkpt>
      <trkpt lat="47.65977" lon="6.11106">
        <ele>255</ele>
        <time>2020-10-18T13:52:13Z</time>
      </trkpt>
      <trkpt lat="47.6598" lon="6.11099">
        <ele>256</ele>
        <time>2020-10-18T13:52:15Z</time>
      </trkpt>
      <trkpt lat="47.65985" lon="6.11093">
        <ele>256</ele>
        <time>2020-10-18T13:52:19Z</time>
      </trkpt>
      <trkpt lat="47.65988" lon="6.11089">
        <ele>256</ele>
        <time>2020-10-18T13:52:21Z</time>
      </trkpt>
      <trkpt lat="47.65993" lon="6.11083">
        <ele>257</ele>
        <time>2020-10-18T13:52:23Z</time>
      </trkpt>
      <trkpt lat="47.65997" lon="6.11078">
        <ele>257</ele>
        <time>2020-10-18T13:52:24Z</time>
      </trkpt>
      <trkpt lat="47.66001" lon="6.11072">
        <ele>258</ele>
        <time>2020-10-18T13:52:28Z</time>
      </trkpt>
      <trkpt lat="47.66006" lon="6.11066">
        <ele>258</ele>
        <time>2020-10-18T13:52:31Z</time>
      </trkpt>
      <trkpt lat="47.66011" lon="6.1106">
        <ele>258</ele>
        <time>2020-10-18T13:52:34Z</time>
      </trkpt>
      <trkpt lat="47.66016" lon="6.11053">
        <ele>258</ele>
        <time>2020-10-18T13:52:37Z</time>
      </trkpt>
      <trkpt lat="47.66021" lon="6.11047">
        <ele>258</ele>
        <time>2020-10-18T13:52:40Z</time>
      </trkpt>
      <trkpt lat="47.66025" lon="6.11042">
        <ele>258</ele>
        <time>2020-10-18T13:52:42Z</time>
      </trkpt>
      <trkpt lat="47.66029" lon="6.11037">
        <ele>258</ele>
        <time>2020-10-18T13:52:45Z</time>
      </trkpt>
      <trkpt lat="47.66035" lon="6.11029">
        <ele>258</ele>
        <time>2020-10-18T13:52:46Z</time>
      </trkpt>
      <trkpt lat="47.66038" lon="6.11024">
        <ele>258</ele>
        <time>2020-10-18T13:52:49Z</time>
      </trkpt>
      <trkpt lat="47.66043" lon="6.11019">
        <ele>258</ele>
        <time>2020-10-18T13:52:49Z</time>
      </trkpt>
      <trkpt lat="47.66047" lon="6.11013">
        <ele>258</ele>
        <time>2020-10-18T13:52:52Z</time>
      </trkpt>
      <trkpt lat="47.66052" lon="6.11007">
        <ele>259</ele>
        <time>2020-10-18T13:52:54Z</time>
      </trkpt>
      <trkpt lat="47.66057" lon="6.11001">
        <ele>259</ele>
        <time>2020-10-18T13:52:56Z</time>
      </trkpt>
      <trkpt lat="47.66063" lon="6.10994">
        <ele>258</ele>
        <time>2020-10-18T13:52:57Z</time>
      </trkpt>
      <trkpt lat="47.66067" lon="6.10988">
        <ele>259</ele>
        <time>2020-10-18T13:53:00Z</time>
      </trkpt>
      <trkpt lat="47.66071" lon="6.10983">
        <ele>259</ele>
        <time>2020-10-18T13:53:01Z</time>
      </trkpt>
      <trkpt lat="47.66076" lon="6.10977">
        <ele>259</ele>
        <time>2020-10-18T13:53:03Z</time>
      </trkpt>
      <trkpt lat="47.66082" lon="6.10971">
        <ele>259</ele>
        <time>2020-10-18T13:53:04Z</time>
      </trkpt>
      <trkpt lat="47.66086" lon="6.10966">
        <ele>260</ele>
        <time>2020-10-18T13:53:07Z</time>
      </trkpt>
      <trkpt lat="47.66091" lon="6.1096">
        <ele>260</ele>
        <time>2020-10-18T13:53:08Z</time>
      </trkpt>
      <trkpt lat="47.66097" lon="6.10951">
        <ele>261</ele>
        <time>2020-10-18T13:53:11Z</time>
      </trkpt>
      <trkpt lat="47.66101" lon="6.10946">
        <ele>261</ele>
        <time>2020-10-18T13:53:13Z</time>
      </trkpt>
      <trkpt lat="47.66106" lon="6.10937">
        <ele>261</ele>
        <time>2020-10-18T13:53:16Z</time>
      </trkpt>
      <trkpt lat="47.66111" lon="6.10933">
        <ele>261</ele>
        <time>2020-10-18T13:53:20Z</time>
      </trkpt>
      <trkpt lat="47.66115" lon="6.10928">
        <ele>261</ele>
        <time>2020-10-18T13:53:22Z</time>
      </trkpt>
      <trkpt lat="47.66119" lon="6.10921">
        <ele>261</ele>
        <time>2020-10-18T13:53:24Z</time>
      </trkpt>
      <trkpt lat="47.66124" lon="6.10916">
        <ele>262</ele>
        <time>2020-10-18T13:53:27Z</time>
      </trkpt>
      <trkpt lat="47.66128" lon="6.10911">
        <ele>262</ele>
        <time>2020-10-18T13:53:30Z</time>
      </trkpt>
      <trkpt lat="47.66132" lon="6.10906">
        <ele>262</ele>
        <time>2020-10-18T13:53:32Z</time>
      </trkpt>
      <trkpt lat="47.66135" lon="6.10901">
        <ele>262</ele>
        <time>2020-10-18T13:53:34Z</time>
      </trkpt>
      <trkpt lat="47.6614" lon="6.10895">
        <ele>262</ele>
        <time>2020-10-18T13:53:35Z</time>
      </trkpt>
      <trkpt lat="47.66144" lon="6.10891">
        <ele>262</ele>
        <time>2020-10-18T13:53:37Z</time>
      </trkpt>
      <trkpt lat="47.66148" lon="6.10886">
        <ele>262</ele>
        <time>2020-10-18T13:53:39Z</time>
      </trkpt>
      <trkpt lat="47.66152" lon="6.10882">
        <ele>262</ele>
        <time>2020-10-18T13:53:41Z</time>
      </trkpt>
      <trkpt lat="47.66156" lon="6.10877">
        <ele>262</ele>
        <time>2020-10-18T13:53:43Z</time>
      </trkpt>
      <trkpt lat="47.66159" lon="6.10872">
        <ele>263</ele>
        <time>2020-10-18T13:53:45Z</time>
      </trkpt>
      <trkpt lat="47.66164" lon="6.10866">
        <ele>263</ele>
        <time>2020-10-18T13:53:49Z</time>
      </trkpt>
      <trkpt lat="47.66169" lon="6.1086">
        <ele>263</ele>
        <time>2020-10-18T13:53:52Z</time>
      </trkpt>
      <trkpt lat="47.66174" lon="6.10855">
        <ele>263</ele>
        <time>2020-10-18T13:53:53Z</time>
      </trkpt>
      <trkpt lat="47.66178" lon="6.10851">
        <ele>263</ele>
        <time>2020-10-18T13:53:56Z</time>
      </trkpt>
      <trkpt lat="47.66184" lon="6.10844">
        <ele>263</ele>
        <time>2020-10-18T13:53:58Z</time>
      </trkpt>
      <trkpt lat="47.66188" lon="6.10838">
        <ele>263</ele>
        <time>2020-10-18T13:53:58Z</time>
      </trkpt>
      <trkpt lat="47.66193" lon="6.10833">
        <ele>263</ele>
        <time>2020-10-18T13:54:01Z</time>
      </trkpt>
      <trkpt lat="47.66198" lon="6.10827">
        <ele>263</ele>
        <time>2020-10-18T13:54:03Z</time>
      </trkpt>
      <trkpt lat="47.66203" lon="6.10821">
        <ele>262</ele>
        <time>2020-10-18T13:54:05Z</time>
      </trkpt>
      <trkpt lat="47.66207" lon="6.10817">
        <ele>262</ele>
        <time>2020-10-18T13:54:06Z</time>
      </trkpt>
      <trkpt lat="47.66211" lon="6.10811">
        <ele>262</ele>
        <time>2020-10-18T13:54:08Z</time>
      </trkpt>
      <trkpt lat="47.66215" lon="6.10806">
        <ele>262</ele>
        <time>2020-10-18T13:54:09Z</time>
      </trkpt>
      <trkpt lat="47.66219" lon="6.10802">
        <ele>262</ele>
        <time>2020-10-18T13:54:10Z</time>
      </trkpt>
      <trkpt lat="47.66223" lon="6.10797">
        <ele>262</ele>
        <time>2020-10-18T13:54:10Z</time>
      </trkpt>
      <trkpt lat="47.66226" lon="6.10792">
        <ele>262</ele>
        <time>2020-10-18T13:54:11Z</time>
      </trkpt>
      <trkpt lat="47.66232" lon="6.10785">
        <ele>262</ele>
        <time>2020-10-18T13:54:13Z</time>
      </trkpt>
      <trkpt lat="47.66238" lon="6.10781">
        <ele>262</ele>
        <time>2020-10-18T13:54:16Z</time>
      </trkpt>
      <trkpt lat="47.66242" lon="6.10779">
        <ele>262</ele>
        <time>2020-10-18T13:54:17Z</time>
      </trkpt>
      <trkpt lat="47.66249" lon="6.10774">
        <ele>262</ele>
        <time>2020-10-18T13:54:18Z</time>
      </trkpt>
      <trkpt lat="47.66256" lon="6.10771">
        <ele>262</ele>
        <time>2020-10-18T13:54:20Z</time>
      </trkpt>
      <trkpt lat="47.66261" lon="6.1077">
        <ele>262</ele>
        <time>2020-10-18T13:54:21Z</time>
      </trkpt>
      <trkpt lat="47.66266" lon="6.10769">
        <ele>262</ele>
        <time>2020-10-18T13:54:22Z</time>
      </trkpt>
      <trkpt lat="47.66274" lon="6.1077">
        <ele>262</ele>
        <time>2020-10-18T13:54:24Z</time>
      </trkpt>
      <trkpt lat="47.66281" lon="6.1077">
        <ele>262</ele>
        <time>2020-10-18T13:54:27Z</time>
      </trkpt>
      <trkpt lat="47.66289" lon="6.10769">
        <ele>262</ele>
        <time>2020-10-18T13:54:29Z</time>
      </trkpt>
      <trkpt lat="47.66295" lon="6.10769">
        <ele>261</ele>
        <time>2020-10-18T13:54:31Z</time>
      </trkpt>
      <trkpt lat="47.66301" lon="6.10769">
        <ele>261</ele>
        <time>2020-10-18T13:54:32Z</time>
      </trkpt>
      <trkpt lat="47.66308" lon="6.10771">
        <ele>261</ele>
        <time>2020-10-18T13:54:34Z</time>
      </trkpt>
      <trkpt lat="47.66315" lon="6.10778">
        <ele>261</ele>
        <time>2020-10-18T13:54:36Z</time>
      </trkpt>
      <trkpt lat="47.66321" lon="6.10786">
        <ele>261</ele>
        <time>2020-10-18T13:54:38Z</time>
      </trkpt>
      <trkpt lat="47.66325" lon="6.1079">
        <ele>261</ele>
        <time>2020-10-18T13:54:39Z</time>
      </trkpt>
      <trkpt lat="47.66331" lon="6.10798">
        <ele>261</ele>
        <time>2020-10-18T13:54:41Z</time>
      </trkpt>
      <trkpt lat="47.66335" lon="6.10802">
        <ele>261</ele>
        <time>2020-10-18T13:54:42Z</time>
      </trkpt>
      <trkpt lat="47.66338" lon="6.10807">
        <ele>261</ele>
        <time>2020-10-18T13:54:43Z</time>
      </trkpt>
      <trkpt lat="47.66346" lon="6.10816">
        <ele>261</ele>
        <time>2020-10-18T13:54:45Z</time>
      </trkpt>
      <trkpt lat="47.66349" lon="6.1082">
        <ele>261</ele>
        <time>2020-10-18T13:54:46Z</time>
      </trkpt>
      <trkpt lat="47.66352" lon="6.10825">
        <ele>261</ele>
        <time>2020-10-18T13:54:47Z</time>
      </trkpt>
      <trkpt lat="47.66356" lon="6.10829">
        <ele>261</ele>
        <time>2020-10-18T13:54:48Z</time>
      </trkpt>
      <trkpt lat="47.66362" lon="6.10838">
        <ele>261</ele>
        <time>2020-10-18T13:54:50Z</time>
      </trkpt>
      <trkpt lat="47.66367" lon="6.10844">
        <ele>261</ele>
        <time>2020-10-18T13:54:52Z</time>
      </trkpt>
      <trkpt lat="47.66371" lon="6.10852">
        <ele>261</ele>
        <time>2020-10-18T13:54:54Z</time>
      </trkpt>
      <trkpt lat="47.66375" lon="6.10858">
        <ele>261</ele>
        <time>2020-10-18T13:54:55Z</time>
      </trkpt>
      <trkpt lat="47.66378" lon="6.10863">
        <ele>261</ele>
        <time>2020-10-18T13:54:56Z</time>
      </trkpt>
      <trkpt lat="47.66383" lon="6.10873">
        <ele>261</ele>
        <time>2020-10-18T13:54:58Z</time>
      </trkpt>
      <trkpt lat="47.66388" lon="6.10881">
        <ele>261</ele>
        <time>2020-10-18T13:55:00Z</time>
      </trkpt>
      <trkpt lat="47.66392" lon="6.10887">
        <ele>261</ele>
        <time>2020-10-18T13:55:01Z</time>
      </trkpt>
      <trkpt lat="47.66395" lon="6.10893">
        <ele>261</ele>
        <time>2020-10-18T13:55:02Z</time>
      </trkpt>
      <trkpt lat="47.66398" lon="6.10898">
        <ele>261</ele>
        <time>2020-10-18T13:55:03Z</time>
      </trkpt>
      <trkpt lat="47.66403" lon="6.10906">
        <ele>261</ele>
        <time>2020-10-18T13:55:05Z</time>
      </trkpt>
      <trkpt lat="47.66405" lon="6.10913">
        <ele>261</ele>
        <time>2020-10-18T13:55:06Z</time>
      </trkpt>
      <trkpt lat="47.6641" lon="6.10924">
        <ele>260</ele>
        <time>2020-10-18T13:55:07Z</time>
      </trkpt>
      <trkpt lat="47.66412" lon="6.1093">
        <ele>260</ele>
        <time>2020-10-18T13:55:08Z</time>
      </trkpt>
      <trkpt lat="47.66414" lon="6.10937">
        <ele>260</ele>
        <time>2020-10-18T13:55:09Z</time>
      </trkpt>
      <trkpt lat="47.66416" lon="6.10944">
        <ele>260</ele>
        <time>2020-10-18T13:55:10Z</time>
      </trkpt>
      <trkpt lat="47.66419" lon="6.10951">
        <ele>261</ele>
        <time>2020-10-18T13:55:11Z</time>
      </trkpt>
      <trkpt lat="47.66421" lon="6.10958">
        <ele>261</ele>
        <time>2020-10-18T13:55:12Z</time>
      </trkpt>
      <trkpt lat="47.66423" lon="6.10966">
        <ele>261</ele>
        <time>2020-10-18T13:55:13Z</time>
      </trkpt>
      <trkpt lat="47.66426" lon="6.10973">
        <ele>260</ele>
        <time>2020-10-18T13:55:14Z</time>
      </trkpt>
      <trkpt lat="47.66428" lon="6.1098">
        <ele>260</ele>
        <time>2020-10-18T13:55:15Z</time>
      </trkpt>
      <trkpt lat="47.66431" lon="6.10986">
        <ele>260</ele>
        <time>2020-10-18T13:55:16Z</time>
      </trkpt>
      <trkpt lat="47.66433" lon="6.10993">
        <ele>260</ele>
        <time>2020-10-18T13:55:17Z</time>
      </trkpt>
      <trkpt lat="47.66436" lon="6.10999">
        <ele>260</ele>
        <time>2020-10-18T13:55:18Z</time>
      </trkpt>
      <trkpt lat="47.66439" lon="6.11005">
        <ele>259</ele>
        <time>2020-10-18T13:55:19Z</time>
      </trkpt>
      <trkpt lat="47.66444" lon="6.11015">
        <ele>259</ele>
        <time>2020-10-18T13:55:21Z</time>
      </trkpt>
      <trkpt lat="47.6645" lon="6.11024">
        <ele>259</ele>
        <time>2020-10-18T13:55:23Z</time>
      </trkpt>
      <trkpt lat="47.66454" lon="6.11032">
        <ele>259</ele>
        <time>2020-10-18T13:55:25Z</time>
      </trkpt>
      <trkpt lat="47.66458" lon="6.11041">
        <ele>259</ele>
        <time>2020-10-18T13:55:27Z</time>
      </trkpt>
      <trkpt lat="47.66462" lon="6.1105">
        <ele>259</ele>
        <time>2020-10-18T13:55:29Z</time>
      </trkpt>
      <trkpt lat="47.66464" lon="6.11058">
        <ele>259</ele>
        <time>2020-10-18T13:55:30Z</time>
      </trkpt>
      <trkpt lat="47.66468" lon="6.11064">
        <ele>259</ele>
        <time>2020-10-18T13:55:32Z</time>
      </trkpt>
      <trkpt lat="47.6647" lon="6.1107">
        <ele>259</ele>
        <time>2020-10-18T13:55:34Z</time>
      </trkpt>
      <trkpt lat="47.66473" lon="6.11076">
        <ele>259</ele>
        <time>2020-10-18T13:55:35Z</time>
      </trkpt>
      <trkpt lat="47.66476" lon="6.11082">
        <ele>259</ele>
        <time>2020-10-18T13:55:36Z</time>
      </trkpt>
      <trkpt lat="47.66478" lon="6.11088">
        <ele>257</ele>
        <time>2020-10-18T13:55:37Z</time>
      </trkpt>
      <trkpt lat="47.66482" lon="6.11098">
        <ele>257</ele>
        <time>2020-10-18T13:55:39Z</time>
      </trkpt>
      <trkpt lat="47.66484" lon="6.11104">
        <ele>257</ele>
        <time>2020-10-18T13:55:40Z</time>
      </trkpt>
      <trkpt lat="47.66488" lon="6.11111">
        <ele>257</ele>
        <time>2020-10-18T13:55:42Z</time>
      </trkpt>
      <trkpt lat="47.66491" lon="6.11121">
        <ele>257</ele>
        <time>2020-10-18T13:55:44Z</time>
      </trkpt>
      <trkpt lat="47.66495" lon="6.1113">
        <ele>257</ele>
        <time>2020-10-18T13:55:46Z</time>
      </trkpt>
      <trkpt lat="47.66498" lon="6.11139">
        <ele>257</ele>
        <time>2020-10-18T13:55:48Z</time>
      </trkpt>
      <trkpt lat="47.66502" lon="6.11148">
        <ele>259</ele>
        <time>2020-10-18T13:55:50Z</time>
      </trkpt>
      <trkpt lat="47.66507" lon="6.11157">
        <ele>259</ele>
        <time>2020-10-18T13:55:52Z</time>
      </trkpt>
      <trkpt lat="47.66511" lon="6.11168">
        <ele>259</ele>
        <time>2020-10-18T13:55:55Z</time>
      </trkpt>
      <trkpt lat="47.66515" lon="6.11175">
        <ele>259</ele>
        <time>2020-10-18T13:55:57Z</time>
      </trkpt>
      <trkpt lat="47.66518" lon="6.11182">
        <ele>259</ele>
        <time>2020-10-18T13:55:59Z</time>
      </trkpt>
      <trkpt lat="47.6652" lon="6.11188">
        <ele>259</ele>
        <time>2020-10-18T13:56:00Z</time>
      </trkpt>
      <trkpt lat="47.66524" lon="6.11197">
        <ele>260</ele>
        <time>2020-10-18T13:56:02Z</time>
      </trkpt>
      <trkpt lat="47.66528" lon="6.11205">
        <ele>260</ele>
        <time>2020-10-18T13:56:04Z</time>
      </trkpt>
      <trkpt lat="47.6653" lon="6.11213">
        <ele>260</ele>
        <time>2020-10-18T13:56:06Z</time>
      </trkpt>
      <trkpt lat="47.66534" lon="6.11223">
        <ele>260</ele>
        <time>2020-10-18T13:56:09Z</time>
      </trkpt>
      <trkpt lat="47.66536" lon="6.1123">
        <ele>260</ele>
        <time>2020-10-18T13:56:11Z</time>
      </trkpt>
      <trkpt lat="47.66539" lon="6.11236">
        <ele>260</ele>
        <time>2020-10-18T13:56:13Z</time>
      </trkpt>
      <trkpt lat="47.66543" lon="6.1124">
        <ele>260</ele>
        <time>2020-10-18T13:56:15Z</time>
      </trkpt>
      <trkpt lat="47.66547" lon="6.11242">
        <ele>260</ele>
        <time>2020-10-18T13:56:17Z</time>
      </trkpt>
      <trkpt lat="47.66554" lon="6.11243">
        <ele>261</ele>
        <time>2020-10-18T13:56:20Z</time>
      </trkpt>
      <trkpt lat="47.6656" lon="6.11243">
        <ele>261</ele>
        <time>2020-10-18T13:56:23Z</time>
      </trkpt>
      <trkpt lat="47.66566" lon="6.11244">
        <ele>261</ele>
        <time>2020-10-18T13:56:26Z</time>
      </trkpt>
      <trkpt lat="47.66571" lon="6.11244">
        <ele>262</ele>
        <time>2020-10-18T13:56:29Z</time>
      </trkpt>
      <trkpt lat="47.66579" lon="6.11244">
        <ele>262</ele>
        <time>2020-10-18T13:56:32Z</time>
      </trkpt>
      <trkpt lat="47.66584" lon="6.11244">
        <ele>263</ele>
        <time>2020-10-18T13:56:34Z</time>
      </trkpt>
      <trkpt lat="47.66589" lon="6.11244">
        <ele>263</ele>
        <time>2020-10-18T13:56:36Z</time>
      </trkpt>
      <trkpt lat="47.66594" lon="6.11245">
        <ele>264</ele>
        <time>2020-10-18T13:56:38Z</time>
      </trkpt>
      <trkpt lat="47.666" lon="6.11248">
        <ele>264</ele>
        <time>2020-10-18T13:56:41Z</time>
      </trkpt>
      <trkpt lat="47.66605" lon="6.1125">
        <ele>264</ele>
        <time>2020-10-18T13:56:44Z</time>
      </trkpt>
      <trkpt lat="47.66609" lon="6.11255">
        <ele>264</ele>
        <time>2020-10-18T13:56:47Z</time>
      </trkpt>
      <trkpt lat="47.66613" lon="6.1126">
        <ele>264</ele>
        <time>2020-10-18T13:56:50Z</time>
      </trkpt>
      <trkpt lat="47.66617" lon="6.11266">
        <ele>264</ele>
        <time>2020-10-18T13:56:53Z</time>
      </trkpt>
      <trkpt lat="47.66622" lon="6.11273">
        <ele>264</ele>
        <time>2020-10-18T13:56:56Z</time>
      </trkpt>
      <trkpt lat="47.66627" lon="6.1128">
        <ele>264</ele>
        <time>2020-10-18T13:56:59Z</time>
      </trkpt>
      <trkpt lat="47.66632" lon="6.11285">
        <ele>264</ele>
        <time>2020-10-18T13:57:02Z</time>
      </trkpt>
      <trkpt lat="47.66636" lon="6.11289">
        <ele>264</ele>
        <time>2020-10-18T13:57:04Z</time>
      </trkpt>
      <trkpt lat="47.6664" lon="6.11296">
        <ele>264</ele>
        <time>2020-10-18T13:57:07Z</time>
      </trkpt>
      <trkpt lat="47.66644" lon="6.11301">
        <ele>264</ele>
        <time>2020-10-18T13:57:09Z</time>
      </trkpt>
      <trkpt lat="47.66648" lon="6.11305">
        <ele>264</ele>
        <time>2020-10-18T13:57:11Z</time>
      </trkpt>
      <trkpt lat="47.66652" lon="6.11311">
        <ele>264</ele>
        <time>2020-10-18T13:57:13Z</time>
      </trkpt>
      <trkpt lat="47.66657" lon="6.11318">
        <ele>264</ele>
        <time>2020-10-18T13:57:16Z</time>
      </trkpt>
      <trkpt lat="47.66661" lon="6.11322">
        <ele>264</ele>
        <time>2020-10-18T13:57:18Z</time>
      </trkpt>
      <trkpt lat="47.66665" lon="6.11328">
        <ele>264</ele>
        <time>2020-10-18T13:57:20Z</time>
      </trkpt>
      <trkpt lat="47.66669" lon="6.11333">
        <ele>264</ele>
        <time>2020-10-18T13:57:22Z</time>
      </trkpt>
      <trkpt lat="47.66673" lon="6.11337">
        <ele>265</ele>
        <time>2020-10-18T13:57:25Z</time>
      </trkpt>
      <trkpt lat="47.66678" lon="6.1134">
        <ele>265</ele>
        <time>2020-10-18T13:57:27Z</time>
      </trkpt>
      <trkpt lat="47.66682" lon="6.11344">
        <ele>265</ele>
        <time>2020-10-18T13:57:29Z</time>
      </trkpt>
      <trkpt lat="47.66686" lon="6.11348">
        <ele>265</ele>
        <time>2020-10-18T13:57:31Z</time>
      </trkpt>
      <trkpt lat="47.66689" lon="6.11354">
        <ele>266</ele>
        <time>2020-10-18T13:57:33Z</time>
      </trkpt>
      <trkpt lat="47.66692" lon="6.1136">
        <ele>266</ele>
        <time>2020-10-18T13:57:35Z</time>
      </trkpt>
      <trkpt lat="47.66697" lon="6.11365">
        <ele>266</ele>
        <time>2020-10-18T13:57:37Z</time>
      </trkpt>
      <trkpt lat="47.667" lon="6.11369">
        <ele>266</ele>
        <time>2020-10-18T13:57:39Z</time>
      </trkpt>
      <trkpt lat="47.66704" lon="6.11373">
        <ele>266</ele>
        <time>2020-10-18T13:57:41Z</time>
      </trkpt>
      <trkpt lat="47.66708" lon="6.11379">
        <ele>266</ele>
        <time>2020-10-18T13:57:44Z</time>
      </trkpt>
      <trkpt lat="47.66712" lon="6.11385">
        <ele>266</ele>
        <time>2020-10-18T13:57:46Z</time>
      </trkpt>
      <trkpt lat="47.66716" lon="6.11392">
        <ele>266</ele>
        <time>2020-10-18T13:57:49Z</time>
      </trkpt>
      <trkpt lat="47.66722" lon="6.11397">
        <ele>266</ele>
        <time>2020-10-18T13:57:52Z</time>
      </trkpt>
      <trkpt lat="47.66725" lon="6.11401">
        <ele>266</ele>
        <time>2020-10-18T13:57:54Z</time>
      </trkpt>
      <trkpt lat="47.66729" lon="6.11406">
        <ele>267</ele>
        <time>2020-10-18T13:57:56Z</time>
      </trkpt>
      <trkpt lat="47.66733" lon="6.11411">
        <ele>267</ele>
        <time>2020-10-18T13:57:58Z</time>
      </trkpt>
      <trkpt lat="47.66737" lon="6.11416">
        <ele>267</ele>
        <time>2020-10-18T13:58:00Z</time>
      </trkpt>
      <trkpt lat="47.66741" lon="6.11421">
        <ele>266</ele>
        <time>2020-10-18T13:58:03Z</time>
      </trkpt>
      <trkpt lat="47.66746" lon="6.11427">
        <ele>266</ele>
        <time>2020-10-18T13:58:05Z</time>
      </trkpt>
      <trkpt lat="47.6675" lon="6.11433">
        <ele>266</ele>
        <time>2020-10-18T13:58:07Z</time>
      </trkpt>
      <trkpt lat="47.66756" lon="6.11438">
        <ele>266</ele>
        <time>2020-10-18T13:58:09Z</time>
      </trkpt>
      <trkpt lat="47.6676" lon="6.11441">
        <ele>266</ele>
        <time>2020-10-18T13:58:11Z</time>
      </trkpt>
      <trkpt lat="47.66767" lon="6.11447">
        <ele>266</ele>
        <time>2020-10-18T13:58:13Z</time>
      </trkpt>
      <trkpt lat="47.66773" lon="6.1145">
        <ele>266</ele>
        <time>2020-10-18T13:58:15Z</time>
      </trkpt>
      <trkpt lat="47.6678" lon="6.11452">
        <ele>266</ele>
        <time>2020-10-18T13:58:17Z</time>
      </trkpt>
      <trkpt lat="47.66785" lon="6.11454">
        <ele>266</ele>
        <time>2020-10-18T13:58:18Z</time>
      </trkpt>
      <trkpt lat="47.66789" lon="6.11456">
        <ele>266</ele>
        <time>2020-10-18T13:58:19Z</time>
      </trkpt>
      <trkpt lat="47.66794" lon="6.11459">
        <ele>265</ele>
        <time>2020-10-18T13:58:20Z</time>
      </trkpt>
      <trkpt lat="47.66799" lon="6.11464">
        <ele>265</ele>
        <time>2020-10-18T13:58:21Z</time>
      </trkpt>
      <trkpt lat="47.66805" lon="6.11473">
        <ele>265</ele>
        <time>2020-10-18T13:58:22Z</time>
      </trkpt>
      <trkpt lat="47.66814" lon="6.1149">
        <ele>264</ele>
        <time>2020-10-18T13:58:23Z</time>
      </trkpt>
      <trkpt lat="47.66818" lon="6.11504">
        <ele>262</ele>
        <time>2020-10-18T13:58:24Z</time>
      </trkpt>
      <trkpt lat="47.66821" lon="6.11518">
        <ele>262</ele>
        <time>2020-10-18T13:58:25Z</time>
      </trkpt>
      <trkpt lat="47.66823" lon="6.11531">
        <ele>261</ele>
        <time>2020-10-18T13:58:26Z</time>
      </trkpt>
      <trkpt lat="47.66824" lon="6.11543">
        <ele>261</ele>
        <time>2020-10-18T13:58:27Z</time>
      </trkpt>
      <trkpt lat="47.66826" lon="6.11553">
        <ele>261</ele>
        <time>2020-10-18T13:58:28Z</time>
      </trkpt>
      <trkpt lat="47.66828" lon="6.11562">
        <ele>260</ele>
        <time>2020-10-18T13:58:29Z</time>
      </trkpt>
      <trkpt lat="47.66832" lon="6.1157">
        <ele>259</ele>
        <time>2020-10-18T13:58:30Z</time>
      </trkpt>
      <trkpt lat="47.66836" lon="6.11577">
        <ele>258</ele>
        <time>2020-10-18T13:58:31Z</time>
      </trkpt>
      <trkpt lat="47.66841" lon="6.11585">
        <ele>257</ele>
        <time>2020-10-18T13:58:32Z</time>
      </trkpt>
      <trkpt lat="47.66847" lon="6.11592">
        <ele>256</ele>
        <time>2020-10-18T13:58:33Z</time>
      </trkpt>
      <trkpt lat="47.66853" lon="6.11598">
        <ele>256</ele>
        <time>2020-10-18T13:58:34Z</time>
      </trkpt>
      <trkpt lat="47.66859" lon="6.11605">
        <ele>256</ele>
        <time>2020-10-18T13:58:35Z</time>
      </trkpt>
      <trkpt lat="47.66866" lon="6.1161">
        <ele>255</ele>
        <time>2020-10-18T13:58:36Z</time>
      </trkpt>
      <trkpt lat="47.66872" lon="6.11615">
        <ele>255</ele>
        <time>2020-10-18T13:58:37Z</time>
      </trkpt>
      <trkpt lat="47.66879" lon="6.1162">
        <ele>255</ele>
        <time>2020-10-18T13:58:38Z</time>
      </trkpt>
      <trkpt lat="47.66884" lon="6.11625">
        <ele>255</ele>
        <time>2020-10-18T13:58:39Z</time>
      </trkpt>
      <trkpt lat="47.66889" lon="6.11629">
        <ele>255</ele>
        <time>2020-10-18T13:58:40Z</time>
      </trkpt>
      <trkpt lat="47.66894" lon="6.11632">
        <ele>254</ele>
        <time>2020-10-18T13:58:41Z</time>
      </trkpt>
      <trkpt lat="47.66898" lon="6.11636">
        <ele>254</ele>
        <time>2020-10-18T13:58:42Z</time>
      </trkpt>
      <trkpt lat="47.66903" lon="6.11639">
        <ele>254</ele>
        <time>2020-10-18T13:58:43Z</time>
      </trkpt>
      <trkpt lat="47.66907" lon="6.11642">
        <ele>254</ele>
        <time>2020-10-18T13:58:44Z</time>
      </trkpt>
      <trkpt lat="47.66914" lon="6.11648">
        <ele>253</ele>
        <time>2020-10-18T13:58:46Z</time>
      </trkpt>
      <trkpt lat="47.66919" lon="6.11652">
        <ele>255</ele>
        <time>2020-10-18T13:58:48Z</time>
      </trkpt>
      <trkpt lat="47.66924" lon="6.11654">
        <ele>255</ele>
        <time>2020-10-18T14:01:23Z</time>
      </trkpt>
      <trkpt lat="47.66928" lon="6.11661">
        <ele>255</ele>
        <time>2020-10-18T14:01:27Z</time>
      </trkpt>
      <trkpt lat="47.66933" lon="6.11665">
        <ele>255</ele>
        <time>2020-10-18T14:01:29Z</time>
      </trkpt>
      <trkpt lat="47.66938" lon="6.1167">
        <ele>254</ele>
        <time>2020-10-18T14:01:31Z</time>
      </trkpt>
      <trkpt lat="47.66944" lon="6.11674">
        <ele>254</ele>
        <time>2020-10-18T14:01:33Z</time>
      </trkpt>
      <trkpt lat="47.66949" lon="6.11678">
        <ele>254</ele>
        <time>2020-10-18T14:01:35Z</time>
      </trkpt>
      <trkpt lat="47.66954" lon="6.11683">
        <ele>255</ele>
        <time>2020-10-18T14:01:37Z</time>
      </trkpt>
      <trkpt lat="47.66959" lon="6.11687">
        <ele>255</ele>
        <time>2020-10-18T14:01:39Z</time>
      </trkpt>
      <trkpt lat="47.66963" lon="6.1169">
        <ele>255</ele>
        <time>2020-10-18T14:01:41Z</time>
      </trkpt>
      <trkpt lat="47.66968" lon="6.11694">
        <ele>255</ele>
        <time>2020-10-18T14:01:44Z</time>
      </trkpt>
      <trkpt lat="47.66972" lon="6.11698">
        <ele>255</ele>
        <time>2020-10-18T14:01:46Z</time>
      </trkpt>
      <trkpt lat="47.66977" lon="6.11701">
        <ele>255</ele>
        <time>2020-10-18T14:01:49Z</time>
      </trkpt>
      <trkpt lat="47.66981" lon="6.11704">
        <ele>256</ele>
        <time>2020-10-18T14:01:51Z</time>
      </trkpt>
      <trkpt lat="47.66985" lon="6.1171">
        <ele>255</ele>
        <time>2020-10-18T14:01:54Z</time>
      </trkpt>
      <trkpt lat="47.66989" lon="6.11715">
        <ele>255</ele>
        <time>2020-10-18T14:01:56Z</time>
      </trkpt>
      <trkpt lat="47.66993" lon="6.1172">
        <ele>255</ele>
        <time>2020-10-18T14:01:57Z</time>
      </trkpt>
      <trkpt lat="47.66996" lon="6.11725">
        <ele>255</ele>
        <time>2020-10-18T14:01:58Z</time>
      </trkpt>
      <trkpt lat="47.67001" lon="6.11731">
        <ele>259</ele>
        <time>2020-10-18T14:02:00Z</time>
      </trkpt>
      <trkpt lat="47.67005" lon="6.11737">
        <ele>258</ele>
        <time>2020-10-18T14:02:01Z</time>
      </trkpt>
      <trkpt lat="47.67014" lon="6.11748">
        <ele>258</ele>
        <time>2020-10-18T14:02:03Z</time>
      </trkpt>
      <trkpt lat="47.67018" lon="6.11754">
        <ele>256</ele>
        <time>2020-10-18T14:02:04Z</time>
      </trkpt>
      <trkpt lat="47.67021" lon="6.11759">
        <ele>256</ele>
        <time>2020-10-18T14:02:05Z</time>
      </trkpt>
      <trkpt lat="47.67025" lon="6.11764">
        <ele>257</ele>
        <time>2020-10-18T14:02:06Z</time>
      </trkpt>
      <trkpt lat="47.67028" lon="6.11769">
        <ele>257</ele>
        <time>2020-10-18T14:02:07Z</time>
      </trkpt>
      <trkpt lat="47.67029" lon="6.11776">
        <ele>256</ele>
        <time>2020-10-18T14:02:09Z</time>
      </trkpt>
      <trkpt lat="47.67033" lon="6.11781">
        <ele>256</ele>
        <time>2020-10-18T14:02:10Z</time>
      </trkpt>
      <trkpt lat="47.67036" lon="6.11786">
        <ele>256</ele>
        <time>2020-10-18T14:02:11Z</time>
      </trkpt>
      <trkpt lat="47.6704" lon="6.11791">
        <ele>256</ele>
        <time>2020-10-18T14:02:12Z</time>
      </trkpt>
      <trkpt lat="47.67044" lon="6.11797">
        <ele>256</ele>
        <time>2020-10-18T14:02:14Z</time>
      </trkpt>
      <trkpt lat="47.67049" lon="6.11805">
        <ele>256</ele>
        <time>2020-10-18T14:02:15Z</time>
      </trkpt>
      <trkpt lat="47.67053" lon="6.11812">
        <ele>257</ele>
        <time>2020-10-18T14:02:17Z</time>
      </trkpt>
      <trkpt lat="47.67056" lon="6.11818">
        <ele>257</ele>
        <time>2020-10-18T14:02:18Z</time>
      </trkpt>
      <trkpt lat="47.67059" lon="6.11825">
        <ele>257</ele>
        <time>2020-10-18T14:02:19Z</time>
      </trkpt>
      <trkpt lat="47.67063" lon="6.11834">
        <ele>255</ele>
        <time>2020-10-18T14:02:21Z</time>
      </trkpt>
      <trkpt lat="47.67066" lon="6.11841">
        <ele>255</ele>
        <time>2020-10-18T14:02:23Z</time>
      </trkpt>
      <trkpt lat="47.67071" lon="6.11853">
        <ele>254</ele>
        <time>2020-10-18T14:02:25Z</time>
      </trkpt>
      <trkpt lat="47.67074" lon="6.11857">
        <ele>254</ele>
        <time>2020-10-18T14:02:26Z</time>
      </trkpt>
      <trkpt lat="47.67078" lon="6.11863">
        <ele>254</ele>
        <time>2020-10-18T14:02:28Z</time>
      </trkpt>
      <trkpt lat="47.67081" lon="6.1187">
        <ele>253</ele>
        <time>2020-10-18T14:02:30Z</time>
      </trkpt>
      <trkpt lat="47.67085" lon="6.1188">
        <ele>257</ele>
        <time>2020-10-18T14:02:32Z</time>
      </trkpt>
      <trkpt lat="47.67088" lon="6.11886">
        <ele>257</ele>
        <time>2020-10-18T14:02:34Z</time>
      </trkpt>
      <trkpt lat="47.67091" lon="6.11892">
        <ele>256</ele>
        <time>2020-10-18T14:02:35Z</time>
      </trkpt>
      <trkpt lat="47.67093" lon="6.119">
        <ele>256</ele>
        <time>2020-10-18T14:02:37Z</time>
      </trkpt>
      <trkpt lat="47.67095" lon="6.11906">
        <ele>255</ele>
        <time>2020-10-18T14:02:38Z</time>
      </trkpt>
      <trkpt lat="47.67098" lon="6.11917">
        <ele>252</ele>
        <time>2020-10-18T14:02:39Z</time>
      </trkpt>
      <trkpt lat="47.67099" lon="6.11925">
        <ele>252</ele>
        <time>2020-10-18T14:02:40Z</time>
      </trkpt>
      <trkpt lat="47.67101" lon="6.11932">
        <ele>252</ele>
        <time>2020-10-18T14:02:41Z</time>
      </trkpt>
      <trkpt lat="47.67102" lon="6.11939">
        <ele>252</ele>
        <time>2020-10-18T14:02:42Z</time>
      </trkpt>
      <trkpt lat="47.67103" lon="6.11945">
        <ele>252</ele>
        <time>2020-10-18T14:02:43Z</time>
      </trkpt>
      <trkpt lat="47.67105" lon="6.11952">
        <ele>252</ele>
        <time>2020-10-18T14:02:44Z</time>
      </trkpt>
      <trkpt lat="47.67106" lon="6.11959">
        <ele>252</ele>
        <time>2020-10-18T14:02:45Z</time>
      </trkpt>
      <trkpt lat="47.67108" lon="6.11969">
        <ele>251</ele>
        <time>2020-10-18T14:02:47Z</time>
      </trkpt>
      <trkpt lat="47.6711" lon="6.11976">
        <ele>251</ele>
        <time>2020-10-18T14:02:49Z</time>
      </trkpt>
      <trkpt lat="47.67114" lon="6.11993">
        <ele>251</ele>
        <time>2020-10-18T14:02:51Z</time>
      </trkpt>
      <trkpt lat="47.67115" lon="6.12001">
        <ele>248</ele>
        <time>2020-10-18T14:02:52Z</time>
      </trkpt>
      <trkpt lat="47.67117" lon="6.12008">
        <ele>248</ele>
        <time>2020-10-18T14:02:53Z</time>
      </trkpt>
      <trkpt lat="47.67119" lon="6.12015">
        <ele>248</ele>
        <time>2020-10-18T14:02:54Z</time>
      </trkpt>
      <trkpt lat="47.6712" lon="6.12023">
        <ele>248</ele>
        <time>2020-10-18T14:02:55Z</time>
      </trkpt>
      <trkpt lat="47.67122" lon="6.12031">
        <ele>248</ele>
        <time>2020-10-18T14:02:56Z</time>
      </trkpt>
      <trkpt lat="47.67124" lon="6.12039">
        <ele>248</ele>
        <time>2020-10-18T14:02:57Z</time>
      </trkpt>
      <trkpt lat="47.67127" lon="6.12048">
        <ele>248</ele>
        <time>2020-10-18T14:02:58Z</time>
      </trkpt>
      <trkpt lat="47.67129" lon="6.12058">
        <ele>248</ele>
        <time>2020-10-18T14:02:59Z</time>
      </trkpt>
      <trkpt lat="47.67132" lon="6.12067">
        <ele>248</ele>
        <time>2020-10-18T14:03:00Z</time>
      </trkpt>
      <trkpt lat="47.67134" lon="6.12077">
        <ele>248</ele>
        <time>2020-10-18T14:03:01Z</time>
      </trkpt>
      <trkpt lat="47.67136" lon="6.12088">
        <ele>246</ele>
        <time>2020-10-18T14:03:02Z</time>
      </trkpt>
      <trkpt lat="47.67138" lon="6.12098">
        <ele>246</ele>
        <time>2020-10-18T14:03:03Z</time>
      </trkpt>
      <trkpt lat="47.6714" lon="6.12109">
        <ele>246</ele>
        <time>2020-10-18T14:03:04Z</time>
      </trkpt>
      <trkpt lat="47.67143" lon="6.12119">
        <ele>246</ele>
        <time>2020-10-18T14:03:05Z</time>
      </trkpt>
      <trkpt lat="47.67145" lon="6.12129">
        <ele>246</ele>
        <time>2020-10-18T14:03:06Z</time>
      </trkpt>
      <trkpt lat="47.67148" lon="6.12138">
        <ele>246</ele>
        <time>2020-10-18T14:03:07Z</time>
      </trkpt>
      <trkpt lat="47.67151" lon="6.12147">
        <ele>246</ele>
        <time>2020-10-18T14:03:08Z</time>
      </trkpt>
      <trkpt lat="47.67155" lon="6.12155">
        <ele>246</ele>
        <time>2020-10-18T14:03:09Z</time>
      </trkpt>
      <trkpt lat="47.67159" lon="6.12162">
        <ele>246</ele>
        <time>2020-10-18T14:03:10Z</time>
      </trkpt>
      <trkpt lat="47.67162" lon="6.12169">
        <ele>245</ele>
        <time>2020-10-18T14:03:11Z</time>
      </trkpt>
      <trkpt lat="47.67166" lon="6.12176">
        <ele>245</ele>
        <time>2020-10-18T14:03:12Z</time>
      </trkpt>
      <trkpt lat="47.6717" lon="6.12183">
        <ele>246</ele>
        <time>2020-10-18T14:03:13Z</time>
      </trkpt>
      <trkpt lat="47.67173" lon="6.1219">
        <ele>246</ele>
        <time>2020-10-18T14:03:14Z</time>
      </trkpt>
      <trkpt lat="47.67177" lon="6.12196">
        <ele>246</ele>
        <time>2020-10-18T14:03:15Z</time>
      </trkpt>
      <trkpt lat="47.6718" lon="6.12202">
        <ele>246</ele>
        <time>2020-10-18T14:03:16Z</time>
      </trkpt>
      <trkpt lat="47.67184" lon="6.12208">
        <ele>246</ele>
        <time>2020-10-18T14:03:17Z</time>
      </trkpt>
      <trkpt lat="47.67187" lon="6.12213">
        <ele>246</ele>
        <time>2020-10-18T14:03:18Z</time>
      </trkpt>
      <trkpt lat="47.6719" lon="6.12219">
        <ele>246</ele>
        <time>2020-10-18T14:03:19Z</time>
      </trkpt>
      <trkpt lat="47.67192" lon="6.12224">
        <ele>246</ele>
        <time>2020-10-18T14:03:20Z</time>
      </trkpt>
      <trkpt lat="47.67198" lon="6.12234">
        <ele>246</ele>
        <time>2020-10-18T14:03:22Z</time>
      </trkpt>
      <trkpt lat="47.67203" lon="6.12242">
        <ele>246</ele>
        <time>2020-10-18T14:03:24Z</time>
      </trkpt>
      <trkpt lat="47.67207" lon="6.1225">
        <ele>246</ele>
        <time>2020-10-18T14:03:26Z</time>
      </trkpt>
      <trkpt lat="47.67212" lon="6.12257">
        <ele>245</ele>
        <time>2020-10-18T14:03:28Z</time>
      </trkpt>
      <trkpt lat="47.67216" lon="6.12262">
        <ele>245</ele>
        <time>2020-10-18T14:03:30Z</time>
      </trkpt>
      <trkpt lat="47.6722" lon="6.12268">
        <ele>245</ele>
        <time>2020-10-18T14:03:32Z</time>
      </trkpt>
      <trkpt lat="47.67225" lon="6.12276">
        <ele>245</ele>
        <time>2020-10-18T14:03:34Z</time>
      </trkpt>
      <trkpt lat="47.67229" lon="6.12282">
        <ele>245</ele>
        <time>2020-10-18T14:03:35Z</time>
      </trkpt>
      <trkpt lat="47.67233" lon="6.12287">
        <ele>245</ele>
        <time>2020-10-18T14:03:37Z</time>
      </trkpt>
      <trkpt lat="47.67237" lon="6.12291">
        <ele>245</ele>
        <time>2020-10-18T14:03:38Z</time>
      </trkpt>
      <trkpt lat="47.67241" lon="6.12296">
        <ele>245</ele>
        <time>2020-10-18T14:03:40Z</time>
      </trkpt>
      <trkpt lat="47.67245" lon="6.12299">
        <ele>244</ele>
        <time>2020-10-18T14:03:41Z</time>
      </trkpt>
      <trkpt lat="47.6725" lon="6.12304">
        <ele>244</ele>
        <time>2020-10-18T14:03:42Z</time>
      </trkpt>
      <trkpt lat="47.67257" lon="6.12312">
        <ele>245</ele>
        <time>2020-10-18T14:03:43Z</time>
      </trkpt>
      <trkpt lat="47.67261" lon="6.12318">
        <ele>245</ele>
        <time>2020-10-18T14:03:44Z</time>
      </trkpt>
      <trkpt lat="47.67266" lon="6.12324">
        <ele>245</ele>
        <time>2020-10-18T14:03:45Z</time>
      </trkpt>
      <trkpt lat="47.6727" lon="6.12329">
        <ele>245</ele>
        <time>2020-10-18T14:03:46Z</time>
      </trkpt>
      <trkpt lat="47.67274" lon="6.12333">
        <ele>245</ele>
        <time>2020-10-18T14:03:47Z</time>
      </trkpt>
      <trkpt lat="47.67278" lon="6.12338">
        <ele>243</ele>
        <time>2020-10-18T14:03:48Z</time>
      </trkpt>
      <trkpt lat="47.67281" lon="6.12342">
        <ele>243</ele>
        <time>2020-10-18T14:03:49Z</time>
      </trkpt>
      <trkpt lat="47.67285" lon="6.12346">
        <ele>243</ele>
        <time>2020-10-18T14:03:50Z</time>
      </trkpt>
      <trkpt lat="47.67289" lon="6.12351">
        <ele>243</ele>
        <time>2020-10-18T14:03:51Z</time>
      </trkpt>
      <trkpt lat="47.67293" lon="6.12355">
        <ele>243</ele>
        <time>2020-10-18T14:03:52Z</time>
      </trkpt>
      <trkpt lat="47.67296" lon="6.1236">
        <ele>243</ele>
        <time>2020-10-18T14:03:53Z</time>
      </trkpt>
      <trkpt lat="47.673" lon="6.12365">
        <ele>243</ele>
        <time>2020-10-18T14:03:54Z</time>
      </trkpt>
      <trkpt lat="47.67304" lon="6.1237">
        <ele>243</ele>
        <time>2020-10-18T14:03:55Z</time>
      </trkpt>
      <trkpt lat="47.67308" lon="6.12374">
        <ele>243</ele>
        <time>2020-10-18T14:03:56Z</time>
      </trkpt>
      <trkpt lat="47.67314" lon="6.12379">
        <ele>242</ele>
        <time>2020-10-18T14:03:58Z</time>
      </trkpt>
      <trkpt lat="47.67321" lon="6.12384">
        <ele>242</ele>
        <time>2020-10-18T14:04:00Z</time>
      </trkpt>
      <trkpt lat="47.67326" lon="6.12386">
        <ele>242</ele>
        <time>2020-10-18T14:04:02Z</time>
      </trkpt>
      <trkpt lat="47.67333" lon="6.1239">
        <ele>243</ele>
        <time>2020-10-18T14:04:05Z</time>
      </trkpt>
      <trkpt lat="47.67339" lon="6.12391">
        <ele>243</ele>
        <time>2020-10-18T14:04:06Z</time>
      </trkpt>
      <trkpt lat="47.67346" lon="6.12392">
        <ele>243</ele>
        <time>2020-10-18T14:04:08Z</time>
      </trkpt>
      <trkpt lat="47.67351" lon="6.12393">
        <ele>243</ele>
        <time>2020-10-18T14:04:09Z</time>
      </trkpt>
      <trkpt lat="47.67356" lon="6.12395">
        <ele>243</ele>
        <time>2020-10-18T14:04:10Z</time>
      </trkpt>
      <trkpt lat="47.67362" lon="6.12399">
        <ele>243</ele>
        <time>2020-10-18T14:04:12Z</time>
      </trkpt>
      <trkpt lat="47.6737" lon="6.12403">
        <ele>243</ele>
        <time>2020-10-18T14:04:14Z</time>
      </trkpt>
      <trkpt lat="47.67376" lon="6.12406">
        <ele>243</ele>
        <time>2020-10-18T14:04:16Z</time>
      </trkpt>
      <trkpt lat="47.67383" lon="6.1241">
        <ele>243</ele>
        <time>2020-10-18T14:04:18Z</time>
      </trkpt>
      <trkpt lat="47.67387" lon="6.12413">
        <ele>243</ele>
        <time>2020-10-18T14:04:20Z</time>
      </trkpt>
      <trkpt lat="47.67392" lon="6.12415">
        <ele>243</ele>
        <time>2020-10-18T14:04:21Z</time>
      </trkpt>
      <trkpt lat="47.67399" lon="6.1242">
        <ele>242</ele>
        <time>2020-10-18T14:04:24Z</time>
      </trkpt>
      <trkpt lat="47.67405" lon="6.12423">
        <ele>242</ele>
        <time>2020-10-18T14:04:25Z</time>
      </trkpt>
      <trkpt lat="47.67411" lon="6.12426">
        <ele>242</ele>
        <time>2020-10-18T14:04:27Z</time>
      </trkpt>
      <trkpt lat="47.67416" lon="6.12428">
        <ele>242</ele>
        <time>2020-10-18T14:04:28Z</time>
      </trkpt>
      <trkpt lat="47.67424" lon="6.12432">
        <ele>242</ele>
        <time>2020-10-18T14:04:30Z</time>
      </trkpt>
      <trkpt lat="47.67432" lon="6.12437">
        <ele>241</ele>
        <time>2020-10-18T14:04:31Z</time>
      </trkpt>
      <trkpt lat="47.67437" lon="6.1244">
        <ele>241</ele>
        <time>2020-10-18T14:04:32Z</time>
      </trkpt>
      <trkpt lat="47.67443" lon="6.12442">
        <ele>241</ele>
        <time>2020-10-18T14:04:33Z</time>
      </trkpt>
      <trkpt lat="47.67447" lon="6.12445">
        <ele>241</ele>
        <time>2020-10-18T14:04:34Z</time>
      </trkpt>
      <trkpt lat="47.67452" lon="6.12447">
        <ele>241</ele>
        <time>2020-10-18T14:04:35Z</time>
      </trkpt>
      <trkpt lat="47.67456" lon="6.12449">
        <ele>241</ele>
        <time>2020-10-18T14:04:36Z</time>
      </trkpt>
      <trkpt lat="47.67461" lon="6.12452">
        <ele>241</ele>
        <time>2020-10-18T14:04:37Z</time>
      </trkpt>
      <trkpt lat="47.67466" lon="6.12454">
        <ele>241</ele>
        <time>2020-10-18T14:04:38Z</time>
      </trkpt>
      <trkpt lat="47.67471" lon="6.12457">
        <ele>241</ele>
        <time>2020-10-18T14:04:39Z</time>
      </trkpt>
      <trkpt lat="47.67476" lon="6.12459">
        <ele>241</ele>
        <time>2020-10-18T14:04:40Z</time>
      </trkpt>
      <trkpt lat="47.67481" lon="6.12462">
        <ele>241</ele>
        <time>2020-10-18T14:04:41Z</time>
      </trkpt>
      <trkpt lat="47.67486" lon="6.12464">
        <ele>241</ele>
        <time>2020-10-18T14:04:42Z</time>
      </trkpt>
      <trkpt lat="47.67491" lon="6.12467">
        <ele>241</ele>
        <time>2020-10-18T14:04:43Z</time>
      </trkpt>
      <trkpt lat="47.67497" lon="6.1247">
        <ele>241</ele>
        <time>2020-10-18T14:04:44Z</time>
      </trkpt>
      <trkpt lat="47.67502" lon="6.12472">
        <ele>242</ele>
        <time>2020-10-18T14:04:45Z</time>
      </trkpt>
      <trkpt lat="47.67506" lon="6.12475">
        <ele>242</ele>
        <time>2020-10-18T14:04:46Z</time>
      </trkpt>
      <trkpt lat="47.67511" lon="6.12478">
        <ele>242</ele>
        <time>2020-10-18T14:04:47Z</time>
      </trkpt>
      <trkpt lat="47.67517" lon="6.12485">
        <ele>242</ele>
        <time>2020-10-18T14:04:49Z</time>
      </trkpt>
      <trkpt lat="47.67523" lon="6.12494">
        <ele>243</ele>
        <time>2020-10-18T14:04:51Z</time>
      </trkpt>
      <trkpt lat="47.67525" lon="6.125">
        <ele>242</ele>
        <time>2020-10-18T14:04:52Z</time>
      </trkpt>
      <trkpt lat="47.67527" lon="6.12507">
        <ele>242</ele>
        <time>2020-10-18T14:04:53Z</time>
      </trkpt>
      <trkpt lat="47.67527" lon="6.12514">
        <ele>242</ele>
        <time>2020-10-18T14:04:54Z</time>
      </trkpt>
      <trkpt lat="47.67527" lon="6.12521">
        <ele>242</ele>
        <time>2020-10-18T14:04:55Z</time>
      </trkpt>
      <trkpt lat="47.67526" lon="6.12528">
        <ele>242</ele>
        <time>2020-10-18T14:04:56Z</time>
      </trkpt>
      <trkpt lat="47.67525" lon="6.12535">
        <ele>242</ele>
        <time>2020-10-18T14:04:57Z</time>
      </trkpt>
      <trkpt lat="47.67523" lon="6.12541">
        <ele>242</ele>
        <time>2020-10-18T14:04:58Z</time>
      </trkpt>
      <trkpt lat="47.6752" lon="6.12547">
        <ele>241</ele>
        <time>2020-10-18T14:04:59Z</time>
      </trkpt>
      <trkpt lat="47.67514" lon="6.12557">
        <ele>241</ele>
        <time>2020-10-18T14:05:01Z</time>
      </trkpt>
      <trkpt lat="47.67509" lon="6.12565">
        <ele>241</ele>
        <time>2020-10-18T14:05:03Z</time>
      </trkpt>
      <trkpt lat="47.67504" lon="6.12573">
        <ele>240</ele>
        <time>2020-10-18T14:05:05Z</time>
      </trkpt>
      <trkpt lat="47.67499" lon="6.12582">
        <ele>239</ele>
        <time>2020-10-18T14:05:07Z</time>
      </trkpt>
      <trkpt lat="47.67502" lon="6.12594">
        <ele>240</ele>
        <time>2020-10-18T14:05:09Z</time>
      </trkpt>
      <trkpt lat="47.675" lon="6.126">
        <ele>239</ele>
        <time>2020-10-18T14:05:11Z</time>
      </trkpt>
      <trkpt lat="47.67497" lon="6.12608">
        <ele>239</ele>
        <time>2020-10-18T14:05:13Z</time>
      </trkpt>
      <trkpt lat="47.67498" lon="6.12617">
        <ele>239</ele>
        <time>2020-10-18T14:05:15Z</time>
      </trkpt>
      <trkpt lat="47.67501" lon="6.12624">
        <ele>241</ele>
        <time>2020-10-18T14:05:18Z</time>
      </trkpt>
      <trkpt lat="47.67503" lon="6.1263">
        <ele>241</ele>
        <time>2020-10-18T14:05:20Z</time>
      </trkpt>
      <trkpt lat="47.67505" lon="6.1264">
        <ele>241</ele>
        <time>2020-10-18T14:05:23Z</time>
      </trkpt>
      <trkpt lat="47.67508" lon="6.12646">
        <ele>241</ele>
        <time>2020-10-18T14:05:26Z</time>
      </trkpt>
      <trkpt lat="47.67513" lon="6.12654">
        <ele>241</ele>
        <time>2020-10-18T14:05:29Z</time>
      </trkpt>
      <trkpt lat="47.67515" lon="6.12661">
        <ele>241</ele>
        <time>2020-10-18T14:05:32Z</time>
      </trkpt>
      <trkpt lat="47.67518" lon="6.12667">
        <ele>242</ele>
        <time>2020-10-18T14:05:35Z</time>
      </trkpt>
      <trkpt lat="47.6752" lon="6.12673">
        <ele>243</ele>
        <time>2020-10-18T14:05:37Z</time>
      </trkpt>
      <trkpt lat="47.67523" lon="6.12681">
        <ele>243</ele>
        <time>2020-10-18T14:05:40Z</time>
      </trkpt>
      <trkpt lat="47.67526" lon="6.12688">
        <ele>243</ele>
        <time>2020-10-18T14:05:43Z</time>
      </trkpt>
      <trkpt lat="47.67529" lon="6.12695">
        <ele>243</ele>
        <time>2020-10-18T14:05:46Z</time>
      </trkpt>
      <trkpt lat="47.67532" lon="6.12702">
        <ele>243</ele>
        <time>2020-10-18T14:05:49Z</time>
      </trkpt>
      <trkpt lat="47.67535" lon="6.12709">
        <ele>243</ele>
        <time>2020-10-18T14:05:52Z</time>
      </trkpt>
      <trkpt lat="47.67537" lon="6.12717">
        <ele>243</ele>
        <time>2020-10-18T14:05:55Z</time>
      </trkpt>
      <trkpt lat="47.67541" lon="6.12724">
        <ele>244</ele>
        <time>2020-10-18T14:05:58Z</time>
      </trkpt>
      <trkpt lat="47.67544" lon="6.12732">
        <ele>244</ele>
        <time>2020-10-18T14:06:01Z</time>
      </trkpt>
      <trkpt lat="47.67546" lon="6.12738">
        <ele>244</ele>
        <time>2020-10-18T14:06:03Z</time>
      </trkpt>
      <trkpt lat="47.6755" lon="6.12746">
        <ele>244</ele>
        <time>2020-10-18T14:06:06Z</time>
      </trkpt>
      <trkpt lat="47.67552" lon="6.12752">
        <ele>244</ele>
        <time>2020-10-18T14:06:08Z</time>
      </trkpt>
      <trkpt lat="47.67555" lon="6.12759">
        <ele>245</ele>
        <time>2020-10-18T14:06:11Z</time>
      </trkpt>
      <trkpt lat="47.67559" lon="6.12765">
        <ele>245</ele>
        <time>2020-10-18T14:06:13Z</time>
      </trkpt>
      <trkpt lat="47.67562" lon="6.12772">
        <ele>245</ele>
        <time>2020-10-18T14:06:15Z</time>
      </trkpt>
      <trkpt lat="47.67566" lon="6.1278">
        <ele>245</ele>
        <time>2020-10-18T14:06:17Z</time>
      </trkpt>
      <trkpt lat="47.67569" lon="6.12788">
        <ele>245</ele>
        <time>2020-10-18T14:06:19Z</time>
      </trkpt>
      <trkpt lat="47.67572" lon="6.12797">
        <ele>245</ele>
        <time>2020-10-18T14:06:21Z</time>
      </trkpt>
      <trkpt lat="47.67575" lon="6.12803">
        <ele>245</ele>
        <time>2020-10-18T14:06:23Z</time>
      </trkpt>
      <trkpt lat="47.67577" lon="6.12811">
        <ele>245</ele>
        <time>2020-10-18T14:06:25Z</time>
      </trkpt>
      <trkpt lat="47.67581" lon="6.12816">
        <ele>245</ele>
        <time>2020-10-18T14:06:27Z</time>
      </trkpt>
      <trkpt lat="47.67585" lon="6.12823">
        <ele>246</ele>
        <time>2020-10-18T14:06:29Z</time>
      </trkpt>
      <trkpt lat="47.6759" lon="6.1283">
        <ele>246</ele>
        <time>2020-10-18T14:06:32Z</time>
      </trkpt>
      <trkpt lat="47.67595" lon="6.12835">
        <ele>247</ele>
        <time>2020-10-18T14:06:34Z</time>
      </trkpt>
      <trkpt lat="47.676" lon="6.1284">
        <ele>247</ele>
        <time>2020-10-18T14:06:37Z</time>
      </trkpt>
      <trkpt lat="47.67606" lon="6.12848">
        <ele>248</ele>
        <time>2020-10-18T14:06:39Z</time>
      </trkpt>
      <trkpt lat="47.67611" lon="6.12852">
        <ele>248</ele>
        <time>2020-10-18T14:06:41Z</time>
      </trkpt>
      <trkpt lat="47.67615" lon="6.12855">
        <ele>248</ele>
        <time>2020-10-18T14:06:43Z</time>
      </trkpt>
      <trkpt lat="47.6762" lon="6.12861">
        <ele>248</ele>
        <time>2020-10-18T14:06:46Z</time>
      </trkpt>
      <trkpt lat="47.67625" lon="6.12865">
        <ele>248</ele>
        <time>2020-10-18T14:06:48Z</time>
      </trkpt>
      <trkpt lat="47.6763" lon="6.1287">
        <ele>249</ele>
        <time>2020-10-18T14:06:50Z</time>
      </trkpt>
      <trkpt lat="47.67635" lon="6.12875">
        <ele>249</ele>
        <time>2020-10-18T14:06:51Z</time>
      </trkpt>
      <trkpt lat="47.67639" lon="6.1288">
        <ele>249</ele>
        <time>2020-10-18T14:06:54Z</time>
      </trkpt>
      <trkpt lat="47.67644" lon="6.12886">
        <ele>249</ele>
        <time>2020-10-18T14:06:56Z</time>
      </trkpt>
      <trkpt lat="47.67648" lon="6.1289">
        <ele>249</ele>
        <time>2020-10-18T14:07:00Z</time>
      </trkpt>
      <trkpt lat="47.67652" lon="6.12894">
        <ele>249</ele>
        <time>2020-10-18T14:07:02Z</time>
      </trkpt>
      <trkpt lat="47.67656" lon="6.12898">
        <ele>249</ele>
        <time>2020-10-18T14:07:03Z</time>
      </trkpt>
      <trkpt lat="47.6766" lon="6.12905">
        <ele>249</ele>
        <time>2020-10-18T14:07:07Z</time>
      </trkpt>
      <trkpt lat="47.67664" lon="6.1291">
        <ele>250</ele>
        <time>2020-10-18T14:07:09Z</time>
      </trkpt>
      <trkpt lat="47.6767" lon="6.12917">
        <ele>250</ele>
        <time>2020-10-18T14:07:12Z</time>
      </trkpt>
      <trkpt lat="47.67675" lon="6.12921">
        <ele>251</ele>
        <time>2020-10-18T14:07:14Z</time>
      </trkpt>
      <trkpt lat="47.67681" lon="6.12928">
        <ele>251</ele>
        <time>2020-10-18T14:07:16Z</time>
      </trkpt>
      <trkpt lat="47.67687" lon="6.12933">
        <ele>251</ele>
        <time>2020-10-18T14:07:17Z</time>
      </trkpt>
      <trkpt lat="47.67693" lon="6.12939">
        <ele>252</ele>
        <time>2020-10-18T14:07:20Z</time>
      </trkpt>
      <trkpt lat="47.67698" lon="6.12944">
        <ele>252</ele>
        <time>2020-10-18T14:07:24Z</time>
      </trkpt>
      <trkpt lat="47.67702" lon="6.12949">
        <ele>252</ele>
        <time>2020-10-18T14:07:26Z</time>
      </trkpt>
      <trkpt lat="47.67707" lon="6.12953">
        <ele>252</ele>
        <time>2020-10-18T14:07:28Z</time>
      </trkpt>
      <trkpt lat="47.67712" lon="6.1296">
        <ele>252</ele>
        <time>2020-10-18T14:07:30Z</time>
      </trkpt>
      <trkpt lat="47.67716" lon="6.12964">
        <ele>252</ele>
        <time>2020-10-18T14:07:32Z</time>
      </trkpt>
      <trkpt lat="47.67721" lon="6.12969">
        <ele>252</ele>
        <time>2020-10-18T14:07:34Z</time>
      </trkpt>
      <trkpt lat="47.67726" lon="6.12974">
        <ele>252</ele>
        <time>2020-10-18T14:07:36Z</time>
      </trkpt>
      <trkpt lat="47.67731" lon="6.12978">
        <ele>253</ele>
        <time>2020-10-18T14:07:37Z</time>
      </trkpt>
      <trkpt lat="47.67736" lon="6.12982">
        <ele>253</ele>
        <time>2020-10-18T14:07:39Z</time>
      </trkpt>
      <trkpt lat="47.6774" lon="6.12985">
        <ele>253</ele>
        <time>2020-10-18T14:07:43Z</time>
      </trkpt>
      <trkpt lat="47.67745" lon="6.12989">
        <ele>253</ele>
        <time>2020-10-18T14:07:45Z</time>
      </trkpt>
      <trkpt lat="47.6775" lon="6.12992">
        <ele>253</ele>
        <time>2020-10-18T14:07:48Z</time>
      </trkpt>
      <trkpt lat="47.67754" lon="6.12997">
        <ele>254</ele>
        <time>2020-10-18T14:07:51Z</time>
      </trkpt>
      <trkpt lat="47.67759" lon="6.13004">
        <ele>255</ele>
        <time>2020-10-18T14:07:54Z</time>
      </trkpt>
      <trkpt lat="47.67764" lon="6.13011">
        <ele>255</ele>
        <time>2020-10-18T14:07:57Z</time>
      </trkpt>
      <trkpt lat="47.67768" lon="6.13016">
        <ele>256</ele>
        <time>2020-10-18T14:07:59Z</time>
      </trkpt>
      <trkpt lat="47.67771" lon="6.13021">
        <ele>256</ele>
        <time>2020-10-18T14:08:01Z</time>
      </trkpt>
      <trkpt lat="47.67775" lon="6.13027">
        <ele>256</ele>
        <time>2020-10-18T14:08:03Z</time>
      </trkpt>
      <trkpt lat="47.67778" lon="6.13033">
        <ele>256</ele>
        <time>2020-10-18T14:08:04Z</time>
      </trkpt>
      <trkpt lat="47.67781" lon="6.13039">
        <ele>256</ele>
        <time>2020-10-18T14:08:08Z</time>
      </trkpt>
      <trkpt lat="47.67784" lon="6.13045">
        <ele>257</ele>
        <time>2020-10-18T14:08:09Z</time>
      </trkpt>
      <trkpt lat="47.67789" lon="6.13052">
        <ele>257</ele>
        <time>2020-10-18T14:08:13Z</time>
      </trkpt>
      <trkpt lat="47.67793" lon="6.13058">
        <ele>257</ele>
        <time>2020-10-18T14:08:16Z</time>
      </trkpt>
      <trkpt lat="47.67795" lon="6.13065">
        <ele>257</ele>
        <time>2020-10-18T14:08:18Z</time>
      </trkpt>
      <trkpt lat="47.67799" lon="6.13073">
        <ele>257</ele>
        <time>2020-10-18T14:08:21Z</time>
      </trkpt>
      <trkpt lat="47.67802" lon="6.13081">
        <ele>258</ele>
        <time>2020-10-18T14:08:24Z</time>
      </trkpt>
      <trkpt lat="47.67806" lon="6.13089">
        <ele>259</ele>
        <time>2020-10-18T14:08:27Z</time>
      </trkpt>
      <trkpt lat="47.67809" lon="6.13095">
        <ele>259</ele>
        <time>2020-10-18T14:08:29Z</time>
      </trkpt>
      <trkpt lat="47.67812" lon="6.13103">
        <ele>259</ele>
        <time>2020-10-18T14:08:32Z</time>
      </trkpt>
      <trkpt lat="47.67815" lon="6.13109">
        <ele>259</ele>
        <time>2020-10-18T14:08:35Z</time>
      </trkpt>
      <trkpt lat="47.67817" lon="6.13116">
        <ele>259</ele>
        <time>2020-10-18T14:08:37Z</time>
      </trkpt>
      <trkpt lat="47.6782" lon="6.13122">
        <ele>259</ele>
        <time>2020-10-18T14:08:39Z</time>
      </trkpt>
      <trkpt lat="47.67822" lon="6.13129">
        <ele>259</ele>
        <time>2020-10-18T14:08:41Z</time>
      </trkpt>
      <trkpt lat="47.67824" lon="6.13135">
        <ele>259</ele>
        <time>2020-10-18T14:08:42Z</time>
      </trkpt>
      <trkpt lat="47.67829" lon="6.13144">
        <ele>259</ele>
        <time>2020-10-18T14:08:46Z</time>
      </trkpt>
      <trkpt lat="47.67832" lon="6.13152">
        <ele>259</ele>
        <time>2020-10-18T14:08:48Z</time>
      </trkpt>
      <trkpt lat="47.67836" lon="6.13159">
        <ele>260</ele>
        <time>2020-10-18T14:08:50Z</time>
      </trkpt>
      <trkpt lat="47.67839" lon="6.13165">
        <ele>260</ele>
        <time>2020-10-18T14:08:51Z</time>
      </trkpt>
      <trkpt lat="47.67843" lon="6.13173">
        <ele>261</ele>
        <time>2020-10-18T14:08:53Z</time>
      </trkpt>
      <trkpt lat="47.67846" lon="6.13179">
        <ele>261</ele>
        <time>2020-10-18T14:08:55Z</time>
      </trkpt>
      <trkpt lat="47.6785" lon="6.13187">
        <ele>262</ele>
        <time>2020-10-18T14:08:57Z</time>
      </trkpt>
      <trkpt lat="47.67854" lon="6.13191">
        <ele>262</ele>
        <time>2020-10-18T14:08:59Z</time>
      </trkpt>
      <trkpt lat="47.67858" lon="6.13198">
        <ele>262</ele>
        <time>2020-10-18T14:09:02Z</time>
      </trkpt>
      <trkpt lat="47.67861" lon="6.13204">
        <ele>262</ele>
        <time>2020-10-18T14:09:04Z</time>
      </trkpt>
      <trkpt lat="47.67865" lon="6.13211">
        <ele>262</ele>
        <time>2020-10-18T14:09:07Z</time>
      </trkpt>
      <trkpt lat="47.67868" lon="6.13217">
        <ele>262</ele>
        <time>2020-10-18T14:09:08Z</time>
      </trkpt>
      <trkpt lat="47.67872" lon="6.13223">
        <ele>263</ele>
        <time>2020-10-18T14:09:12Z</time>
      </trkpt>
      <trkpt lat="47.67875" lon="6.1323">
        <ele>263</ele>
        <time>2020-10-18T14:09:15Z</time>
      </trkpt>
      <trkpt lat="47.67879" lon="6.13235">
        <ele>263</ele>
        <time>2020-10-18T14:09:17Z</time>
      </trkpt>
      <trkpt lat="47.67883" lon="6.13242">
        <ele>263</ele>
        <time>2020-10-18T14:09:20Z</time>
      </trkpt>
      <trkpt lat="47.67887" lon="6.13248">
        <ele>263</ele>
        <time>2020-10-18T14:09:23Z</time>
      </trkpt>
      <trkpt lat="47.6789" lon="6.13253">
        <ele>263</ele>
        <time>2020-10-18T14:09:25Z</time>
      </trkpt>
      <trkpt lat="47.67894" lon="6.13257">
        <ele>263</ele>
        <time>2020-10-18T14:09:27Z</time>
      </trkpt>
      <trkpt lat="47.67897" lon="6.13262">
        <ele>263</ele>
        <time>2020-10-18T14:09:30Z</time>
      </trkpt>
      <trkpt lat="47.67901" lon="6.13267">
        <ele>263</ele>
        <time>2020-10-18T14:09:32Z</time>
      </trkpt>
      <trkpt lat="47.67907" lon="6.13273">
        <ele>263</ele>
        <time>2020-10-18T14:09:35Z</time>
      </trkpt>
      <trkpt lat="47.67912" lon="6.13279">
        <ele>263</ele>
        <time>2020-10-18T14:09:38Z</time>
      </trkpt>
      <trkpt lat="47.67916" lon="6.13284">
        <ele>263</ele>
        <time>2020-10-18T14:09:40Z</time>
      </trkpt>
      <trkpt lat="47.6792" lon="6.13288">
        <ele>262</ele>
        <time>2020-10-18T14:09:42Z</time>
      </trkpt>
      <trkpt lat="47.67924" lon="6.13292">
        <ele>262</ele>
        <time>2020-10-18T14:09:43Z</time>
      </trkpt>
      <trkpt lat="47.67928" lon="6.13296">
        <ele>262</ele>
        <time>2020-10-18T14:09:47Z</time>
      </trkpt>
      <trkpt lat="47.67932" lon="6.13301">
        <ele>262</ele>
        <time>2020-10-18T14:09:48Z</time>
      </trkpt>
      <trkpt lat="47.67937" lon="6.13306">
        <ele>262</ele>
        <time>2020-10-18T14:09:52Z</time>
      </trkpt>
      <trkpt lat="47.67942" lon="6.13312">
        <ele>262</ele>
        <time>2020-10-18T14:09:54Z</time>
      </trkpt>
      <trkpt lat="47.67947" lon="6.13318">
        <ele>262</ele>
        <time>2020-10-18T14:09:56Z</time>
      </trkpt>
      <trkpt lat="47.67951" lon="6.13321">
        <ele>262</ele>
        <time>2020-10-18T14:09:57Z</time>
      </trkpt>
      <trkpt lat="47.67958" lon="6.13328">
        <ele>261</ele>
        <time>2020-10-18T14:09:59Z</time>
      </trkpt>
      <trkpt lat="47.67967" lon="6.13337">
        <ele>259</ele>
        <time>2020-10-18T14:10:00Z</time>
      </trkpt>
      <trkpt lat="47.67971" lon="6.13342">
        <ele>259</ele>
        <time>2020-10-18T14:10:02Z</time>
      </trkpt>
      <trkpt lat="47.67981" lon="6.13351">
        <ele>259</ele>
        <time>2020-10-18T14:10:02Z</time>
      </trkpt>
      <trkpt lat="47.67989" lon="6.13358">
        <ele>259</ele>
        <time>2020-10-18T14:10:03Z</time>
      </trkpt>
      <trkpt lat="47.67996" lon="6.13365">
        <ele>259</ele>
        <time>2020-10-18T14:10:04Z</time>
      </trkpt>
      <trkpt lat="47.68002" lon="6.13371">
        <ele>259</ele>
        <time>2020-10-18T14:10:05Z</time>
      </trkpt>
      <trkpt lat="47.68008" lon="6.13377">
        <ele>259</ele>
        <time>2020-10-18T14:10:06Z</time>
      </trkpt>
      <trkpt lat="47.68014" lon="6.13381">
        <ele>259</ele>
        <time>2020-10-18T14:10:07Z</time>
      </trkpt>
      <trkpt lat="47.68018" lon="6.13386">
        <ele>259</ele>
        <time>2020-10-18T14:10:08Z</time>
      </trkpt>
      <trkpt lat="47.68022" lon="6.1339">
        <ele>259</ele>
        <time>2020-10-18T14:10:09Z</time>
      </trkpt>
      <trkpt lat="47.68026" lon="6.13394">
        <ele>259</ele>
        <time>2020-10-18T14:10:10Z</time>
      </trkpt>
      <trkpt lat="47.6803" lon="6.13399">
        <ele>259</ele>
        <time>2020-10-18T14:10:11Z</time>
      </trkpt>
      <trkpt lat="47.68034" lon="6.13403">
        <ele>259</ele>
        <time>2020-10-18T14:10:12Z</time>
      </trkpt>
      <trkpt lat="47.68037" lon="6.13407">
        <ele>259</ele>
        <time>2020-10-18T14:10:13Z</time>
      </trkpt>
      <trkpt lat="47.68043" lon="6.13417">
        <ele>258</ele>
        <time>2020-10-18T14:10:17Z</time>
      </trkpt>
      <trkpt lat="47.6805" lon="6.13422">
        <ele>258</ele>
        <time>2020-10-18T14:10:19Z</time>
      </trkpt>
      <trkpt lat="47.68054" lon="6.13425">
        <ele>259</ele>
        <time>2020-10-18T14:10:20Z</time>
      </trkpt>
      <trkpt lat="47.68059" lon="6.13429">
        <ele>259</ele>
        <time>2020-10-18T14:10:22Z</time>
      </trkpt>
      <trkpt lat="47.68064" lon="6.13433">
        <ele>259</ele>
        <time>2020-10-18T14:10:23Z</time>
      </trkpt>
      <trkpt lat="47.68069" lon="6.13438">
        <ele>259</ele>
        <time>2020-10-18T14:10:25Z</time>
      </trkpt>
      <trkpt lat="47.68074" lon="6.13442">
        <ele>259</ele>
        <time>2020-10-18T14:10:26Z</time>
      </trkpt>
      <trkpt lat="47.68079" lon="6.13448">
        <ele>259</ele>
        <time>2020-10-18T14:10:28Z</time>
      </trkpt>
      <trkpt lat="47.68084" lon="6.13453">
        <ele>262</ele>
        <time>2020-10-18T14:10:29Z</time>
      </trkpt>
      <trkpt lat="47.68091" lon="6.1346">
        <ele>262</ele>
        <time>2020-10-18T14:10:31Z</time>
      </trkpt>
      <trkpt lat="47.68098" lon="6.13467">
        <ele>262</ele>
        <time>2020-10-18T14:10:33Z</time>
      </trkpt>
      <trkpt lat="47.68103" lon="6.13472">
        <ele>262</ele>
        <time>2020-10-18T14:10:35Z</time>
      </trkpt>
      <trkpt lat="47.68109" lon="6.13479">
        <ele>262</ele>
        <time>2020-10-18T14:10:37Z</time>
      </trkpt>
      <trkpt lat="47.68114" lon="6.13484">
        <ele>262</ele>
        <time>2020-10-18T14:10:39Z</time>
      </trkpt>
      <trkpt lat="47.68119" lon="6.13488">
        <ele>262</ele>
        <time>2020-10-18T14:10:41Z</time>
      </trkpt>
      <trkpt lat="47.68124" lon="6.13495">
        <ele>262</ele>
        <time>2020-10-18T14:10:44Z</time>
      </trkpt>
      <trkpt lat="47.68128" lon="6.13498">
        <ele>262</ele>
        <time>2020-10-18T14:10:46Z</time>
      </trkpt>
      <trkpt lat="47.68131" lon="6.13503">
        <ele>263</ele>
        <time>2020-10-18T14:10:47Z</time>
      </trkpt>
      <trkpt lat="47.68135" lon="6.13508">
        <ele>263</ele>
        <time>2020-10-18T14:10:51Z</time>
      </trkpt>
      <trkpt lat="47.6814" lon="6.13512">
        <ele>263</ele>
        <time>2020-10-18T14:10:53Z</time>
      </trkpt>
      <trkpt lat="47.68143" lon="6.13516">
        <ele>263</ele>
        <time>2020-10-18T14:10:55Z</time>
      </trkpt>
      <trkpt lat="47.68148" lon="6.1352">
        <ele>263</ele>
        <time>2020-10-18T14:10:58Z</time>
      </trkpt>
      <trkpt lat="47.68153" lon="6.13525">
        <ele>263</ele>
        <time>2020-10-18T14:11:01Z</time>
      </trkpt>
      <trkpt lat="47.68157" lon="6.13529">
        <ele>263</ele>
        <time>2020-10-18T14:11:04Z</time>
      </trkpt>
      <trkpt lat="47.68162" lon="6.13533">
        <ele>263</ele>
        <time>2020-10-18T14:11:07Z</time>
      </trkpt>
      <trkpt lat="47.68166" lon="6.13538">
        <ele>263</ele>
        <time>2020-10-18T14:11:11Z</time>
      </trkpt>
      <trkpt lat="47.68171" lon="6.13544">
        <ele>267</ele>
        <time>2020-10-18T14:11:14Z</time>
      </trkpt>
      <trkpt lat="47.68175" lon="6.13549">
        <ele>267</ele>
        <time>2020-10-18T14:11:19Z</time>
      </trkpt>
      <trkpt lat="47.68179" lon="6.13553">
        <ele>267</ele>
        <time>2020-10-18T14:11:23Z</time>
      </trkpt>
      <trkpt lat="47.68183" lon="6.13557">
        <ele>267</ele>
        <time>2020-10-18T14:11:26Z</time>
      </trkpt>
      <trkpt lat="47.68188" lon="6.13563">
        <ele>268</ele>
        <time>2020-10-18T14:11:30Z</time>
      </trkpt>
      <trkpt lat="47.68192" lon="6.13568">
        <ele>268</ele>
        <time>2020-10-18T14:11:34Z</time>
      </trkpt>
      <trkpt lat="47.68197" lon="6.13572">
        <ele>268</ele>
        <time>2020-10-18T14:11:38Z</time>
      </trkpt>
      <trkpt lat="47.68201" lon="6.13577">
        <ele>268</ele>
        <time>2020-10-18T14:11:42Z</time>
      </trkpt>
      <trkpt lat="47.68205" lon="6.13581">
        <ele>268</ele>
        <time>2020-10-18T14:11:46Z</time>
      </trkpt>
      <trkpt lat="47.68209" lon="6.13586">
        <ele>270</ele>
        <time>2020-10-18T14:11:49Z</time>
      </trkpt>
      <trkpt lat="47.68213" lon="6.1359">
        <ele>270</ele>
        <time>2020-10-18T14:11:52Z</time>
      </trkpt>
      <trkpt lat="47.68217" lon="6.13593">
        <ele>271</ele>
        <time>2020-10-18T14:11:54Z</time>
      </trkpt>
      <trkpt lat="47.68221" lon="6.13597">
        <ele>271</ele>
        <time>2020-10-18T14:11:59Z</time>
      </trkpt>
      <trkpt lat="47.68224" lon="6.13602">
        <ele>271</ele>
        <time>2020-10-18T14:12:04Z</time>
      </trkpt>
      <trkpt lat="47.68228" lon="6.13607">
        <ele>271</ele>
        <time>2020-10-18T14:12:06Z</time>
      </trkpt>
      <trkpt lat="47.68232" lon="6.13612">
        <ele>271</ele>
        <time>2020-10-18T14:12:11Z</time>
      </trkpt>
      <trkpt lat="47.68236" lon="6.13619">
        <ele>271</ele>
        <time>2020-10-18T14:12:16Z</time>
      </trkpt>
      <trkpt lat="47.68239" lon="6.13625">
        <ele>271</ele>
        <time>2020-10-18T14:12:21Z</time>
      </trkpt>
      <trkpt lat="47.68243" lon="6.13631">
        <ele>271</ele>
        <time>2020-10-18T14:12:24Z</time>
      </trkpt>
      <trkpt lat="47.68247" lon="6.13635">
        <ele>272</ele>
        <time>2020-10-18T14:12:29Z</time>
      </trkpt>
      <trkpt lat="47.68251" lon="6.13639">
        <ele>275</ele>
        <time>2020-10-18T14:12:33Z</time>
      </trkpt>
      <trkpt lat="47.68255" lon="6.13645">
        <ele>275</ele>
        <time>2020-10-18T14:12:36Z</time>
      </trkpt>
      <trkpt lat="47.6826" lon="6.13651">
        <ele>275</ele>
        <time>2020-10-18T14:12:41Z</time>
      </trkpt>
      <trkpt lat="47.68266" lon="6.13655">
        <ele>275</ele>
        <time>2020-10-18T14:12:44Z</time>
      </trkpt>
      <trkpt lat="47.68271" lon="6.13659">
        <ele>275</ele>
        <time>2020-10-18T14:12:47Z</time>
      </trkpt>
      <trkpt lat="47.68276" lon="6.13663">
        <ele>275</ele>
        <time>2020-10-18T14:12:50Z</time>
      </trkpt>
      <trkpt lat="47.6828" lon="6.13667">
        <ele>276</ele>
        <time>2020-10-18T14:12:53Z</time>
      </trkpt>
      <trkpt lat="47.68285" lon="6.13671">
        <ele>276</ele>
        <time>2020-10-18T14:12:56Z</time>
      </trkpt>
      <trkpt lat="47.68291" lon="6.13675">
        <ele>276</ele>
        <time>2020-10-18T14:12:59Z</time>
      </trkpt>
      <trkpt lat="47.68295" lon="6.13679">
        <ele>277</ele>
        <time>2020-10-18T14:13:02Z</time>
      </trkpt>
      <trkpt lat="47.68299" lon="6.13684">
        <ele>277</ele>
        <time>2020-10-18T14:13:04Z</time>
      </trkpt>
      <trkpt lat="47.68303" lon="6.13689">
        <ele>277</ele>
        <time>2020-10-18T14:13:07Z</time>
      </trkpt>
      <trkpt lat="47.68307" lon="6.13693">
        <ele>277</ele>
        <time>2020-10-18T14:13:08Z</time>
      </trkpt>
      <trkpt lat="47.68311" lon="6.13696">
        <ele>277</ele>
        <time>2020-10-18T14:13:12Z</time>
      </trkpt>
      <trkpt lat="47.68316" lon="6.137">
        <ele>277</ele>
        <time>2020-10-18T14:13:14Z</time>
      </trkpt>
      <trkpt lat="47.6832" lon="6.13705">
        <ele>277</ele>
        <time>2020-10-18T14:13:16Z</time>
      </trkpt>
      <trkpt lat="47.68325" lon="6.1371">
        <ele>278</ele>
        <time>2020-10-18T14:13:20Z</time>
      </trkpt>
      <trkpt lat="47.6833" lon="6.13714">
        <ele>278</ele>
        <time>2020-10-18T14:13:23Z</time>
      </trkpt>
      <trkpt lat="47.68335" lon="6.1372">
        <ele>280</ele>
        <time>2020-10-18T14:13:25Z</time>
      </trkpt>
      <trkpt lat="47.68339" lon="6.13723">
        <ele>280</ele>
        <time>2020-10-18T14:13:29Z</time>
      </trkpt>
      <trkpt lat="47.68343" lon="6.1373">
        <ele>280</ele>
        <time>2020-10-18T14:13:32Z</time>
      </trkpt>
      <trkpt lat="47.68347" lon="6.13734">
        <ele>280</ele>
        <time>2020-10-18T14:13:35Z</time>
      </trkpt>
      <trkpt lat="47.68352" lon="6.13737">
        <ele>281</ele>
        <time>2020-10-18T14:13:38Z</time>
      </trkpt>
      <trkpt lat="47.68356" lon="6.1374">
        <ele>281</ele>
        <time>2020-10-18T14:13:41Z</time>
      </trkpt>
      <trkpt lat="47.6836" lon="6.13745">
        <ele>281</ele>
        <time>2020-10-18T14:13:42Z</time>
      </trkpt>
      <trkpt lat="47.68365" lon="6.13749">
        <ele>281</ele>
        <time>2020-10-18T14:13:46Z</time>
      </trkpt>
      <trkpt lat="47.6837" lon="6.13755">
        <ele>282</ele>
        <time>2020-10-18T14:13:51Z</time>
      </trkpt>
      <trkpt lat="47.68375" lon="6.13759">
        <ele>283</ele>
        <time>2020-10-18T14:13:54Z</time>
      </trkpt>
      <trkpt lat="47.68379" lon="6.13764">
        <ele>283</ele>
        <time>2020-10-18T14:13:56Z</time>
      </trkpt>
      <trkpt lat="47.68382" lon="6.13769">
        <ele>283</ele>
        <time>2020-10-18T14:13:57Z</time>
      </trkpt>
      <trkpt lat="47.68386" lon="6.13776">
        <ele>283</ele>
        <time>2020-10-18T14:14:00Z</time>
      </trkpt>
      <trkpt lat="47.68389" lon="6.13783">
        <ele>283</ele>
        <time>2020-10-18T14:14:03Z</time>
      </trkpt>
      <trkpt lat="47.6839" lon="6.13791">
        <ele>283</ele>
        <time>2020-10-18T14:14:08Z</time>
      </trkpt>
      <trkpt lat="47.68392" lon="6.13797">
        <ele>283</ele>
        <time>2020-10-18T14:14:49Z</time>
      </trkpt>
      <trkpt lat="47.68388" lon="6.13805">
        <ele>283</ele>
        <time>2020-10-18T14:15:39Z</time>
      </trkpt>
      <trkpt lat="47.68387" lon="6.13813">
        <ele>283</ele>
        <time>2020-10-18T14:15:43Z</time>
      </trkpt>
      <trkpt lat="47.68384" lon="6.1382">
        <ele>283</ele>
        <time>2020-10-18T14:15:46Z</time>
      </trkpt>
      <trkpt lat="47.68383" lon="6.13826">
        <ele>283</ele>
        <time>2020-10-18T14:15:50Z</time>
      </trkpt>
      <trkpt lat="47.6838" lon="6.13833">
        <ele>283</ele>
        <time>2020-10-18T14:15:50Z</time>
      </trkpt>
      <trkpt lat="47.68376" lon="6.13844">
        <ele>284</ele>
        <time>2020-10-18T14:15:53Z</time>
      </trkpt>
      <trkpt lat="47.68373" lon="6.13853">
        <ele>283</ele>
        <time>2020-10-18T14:15:55Z</time>
      </trkpt>
      <trkpt lat="47.68369" lon="6.1386">
        <ele>283</ele>
        <time>2020-10-18T14:15:57Z</time>
      </trkpt>
      <trkpt lat="47.68365" lon="6.13866">
        <ele>283</ele>
        <time>2020-10-18T14:15:58Z</time>
      </trkpt>
      <trkpt lat="47.68362" lon="6.13872">
        <ele>283</ele>
        <time>2020-10-18T14:16:01Z</time>
      </trkpt>
      <trkpt lat="47.68358" lon="6.13878">
        <ele>283</ele>
        <time>2020-10-18T14:16:03Z</time>
      </trkpt>
      <trkpt lat="47.68354" lon="6.13885">
        <ele>283</ele>
        <time>2020-10-18T14:16:04Z</time>
      </trkpt>
      <trkpt lat="47.6835" lon="6.1389">
        <ele>283</ele>
        <time>2020-10-18T14:16:07Z</time>
      </trkpt>
      <trkpt lat="47.68344" lon="6.13897">
        <ele>283</ele>
        <time>2020-10-18T14:16:09Z</time>
      </trkpt>
      <trkpt lat="47.6834" lon="6.13903">
        <ele>283</ele>
        <time>2020-10-18T14:16:10Z</time>
      </trkpt>
      <trkpt lat="47.68334" lon="6.1391">
        <ele>282</ele>
        <time>2020-10-18T14:16:12Z</time>
      </trkpt>
      <trkpt lat="47.68328" lon="6.13918">
        <ele>282</ele>
        <time>2020-10-18T14:16:14Z</time>
      </trkpt>
      <trkpt lat="47.68321" lon="6.13927">
        <ele>281</ele>
        <time>2020-10-18T14:16:14Z</time>
      </trkpt>
      <trkpt lat="47.68317" lon="6.13933">
        <ele>281</ele>
        <time>2020-10-18T14:16:15Z</time>
      </trkpt>
      <trkpt lat="47.68314" lon="6.13938">
        <ele>281</ele>
        <time>2020-10-18T14:16:16Z</time>
      </trkpt>
      <trkpt lat="47.6831" lon="6.13943">
        <ele>281</ele>
        <time>2020-10-18T14:16:17Z</time>
      </trkpt>
      <trkpt lat="47.68306" lon="6.13948">
        <ele>281</ele>
        <time>2020-10-18T14:16:18Z</time>
      </trkpt>
      <trkpt lat="47.68302" lon="6.13953">
        <ele>281</ele>
        <time>2020-10-18T14:16:19Z</time>
      </trkpt>
      <trkpt lat="47.68298" lon="6.13959">
        <ele>281</ele>
        <time>2020-10-18T14:16:20Z</time>
      </trkpt>
      <trkpt lat="47.68295" lon="6.13964">
        <ele>281</ele>
        <time>2020-10-18T14:16:21Z</time>
      </trkpt>
      <trkpt lat="47.68291" lon="6.1397">
        <ele>281</ele>
        <time>2020-10-18T14:16:22Z</time>
      </trkpt>
      <trkpt lat="47.68287" lon="6.13976">
        <ele>281</ele>
        <time>2020-10-18T14:16:23Z</time>
      </trkpt>
      <trkpt lat="47.68284" lon="6.13982">
        <ele>281</ele>
        <time>2020-10-18T14:16:24Z</time>
      </trkpt>
      <trkpt lat="47.6828" lon="6.13988">
        <ele>280</ele>
        <time>2020-10-18T14:16:25Z</time>
      </trkpt>
      <trkpt lat="47.68277" lon="6.13995">
        <ele>280</ele>
        <time>2020-10-18T14:16:26Z</time>
      </trkpt>
      <trkpt lat="47.68273" lon="6.14002">
        <ele>280</ele>
        <time>2020-10-18T14:16:27Z</time>
      </trkpt>
      <trkpt lat="47.6827" lon="6.14009">
        <ele>280</ele>
        <time>2020-10-18T14:16:28Z</time>
      </trkpt>
      <trkpt lat="47.68267" lon="6.14015">
        <ele>280</ele>
        <time>2020-10-18T14:16:29Z</time>
      </trkpt>
      <trkpt lat="47.68264" lon="6.14021">
        <ele>280</ele>
        <time>2020-10-18T14:16:30Z</time>
      </trkpt>
      <trkpt lat="47.68261" lon="6.14027">
        <ele>280</ele>
        <time>2020-10-18T14:16:31Z</time>
      </trkpt>
      <trkpt lat="47.68258" lon="6.14033">
        <ele>280</ele>
        <time>2020-10-18T14:16:32Z</time>
      </trkpt>
      <trkpt lat="47.68256" lon="6.14039">
        <ele>280</ele>
        <time>2020-10-18T14:16:33Z</time>
      </trkpt>
      <trkpt lat="47.68253" lon="6.14045">
        <ele>280</ele>
        <time>2020-10-18T14:16:34Z</time>
      </trkpt>
      <trkpt lat="47.6825" lon="6.14051">
        <ele>278</ele>
        <time>2020-10-18T14:16:35Z</time>
      </trkpt>
      <trkpt lat="47.68247" lon="6.14057">
        <ele>278</ele>
        <time>2020-10-18T14:16:36Z</time>
      </trkpt>
      <trkpt lat="47.68244" lon="6.14063">
        <ele>278</ele>
        <time>2020-10-18T14:16:37Z</time>
      </trkpt>
      <trkpt lat="47.68241" lon="6.14069">
        <ele>278</ele>
        <time>2020-10-18T14:16:38Z</time>
      </trkpt>
      <trkpt lat="47.68239" lon="6.14074">
        <ele>278</ele>
        <time>2020-10-18T14:16:39Z</time>
      </trkpt>
      <trkpt lat="47.68236" lon="6.1408">
        <ele>278</ele>
        <time>2020-10-18T14:16:40Z</time>
      </trkpt>
      <trkpt lat="47.68233" lon="6.14086">
        <ele>278</ele>
        <time>2020-10-18T14:16:41Z</time>
      </trkpt>
      <trkpt lat="47.68229" lon="6.14092">
        <ele>278</ele>
        <time>2020-10-18T14:16:42Z</time>
      </trkpt>
      <trkpt lat="47.68225" lon="6.14098">
        <ele>277</ele>
        <time>2020-10-18T14:16:43Z</time>
      </trkpt>
      <trkpt lat="47.68222" lon="6.14104">
        <ele>277</ele>
        <time>2020-10-18T14:16:44Z</time>
      </trkpt>
      <trkpt lat="47.68218" lon="6.14111">
        <ele>277</ele>
        <time>2020-10-18T14:16:45Z</time>
      </trkpt>
      <trkpt lat="47.68213" lon="6.14117">
        <ele>277</ele>
        <time>2020-10-18T14:16:46Z</time>
      </trkpt>
      <trkpt lat="47.68208" lon="6.14123">
        <ele>277</ele>
        <time>2020-10-18T14:16:47Z</time>
      </trkpt>
      <trkpt lat="47.68203" lon="6.14129">
        <ele>277</ele>
        <time>2020-10-18T14:16:48Z</time>
      </trkpt>
      <trkpt lat="47.68198" lon="6.14135">
        <ele>277</ele>
        <time>2020-10-18T14:16:49Z</time>
      </trkpt>
      <trkpt lat="47.68194" lon="6.1414">
        <ele>276</ele>
        <time>2020-10-18T14:16:50Z</time>
      </trkpt>
      <trkpt lat="47.6819" lon="6.14145">
        <ele>276</ele>
        <time>2020-10-18T14:16:51Z</time>
      </trkpt>
      <trkpt lat="47.68187" lon="6.1415">
        <ele>276</ele>
        <time>2020-10-18T14:16:52Z</time>
      </trkpt>
      <trkpt lat="47.68183" lon="6.14155">
        <ele>276</ele>
        <time>2020-10-18T14:16:53Z</time>
      </trkpt>
      <trkpt lat="47.68179" lon="6.1416">
        <ele>276</ele>
        <time>2020-10-18T14:16:54Z</time>
      </trkpt>
      <trkpt lat="47.68175" lon="6.14165">
        <ele>276</ele>
        <time>2020-10-18T14:16:55Z</time>
      </trkpt>
      <trkpt lat="47.68171" lon="6.14171">
        <ele>275</ele>
        <time>2020-10-18T14:16:56Z</time>
      </trkpt>
      <trkpt lat="47.68167" lon="6.14176">
        <ele>274</ele>
        <time>2020-10-18T14:16:57Z</time>
      </trkpt>
      <trkpt lat="47.68162" lon="6.14182">
        <ele>274</ele>
        <time>2020-10-18T14:16:58Z</time>
      </trkpt>
      <trkpt lat="47.68157" lon="6.14188">
        <ele>273</ele>
        <time>2020-10-18T14:16:59Z</time>
      </trkpt>
      <trkpt lat="47.68151" lon="6.14194">
        <ele>273</ele>
        <time>2020-10-18T14:17:00Z</time>
      </trkpt>
      <trkpt lat="47.68146" lon="6.142">
        <ele>273</ele>
        <time>2020-10-18T14:17:01Z</time>
      </trkpt>
      <trkpt lat="47.68141" lon="6.14207">
        <ele>273</ele>
        <time>2020-10-18T14:17:02Z</time>
      </trkpt>
      <trkpt lat="47.68135" lon="6.14214">
        <ele>273</ele>
        <time>2020-10-18T14:17:03Z</time>
      </trkpt>
      <trkpt lat="47.68129" lon="6.14221">
        <ele>272</ele>
        <time>2020-10-18T14:17:04Z</time>
      </trkpt>
      <trkpt lat="47.68123" lon="6.14228">
        <ele>272</ele>
        <time>2020-10-18T14:17:05Z</time>
      </trkpt>
      <trkpt lat="47.68117" lon="6.14236">
        <ele>272</ele>
        <time>2020-10-18T14:17:06Z</time>
      </trkpt>
      <trkpt lat="47.68111" lon="6.14243">
        <ele>272</ele>
        <time>2020-10-18T14:17:07Z</time>
      </trkpt>
      <trkpt lat="47.68105" lon="6.14251">
        <ele>271</ele>
        <time>2020-10-18T14:17:08Z</time>
      </trkpt>
      <trkpt lat="47.68099" lon="6.14259">
        <ele>270</ele>
        <time>2020-10-18T14:17:09Z</time>
      </trkpt>
      <trkpt lat="47.68092" lon="6.14268">
        <ele>270</ele>
        <time>2020-10-18T14:17:10Z</time>
      </trkpt>
      <trkpt lat="47.68086" lon="6.14276">
        <ele>270</ele>
        <time>2020-10-18T14:17:11Z</time>
      </trkpt>
      <trkpt lat="47.6808" lon="6.14284">
        <ele>269</ele>
        <time>2020-10-18T14:17:12Z</time>
      </trkpt>
      <trkpt lat="47.68073" lon="6.14292">
        <ele>268</ele>
        <time>2020-10-18T14:17:13Z</time>
      </trkpt>
      <trkpt lat="47.68066" lon="6.143">
        <ele>268</ele>
        <time>2020-10-18T14:17:14Z</time>
      </trkpt>
      <trkpt lat="47.6806" lon="6.14308">
        <ele>268</ele>
        <time>2020-10-18T14:17:15Z</time>
      </trkpt>
      <trkpt lat="47.68053" lon="6.14315">
        <ele>268</ele>
        <time>2020-10-18T14:17:16Z</time>
      </trkpt>
      <trkpt lat="47.68046" lon="6.14323">
        <ele>268</ele>
        <time>2020-10-18T14:17:17Z</time>
      </trkpt>
      <trkpt lat="47.6804" lon="6.14331">
        <ele>268</ele>
        <time>2020-10-18T14:17:18Z</time>
      </trkpt>
      <trkpt lat="47.68033" lon="6.14339">
        <ele>267</ele>
        <time>2020-10-18T14:17:19Z</time>
      </trkpt>
      <trkpt lat="47.68027" lon="6.14347">
        <ele>267</ele>
        <time>2020-10-18T14:17:20Z</time>
      </trkpt>
      <trkpt lat="47.6802" lon="6.14355">
        <ele>267</ele>
        <time>2020-10-18T14:17:21Z</time>
      </trkpt>
      <trkpt lat="47.68014" lon="6.14364">
        <ele>267</ele>
        <time>2020-10-18T14:17:22Z</time>
      </trkpt>
      <trkpt lat="47.68007" lon="6.14373">
        <ele>267</ele>
        <time>2020-10-18T14:17:23Z</time>
      </trkpt>
      <trkpt lat="47.68001" lon="6.14382">
        <ele>266</ele>
        <time>2020-10-18T14:17:24Z</time>
      </trkpt>
      <trkpt lat="47.67995" lon="6.14391">
        <ele>265</ele>
        <time>2020-10-18T14:17:25Z</time>
      </trkpt>
      <trkpt lat="47.67989" lon="6.144">
        <ele>265</ele>
        <time>2020-10-18T14:17:26Z</time>
      </trkpt>
      <trkpt lat="47.67982" lon="6.14409">
        <ele>265</ele>
        <time>2020-10-18T14:17:27Z</time>
      </trkpt>
      <trkpt lat="47.67976" lon="6.14418">
        <ele>265</ele>
        <time>2020-10-18T14:17:28Z</time>
      </trkpt>
      <trkpt lat="47.6797" lon="6.14427">
        <ele>265</ele>
        <time>2020-10-18T14:17:29Z</time>
      </trkpt>
      <trkpt lat="47.67965" lon="6.14436">
        <ele>265</ele>
        <time>2020-10-18T14:17:30Z</time>
      </trkpt>
      <trkpt lat="47.67959" lon="6.14445">
        <ele>265</ele>
        <time>2020-10-18T14:17:31Z</time>
      </trkpt>
      <trkpt lat="47.67952" lon="6.14453">
        <ele>265</ele>
        <time>2020-10-18T14:17:32Z</time>
      </trkpt>
      <trkpt lat="47.67946" lon="6.14461">
        <ele>265</ele>
        <time>2020-10-18T14:17:33Z</time>
      </trkpt>
      <trkpt lat="47.6794" lon="6.1447">
        <ele>265</ele>
        <time>2020-10-18T14:17:34Z</time>
      </trkpt>
      <trkpt lat="47.67934" lon="6.14477">
        <ele>265</ele>
        <time>2020-10-18T14:17:35Z</time>
      </trkpt>
      <trkpt lat="47.67927" lon="6.14485">
        <ele>264</ele>
        <time>2020-10-18T14:17:36Z</time>
      </trkpt>
      <trkpt lat="47.67921" lon="6.14492">
        <ele>264</ele>
        <time>2020-10-18T14:17:37Z</time>
      </trkpt>
      <trkpt lat="47.67915" lon="6.14499">
        <ele>264</ele>
        <time>2020-10-18T14:17:38Z</time>
      </trkpt>
      <trkpt lat="47.67909" lon="6.14505">
        <ele>263</ele>
        <time>2020-10-18T14:17:39Z</time>
      </trkpt>
      <trkpt lat="47.67903" lon="6.14512">
        <ele>263</ele>
        <time>2020-10-18T14:17:40Z</time>
      </trkpt>
      <trkpt lat="47.67897" lon="6.14518">
        <ele>263</ele>
        <time>2020-10-18T14:17:41Z</time>
      </trkpt>
      <trkpt lat="47.67891" lon="6.14525">
        <ele>262</ele>
        <time>2020-10-18T14:17:42Z</time>
      </trkpt>
      <trkpt lat="47.67885" lon="6.14531">
        <ele>262</ele>
        <time>2020-10-18T14:17:43Z</time>
      </trkpt>
      <trkpt lat="47.67879" lon="6.14536">
        <ele>262</ele>
        <time>2020-10-18T14:17:44Z</time>
      </trkpt>
      <trkpt lat="47.67873" lon="6.14542">
        <ele>262</ele>
        <time>2020-10-18T14:17:45Z</time>
      </trkpt>
      <trkpt lat="47.67867" lon="6.14547">
        <ele>262</ele>
        <time>2020-10-18T14:17:46Z</time>
      </trkpt>
      <trkpt lat="47.67861" lon="6.14551">
        <ele>262</ele>
        <time>2020-10-18T14:17:47Z</time>
      </trkpt>
      <trkpt lat="47.67855" lon="6.14556">
        <ele>262</ele>
        <time>2020-10-18T14:17:48Z</time>
      </trkpt>
      <trkpt lat="47.67849" lon="6.1456">
        <ele>262</ele>
        <time>2020-10-18T14:17:49Z</time>
      </trkpt>
      <trkpt lat="47.67843" lon="6.14563">
        <ele>262</ele>
        <time>2020-10-18T14:17:50Z</time>
      </trkpt>
      <trkpt lat="47.67837" lon="6.14567">
        <ele>261</ele>
        <time>2020-10-18T14:17:51Z</time>
      </trkpt>
      <trkpt lat="47.67831" lon="6.14572">
        <ele>261</ele>
        <time>2020-10-18T14:17:52Z</time>
      </trkpt>
      <trkpt lat="47.67825" lon="6.14576">
        <ele>261</ele>
        <time>2020-10-18T14:17:53Z</time>
      </trkpt>
      <trkpt lat="47.67818" lon="6.1458">
        <ele>261</ele>
        <time>2020-10-18T14:17:54Z</time>
      </trkpt>
      <trkpt lat="47.67812" lon="6.14584">
        <ele>260</ele>
        <time>2020-10-18T14:17:55Z</time>
      </trkpt>
      <trkpt lat="47.67806" lon="6.14588">
        <ele>260</ele>
        <time>2020-10-18T14:17:56Z</time>
      </trkpt>
      <trkpt lat="47.678" lon="6.14591">
        <ele>260</ele>
        <time>2020-10-18T14:17:57Z</time>
      </trkpt>
      <trkpt lat="47.67794" lon="6.14595">
        <ele>260</ele>
        <time>2020-10-18T14:17:58Z</time>
      </trkpt>
      <trkpt lat="47.67788" lon="6.14599">
        <ele>260</ele>
        <time>2020-10-18T14:17:59Z</time>
      </trkpt>
      <trkpt lat="47.67782" lon="6.14603">
        <ele>260</ele>
        <time>2020-10-18T14:18:00Z</time>
      </trkpt>
      <trkpt lat="47.67776" lon="6.14607">
        <ele>260</ele>
        <time>2020-10-18T14:18:01Z</time>
      </trkpt>
      <trkpt lat="47.6777" lon="6.14611">
        <ele>260</ele>
        <time>2020-10-18T14:18:02Z</time>
      </trkpt>
      <trkpt lat="47.67765" lon="6.14614">
        <ele>260</ele>
        <time>2020-10-18T14:18:03Z</time>
      </trkpt>
      <trkpt lat="47.67759" lon="6.14618">
        <ele>260</ele>
        <time>2020-10-18T14:18:04Z</time>
      </trkpt>
      <trkpt lat="47.67753" lon="6.14621">
        <ele>260</ele>
        <time>2020-10-18T14:18:05Z</time>
      </trkpt>
      <trkpt lat="47.67747" lon="6.14625">
        <ele>259</ele>
        <time>2020-10-18T14:18:06Z</time>
      </trkpt>
      <trkpt lat="47.67742" lon="6.14628">
        <ele>259</ele>
        <time>2020-10-18T14:18:07Z</time>
      </trkpt>
      <trkpt lat="47.67736" lon="6.14631">
        <ele>259</ele>
        <time>2020-10-18T14:18:08Z</time>
      </trkpt>
      <trkpt lat="47.6773" lon="6.14634">
        <ele>259</ele>
        <time>2020-10-18T14:18:09Z</time>
      </trkpt>
      <trkpt lat="47.67725" lon="6.14638">
        <ele>259</ele>
        <time>2020-10-18T14:18:10Z</time>
      </trkpt>
      <trkpt lat="47.6772" lon="6.14642">
        <ele>259</ele>
        <time>2020-10-18T14:18:11Z</time>
      </trkpt>
      <trkpt lat="47.67715" lon="6.14646">
        <ele>259</ele>
        <time>2020-10-18T14:18:12Z</time>
      </trkpt>
      <trkpt lat="47.67711" lon="6.14649">
        <ele>259</ele>
        <time>2020-10-18T14:18:13Z</time>
      </trkpt>
      <trkpt lat="47.67706" lon="6.14653">
        <ele>259</ele>
        <time>2020-10-18T14:18:14Z</time>
      </trkpt>
      <trkpt lat="47.67701" lon="6.14656">
        <ele>259</ele>
        <time>2020-10-18T14:18:15Z</time>
      </trkpt>
      <trkpt lat="47.67697" lon="6.14659">
        <ele>259</ele>
        <time>2020-10-18T14:18:16Z</time>
      </trkpt>
      <trkpt lat="47.67692" lon="6.14662">
        <ele>259</ele>
        <time>2020-10-18T14:18:17Z</time>
      </trkpt>
      <trkpt lat="47.67688" lon="6.14664">
        <ele>259</ele>
        <time>2020-10-18T14:18:18Z</time>
      </trkpt>
      <trkpt lat="47.67684" lon="6.14667">
        <ele>258</ele>
        <time>2020-10-18T14:18:19Z</time>
      </trkpt>
      <trkpt lat="47.67679" lon="6.14669">
        <ele>258</ele>
        <time>2020-10-18T14:18:20Z</time>
      </trkpt>
      <trkpt lat="47.67675" lon="6.14671">
        <ele>258</ele>
        <time>2020-10-18T14:18:21Z</time>
      </trkpt>
      <trkpt lat="47.67666" lon="6.14675">
        <ele>260</ele>
        <time>2020-10-18T14:18:23Z</time>
      </trkpt>
      <trkpt lat="47.67662" lon="6.14677">
        <ele>260</ele>
        <time>2020-10-18T14:18:24Z</time>
      </trkpt>
      <trkpt lat="47.67657" lon="6.14679">
        <ele>261</ele>
        <time>2020-10-18T14:18:25Z</time>
      </trkpt>
      <trkpt lat="47.67653" lon="6.14682">
        <ele>261</ele>
        <time>2020-10-18T14:18:26Z</time>
      </trkpt>
      <trkpt lat="47.67649" lon="6.14685">
        <ele>262</ele>
        <time>2020-10-18T14:18:27Z</time>
      </trkpt>
      <trkpt lat="47.67645" lon="6.14687">
        <ele>262</ele>
        <time>2020-10-18T14:18:28Z</time>
      </trkpt>
      <trkpt lat="47.67637" lon="6.14693">
        <ele>263</ele>
        <time>2020-10-18T14:18:30Z</time>
      </trkpt>
      <trkpt lat="47.6763" lon="6.14699">
        <ele>263</ele>
        <time>2020-10-18T14:18:32Z</time>
      </trkpt>
      <trkpt lat="47.67622" lon="6.14704">
        <ele>264</ele>
        <time>2020-10-18T14:18:34Z</time>
      </trkpt>
      <trkpt lat="47.67614" lon="6.1471">
        <ele>264</ele>
        <time>2020-10-18T14:18:36Z</time>
      </trkpt>
      <trkpt lat="47.67606" lon="6.14718">
        <ele>264</ele>
        <time>2020-10-18T14:18:38Z</time>
      </trkpt>
      <trkpt lat="47.67596" lon="6.14725">
        <ele>265</ele>
        <time>2020-10-18T14:18:43Z</time>
      </trkpt>
      <trkpt lat="47.67591" lon="6.14728">
        <ele>265</ele>
        <time>2020-10-18T14:18:44Z</time>
      </trkpt>
      <trkpt lat="47.67584" lon="6.14735">
        <ele>265</ele>
        <time>2020-10-18T14:18:45Z</time>
      </trkpt>
      <trkpt lat="47.67579" lon="6.14741">
        <ele>268</ele>
        <time>2020-10-18T14:18:48Z</time>
      </trkpt>
      <trkpt lat="47.67572" lon="6.14747">
        <ele>268</ele>
        <time>2020-10-18T14:18:50Z</time>
      </trkpt>
      <trkpt lat="47.67566" lon="6.14752">
        <ele>266</ele>
        <time>2020-10-18T14:18:52Z</time>
      </trkpt>
      <trkpt lat="47.67561" lon="6.14757">
        <ele>266</ele>
        <time>2020-10-18T14:18:53Z</time>
      </trkpt>
      <trkpt lat="47.67553" lon="6.14764">
        <ele>266</ele>
        <time>2020-10-18T14:18:54Z</time>
      </trkpt>
      <trkpt lat="47.67547" lon="6.14769">
        <ele>266</ele>
        <time>2020-10-18T14:18:57Z</time>
      </trkpt>
      <trkpt lat="47.67543" lon="6.14773">
        <ele>266</ele>
        <time>2020-10-18T14:18:58Z</time>
      </trkpt>
      <trkpt lat="47.67536" lon="6.1478">
        <ele>266</ele>
        <time>2020-10-18T14:18:59Z</time>
      </trkpt>
      <trkpt lat="47.67531" lon="6.14785">
        <ele>266</ele>
        <time>2020-10-18T14:19:02Z</time>
      </trkpt>
      <trkpt lat="47.67525" lon="6.14789">
        <ele>266</ele>
        <time>2020-10-18T14:19:03Z</time>
      </trkpt>
      <trkpt lat="47.67519" lon="6.14795">
        <ele>266</ele>
        <time>2020-10-18T14:19:05Z</time>
      </trkpt>
      <trkpt lat="47.67515" lon="6.14799">
        <ele>266</ele>
        <time>2020-10-18T14:19:06Z</time>
      </trkpt>
      <trkpt lat="47.67511" lon="6.14803">
        <ele>265</ele>
        <time>2020-10-18T14:19:07Z</time>
      </trkpt>
      <trkpt lat="47.67507" lon="6.14807">
        <ele>265</ele>
        <time>2020-10-18T14:19:09Z</time>
      </trkpt>
      <trkpt lat="47.67503" lon="6.14811">
        <ele>265</ele>
        <time>2020-10-18T14:19:10Z</time>
      </trkpt>
      <trkpt lat="47.67498" lon="6.14817">
        <ele>268</ele>
        <time>2020-10-18T14:19:12Z</time>
      </trkpt>
      <trkpt lat="47.67492" lon="6.14821">
        <ele>268</ele>
        <time>2020-10-18T14:19:14Z</time>
      </trkpt>
      <trkpt lat="47.67488" lon="6.14826">
        <ele>268</ele>
        <time>2020-10-18T14:19:16Z</time>
      </trkpt>
      <trkpt lat="47.67484" lon="6.1483">
        <ele>268</ele>
        <time>2020-10-18T14:19:17Z</time>
      </trkpt>
      <trkpt lat="47.67478" lon="6.14834">
        <ele>264</ele>
        <time>2020-10-18T14:19:19Z</time>
      </trkpt>
      <trkpt lat="47.67472" lon="6.1484">
        <ele>265</ele>
        <time>2020-10-18T14:19:21Z</time>
      </trkpt>
      <trkpt lat="47.67467" lon="6.14844">
        <ele>265</ele>
        <time>2020-10-18T14:19:23Z</time>
      </trkpt>
      <trkpt lat="47.67462" lon="6.14848">
        <ele>265</ele>
        <time>2020-10-18T14:19:25Z</time>
      </trkpt>
      <trkpt lat="47.67456" lon="6.14854">
        <ele>266</ele>
        <time>2020-10-18T14:19:27Z</time>
      </trkpt>
      <trkpt lat="47.67451" lon="6.14859">
        <ele>266</ele>
        <time>2020-10-18T14:19:28Z</time>
      </trkpt>
      <trkpt lat="47.67446" lon="6.14863">
        <ele>266</ele>
        <time>2020-10-18T14:19:30Z</time>
      </trkpt>
      <trkpt lat="47.67441" lon="6.14867">
        <ele>266</ele>
        <time>2020-10-18T14:19:31Z</time>
      </trkpt>
      <trkpt lat="47.67436" lon="6.14871">
        <ele>266</ele>
        <time>2020-10-18T14:19:32Z</time>
      </trkpt>
      <trkpt lat="47.6743" lon="6.14877">
        <ele>266</ele>
        <time>2020-10-18T14:19:33Z</time>
      </trkpt>
      <trkpt lat="47.67422" lon="6.14886">
        <ele>265</ele>
        <time>2020-10-18T14:19:35Z</time>
      </trkpt>
      <trkpt lat="47.67416" lon="6.14891">
        <ele>268</ele>
        <time>2020-10-18T14:19:37Z</time>
      </trkpt>
      <trkpt lat="47.67409" lon="6.14897">
        <ele>268</ele>
        <time>2020-10-18T14:19:39Z</time>
      </trkpt>
      <trkpt lat="47.67401" lon="6.14905">
        <ele>267</ele>
        <time>2020-10-18T14:19:41Z</time>
      </trkpt>
      <trkpt lat="47.67394" lon="6.14912">
        <ele>268</ele>
        <time>2020-10-18T14:19:43Z</time>
      </trkpt>
      <trkpt lat="47.67387" lon="6.14918">
        <ele>263</ele>
        <time>2020-10-18T14:19:45Z</time>
      </trkpt>
      <trkpt lat="47.67379" lon="6.14924">
        <ele>263</ele>
        <time>2020-10-18T14:19:47Z</time>
      </trkpt>
      <trkpt lat="47.67373" lon="6.14929">
        <ele>263</ele>
        <time>2020-10-18T14:19:49Z</time>
      </trkpt>
      <trkpt lat="47.67368" lon="6.14933">
        <ele>263</ele>
        <time>2020-10-18T14:19:51Z</time>
      </trkpt>
      <trkpt lat="47.67363" lon="6.14937">
        <ele>263</ele>
        <time>2020-10-18T14:19:52Z</time>
      </trkpt>
      <trkpt lat="47.67358" lon="6.14941">
        <ele>263</ele>
        <time>2020-10-18T14:19:53Z</time>
      </trkpt>
      <trkpt lat="47.67348" lon="6.1495">
        <ele>263</ele>
        <time>2020-10-18T14:19:55Z</time>
      </trkpt>
      <trkpt lat="47.67344" lon="6.14954">
        <ele>263</ele>
        <time>2020-10-18T14:19:56Z</time>
      </trkpt>
      <trkpt lat="47.67339" lon="6.14958">
        <ele>263</ele>
        <time>2020-10-18T14:19:57Z</time>
      </trkpt>
      <trkpt lat="47.67335" lon="6.14962">
        <ele>263</ele>
        <time>2020-10-18T14:19:58Z</time>
      </trkpt>
      <trkpt lat="47.6733" lon="6.14966">
        <ele>262</ele>
        <time>2020-10-18T14:19:59Z</time>
      </trkpt>
      <trkpt lat="47.67326" lon="6.1497">
        <ele>262</ele>
        <time>2020-10-18T14:20:00Z</time>
      </trkpt>
      <trkpt lat="47.67321" lon="6.14973">
        <ele>262</ele>
        <time>2020-10-18T14:20:01Z</time>
      </trkpt>
      <trkpt lat="47.67317" lon="6.14976">
        <ele>262</ele>
        <time>2020-10-18T14:20:02Z</time>
      </trkpt>
      <trkpt lat="47.67312" lon="6.1498">
        <ele>262</ele>
        <time>2020-10-18T14:20:03Z</time>
      </trkpt>
      <trkpt lat="47.67308" lon="6.14983">
        <ele>262</ele>
        <time>2020-10-18T14:20:04Z</time>
      </trkpt>
      <trkpt lat="47.67304" lon="6.14986">
        <ele>262</ele>
        <time>2020-10-18T14:20:05Z</time>
      </trkpt>
      <trkpt lat="47.673" lon="6.1499">
        <ele>262</ele>
        <time>2020-10-18T14:20:06Z</time>
      </trkpt>
      <trkpt lat="47.67296" lon="6.14994">
        <ele>262</ele>
        <time>2020-10-18T14:20:07Z</time>
      </trkpt>
      <trkpt lat="47.67292" lon="6.14997">
        <ele>261</ele>
        <time>2020-10-18T14:20:08Z</time>
      </trkpt>
      <trkpt lat="47.67288" lon="6.15001">
        <ele>260</ele>
        <time>2020-10-18T14:20:09Z</time>
      </trkpt>
      <trkpt lat="47.67284" lon="6.15004">
        <ele>260</ele>
        <time>2020-10-18T14:20:10Z</time>
      </trkpt>
      <trkpt lat="47.6728" lon="6.15008">
        <ele>260</ele>
        <time>2020-10-18T14:20:11Z</time>
      </trkpt>
      <trkpt lat="47.67274" lon="6.15013">
        <ele>260</ele>
        <time>2020-10-18T14:20:13Z</time>
      </trkpt>
      <trkpt lat="47.67267" lon="6.15019">
        <ele>260</ele>
        <time>2020-10-18T14:20:15Z</time>
      </trkpt>
      <trkpt lat="47.67262" lon="6.15025">
        <ele>260</ele>
        <time>2020-10-18T14:20:17Z</time>
      </trkpt>
      <trkpt lat="47.67268" lon="6.15031">
        <ele>260</ele>
        <time>2020-10-18T14:20:19Z</time>
      </trkpt>
      <trkpt lat="47.67261" lon="6.15032">
        <ele>260</ele>
        <time>2020-10-18T14:20:20Z</time>
      </trkpt>
      <trkpt lat="47.67254" lon="6.15034">
        <ele>260</ele>
        <time>2020-10-18T14:20:21Z</time>
      </trkpt>
      <trkpt lat="47.67248" lon="6.15037">
        <ele>262</ele>
        <time>2020-10-18T14:20:23Z</time>
      </trkpt>
      <trkpt lat="47.67243" lon="6.15039">
        <ele>262</ele>
        <time>2020-10-18T14:20:24Z</time>
      </trkpt>
      <trkpt lat="47.67239" lon="6.15042">
        <ele>262</ele>
        <time>2020-10-18T14:20:26Z</time>
      </trkpt>
      <trkpt lat="47.67233" lon="6.15047">
        <ele>262</ele>
        <time>2020-10-18T14:20:28Z</time>
      </trkpt>
      <trkpt lat="47.67229" lon="6.1505">
        <ele>262</ele>
        <time>2020-10-18T14:20:30Z</time>
      </trkpt>
      <trkpt lat="47.67224" lon="6.15054">
        <ele>263</ele>
        <time>2020-10-18T14:20:32Z</time>
      </trkpt>
      <trkpt lat="47.6722" lon="6.15058">
        <ele>263</ele>
        <time>2020-10-18T14:20:34Z</time>
      </trkpt>
      <trkpt lat="47.67214" lon="6.15063">
        <ele>263</ele>
        <time>2020-10-18T14:20:36Z</time>
      </trkpt>
      <trkpt lat="47.6721" lon="6.15067">
        <ele>263</ele>
        <time>2020-10-18T14:20:38Z</time>
      </trkpt>
      <trkpt lat="47.67204" lon="6.15072">
        <ele>263</ele>
        <time>2020-10-18T14:20:40Z</time>
      </trkpt>
      <trkpt lat="47.672" lon="6.15075">
        <ele>263</ele>
        <time>2020-10-18T14:20:42Z</time>
      </trkpt>
      <trkpt lat="47.67195" lon="6.1508">
        <ele>264</ele>
        <time>2020-10-18T14:20:44Z</time>
      </trkpt>
      <trkpt lat="47.67191" lon="6.15083">
        <ele>264</ele>
        <time>2020-10-18T14:20:46Z</time>
      </trkpt>
      <trkpt lat="47.67186" lon="6.15087">
        <ele>263</ele>
        <time>2020-10-18T14:20:48Z</time>
      </trkpt>
      <trkpt lat="47.67181" lon="6.15091">
        <ele>263</ele>
        <time>2020-10-18T14:20:50Z</time>
      </trkpt>
      <trkpt lat="47.67176" lon="6.15095">
        <ele>263</ele>
        <time>2020-10-18T14:20:52Z</time>
      </trkpt>
      <trkpt lat="47.67171" lon="6.151">
        <ele>263</ele>
        <time>2020-10-18T14:20:54Z</time>
      </trkpt>
      <trkpt lat="47.67167" lon="6.15104">
        <ele>263</ele>
        <time>2020-10-18T14:20:56Z</time>
      </trkpt>
      <trkpt lat="47.67162" lon="6.15108">
        <ele>264</ele>
        <time>2020-10-18T14:20:58Z</time>
      </trkpt>
      <trkpt lat="47.67158" lon="6.15111">
        <ele>263</ele>
        <time>2020-10-18T14:20:59Z</time>
      </trkpt>
      <trkpt lat="47.67152" lon="6.15115">
        <ele>263</ele>
        <time>2020-10-18T14:21:01Z</time>
      </trkpt>
      <trkpt lat="47.67145" lon="6.15118">
        <ele>263</ele>
        <time>2020-10-18T14:21:03Z</time>
      </trkpt>
      <trkpt lat="47.67141" lon="6.1512">
        <ele>263</ele>
        <time>2020-10-18T14:21:04Z</time>
      </trkpt>
      <trkpt lat="47.67132" lon="6.15124">
        <ele>263</ele>
        <time>2020-10-18T14:21:06Z</time>
      </trkpt>
      <trkpt lat="47.67125" lon="6.15127">
        <ele>263</ele>
        <time>2020-10-18T14:21:08Z</time>
      </trkpt>
      <trkpt lat="47.67119" lon="6.15128">
        <ele>263</ele>
        <time>2020-10-18T14:21:09Z</time>
      </trkpt>
      <trkpt lat="47.67111" lon="6.15131">
        <ele>263</ele>
        <time>2020-10-18T14:21:11Z</time>
      </trkpt>
      <trkpt lat="47.67103" lon="6.15134">
        <ele>263</ele>
        <time>2020-10-18T14:21:12Z</time>
      </trkpt>
      <trkpt lat="47.67098" lon="6.15136">
        <ele>263</ele>
        <time>2020-10-18T14:21:13Z</time>
      </trkpt>
      <trkpt lat="47.67089" lon="6.15139">
        <ele>263</ele>
        <time>2020-10-18T14:21:14Z</time>
      </trkpt>
      <trkpt lat="47.67083" lon="6.15141">
        <ele>263</ele>
        <time>2020-10-18T14:21:15Z</time>
      </trkpt>
      <trkpt lat="47.67078" lon="6.15142">
        <ele>263</ele>
        <time>2020-10-18T14:21:16Z</time>
      </trkpt>
      <trkpt lat="47.67073" lon="6.15144">
        <ele>263</ele>
        <time>2020-10-18T14:21:17Z</time>
      </trkpt>
      <trkpt lat="47.67068" lon="6.15145">
        <ele>263</ele>
        <time>2020-10-18T14:21:18Z</time>
      </trkpt>
      <trkpt lat="47.67063" lon="6.15147">
        <ele>263</ele>
        <time>2020-10-18T14:21:19Z</time>
      </trkpt>
      <trkpt lat="47.67057" lon="6.15149">
        <ele>263</ele>
        <time>2020-10-18T14:21:20Z</time>
      </trkpt>
      <trkpt lat="47.67052" lon="6.15151">
        <ele>263</ele>
        <time>2020-10-18T14:21:21Z</time>
      </trkpt>
      <trkpt lat="47.67046" lon="6.15153">
        <ele>263</ele>
        <time>2020-10-18T14:21:22Z</time>
      </trkpt>
      <trkpt lat="47.6704" lon="6.15155">
        <ele>263</ele>
        <time>2020-10-18T14:21:23Z</time>
      </trkpt>
      <trkpt lat="47.67034" lon="6.15157">
        <ele>263</ele>
        <time>2020-10-18T14:21:24Z</time>
      </trkpt>
      <trkpt lat="47.67028" lon="6.15158">
        <ele>263</ele>
        <time>2020-10-18T14:21:25Z</time>
      </trkpt>
      <trkpt lat="47.67022" lon="6.15159">
        <ele>263</ele>
        <time>2020-10-18T14:21:26Z</time>
      </trkpt>
      <trkpt lat="47.67017" lon="6.15159">
        <ele>263</ele>
        <time>2020-10-18T14:21:27Z</time>
      </trkpt>
      <trkpt lat="47.67011" lon="6.15159">
        <ele>263</ele>
        <time>2020-10-18T14:21:28Z</time>
      </trkpt>
      <trkpt lat="47.67005" lon="6.15159">
        <ele>263</ele>
        <time>2020-10-18T14:21:29Z</time>
      </trkpt>
      <trkpt lat="47.67001" lon="6.15158">
        <ele>263</ele>
        <time>2020-10-18T14:21:30Z</time>
      </trkpt>
      <trkpt lat="47.66996" lon="6.15157">
        <ele>263</ele>
        <time>2020-10-18T14:21:31Z</time>
      </trkpt>
      <trkpt lat="47.66988" lon="6.15155">
        <ele>264</ele>
        <time>2020-10-18T14:21:33Z</time>
      </trkpt>
      <trkpt lat="47.66982" lon="6.15152">
        <ele>264</ele>
        <time>2020-10-18T14:21:35Z</time>
      </trkpt>
      <trkpt lat="47.66977" lon="6.15149">
        <ele>264</ele>
        <time>2020-10-18T14:21:37Z</time>
      </trkpt>
      <trkpt lat="47.66971" lon="6.15145">
        <ele>264</ele>
        <time>2020-10-18T14:21:40Z</time>
      </trkpt>
      <trkpt lat="47.66965" lon="6.15141">
        <ele>264</ele>
        <time>2020-10-18T14:21:43Z</time>
      </trkpt>
      <trkpt lat="47.66961" lon="6.15136">
        <ele>264</ele>
        <time>2020-10-18T14:21:45Z</time>
      </trkpt>
      <trkpt lat="47.66955" lon="6.15137">
        <ele>264</ele>
        <time>2020-10-18T14:21:48Z</time>
      </trkpt>
      <trkpt lat="47.66949" lon="6.1514">
        <ele>264</ele>
        <time>2020-10-18T14:21:50Z</time>
      </trkpt>
      <trkpt lat="47.66944" lon="6.15142">
        <ele>264</ele>
        <time>2020-10-18T14:21:51Z</time>
      </trkpt>
      <trkpt lat="47.66939" lon="6.15148">
        <ele>264</ele>
        <time>2020-10-18T14:21:53Z</time>
      </trkpt>
      <trkpt lat="47.66936" lon="6.15157">
        <ele>264</ele>
        <time>2020-10-18T14:21:55Z</time>
      </trkpt>
      <trkpt lat="47.66933" lon="6.15167">
        <ele>264</ele>
        <time>2020-10-18T14:21:57Z</time>
      </trkpt>
      <trkpt lat="47.66931" lon="6.15173">
        <ele>264</ele>
        <time>2020-10-18T14:21:59Z</time>
      </trkpt>
      <trkpt lat="47.66928" lon="6.1518">
        <ele>264</ele>
        <time>2020-10-18T14:22:01Z</time>
      </trkpt>
      <trkpt lat="47.66925" lon="6.15186">
        <ele>264</ele>
        <time>2020-10-18T14:22:03Z</time>
      </trkpt>
      <trkpt lat="47.66923" lon="6.15192">
        <ele>264</ele>
        <time>2020-10-18T14:22:04Z</time>
      </trkpt>
      <trkpt lat="47.66921" lon="6.15199">
        <ele>264</ele>
        <time>2020-10-18T14:22:06Z</time>
      </trkpt>
      <trkpt lat="47.66918" lon="6.15207">
        <ele>263</ele>
        <time>2020-10-18T14:22:08Z</time>
      </trkpt>
      <trkpt lat="47.66918" lon="6.15215">
        <ele>263</ele>
        <time>2020-10-18T14:22:10Z</time>
      </trkpt>
      <trkpt lat="47.66918" lon="6.15225">
        <ele>263</ele>
        <time>2020-10-18T14:22:12Z</time>
      </trkpt>
      <trkpt lat="47.6692" lon="6.15233">
        <ele>263</ele>
        <time>2020-10-18T14:22:14Z</time>
      </trkpt>
      <trkpt lat="47.66922" lon="6.1524">
        <ele>264</ele>
        <time>2020-10-18T14:22:16Z</time>
      </trkpt>
      <trkpt lat="47.66924" lon="6.15249">
        <ele>264</ele>
        <time>2020-10-18T14:22:18Z</time>
      </trkpt>
      <trkpt lat="47.66927" lon="6.1526">
        <ele>263</ele>
        <time>2020-10-18T14:22:20Z</time>
      </trkpt>
      <trkpt lat="47.6693" lon="6.15269">
        <ele>262</ele>
        <time>2020-10-18T14:22:22Z</time>
      </trkpt>
      <trkpt lat="47.66932" lon="6.15278">
        <ele>262</ele>
        <time>2020-10-18T14:22:23Z</time>
      </trkpt>
      <trkpt lat="47.66935" lon="6.15291">
        <ele>261</ele>
        <time>2020-10-18T14:22:25Z</time>
      </trkpt>
      <trkpt lat="47.66937" lon="6.15298">
        <ele>261</ele>
        <time>2020-10-18T14:22:26Z</time>
      </trkpt>
      <trkpt lat="47.6694" lon="6.15309">
        <ele>261</ele>
        <time>2020-10-18T14:22:28Z</time>
      </trkpt>
      <trkpt lat="47.66942" lon="6.15319">
        <ele>261</ele>
        <time>2020-10-18T14:22:29Z</time>
      </trkpt>
      <trkpt lat="47.66943" lon="6.15325">
        <ele>261</ele>
        <time>2020-10-18T14:22:30Z</time>
      </trkpt>
      <trkpt lat="47.66945" lon="6.15332">
        <ele>260</ele>
        <time>2020-10-18T14:22:31Z</time>
      </trkpt>
      <trkpt lat="47.66946" lon="6.15349">
        <ele>259</ele>
        <time>2020-10-18T14:22:32Z</time>
      </trkpt>
      <trkpt lat="47.66947" lon="6.1536">
        <ele>259</ele>
        <time>2020-10-18T14:22:33Z</time>
      </trkpt>
      <trkpt lat="47.66947" lon="6.1537">
        <ele>259</ele>
        <time>2020-10-18T14:22:34Z</time>
      </trkpt>
      <trkpt lat="47.66948" lon="6.15382">
        <ele>259</ele>
        <time>2020-10-18T14:22:35Z</time>
      </trkpt>
      <trkpt lat="47.66948" lon="6.15394">
        <ele>259</ele>
        <time>2020-10-18T14:22:36Z</time>
      </trkpt>
      <trkpt lat="47.66949" lon="6.15406">
        <ele>258</ele>
        <time>2020-10-18T14:22:37Z</time>
      </trkpt>
      <trkpt lat="47.66949" lon="6.15417">
        <ele>258</ele>
        <time>2020-10-18T14:22:38Z</time>
      </trkpt>
      <trkpt lat="47.66949" lon="6.15428">
        <ele>258</ele>
        <time>2020-10-18T14:22:39Z</time>
      </trkpt>
      <trkpt lat="47.6695" lon="6.15439">
        <ele>258</ele>
        <time>2020-10-18T14:22:40Z</time>
      </trkpt>
      <trkpt lat="47.6695" lon="6.15449">
        <ele>258</ele>
        <time>2020-10-18T14:22:41Z</time>
      </trkpt>
      <trkpt lat="47.6695" lon="6.15458">
        <ele>259</ele>
        <time>2020-10-18T14:22:42Z</time>
      </trkpt>
      <trkpt lat="47.6695" lon="6.15467">
        <ele>259</ele>
        <time>2020-10-18T14:22:43Z</time>
      </trkpt>
      <trkpt lat="47.6695" lon="6.15476">
        <ele>259</ele>
        <time>2020-10-18T14:22:44Z</time>
      </trkpt>
      <trkpt lat="47.6695" lon="6.15484">
        <ele>259</ele>
        <time>2020-10-18T14:22:45Z</time>
      </trkpt>
      <trkpt lat="47.6695" lon="6.15491">
        <ele>259</ele>
        <time>2020-10-18T14:22:46Z</time>
      </trkpt>
      <trkpt lat="47.6695" lon="6.15498">
        <ele>259</ele>
        <time>2020-10-18T14:22:47Z</time>
      </trkpt>
      <trkpt lat="47.6695" lon="6.15509">
        <ele>259</ele>
        <time>2020-10-18T14:22:49Z</time>
      </trkpt>
      <trkpt lat="47.6695" lon="6.1552">
        <ele>259</ele>
        <time>2020-10-18T14:22:51Z</time>
      </trkpt>
      <trkpt lat="47.6695" lon="6.1553">
        <ele>260</ele>
        <time>2020-10-18T14:22:53Z</time>
      </trkpt>
      <trkpt lat="47.66952" lon="6.15537">
        <ele>260</ele>
        <time>2020-10-18T14:22:55Z</time>
      </trkpt>
      <trkpt lat="47.66952" lon="6.15547">
        <ele>260</ele>
        <time>2020-10-18T14:22:57Z</time>
      </trkpt>
      <trkpt lat="47.66951" lon="6.15557">
        <ele>260</ele>
        <time>2020-10-18T14:22:59Z</time>
      </trkpt>
      <trkpt lat="47.66951" lon="6.15565">
        <ele>260</ele>
        <time>2020-10-18T14:23:01Z</time>
      </trkpt>
      <trkpt lat="47.66951" lon="6.15576">
        <ele>260</ele>
        <time>2020-10-18T14:23:03Z</time>
      </trkpt>
      <trkpt lat="47.66952" lon="6.15585">
        <ele>260</ele>
        <time>2020-10-18T14:23:05Z</time>
      </trkpt>
      <trkpt lat="47.66952" lon="6.15593">
        <ele>260</ele>
        <time>2020-10-18T14:23:07Z</time>
      </trkpt>
      <trkpt lat="47.66953" lon="6.156">
        <ele>260</ele>
        <time>2020-10-18T14:23:08Z</time>
      </trkpt>
      <trkpt lat="47.66953" lon="6.15609">
        <ele>260</ele>
        <time>2020-10-18T14:23:10Z</time>
      </trkpt>
      <trkpt lat="47.66954" lon="6.15617">
        <ele>260</ele>
        <time>2020-10-18T14:23:11Z</time>
      </trkpt>
      <trkpt lat="47.66955" lon="6.15627">
        <ele>260</ele>
        <time>2020-10-18T14:23:13Z</time>
      </trkpt>
      <trkpt lat="47.66956" lon="6.15636">
        <ele>260</ele>
        <time>2020-10-18T14:23:15Z</time>
      </trkpt>
      <trkpt lat="47.66957" lon="6.15645">
        <ele>260</ele>
        <time>2020-10-18T14:23:17Z</time>
      </trkpt>
      <trkpt lat="47.66959" lon="6.15657">
        <ele>260</ele>
        <time>2020-10-18T14:23:19Z</time>
      </trkpt>
      <trkpt lat="47.6696" lon="6.15667">
        <ele>260</ele>
        <time>2020-10-18T14:23:21Z</time>
      </trkpt>
      <trkpt lat="47.66961" lon="6.15676">
        <ele>260</ele>
        <time>2020-10-18T14:23:22Z</time>
      </trkpt>
      <trkpt lat="47.6696" lon="6.15687">
        <ele>260</ele>
        <time>2020-10-18T14:23:24Z</time>
      </trkpt>
      <trkpt lat="47.66961" lon="6.15695">
        <ele>260</ele>
        <time>2020-10-18T14:23:25Z</time>
      </trkpt>
      <trkpt lat="47.66962" lon="6.15706">
        <ele>260</ele>
        <time>2020-10-18T14:23:26Z</time>
      </trkpt>
      <trkpt lat="47.66962" lon="6.15714">
        <ele>260</ele>
        <time>2020-10-18T14:23:27Z</time>
      </trkpt>
      <trkpt lat="47.66963" lon="6.15722">
        <ele>260</ele>
        <time>2020-10-18T14:23:28Z</time>
      </trkpt>
      <trkpt lat="47.66963" lon="6.15729">
        <ele>260</ele>
        <time>2020-10-18T14:23:29Z</time>
      </trkpt>
      <trkpt lat="47.66964" lon="6.15737">
        <ele>260</ele>
        <time>2020-10-18T14:23:30Z</time>
      </trkpt>
      <trkpt lat="47.66965" lon="6.15744">
        <ele>260</ele>
        <time>2020-10-18T14:23:31Z</time>
      </trkpt>
      <trkpt lat="47.66965" lon="6.15752">
        <ele>260</ele>
        <time>2020-10-18T14:23:32Z</time>
      </trkpt>
      <trkpt lat="47.66966" lon="6.1576">
        <ele>260</ele>
        <time>2020-10-18T14:23:33Z</time>
      </trkpt>
      <trkpt lat="47.66966" lon="6.15768">
        <ele>260</ele>
        <time>2020-10-18T14:23:34Z</time>
      </trkpt>
      <trkpt lat="47.66967" lon="6.15777">
        <ele>260</ele>
        <time>2020-10-18T14:23:35Z</time>
      </trkpt>
      <trkpt lat="47.66968" lon="6.15785">
        <ele>260</ele>
        <time>2020-10-18T14:23:36Z</time>
      </trkpt>
      <trkpt lat="47.66968" lon="6.15794">
        <ele>260</ele>
        <time>2020-10-18T14:23:37Z</time>
      </trkpt>
      <trkpt lat="47.66969" lon="6.15802">
        <ele>260</ele>
        <time>2020-10-18T14:23:38Z</time>
      </trkpt>
      <trkpt lat="47.6697" lon="6.15811">
        <ele>260</ele>
        <time>2020-10-18T14:23:39Z</time>
      </trkpt>
      <trkpt lat="47.66971" lon="6.1582">
        <ele>260</ele>
        <time>2020-10-18T14:23:40Z</time>
      </trkpt>
      <trkpt lat="47.66972" lon="6.15828">
        <ele>259</ele>
        <time>2020-10-18T14:23:41Z</time>
      </trkpt>
      <trkpt lat="47.66973" lon="6.15837">
        <ele>258</ele>
        <time>2020-10-18T14:23:42Z</time>
      </trkpt>
      <trkpt lat="47.66974" lon="6.15846">
        <ele>258</ele>
        <time>2020-10-18T14:23:43Z</time>
      </trkpt>
      <trkpt lat="47.66974" lon="6.15854">
        <ele>258</ele>
        <time>2020-10-18T14:23:44Z</time>
      </trkpt>
      <trkpt lat="47.66975" lon="6.15862">
        <ele>258</ele>
        <time>2020-10-18T14:23:45Z</time>
      </trkpt>
      <trkpt lat="47.66976" lon="6.15871">
        <ele>258</ele>
        <time>2020-10-18T14:23:46Z</time>
      </trkpt>
      <trkpt lat="47.66977" lon="6.1588">
        <ele>257</ele>
        <time>2020-10-18T14:23:47Z</time>
      </trkpt>
      <trkpt lat="47.66978" lon="6.1589">
        <ele>257</ele>
        <time>2020-10-18T14:23:48Z</time>
      </trkpt>
      <trkpt lat="47.66979" lon="6.15901">
        <ele>257</ele>
        <time>2020-10-18T14:23:49Z</time>
      </trkpt>
      <trkpt lat="47.6698" lon="6.15912">
        <ele>256</ele>
        <time>2020-10-18T14:23:50Z</time>
      </trkpt>
      <trkpt lat="47.66982" lon="6.15923">
        <ele>255</ele>
        <time>2020-10-18T14:23:51Z</time>
      </trkpt>
      <trkpt lat="47.66983" lon="6.15935">
        <ele>255</ele>
        <time>2020-10-18T14:23:52Z</time>
      </trkpt>
      <trkpt lat="47.66985" lon="6.15947">
        <ele>255</ele>
        <time>2020-10-18T14:23:53Z</time>
      </trkpt>
      <trkpt lat="47.66986" lon="6.15959">
        <ele>255</ele>
        <time>2020-10-18T14:23:54Z</time>
      </trkpt>
      <trkpt lat="47.66987" lon="6.15971">
        <ele>255</ele>
        <time>2020-10-18T14:23:55Z</time>
      </trkpt>
      <trkpt lat="47.66989" lon="6.15984">
        <ele>255</ele>
        <time>2020-10-18T14:23:56Z</time>
      </trkpt>
      <trkpt lat="47.66989" lon="6.15996">
        <ele>255</ele>
        <time>2020-10-18T14:23:57Z</time>
      </trkpt>
      <trkpt lat="47.6699" lon="6.16009">
        <ele>254</ele>
        <time>2020-10-18T14:23:58Z</time>
      </trkpt>
      <trkpt lat="47.66991" lon="6.16022">
        <ele>254</ele>
        <time>2020-10-18T14:23:59Z</time>
      </trkpt>
      <trkpt lat="47.66992" lon="6.16035">
        <ele>253</ele>
        <time>2020-10-18T14:24:00Z</time>
      </trkpt>
      <trkpt lat="47.66993" lon="6.16048">
        <ele>253</ele>
        <time>2020-10-18T14:24:01Z</time>
      </trkpt>
      <trkpt lat="47.66994" lon="6.16061">
        <ele>253</ele>
        <time>2020-10-18T14:24:02Z</time>
      </trkpt>
      <trkpt lat="47.66995" lon="6.16074">
        <ele>252</ele>
        <time>2020-10-18T14:24:03Z</time>
      </trkpt>
      <trkpt lat="47.66995" lon="6.16087">
        <ele>251</ele>
        <time>2020-10-18T14:24:04Z</time>
      </trkpt>
      <trkpt lat="47.66994" lon="6.161">
        <ele>250</ele>
        <time>2020-10-18T14:24:05Z</time>
      </trkpt>
      <trkpt lat="47.66992" lon="6.16113">
        <ele>249</ele>
        <time>2020-10-18T14:24:06Z</time>
      </trkpt>
      <trkpt lat="47.6699" lon="6.16127">
        <ele>249</ele>
        <time>2020-10-18T14:24:07Z</time>
      </trkpt>
      <trkpt lat="47.66987" lon="6.1614">
        <ele>248</ele>
        <time>2020-10-18T14:24:08Z</time>
      </trkpt>
      <trkpt lat="47.66984" lon="6.16153">
        <ele>248</ele>
        <time>2020-10-18T14:24:09Z</time>
      </trkpt>
      <trkpt lat="47.66981" lon="6.16166">
        <ele>247</ele>
        <time>2020-10-18T14:24:10Z</time>
      </trkpt>
      <trkpt lat="47.66978" lon="6.1618">
        <ele>245</ele>
        <time>2020-10-18T14:24:11Z</time>
      </trkpt>
      <trkpt lat="47.66975" lon="6.16193">
        <ele>245</ele>
        <time>2020-10-18T14:24:12Z</time>
      </trkpt>
      <trkpt lat="47.66971" lon="6.16206">
        <ele>244</ele>
        <time>2020-10-18T14:24:13Z</time>
      </trkpt>
      <trkpt lat="47.66968" lon="6.16219">
        <ele>244</ele>
        <time>2020-10-18T14:24:14Z</time>
      </trkpt>
      <trkpt lat="47.66966" lon="6.16231">
        <ele>244</ele>
        <time>2020-10-18T14:24:15Z</time>
      </trkpt>
      <trkpt lat="47.66965" lon="6.16243">
        <ele>244</ele>
        <time>2020-10-18T14:24:16Z</time>
      </trkpt>
      <trkpt lat="47.66965" lon="6.16255">
        <ele>242</ele>
        <time>2020-10-18T14:24:17Z</time>
      </trkpt>
      <trkpt lat="47.66966" lon="6.16267">
        <ele>242</ele>
        <time>2020-10-18T14:24:18Z</time>
      </trkpt>
      <trkpt lat="47.66969" lon="6.16279">
        <ele>242</ele>
        <time>2020-10-18T14:24:19Z</time>
      </trkpt>
      <trkpt lat="47.66972" lon="6.16291">
        <ele>241</ele>
        <time>2020-10-18T14:24:20Z</time>
      </trkpt>
      <trkpt lat="47.66975" lon="6.16303">
        <ele>241</ele>
        <time>2020-10-18T14:24:21Z</time>
      </trkpt>
      <trkpt lat="47.66977" lon="6.16315">
        <ele>241</ele>
        <time>2020-10-18T14:24:22Z</time>
      </trkpt>
      <trkpt lat="47.6698" lon="6.16327">
        <ele>240</ele>
        <time>2020-10-18T14:24:23Z</time>
      </trkpt>
      <trkpt lat="47.66982" lon="6.16339">
        <ele>238</ele>
        <time>2020-10-18T14:24:24Z</time>
      </trkpt>
      <trkpt lat="47.66983" lon="6.16352">
        <ele>238</ele>
        <time>2020-10-18T14:24:25Z</time>
      </trkpt>
      <trkpt lat="47.66982" lon="6.16365">
        <ele>238</ele>
        <time>2020-10-18T14:24:26Z</time>
      </trkpt>
      <trkpt lat="47.6698" lon="6.16377">
        <ele>238</ele>
        <time>2020-10-18T14:24:27Z</time>
      </trkpt>
      <trkpt lat="47.66977" lon="6.16389">
        <ele>238</ele>
        <time>2020-10-18T14:24:28Z</time>
      </trkpt>
      <trkpt lat="47.66974" lon="6.164">
        <ele>237</ele>
        <time>2020-10-18T14:24:29Z</time>
      </trkpt>
      <trkpt lat="47.66972" lon="6.16411">
        <ele>237</ele>
        <time>2020-10-18T14:24:30Z</time>
      </trkpt>
      <trkpt lat="47.66969" lon="6.16421">
        <ele>235</ele>
        <time>2020-10-18T14:24:31Z</time>
      </trkpt>
      <trkpt lat="47.66967" lon="6.16429">
        <ele>235</ele>
        <time>2020-10-18T14:24:32Z</time>
      </trkpt>
      <trkpt lat="47.66965" lon="6.16437">
        <ele>235</ele>
        <time>2020-10-18T14:24:33Z</time>
      </trkpt>
      <trkpt lat="47.66962" lon="6.16448">
        <ele>235</ele>
        <time>2020-10-18T14:24:35Z</time>
      </trkpt>
      <trkpt lat="47.66958" lon="6.16453">
        <ele>235</ele>
        <time>2020-10-18T14:24:38Z</time>
      </trkpt>
      <trkpt lat="47.66958" lon="6.16462">
        <ele>234</ele>
        <time>2020-10-18T14:24:47Z</time>
      </trkpt>
      <trkpt lat="47.66957" lon="6.1647">
        <ele>234</ele>
        <time>2020-10-18T14:24:49Z</time>
      </trkpt>
      <trkpt lat="47.66957" lon="6.16482">
        <ele>234</ele>
        <time>2020-10-18T14:24:50Z</time>
      </trkpt>
      <trkpt lat="47.66957" lon="6.16491">
        <ele>234</ele>
        <time>2020-10-18T14:24:51Z</time>
      </trkpt>
      <trkpt lat="47.66957" lon="6.165">
        <ele>232</ele>
        <time>2020-10-18T14:24:52Z</time>
      </trkpt>
      <trkpt lat="47.66957" lon="6.1651">
        <ele>232</ele>
        <time>2020-10-18T14:24:53Z</time>
      </trkpt>
      <trkpt lat="47.66957" lon="6.16519">
        <ele>232</ele>
        <time>2020-10-18T14:24:54Z</time>
      </trkpt>
      <trkpt lat="47.66957" lon="6.16528">
        <ele>232</ele>
        <time>2020-10-18T14:24:55Z</time>
      </trkpt>
      <trkpt lat="47.66956" lon="6.16536">
        <ele>232</ele>
        <time>2020-10-18T14:24:56Z</time>
      </trkpt>
      <trkpt lat="47.66955" lon="6.16544">
        <ele>231</ele>
        <time>2020-10-18T14:24:57Z</time>
      </trkpt>
      <trkpt lat="47.66954" lon="6.16552">
        <ele>231</ele>
        <time>2020-10-18T14:24:58Z</time>
      </trkpt>
      <trkpt lat="47.66952" lon="6.16559">
        <ele>231</ele>
        <time>2020-10-18T14:24:59Z</time>
      </trkpt>
      <trkpt lat="47.66951" lon="6.16566">
        <ele>231</ele>
        <time>2020-10-18T14:25:00Z</time>
      </trkpt>
      <trkpt lat="47.66949" lon="6.16572">
        <ele>231</ele>
        <time>2020-10-18T14:25:01Z</time>
      </trkpt>
      <trkpt lat="47.66947" lon="6.16579">
        <ele>231</ele>
        <time>2020-10-18T14:25:02Z</time>
      </trkpt>
      <trkpt lat="47.66946" lon="6.16586">
        <ele>230</ele>
        <time>2020-10-18T14:25:03Z</time>
      </trkpt>
      <trkpt lat="47.66945" lon="6.16593">
        <ele>230</ele>
        <time>2020-10-18T14:25:04Z</time>
      </trkpt>
      <trkpt lat="47.66944" lon="6.166">
        <ele>230</ele>
        <time>2020-10-18T14:25:05Z</time>
      </trkpt>
      <trkpt lat="47.66943" lon="6.16606">
        <ele>230</ele>
        <time>2020-10-18T14:25:06Z</time>
      </trkpt>
      <trkpt lat="47.66942" lon="6.16613">
        <ele>230</ele>
        <time>2020-10-18T14:25:07Z</time>
      </trkpt>
      <trkpt lat="47.66941" lon="6.16626">
        <ele>231</ele>
        <time>2020-10-18T14:25:09Z</time>
      </trkpt>
      <trkpt lat="47.66939" lon="6.16638">
        <ele>231</ele>
        <time>2020-10-18T14:25:11Z</time>
      </trkpt>
      <trkpt lat="47.66936" lon="6.16651">
        <ele>231</ele>
        <time>2020-10-18T14:25:13Z</time>
      </trkpt>
      <trkpt lat="47.66935" lon="6.16658">
        <ele>231</ele>
        <time>2020-10-18T14:25:14Z</time>
      </trkpt>
      <trkpt lat="47.66931" lon="6.16667">
        <ele>232</ele>
        <time>2020-10-18T14:25:16Z</time>
      </trkpt>
      <trkpt lat="47.66929" lon="6.16675">
        <ele>232</ele>
        <time>2020-10-18T14:25:18Z</time>
      </trkpt>
      <trkpt lat="47.66929" lon="6.16684">
        <ele>231</ele>
        <time>2020-10-18T14:25:19Z</time>
      </trkpt>
      <trkpt lat="47.66929" lon="6.16692">
        <ele>231</ele>
        <time>2020-10-18T14:25:20Z</time>
      </trkpt>
      <trkpt lat="47.66929" lon="6.16704">
        <ele>231</ele>
        <time>2020-10-18T14:25:22Z</time>
      </trkpt>
      <trkpt lat="47.6693" lon="6.16712">
        <ele>231</ele>
        <time>2020-10-18T14:25:23Z</time>
      </trkpt>
      <trkpt lat="47.66931" lon="6.16719">
        <ele>232</ele>
        <time>2020-10-18T14:25:24Z</time>
      </trkpt>
      <trkpt lat="47.66932" lon="6.16728">
        <ele>232</ele>
        <time>2020-10-18T14:25:26Z</time>
      </trkpt>
      <trkpt lat="47.66934" lon="6.16735">
        <ele>232</ele>
        <time>2020-10-18T14:25:27Z</time>
      </trkpt>
      <trkpt lat="47.66936" lon="6.16744">
        <ele>232</ele>
        <time>2020-10-18T14:25:29Z</time>
      </trkpt>
      <trkpt lat="47.66938" lon="6.1675">
        <ele>232</ele>
        <time>2020-10-18T14:25:30Z</time>
      </trkpt>
      <trkpt lat="47.6694" lon="6.16756">
        <ele>232</ele>
        <time>2020-10-18T14:25:31Z</time>
      </trkpt>
      <trkpt lat="47.66943" lon="6.16762">
        <ele>232</ele>
        <time>2020-10-18T14:25:32Z</time>
      </trkpt>
      <trkpt lat="47.66946" lon="6.16771">
        <ele>232</ele>
        <time>2020-10-18T14:25:34Z</time>
      </trkpt>
      <trkpt lat="47.66952" lon="6.16779">
        <ele>232</ele>
        <time>2020-10-18T14:25:36Z</time>
      </trkpt>
      <trkpt lat="47.66955" lon="6.16784">
        <ele>232</ele>
        <time>2020-10-18T14:25:37Z</time>
      </trkpt>
      <trkpt lat="47.66961" lon="6.16791">
        <ele>232</ele>
        <time>2020-10-18T14:25:39Z</time>
      </trkpt>
      <trkpt lat="47.66966" lon="6.16796">
        <ele>232</ele>
        <time>2020-10-18T14:25:40Z</time>
      </trkpt>
      <trkpt lat="47.6697" lon="6.168">
        <ele>232</ele>
        <time>2020-10-18T14:25:41Z</time>
      </trkpt>
      <trkpt lat="47.66977" lon="6.16807">
        <ele>232</ele>
        <time>2020-10-18T14:25:43Z</time>
      </trkpt>
      <trkpt lat="47.66985" lon="6.16814">
        <ele>231</ele>
        <time>2020-10-18T14:25:45Z</time>
      </trkpt>
      <trkpt lat="47.66995" lon="6.16824">
        <ele>231</ele>
        <time>2020-10-18T14:25:47Z</time>
      </trkpt>
      <trkpt lat="47.67" lon="6.16828">
        <ele>231</ele>
        <time>2020-10-18T14:25:48Z</time>
      </trkpt>
      <trkpt lat="47.67004" lon="6.16832">
        <ele>231</ele>
        <time>2020-10-18T14:25:49Z</time>
      </trkpt>
      <trkpt lat="47.67009" lon="6.16837">
        <ele>230</ele>
        <time>2020-10-18T14:25:50Z</time>
      </trkpt>
      <trkpt lat="47.67014" lon="6.16841">
        <ele>230</ele>
        <time>2020-10-18T14:25:51Z</time>
      </trkpt>
      <trkpt lat="47.67018" lon="6.16845">
        <ele>230</ele>
        <time>2020-10-18T14:25:52Z</time>
      </trkpt>
      <trkpt lat="47.67022" lon="6.16849">
        <ele>230</ele>
        <time>2020-10-18T14:25:53Z</time>
      </trkpt>
      <trkpt lat="47.67026" lon="6.16853">
        <ele>229</ele>
        <time>2020-10-18T14:25:54Z</time>
      </trkpt>
      <trkpt lat="47.6703" lon="6.16857">
        <ele>229</ele>
        <time>2020-10-18T14:25:55Z</time>
      </trkpt>
      <trkpt lat="47.67034" lon="6.16861">
        <ele>229</ele>
        <time>2020-10-18T14:25:56Z</time>
      </trkpt>
      <trkpt lat="47.67038" lon="6.16865">
        <ele>229</ele>
        <time>2020-10-18T14:25:57Z</time>
      </trkpt>
      <trkpt lat="47.67042" lon="6.16869">
        <ele>229</ele>
        <time>2020-10-18T14:25:58Z</time>
      </trkpt>
      <trkpt lat="47.67046" lon="6.16874">
        <ele>229</ele>
        <time>2020-10-18T14:25:59Z</time>
      </trkpt>
      <trkpt lat="47.67051" lon="6.1688">
        <ele>229</ele>
        <time>2020-10-18T14:26:00Z</time>
      </trkpt>
      <trkpt lat="47.67055" lon="6.16886">
        <ele>229</ele>
        <time>2020-10-18T14:26:01Z</time>
      </trkpt>
      <trkpt lat="47.67059" lon="6.16892">
        <ele>228</ele>
        <time>2020-10-18T14:26:02Z</time>
      </trkpt>
      <trkpt lat="47.67064" lon="6.16899">
        <ele>228</ele>
        <time>2020-10-18T14:26:03Z</time>
      </trkpt>
      <trkpt lat="47.67068" lon="6.16907">
        <ele>228</ele>
        <time>2020-10-18T14:26:04Z</time>
      </trkpt>
      <trkpt lat="47.67071" lon="6.16915">
        <ele>227</ele>
        <time>2020-10-18T14:26:05Z</time>
      </trkpt>
      <trkpt lat="47.67074" lon="6.16924">
        <ele>227</ele>
        <time>2020-10-18T14:26:06Z</time>
      </trkpt>
      <trkpt lat="47.67076" lon="6.16933">
        <ele>227</ele>
        <time>2020-10-18T14:26:07Z</time>
      </trkpt>
      <trkpt lat="47.67077" lon="6.16942">
        <ele>227</ele>
        <time>2020-10-18T14:26:08Z</time>
      </trkpt>
      <trkpt lat="47.67076" lon="6.16951">
        <ele>227</ele>
        <time>2020-10-18T14:26:09Z</time>
      </trkpt>
      <trkpt lat="47.67075" lon="6.16959">
        <ele>227</ele>
        <time>2020-10-18T14:26:10Z</time>
      </trkpt>
      <trkpt lat="47.67074" lon="6.16967">
        <ele>227</ele>
        <time>2020-10-18T14:26:11Z</time>
      </trkpt>
      <trkpt lat="47.67072" lon="6.16975">
        <ele>227</ele>
        <time>2020-10-18T14:26:12Z</time>
      </trkpt>
      <trkpt lat="47.67071" lon="6.16983">
        <ele>227</ele>
        <time>2020-10-18T14:26:13Z</time>
      </trkpt>
      <trkpt lat="47.6707" lon="6.16991">
        <ele>227</ele>
        <time>2020-10-18T14:26:14Z</time>
      </trkpt>
      <trkpt lat="47.67069" lon="6.16999">
        <ele>227</ele>
        <time>2020-10-18T14:26:15Z</time>
      </trkpt>
      <trkpt lat="47.67068" lon="6.17006">
        <ele>226</ele>
        <time>2020-10-18T14:26:16Z</time>
      </trkpt>
      <trkpt lat="47.67066" lon="6.17014">
        <ele>226</ele>
        <time>2020-10-18T14:26:17Z</time>
      </trkpt>
      <trkpt lat="47.67065" lon="6.17021">
        <ele>226</ele>
        <time>2020-10-18T14:26:18Z</time>
      </trkpt>
      <trkpt lat="47.67063" lon="6.17028">
        <ele>226</ele>
        <time>2020-10-18T14:26:19Z</time>
      </trkpt>
      <trkpt lat="47.67062" lon="6.17035">
        <ele>226</ele>
        <time>2020-10-18T14:26:20Z</time>
      </trkpt>
      <trkpt lat="47.67061" lon="6.17043">
        <ele>226</ele>
        <time>2020-10-18T14:26:21Z</time>
      </trkpt>
      <trkpt lat="47.6706" lon="6.1705">
        <ele>226</ele>
        <time>2020-10-18T14:26:22Z</time>
      </trkpt>
      <trkpt lat="47.6706" lon="6.17057">
        <ele>226</ele>
        <time>2020-10-18T14:26:23Z</time>
      </trkpt>
      <trkpt lat="47.6706" lon="6.17064">
        <ele>226</ele>
        <time>2020-10-18T14:26:24Z</time>
      </trkpt>
      <trkpt lat="47.67061" lon="6.17071">
        <ele>226</ele>
        <time>2020-10-18T14:26:25Z</time>
      </trkpt>
      <trkpt lat="47.67061" lon="6.17078">
        <ele>226</ele>
        <time>2020-10-18T14:26:26Z</time>
      </trkpt>
      <trkpt lat="47.67061" lon="6.17085">
        <ele>226</ele>
        <time>2020-10-18T14:26:27Z</time>
      </trkpt>
      <trkpt lat="47.67061" lon="6.17093">
        <ele>226</ele>
        <time>2020-10-18T14:26:28Z</time>
      </trkpt>
      <trkpt lat="47.67061" lon="6.171">
        <ele>226</ele>
        <time>2020-10-18T14:26:29Z</time>
      </trkpt>
      <trkpt lat="47.6706" lon="6.17108">
        <ele>226</ele>
        <time>2020-10-18T14:26:30Z</time>
      </trkpt>
      <trkpt lat="47.6706" lon="6.17115">
        <ele>226</ele>
        <time>2020-10-18T14:26:31Z</time>
      </trkpt>
      <trkpt lat="47.67061" lon="6.17122">
        <ele>226</ele>
        <time>2020-10-18T14:26:32Z</time>
      </trkpt>
      <trkpt lat="47.67061" lon="6.17129">
        <ele>226</ele>
        <time>2020-10-18T14:26:33Z</time>
      </trkpt>
      <trkpt lat="47.67062" lon="6.17137">
        <ele>226</ele>
        <time>2020-10-18T14:26:34Z</time>
      </trkpt>
      <trkpt lat="47.67062" lon="6.17143">
        <ele>226</ele>
        <time>2020-10-18T14:26:35Z</time>
      </trkpt>
      <trkpt lat="47.67062" lon="6.1715">
        <ele>226</ele>
        <time>2020-10-18T14:26:36Z</time>
      </trkpt>
      <trkpt lat="47.67063" lon="6.17157">
        <ele>226</ele>
        <time>2020-10-18T14:26:37Z</time>
      </trkpt>
      <trkpt lat="47.67063" lon="6.17164">
        <ele>226</ele>
        <time>2020-10-18T14:26:38Z</time>
      </trkpt>
      <trkpt lat="47.67064" lon="6.17177">
        <ele>228</ele>
        <time>2020-10-18T14:26:40Z</time>
      </trkpt>
      <trkpt lat="47.67064" lon="6.17184">
        <ele>228</ele>
        <time>2020-10-18T14:26:41Z</time>
      </trkpt>
      <trkpt lat="47.67065" lon="6.17195">
        <ele>229</ele>
        <time>2020-10-18T14:26:43Z</time>
      </trkpt>
      <trkpt lat="47.67066" lon="6.17207">
        <ele>229</ele>
        <time>2020-10-18T14:26:45Z</time>
      </trkpt>
      <trkpt lat="47.67066" lon="6.17219">
        <ele>230</ele>
        <time>2020-10-18T14:26:47Z</time>
      </trkpt>
      <trkpt lat="47.67066" lon="6.17232">
        <ele>231</ele>
        <time>2020-10-18T14:26:49Z</time>
      </trkpt>
      <trkpt lat="47.67064" lon="6.17239">
        <ele>231</ele>
        <time>2020-10-18T14:26:52Z</time>
      </trkpt>
      <trkpt lat="47.67061" lon="6.17244">
        <ele>231</ele>
        <time>2020-10-18T14:26:53Z</time>
      </trkpt>
      <trkpt lat="47.67058" lon="6.1725">
        <ele>231</ele>
        <time>2020-10-18T14:26:54Z</time>
      </trkpt>
      <trkpt lat="47.67055" lon="6.17259">
        <ele>235</ele>
        <time>2020-10-18T14:26:56Z</time>
      </trkpt>
      <trkpt lat="47.67052" lon="6.17268">
        <ele>235</ele>
        <time>2020-10-18T14:26:58Z</time>
      </trkpt>
      <trkpt lat="47.67048" lon="6.17278">
        <ele>236</ele>
        <time>2020-10-18T14:27:00Z</time>
      </trkpt>
      <trkpt lat="47.67046" lon="6.17284">
        <ele>236</ele>
        <time>2020-10-18T14:27:02Z</time>
      </trkpt>
      <trkpt lat="47.67043" lon="6.17291">
        <ele>236</ele>
        <time>2020-10-18T14:27:03Z</time>
      </trkpt>
      <trkpt lat="47.6704" lon="6.17299">
        <ele>236</ele>
        <time>2020-10-18T14:27:05Z</time>
      </trkpt>
      <trkpt lat="47.67035" lon="6.1731">
        <ele>236</ele>
        <time>2020-10-18T14:27:07Z</time>
      </trkpt>
      <trkpt lat="47.67031" lon="6.17317">
        <ele>236</ele>
        <time>2020-10-18T14:27:09Z</time>
      </trkpt>
      <trkpt lat="47.67026" lon="6.17324">
        <ele>236</ele>
        <time>2020-10-18T14:27:11Z</time>
      </trkpt>
      <trkpt lat="47.67021" lon="6.17331">
        <ele>235</ele>
        <time>2020-10-18T14:27:13Z</time>
      </trkpt>
      <trkpt lat="47.67017" lon="6.17337">
        <ele>237</ele>
        <time>2020-10-18T14:27:14Z</time>
      </trkpt>
      <trkpt lat="47.67012" lon="6.17342">
        <ele>237</ele>
        <time>2020-10-18T14:27:15Z</time>
      </trkpt>
      <trkpt lat="47.67006" lon="6.17348">
        <ele>237</ele>
        <time>2020-10-18T14:27:17Z</time>
      </trkpt>
      <trkpt lat="47.67002" lon="6.17352">
        <ele>237</ele>
        <time>2020-10-18T14:27:18Z</time>
      </trkpt>
      <trkpt lat="47.66998" lon="6.17356">
        <ele>232</ele>
        <time>2020-10-18T14:27:19Z</time>
      </trkpt>
      <trkpt lat="47.66991" lon="6.1736">
        <ele>232</ele>
        <time>2020-10-18T14:27:21Z</time>
      </trkpt>
      <trkpt lat="47.66987" lon="6.17363">
        <ele>232</ele>
        <time>2020-10-18T14:27:22Z</time>
      </trkpt>
      <trkpt lat="47.66981" lon="6.17367">
        <ele>232</ele>
        <time>2020-10-18T14:27:24Z</time>
      </trkpt>
      <trkpt lat="47.66972" lon="6.17373">
        <ele>232</ele>
        <time>2020-10-18T14:27:26Z</time>
      </trkpt>
      <trkpt lat="47.66966" lon="6.17377">
        <ele>232</ele>
        <time>2020-10-18T14:27:28Z</time>
      </trkpt>
      <trkpt lat="47.66961" lon="6.17381">
        <ele>231</ele>
        <time>2020-10-18T14:27:29Z</time>
      </trkpt>
      <trkpt lat="47.66957" lon="6.17383">
        <ele>231</ele>
        <time>2020-10-18T14:27:30Z</time>
      </trkpt>
      <trkpt lat="47.6695" lon="6.17388">
        <ele>231</ele>
        <time>2020-10-18T14:27:32Z</time>
      </trkpt>
      <trkpt lat="47.66945" lon="6.17391">
        <ele>231</ele>
        <time>2020-10-18T14:27:33Z</time>
      </trkpt>
      <trkpt lat="47.66939" lon="6.17395">
        <ele>231</ele>
        <time>2020-10-18T14:27:35Z</time>
      </trkpt>
      <trkpt lat="47.66931" lon="6.174">
        <ele>230</ele>
        <time>2020-10-18T14:27:37Z</time>
      </trkpt>
      <trkpt lat="47.66926" lon="6.17403">
        <ele>230</ele>
        <time>2020-10-18T14:27:38Z</time>
      </trkpt>
      <trkpt lat="47.6692" lon="6.17408">
        <ele>230</ele>
        <time>2020-10-18T14:27:40Z</time>
      </trkpt>
      <trkpt lat="47.66912" lon="6.17413">
        <ele>229</ele>
        <time>2020-10-18T14:27:42Z</time>
      </trkpt>
      <trkpt lat="47.66905" lon="6.17418">
        <ele>229</ele>
        <time>2020-10-18T14:27:44Z</time>
      </trkpt>
      <trkpt lat="47.66899" lon="6.17422">
        <ele>229</ele>
        <time>2020-10-18T14:27:46Z</time>
      </trkpt>
      <trkpt lat="47.66891" lon="6.17427">
        <ele>229</ele>
        <time>2020-10-18T14:27:48Z</time>
      </trkpt>
      <trkpt lat="47.66884" lon="6.1743">
        <ele>229</ele>
        <time>2020-10-18T14:27:50Z</time>
      </trkpt>
      <trkpt lat="47.66876" lon="6.17431">
        <ele>229</ele>
        <time>2020-10-18T14:27:52Z</time>
      </trkpt>
      <trkpt lat="47.66872" lon="6.17432">
        <ele>229</ele>
        <time>2020-10-18T14:27:53Z</time>
      </trkpt>
      <trkpt lat="47.66864" lon="6.17432">
        <ele>229</ele>
        <time>2020-10-18T14:27:55Z</time>
      </trkpt>
      <trkpt lat="47.66858" lon="6.17432">
        <ele>228</ele>
        <time>2020-10-18T14:27:56Z</time>
      </trkpt>
      <trkpt lat="47.66854" lon="6.17432">
        <ele>228</ele>
        <time>2020-10-18T14:27:57Z</time>
      </trkpt>
      <trkpt lat="47.66846" lon="6.17432">
        <ele>228</ele>
        <time>2020-10-18T14:27:59Z</time>
      </trkpt>
      <trkpt lat="47.66841" lon="6.17432">
        <ele>228</ele>
        <time>2020-10-18T14:28:00Z</time>
      </trkpt>
      <trkpt lat="47.66835" lon="6.17431">
        <ele>228</ele>
        <time>2020-10-18T14:28:02Z</time>
      </trkpt>
      <trkpt lat="47.66828" lon="6.17431">
        <ele>228</ele>
        <time>2020-10-18T14:28:03Z</time>
      </trkpt>
      <trkpt lat="47.66823" lon="6.17431">
        <ele>228</ele>
        <time>2020-10-18T14:28:05Z</time>
      </trkpt>
      <trkpt lat="47.66815" lon="6.17431">
        <ele>228</ele>
        <time>2020-10-18T14:28:06Z</time>
      </trkpt>
      <trkpt lat="47.66806" lon="6.17431">
        <ele>228</ele>
        <time>2020-10-18T14:28:08Z</time>
      </trkpt>
      <trkpt lat="47.66799" lon="6.17431">
        <ele>228</ele>
        <time>2020-10-18T14:28:10Z</time>
      </trkpt>
      <trkpt lat="47.66795" lon="6.1743">
        <ele>228</ele>
        <time>2020-10-18T14:28:11Z</time>
      </trkpt>
      <trkpt lat="47.66786" lon="6.1743">
        <ele>228</ele>
        <time>2020-10-18T14:28:13Z</time>
      </trkpt>
      <trkpt lat="47.6678" lon="6.1743">
        <ele>228</ele>
        <time>2020-10-18T14:28:15Z</time>
      </trkpt>
      <trkpt lat="47.66774" lon="6.17431">
        <ele>228</ele>
        <time>2020-10-18T14:28:16Z</time>
      </trkpt>
      <trkpt lat="47.66769" lon="6.17432">
        <ele>228</ele>
        <time>2020-10-18T14:28:17Z</time>
      </trkpt>
      <trkpt lat="47.66761" lon="6.17434">
        <ele>228</ele>
        <time>2020-10-18T14:28:18Z</time>
      </trkpt>
      <trkpt lat="47.66756" lon="6.17435">
        <ele>228</ele>
        <time>2020-10-18T14:28:19Z</time>
      </trkpt>
      <trkpt lat="47.66752" lon="6.17436">
        <ele>228</ele>
        <time>2020-10-18T14:28:20Z</time>
      </trkpt>
      <trkpt lat="47.66747" lon="6.17437">
        <ele>228</ele>
        <time>2020-10-18T14:28:21Z</time>
      </trkpt>
      <trkpt lat="47.66742" lon="6.17438">
        <ele>228</ele>
        <time>2020-10-18T14:28:22Z</time>
      </trkpt>
      <trkpt lat="47.66738" lon="6.17434">
        <ele>228</ele>
        <time>2020-10-18T14:28:24Z</time>
      </trkpt>
      <trkpt lat="47.66732" lon="6.17438">
        <ele>228</ele>
        <time>2020-10-18T14:28:25Z</time>
      </trkpt>
      <trkpt lat="47.66725" lon="6.1744">
        <ele>228</ele>
        <time>2020-10-18T14:28:27Z</time>
      </trkpt>
      <trkpt lat="47.66719" lon="6.17442">
        <ele>228</ele>
        <time>2020-10-18T14:28:28Z</time>
      </trkpt>
      <trkpt lat="47.66712" lon="6.17443">
        <ele>228</ele>
        <time>2020-10-18T14:28:30Z</time>
      </trkpt>
      <trkpt lat="47.66705" lon="6.17445">
        <ele>228</ele>
        <time>2020-10-18T14:28:31Z</time>
      </trkpt>
      <trkpt lat="47.667" lon="6.17446">
        <ele>228</ele>
        <time>2020-10-18T14:28:32Z</time>
      </trkpt>
      <trkpt lat="47.66695" lon="6.17447">
        <ele>228</ele>
        <time>2020-10-18T14:28:33Z</time>
      </trkpt>
      <trkpt lat="47.6669" lon="6.17448">
        <ele>228</ele>
        <time>2020-10-18T14:28:34Z</time>
      </trkpt>
      <trkpt lat="47.66686" lon="6.17449">
        <ele>228</ele>
        <time>2020-10-18T14:28:35Z</time>
      </trkpt>
      <trkpt lat="47.66681" lon="6.1745">
        <ele>228</ele>
        <time>2020-10-18T14:28:36Z</time>
      </trkpt>
      <trkpt lat="47.66676" lon="6.17452">
        <ele>228</ele>
        <time>2020-10-18T14:28:37Z</time>
      </trkpt>
      <trkpt lat="47.66671" lon="6.17453">
        <ele>228</ele>
        <time>2020-10-18T14:28:38Z</time>
      </trkpt>
      <trkpt lat="47.66666" lon="6.17455">
        <ele>227</ele>
        <time>2020-10-18T14:28:39Z</time>
      </trkpt>
      <trkpt lat="47.66661" lon="6.17457">
        <ele>227</ele>
        <time>2020-10-18T14:28:40Z</time>
      </trkpt>
      <trkpt lat="47.66656" lon="6.17458">
        <ele>227</ele>
        <time>2020-10-18T14:28:41Z</time>
      </trkpt>
      <trkpt lat="47.66651" lon="6.1746">
        <ele>227</ele>
        <time>2020-10-18T14:28:42Z</time>
      </trkpt>
      <trkpt lat="47.66647" lon="6.17462">
        <ele>227</ele>
        <time>2020-10-18T14:28:43Z</time>
      </trkpt>
      <trkpt lat="47.66642" lon="6.17464">
        <ele>227</ele>
        <time>2020-10-18T14:28:44Z</time>
      </trkpt>
      <trkpt lat="47.66637" lon="6.17467">
        <ele>227</ele>
        <time>2020-10-18T14:28:45Z</time>
      </trkpt>
      <trkpt lat="47.66632" lon="6.1747">
        <ele>227</ele>
        <time>2020-10-18T14:28:46Z</time>
      </trkpt>
      <trkpt lat="47.66627" lon="6.17472">
        <ele>227</ele>
        <time>2020-10-18T14:28:47Z</time>
      </trkpt>
      <trkpt lat="47.66622" lon="6.17475">
        <ele>227</ele>
        <time>2020-10-18T14:28:48Z</time>
      </trkpt>
      <trkpt lat="47.66617" lon="6.17477">
        <ele>227</ele>
        <time>2020-10-18T14:28:49Z</time>
      </trkpt>
      <trkpt lat="47.66612" lon="6.1748">
        <ele>227</ele>
        <time>2020-10-18T14:28:50Z</time>
      </trkpt>
      <trkpt lat="47.66607" lon="6.17482">
        <ele>227</ele>
        <time>2020-10-18T14:28:51Z</time>
      </trkpt>
      <trkpt lat="47.66602" lon="6.17485">
        <ele>227</ele>
        <time>2020-10-18T14:28:52Z</time>
      </trkpt>
      <trkpt lat="47.66597" lon="6.17487">
        <ele>227</ele>
        <time>2020-10-18T14:28:53Z</time>
      </trkpt>
      <trkpt lat="47.66592" lon="6.17489">
        <ele>227</ele>
        <time>2020-10-18T14:28:54Z</time>
      </trkpt>
      <trkpt lat="47.66587" lon="6.1749">
        <ele>227</ele>
        <time>2020-10-18T14:28:55Z</time>
      </trkpt>
      <trkpt lat="47.66582" lon="6.17493">
        <ele>227</ele>
        <time>2020-10-18T14:28:56Z</time>
      </trkpt>
      <trkpt lat="47.66577" lon="6.17495">
        <ele>227</ele>
        <time>2020-10-18T14:28:57Z</time>
      </trkpt>
      <trkpt lat="47.66572" lon="6.17498">
        <ele>227</ele>
        <time>2020-10-18T14:28:58Z</time>
      </trkpt>
      <trkpt lat="47.66568" lon="6.175">
        <ele>227</ele>
        <time>2020-10-18T14:28:59Z</time>
      </trkpt>
      <trkpt lat="47.66563" lon="6.17503">
        <ele>227</ele>
        <time>2020-10-18T14:29:00Z</time>
      </trkpt>
      <trkpt lat="47.66558" lon="6.17506">
        <ele>227</ele>
        <time>2020-10-18T14:29:01Z</time>
      </trkpt>
      <trkpt lat="47.66554" lon="6.17508">
        <ele>227</ele>
        <time>2020-10-18T14:29:02Z</time>
      </trkpt>
      <trkpt lat="47.66549" lon="6.17511">
        <ele>227</ele>
        <time>2020-10-18T14:29:03Z</time>
      </trkpt>
      <trkpt lat="47.66544" lon="6.17514">
        <ele>227</ele>
        <time>2020-10-18T14:29:04Z</time>
      </trkpt>
      <trkpt lat="47.6654" lon="6.17517">
        <ele>227</ele>
        <time>2020-10-18T14:29:05Z</time>
      </trkpt>
      <trkpt lat="47.66536" lon="6.1752">
        <ele>227</ele>
        <time>2020-10-18T14:29:06Z</time>
      </trkpt>
      <trkpt lat="47.66531" lon="6.17524">
        <ele>227</ele>
        <time>2020-10-18T14:29:07Z</time>
      </trkpt>
      <trkpt lat="47.66527" lon="6.17527">
        <ele>227</ele>
        <time>2020-10-18T14:29:08Z</time>
      </trkpt>
      <trkpt lat="47.66522" lon="6.1753">
        <ele>227</ele>
        <time>2020-10-18T14:29:09Z</time>
      </trkpt>
      <trkpt lat="47.66518" lon="6.17534">
        <ele>227</ele>
        <time>2020-10-18T14:29:10Z</time>
      </trkpt>
      <trkpt lat="47.66513" lon="6.17537">
        <ele>227</ele>
        <time>2020-10-18T14:29:11Z</time>
      </trkpt>
      <trkpt lat="47.66509" lon="6.1754">
        <ele>227</ele>
        <time>2020-10-18T14:29:12Z</time>
      </trkpt>
      <trkpt lat="47.66504" lon="6.17544">
        <ele>227</ele>
        <time>2020-10-18T14:29:13Z</time>
      </trkpt>
      <trkpt lat="47.665" lon="6.17547">
        <ele>226</ele>
        <time>2020-10-18T14:29:14Z</time>
      </trkpt>
      <trkpt lat="47.66495" lon="6.1755">
        <ele>226</ele>
        <time>2020-10-18T14:29:15Z</time>
      </trkpt>
      <trkpt lat="47.66491" lon="6.17554">
        <ele>226</ele>
        <time>2020-10-18T14:29:16Z</time>
      </trkpt>
      <trkpt lat="47.66486" lon="6.17557">
        <ele>226</ele>
        <time>2020-10-18T14:29:17Z</time>
      </trkpt>
      <trkpt lat="47.66481" lon="6.17561">
        <ele>226</ele>
        <time>2020-10-18T14:29:18Z</time>
      </trkpt>
      <trkpt lat="47.66477" lon="6.17564">
        <ele>226</ele>
        <time>2020-10-18T14:29:19Z</time>
      </trkpt>
      <trkpt lat="47.66472" lon="6.17567">
        <ele>226</ele>
        <time>2020-10-18T14:29:20Z</time>
      </trkpt>
      <trkpt lat="47.66468" lon="6.1757">
        <ele>226</ele>
        <time>2020-10-18T14:29:21Z</time>
      </trkpt>
      <trkpt lat="47.66463" lon="6.17573">
        <ele>226</ele>
        <time>2020-10-18T14:29:22Z</time>
      </trkpt>
      <trkpt lat="47.66459" lon="6.17576">
        <ele>226</ele>
        <time>2020-10-18T14:29:23Z</time>
      </trkpt>
      <trkpt lat="47.66455" lon="6.17579">
        <ele>226</ele>
        <time>2020-10-18T14:29:24Z</time>
      </trkpt>
      <trkpt lat="47.6645" lon="6.17582">
        <ele>226</ele>
        <time>2020-10-18T14:29:25Z</time>
      </trkpt>
      <trkpt lat="47.66446" lon="6.17585">
        <ele>227</ele>
        <time>2020-10-18T14:29:26Z</time>
      </trkpt>
      <trkpt lat="47.66441" lon="6.17588">
        <ele>227</ele>
        <time>2020-10-18T14:29:27Z</time>
      </trkpt>
      <trkpt lat="47.66437" lon="6.17591">
        <ele>227</ele>
        <time>2020-10-18T14:29:28Z</time>
      </trkpt>
      <trkpt lat="47.66433" lon="6.17593">
        <ele>227</ele>
        <time>2020-10-18T14:29:29Z</time>
      </trkpt>
      <trkpt lat="47.66429" lon="6.17596">
        <ele>227</ele>
        <time>2020-10-18T14:29:30Z</time>
      </trkpt>
      <trkpt lat="47.66425" lon="6.17599">
        <ele>227</ele>
        <time>2020-10-18T14:29:31Z</time>
      </trkpt>
      <trkpt lat="47.66417" lon="6.17606">
        <ele>227</ele>
        <time>2020-10-18T14:29:33Z</time>
      </trkpt>
      <trkpt lat="47.66411" lon="6.17612">
        <ele>226</ele>
        <time>2020-10-18T14:29:35Z</time>
      </trkpt>
      <trkpt lat="47.66405" lon="6.1762">
        <ele>226</ele>
        <time>2020-10-18T14:29:37Z</time>
      </trkpt>
      <trkpt lat="47.66401" lon="6.17625">
        <ele>226</ele>
        <time>2020-10-18T14:29:38Z</time>
      </trkpt>
      <trkpt lat="47.66398" lon="6.1763">
        <ele>226</ele>
        <time>2020-10-18T14:29:39Z</time>
      </trkpt>
      <trkpt lat="47.6639" lon="6.1764">
        <ele>226</ele>
        <time>2020-10-18T14:29:41Z</time>
      </trkpt>
      <trkpt lat="47.66386" lon="6.17643">
        <ele>226</ele>
        <time>2020-10-18T14:29:43Z</time>
      </trkpt>
      <trkpt lat="47.66381" lon="6.17655">
        <ele>226</ele>
        <time>2020-10-18T14:29:45Z</time>
      </trkpt>
      <trkpt lat="47.66378" lon="6.17662">
        <ele>226</ele>
        <time>2020-10-18T14:29:47Z</time>
      </trkpt>
      <trkpt lat="47.66375" lon="6.17668">
        <ele>226</ele>
        <time>2020-10-18T14:29:48Z</time>
      </trkpt>
      <trkpt lat="47.66369" lon="6.17679">
        <ele>226</ele>
        <time>2020-10-18T14:29:50Z</time>
      </trkpt>
      <trkpt lat="47.66366" lon="6.17684">
        <ele>226</ele>
        <time>2020-10-18T14:29:51Z</time>
      </trkpt>
      <trkpt lat="47.66363" lon="6.17692">
        <ele>226</ele>
        <time>2020-10-18T14:29:53Z</time>
      </trkpt>
      <trkpt lat="47.6636" lon="6.17699">
        <ele>226</ele>
        <time>2020-10-18T14:29:54Z</time>
      </trkpt>
      <trkpt lat="47.66358" lon="6.17707">
        <ele>226</ele>
        <time>2020-10-18T14:29:56Z</time>
      </trkpt>
      <trkpt lat="47.66355" lon="6.17716">
        <ele>226</ele>
        <time>2020-10-18T14:29:57Z</time>
      </trkpt>
      <trkpt lat="47.66352" lon="6.17726">
        <ele>226</ele>
        <time>2020-10-18T14:29:59Z</time>
      </trkpt>
      <trkpt lat="47.6635" lon="6.17735">
        <ele>226</ele>
        <time>2020-10-18T14:30:00Z</time>
      </trkpt>
      <trkpt lat="47.66347" lon="6.17745">
        <ele>225</ele>
        <time>2020-10-18T14:30:02Z</time>
      </trkpt>
      <trkpt lat="47.66345" lon="6.17752">
        <ele>226</ele>
        <time>2020-10-18T14:30:03Z</time>
      </trkpt>
      <trkpt lat="47.66344" lon="6.17763">
        <ele>226</ele>
        <time>2020-10-18T14:30:05Z</time>
      </trkpt>
      <trkpt lat="47.66343" lon="6.17769">
        <ele>227</ele>
        <time>2020-10-18T14:30:06Z</time>
      </trkpt>
      <trkpt lat="47.66342" lon="6.17778">
        <ele>227</ele>
        <time>2020-10-18T14:30:07Z</time>
      </trkpt>
      <trkpt lat="47.6634" lon="6.1779">
        <ele>227</ele>
        <time>2020-10-18T14:30:09Z</time>
      </trkpt>
      <trkpt lat="47.66339" lon="6.17796">
        <ele>227</ele>
        <time>2020-10-18T14:30:10Z</time>
      </trkpt>
      <trkpt lat="47.66338" lon="6.17804">
        <ele>227</ele>
        <time>2020-10-18T14:30:12Z</time>
      </trkpt>
      <trkpt lat="47.66337" lon="6.17814">
        <ele>227</ele>
        <time>2020-10-18T14:30:13Z</time>
      </trkpt>
      <trkpt lat="47.66336" lon="6.17823">
        <ele>227</ele>
        <time>2020-10-18T14:30:14Z</time>
      </trkpt>
      <trkpt lat="47.66335" lon="6.17834">
        <ele>227</ele>
        <time>2020-10-18T14:30:16Z</time>
      </trkpt>
      <trkpt lat="47.66334" lon="6.17848">
        <ele>228</ele>
        <time>2020-10-18T14:30:18Z</time>
      </trkpt>
      <trkpt lat="47.66334" lon="6.17861">
        <ele>228</ele>
        <time>2020-10-18T14:30:20Z</time>
      </trkpt>
      <trkpt lat="47.66333" lon="6.1787">
        <ele>229</ele>
        <time>2020-10-18T14:30:22Z</time>
      </trkpt>
      <trkpt lat="47.66333" lon="6.17878">
        <ele>227</ele>
        <time>2020-10-18T14:30:23Z</time>
      </trkpt>
      <trkpt lat="47.66332" lon="6.17889">
        <ele>227</ele>
        <time>2020-10-18T14:30:25Z</time>
      </trkpt>
      <trkpt lat="47.66332" lon="6.17896">
        <ele>227</ele>
        <time>2020-10-18T14:30:26Z</time>
      </trkpt>
      <trkpt lat="47.66331" lon="6.17904">
        <ele>227</ele>
        <time>2020-10-18T14:30:28Z</time>
      </trkpt>
      <trkpt lat="47.66331" lon="6.17913">
        <ele>227</ele>
        <time>2020-10-18T14:30:29Z</time>
      </trkpt>
      <trkpt lat="47.6633" lon="6.17924">
        <ele>227</ele>
        <time>2020-10-18T14:30:31Z</time>
      </trkpt>
      <trkpt lat="47.6633" lon="6.17931">
        <ele>227</ele>
        <time>2020-10-18T14:30:32Z</time>
      </trkpt>
      <trkpt lat="47.66329" lon="6.1794">
        <ele>227</ele>
        <time>2020-10-18T14:30:34Z</time>
      </trkpt>
      <trkpt lat="47.66328" lon="6.17949">
        <ele>227</ele>
        <time>2020-10-18T14:30:36Z</time>
      </trkpt>
      <trkpt lat="47.66328" lon="6.17958">
        <ele>227</ele>
        <time>2020-10-18T14:30:37Z</time>
      </trkpt>
      <trkpt lat="47.66328" lon="6.17964">
        <ele>227</ele>
        <time>2020-10-18T14:30:38Z</time>
      </trkpt>
      <trkpt lat="47.66326" lon="6.17973">
        <ele>227</ele>
        <time>2020-10-18T14:30:40Z</time>
      </trkpt>
      <trkpt lat="47.6632" lon="6.17979">
        <ele>228</ele>
        <time>2020-10-18T14:30:42Z</time>
      </trkpt>
      <trkpt lat="47.66314" lon="6.1798">
        <ele>228</ele>
        <time>2020-10-18T14:30:44Z</time>
      </trkpt>
      <trkpt lat="47.66308" lon="6.1798">
        <ele>228</ele>
        <time>2020-10-18T14:30:46Z</time>
      </trkpt>
      <trkpt lat="47.663" lon="6.17979">
        <ele>228</ele>
        <time>2020-10-18T14:30:48Z</time>
      </trkpt>
      <trkpt lat="47.66292" lon="6.17977">
        <ele>228</ele>
        <time>2020-10-18T14:30:50Z</time>
      </trkpt>
      <trkpt lat="47.66287" lon="6.17975">
        <ele>228</ele>
        <time>2020-10-18T14:30:52Z</time>
      </trkpt>
      <trkpt lat="47.6628" lon="6.17975">
        <ele>228</ele>
        <time>2020-10-18T14:30:54Z</time>
      </trkpt>
      <trkpt lat="47.66273" lon="6.17973">
        <ele>228</ele>
        <time>2020-10-18T14:30:56Z</time>
      </trkpt>
      <trkpt lat="47.66268" lon="6.17972">
        <ele>228</ele>
        <time>2020-10-18T14:30:58Z</time>
      </trkpt>
      <trkpt lat="47.66262" lon="6.17972">
        <ele>228</ele>
        <time>2020-10-18T14:31:01Z</time>
      </trkpt>
      <trkpt lat="47.66257" lon="6.17972">
        <ele>228</ele>
        <time>2020-10-18T14:31:02Z</time>
      </trkpt>
      <trkpt lat="47.66252" lon="6.17972">
        <ele>228</ele>
        <time>2020-10-18T14:31:04Z</time>
      </trkpt>
      <trkpt lat="47.66246" lon="6.1797">
        <ele>229</ele>
        <time>2020-10-18T14:31:06Z</time>
      </trkpt>
      <trkpt lat="47.66238" lon="6.17969">
        <ele>229</ele>
        <time>2020-10-18T14:31:08Z</time>
      </trkpt>
      <trkpt lat="47.66234" lon="6.17968">
        <ele>229</ele>
        <time>2020-10-18T14:31:10Z</time>
      </trkpt>
      <trkpt lat="47.66229" lon="6.17967">
        <ele>229</ele>
        <time>2020-10-18T14:31:11Z</time>
      </trkpt>
      <trkpt lat="47.66221" lon="6.17967">
        <ele>230</ele>
        <time>2020-10-18T14:31:13Z</time>
      </trkpt>
      <trkpt lat="47.66216" lon="6.17965">
        <ele>230</ele>
        <time>2020-10-18T14:31:15Z</time>
      </trkpt>
      <trkpt lat="47.66209" lon="6.17961">
        <ele>230</ele>
        <time>2020-10-18T14:31:17Z</time>
      </trkpt>
      <trkpt lat="47.66203" lon="6.1796">
        <ele>230</ele>
        <time>2020-10-18T14:31:19Z</time>
      </trkpt>
      <trkpt lat="47.66196" lon="6.17959">
        <ele>230</ele>
        <time>2020-10-18T14:31:21Z</time>
      </trkpt>
      <trkpt lat="47.66192" lon="6.17958">
        <ele>230</ele>
        <time>2020-10-18T14:31:22Z</time>
      </trkpt>
      <trkpt lat="47.66185" lon="6.17956">
        <ele>230</ele>
        <time>2020-10-18T14:31:24Z</time>
      </trkpt>
      <trkpt lat="47.66179" lon="6.17955">
        <ele>230</ele>
        <time>2020-10-18T14:31:26Z</time>
      </trkpt>
      <trkpt lat="47.66174" lon="6.17954">
        <ele>230</ele>
        <time>2020-10-18T14:31:26Z</time>
      </trkpt>
      <trkpt lat="47.66167" lon="6.17955">
        <ele>230</ele>
        <time>2020-10-18T14:31:29Z</time>
      </trkpt>
      <trkpt lat="47.6616" lon="6.17954">
        <ele>231</ele>
        <time>2020-10-18T14:31:30Z</time>
      </trkpt>
      <trkpt lat="47.66154" lon="6.17953">
        <ele>231</ele>
        <time>2020-10-18T14:31:33Z</time>
      </trkpt>
      <trkpt lat="47.6615" lon="6.17952">
        <ele>231</ele>
        <time>2020-10-18T14:31:34Z</time>
      </trkpt>
      <trkpt lat="47.66144" lon="6.17952">
        <ele>231</ele>
        <time>2020-10-18T14:31:36Z</time>
      </trkpt>
      <trkpt lat="47.66139" lon="6.17953">
        <ele>231</ele>
        <time>2020-10-18T14:31:37Z</time>
      </trkpt>
      <trkpt lat="47.66132" lon="6.17953">
        <ele>231</ele>
        <time>2020-10-18T14:31:39Z</time>
      </trkpt>
      <trkpt lat="47.66125" lon="6.17953">
        <ele>231</ele>
        <time>2020-10-18T14:31:41Z</time>
      </trkpt>
      <trkpt lat="47.66119" lon="6.17953">
        <ele>231</ele>
        <time>2020-10-18T14:31:42Z</time>
      </trkpt>
      <trkpt lat="47.66112" lon="6.17953">
        <ele>231</ele>
        <time>2020-10-18T14:31:44Z</time>
      </trkpt>
      <trkpt lat="47.66107" lon="6.17953">
        <ele>231</ele>
        <time>2020-10-18T14:31:45Z</time>
      </trkpt>
      <trkpt lat="47.66099" lon="6.17954">
        <ele>231</ele>
        <time>2020-10-18T14:31:47Z</time>
      </trkpt>
      <trkpt lat="47.66094" lon="6.17954">
        <ele>231</ele>
        <time>2020-10-18T14:31:48Z</time>
      </trkpt>
      <trkpt lat="47.66088" lon="6.17953">
        <ele>231</ele>
        <time>2020-10-18T14:31:49Z</time>
      </trkpt>
      <trkpt lat="47.6608" lon="6.17953">
        <ele>231</ele>
        <time>2020-10-18T14:31:51Z</time>
      </trkpt>
      <trkpt lat="47.66075" lon="6.17953">
        <ele>231</ele>
        <time>2020-10-18T14:31:52Z</time>
      </trkpt>
      <trkpt lat="47.66069" lon="6.17952">
        <ele>231</ele>
        <time>2020-10-18T14:31:52Z</time>
      </trkpt>
      <trkpt lat="47.6606" lon="6.17952">
        <ele>231</ele>
        <time>2020-10-18T14:31:55Z</time>
      </trkpt>
      <trkpt lat="47.66051" lon="6.17952">
        <ele>231</ele>
        <time>2020-10-18T14:31:55Z</time>
      </trkpt>
      <trkpt lat="47.66045" lon="6.17952">
        <ele>231</ele>
        <time>2020-10-18T14:31:56Z</time>
      </trkpt>
      <trkpt lat="47.6604" lon="6.17952">
        <ele>231</ele>
        <time>2020-10-18T14:31:57Z</time>
      </trkpt>
      <trkpt lat="47.66035" lon="6.17951">
        <ele>231</ele>
        <time>2020-10-18T14:31:58Z</time>
      </trkpt>
      <trkpt lat="47.6603" lon="6.17951">
        <ele>231</ele>
        <time>2020-10-18T14:31:59Z</time>
      </trkpt>
      <trkpt lat="47.66025" lon="6.1795">
        <ele>231</ele>
        <time>2020-10-18T14:32:00Z</time>
      </trkpt>
      <trkpt lat="47.66021" lon="6.1795">
        <ele>231</ele>
        <time>2020-10-18T14:32:01Z</time>
      </trkpt>
      <trkpt lat="47.66016" lon="6.17949">
        <ele>231</ele>
        <time>2020-10-18T14:32:02Z</time>
      </trkpt>
      <trkpt lat="47.66007" lon="6.17949">
        <ele>231</ele>
        <time>2020-10-18T14:32:04Z</time>
      </trkpt>
      <trkpt lat="47.65999" lon="6.17949">
        <ele>231</ele>
        <time>2020-10-18T14:32:06Z</time>
      </trkpt>
      <trkpt lat="47.65993" lon="6.1795">
        <ele>231</ele>
        <time>2020-10-18T14:32:10Z</time>
      </trkpt>
      <trkpt lat="47.65985" lon="6.17948">
        <ele>231</ele>
        <time>2020-10-18T14:32:12Z</time>
      </trkpt>
      <trkpt lat="47.6598" lon="6.17948">
        <ele>232</ele>
        <time>2020-10-18T14:32:13Z</time>
      </trkpt>
      <trkpt lat="47.65975" lon="6.17949">
        <ele>232</ele>
        <time>2020-10-18T14:32:15Z</time>
      </trkpt>
      <trkpt lat="47.65969" lon="6.17948">
        <ele>232</ele>
        <time>2020-10-18T14:32:17Z</time>
      </trkpt>
      <trkpt lat="47.65962" lon="6.17948">
        <ele>232</ele>
        <time>2020-10-18T14:32:19Z</time>
      </trkpt>
      <trkpt lat="47.65956" lon="6.17947">
        <ele>232</ele>
        <time>2020-10-18T14:32:21Z</time>
      </trkpt>
      <trkpt lat="47.6595" lon="6.17946">
        <ele>232</ele>
        <time>2020-10-18T14:32:23Z</time>
      </trkpt>
      <trkpt lat="47.65944" lon="6.17947">
        <ele>232</ele>
        <time>2020-10-18T14:32:24Z</time>
      </trkpt>
      <trkpt lat="47.65938" lon="6.17948">
        <ele>232</ele>
        <time>2020-10-18T14:32:27Z</time>
      </trkpt>
      <trkpt lat="47.65933" lon="6.17948">
        <ele>232</ele>
        <time>2020-10-18T14:32:28Z</time>
      </trkpt>
      <trkpt lat="47.65927" lon="6.17949">
        <ele>232</ele>
        <time>2020-10-18T14:32:31Z</time>
      </trkpt>
      <trkpt lat="47.65922" lon="6.17948">
        <ele>232</ele>
        <time>2020-10-18T14:32:33Z</time>
      </trkpt>
      <trkpt lat="47.65916" lon="6.17949">
        <ele>232</ele>
        <time>2020-10-18T14:32:35Z</time>
      </trkpt>
      <trkpt lat="47.65909" lon="6.1795">
        <ele>233</ele>
        <time>2020-10-18T14:32:38Z</time>
      </trkpt>
      <trkpt lat="47.65903" lon="6.1795">
        <ele>233</ele>
        <time>2020-10-18T14:32:39Z</time>
      </trkpt>
      <trkpt lat="47.65898" lon="6.17951">
        <ele>233</ele>
        <time>2020-10-18T14:32:43Z</time>
      </trkpt>
      <trkpt lat="47.65892" lon="6.17953">
        <ele>233</ele>
        <time>2020-10-18T14:32:45Z</time>
      </trkpt>
      <trkpt lat="47.65887" lon="6.17954">
        <ele>233</ele>
        <time>2020-10-18T14:32:47Z</time>
      </trkpt>
      <trkpt lat="47.65882" lon="6.17955">
        <ele>233</ele>
        <time>2020-10-18T14:32:49Z</time>
      </trkpt>
      <trkpt lat="47.65876" lon="6.17956">
        <ele>233</ele>
        <time>2020-10-18T14:32:51Z</time>
      </trkpt>
      <trkpt lat="47.65868" lon="6.17959">
        <ele>234</ele>
        <time>2020-10-18T14:32:53Z</time>
      </trkpt>
      <trkpt lat="47.65862" lon="6.17961">
        <ele>234</ele>
        <time>2020-10-18T14:32:55Z</time>
      </trkpt>
      <trkpt lat="47.65856" lon="6.17964">
        <ele>234</ele>
        <time>2020-10-18T14:32:57Z</time>
      </trkpt>
      <trkpt lat="47.65849" lon="6.17967">
        <ele>234</ele>
        <time>2020-10-18T14:32:59Z</time>
      </trkpt>
      <trkpt lat="47.65845" lon="6.1797">
        <ele>235</ele>
        <time>2020-10-18T14:33:01Z</time>
      </trkpt>
      <trkpt lat="47.65841" lon="6.17975">
        <ele>235</ele>
        <time>2020-10-18T14:33:02Z</time>
      </trkpt>
      <trkpt lat="47.65835" lon="6.1798">
        <ele>236</ele>
        <time>2020-10-18T14:33:06Z</time>
      </trkpt>
      <trkpt lat="47.6583" lon="6.17982">
        <ele>235</ele>
        <time>2020-10-18T14:33:07Z</time>
      </trkpt>
      <trkpt lat="47.65823" lon="6.17987">
        <ele>235</ele>
        <time>2020-10-18T14:33:10Z</time>
      </trkpt>
      <trkpt lat="47.65819" lon="6.17991">
        <ele>235</ele>
        <time>2020-10-18T14:33:12Z</time>
      </trkpt>
      <trkpt lat="47.65814" lon="6.17995">
        <ele>235</ele>
        <time>2020-10-18T14:33:16Z</time>
      </trkpt>
      <trkpt lat="47.65809" lon="6.17997">
        <ele>234</ele>
        <time>2020-10-18T14:33:16Z</time>
      </trkpt>
      <trkpt lat="47.65803" lon="6.18001">
        <ele>239</ele>
        <time>2020-10-18T14:33:19Z</time>
      </trkpt>
      <trkpt lat="47.65798" lon="6.18006">
        <ele>239</ele>
        <time>2020-10-18T14:33:22Z</time>
      </trkpt>
      <trkpt lat="47.65792" lon="6.18012">
        <ele>239</ele>
        <time>2020-10-18T14:33:25Z</time>
      </trkpt>
      <trkpt lat="47.65786" lon="6.18018">
        <ele>239</ele>
        <time>2020-10-18T14:33:29Z</time>
      </trkpt>
      <trkpt lat="47.65781" lon="6.18021">
        <ele>239</ele>
        <time>2020-10-18T14:33:30Z</time>
      </trkpt>
      <trkpt lat="47.65776" lon="6.18027">
        <ele>239</ele>
        <time>2020-10-18T14:33:34Z</time>
      </trkpt>
      <trkpt lat="47.6577" lon="6.1803">
        <ele>239</ele>
        <time>2020-10-18T14:33:36Z</time>
      </trkpt>
      <trkpt lat="47.65765" lon="6.18033">
        <ele>239</ele>
        <time>2020-10-18T14:33:36Z</time>
      </trkpt>
      <trkpt lat="47.65757" lon="6.18038">
        <ele>239</ele>
        <time>2020-10-18T14:33:39Z</time>
      </trkpt>
      <trkpt lat="47.65751" lon="6.18041">
        <ele>239</ele>
        <time>2020-10-18T14:33:40Z</time>
      </trkpt>
      <trkpt lat="47.65742" lon="6.18047">
        <ele>234</ele>
        <time>2020-10-18T14:33:42Z</time>
      </trkpt>
      <trkpt lat="47.65732" lon="6.18053">
        <ele>234</ele>
        <time>2020-10-18T14:33:42Z</time>
      </trkpt>
      <trkpt lat="47.65725" lon="6.18058">
        <ele>233</ele>
        <time>2020-10-18T14:33:43Z</time>
      </trkpt>
      <trkpt lat="47.65717" lon="6.18065">
        <ele>233</ele>
        <time>2020-10-18T14:33:44Z</time>
      </trkpt>
      <trkpt lat="47.6571" lon="6.18071">
        <ele>233</ele>
        <time>2020-10-18T14:33:45Z</time>
      </trkpt>
      <trkpt lat="47.65704" lon="6.18079">
        <ele>232</ele>
        <time>2020-10-18T14:33:46Z</time>
      </trkpt>
      <trkpt lat="47.657" lon="6.18087">
        <ele>237</ele>
        <time>2020-10-18T14:33:47Z</time>
      </trkpt>
      <trkpt lat="47.65695" lon="6.18096">
        <ele>236</ele>
        <time>2020-10-18T14:33:48Z</time>
      </trkpt>
      <trkpt lat="47.65691" lon="6.18105">
        <ele>237</ele>
        <time>2020-10-18T14:33:49Z</time>
      </trkpt>
      <trkpt lat="47.65687" lon="6.18114">
        <ele>237</ele>
        <time>2020-10-18T14:33:50Z</time>
      </trkpt>
      <trkpt lat="47.65683" lon="6.18122">
        <ele>237</ele>
        <time>2020-10-18T14:33:51Z</time>
      </trkpt>
      <trkpt lat="47.65679" lon="6.1813">
        <ele>238</ele>
        <time>2020-10-18T14:33:52Z</time>
      </trkpt>
      <trkpt lat="47.65675" lon="6.18137">
        <ele>238</ele>
        <time>2020-10-18T14:33:53Z</time>
      </trkpt>
      <trkpt lat="47.65671" lon="6.18143">
        <ele>238</ele>
        <time>2020-10-18T14:33:54Z</time>
      </trkpt>
      <trkpt lat="47.65667" lon="6.18147">
        <ele>238</ele>
        <time>2020-10-18T14:33:55Z</time>
      </trkpt>
      <trkpt lat="47.6566" lon="6.18154">
        <ele>234</ele>
        <time>2020-10-18T14:33:57Z</time>
      </trkpt>
      <trkpt lat="47.65655" lon="6.18158">
        <ele>234</ele>
        <time>2020-10-18T14:33:58Z</time>
      </trkpt>
      <trkpt lat="47.65651" lon="6.18161">
        <ele>233</ele>
        <time>2020-10-18T14:33:59Z</time>
      </trkpt>
      <trkpt lat="47.65646" lon="6.18164">
        <ele>233</ele>
        <time>2020-10-18T14:34:00Z</time>
      </trkpt>
      <trkpt lat="47.65641" lon="6.18166">
        <ele>232</ele>
        <time>2020-10-18T14:34:01Z</time>
      </trkpt>
      <trkpt lat="47.65635" lon="6.18167">
        <ele>237</ele>
        <time>2020-10-18T14:34:02Z</time>
      </trkpt>
      <trkpt lat="47.65628" lon="6.18167">
        <ele>237</ele>
        <time>2020-10-18T14:34:03Z</time>
      </trkpt>
      <trkpt lat="47.6562" lon="6.18167">
        <ele>236</ele>
        <time>2020-10-18T14:34:04Z</time>
      </trkpt>
      <trkpt lat="47.65613" lon="6.18168">
        <ele>236</ele>
        <time>2020-10-18T14:34:05Z</time>
      </trkpt>
      <trkpt lat="47.65607" lon="6.18171">
        <ele>235</ele>
        <time>2020-10-18T14:34:06Z</time>
      </trkpt>
      <trkpt lat="47.65601" lon="6.18176">
        <ele>234</ele>
        <time>2020-10-18T14:34:07Z</time>
      </trkpt>
      <trkpt lat="47.65597" lon="6.18182">
        <ele>234</ele>
        <time>2020-10-18T14:34:08Z</time>
      </trkpt>
      <trkpt lat="47.65593" lon="6.18187">
        <ele>235</ele>
        <time>2020-10-18T14:34:09Z</time>
      </trkpt>
      <trkpt lat="47.65587" lon="6.18194">
        <ele>236</ele>
        <time>2020-10-18T14:34:11Z</time>
      </trkpt>
      <trkpt lat="47.65582" lon="6.18202">
        <ele>232</ele>
        <time>2020-10-18T14:34:13Z</time>
      </trkpt>
      <trkpt lat="47.65577" lon="6.18209">
        <ele>233</ele>
        <time>2020-10-18T14:34:15Z</time>
      </trkpt>
      <trkpt lat="47.65572" lon="6.18216">
        <ele>233</ele>
        <time>2020-10-18T14:34:17Z</time>
      </trkpt>
      <trkpt lat="47.65568" lon="6.18211">
        <ele>233</ele>
        <time>2020-10-18T14:34:20Z</time>
      </trkpt>
      <trkpt lat="47.65562" lon="6.1822">
        <ele>233</ele>
        <time>2020-10-18T14:34:22Z</time>
      </trkpt>
      <trkpt lat="47.65559" lon="6.18225">
        <ele>234</ele>
        <time>2020-10-18T14:34:23Z</time>
      </trkpt>
      <trkpt lat="47.65553" lon="6.18232">
        <ele>234</ele>
        <time>2020-10-18T14:34:25Z</time>
      </trkpt>
      <trkpt lat="47.65548" lon="6.18237">
        <ele>234</ele>
        <time>2020-10-18T14:34:26Z</time>
      </trkpt>
      <trkpt lat="47.6554" lon="6.18241">
        <ele>233</ele>
        <time>2020-10-18T14:34:28Z</time>
      </trkpt>
      <trkpt lat="47.65532" lon="6.18245">
        <ele>233</ele>
        <time>2020-10-18T14:34:28Z</time>
      </trkpt>
      <trkpt lat="47.65526" lon="6.18248">
        <ele>233</ele>
        <time>2020-10-18T14:34:29Z</time>
      </trkpt>
      <trkpt lat="47.6552" lon="6.1825">
        <ele>239</ele>
        <time>2020-10-18T14:34:30Z</time>
      </trkpt>
      <trkpt lat="47.65515" lon="6.18253">
        <ele>238</ele>
        <time>2020-10-18T14:34:31Z</time>
      </trkpt>
      <trkpt lat="47.65509" lon="6.18255">
        <ele>237</ele>
        <time>2020-10-18T14:34:32Z</time>
      </trkpt>
      <trkpt lat="47.65504" lon="6.18257">
        <ele>236</ele>
        <time>2020-10-18T14:34:33Z</time>
      </trkpt>
      <trkpt lat="47.65498" lon="6.18259">
        <ele>235</ele>
        <time>2020-10-18T14:34:34Z</time>
      </trkpt>
      <trkpt lat="47.65492" lon="6.18262">
        <ele>235</ele>
        <time>2020-10-18T14:34:35Z</time>
      </trkpt>
      <trkpt lat="47.65487" lon="6.18263">
        <ele>236</ele>
        <time>2020-10-18T14:34:36Z</time>
      </trkpt>
      <trkpt lat="47.65481" lon="6.18265">
        <ele>237</ele>
        <time>2020-10-18T14:34:37Z</time>
      </trkpt>
      <trkpt lat="47.65475" lon="6.18265">
        <ele>237</ele>
        <time>2020-10-18T14:34:38Z</time>
      </trkpt>
      <trkpt lat="47.65468" lon="6.18265">
        <ele>237</ele>
        <time>2020-10-18T14:34:39Z</time>
      </trkpt>
      <trkpt lat="47.65461" lon="6.18265">
        <ele>237</ele>
        <time>2020-10-18T14:34:40Z</time>
      </trkpt>
      <trkpt lat="47.65454" lon="6.18264">
        <ele>237</ele>
        <time>2020-10-18T14:34:41Z</time>
      </trkpt>
      <trkpt lat="47.65447" lon="6.18263">
        <ele>237</ele>
        <time>2020-10-18T14:34:42Z</time>
      </trkpt>
      <trkpt lat="47.65439" lon="6.1826">
        <ele>236</ele>
        <time>2020-10-18T14:34:43Z</time>
      </trkpt>
      <trkpt lat="47.65432" lon="6.18255">
        <ele>234</ele>
        <time>2020-10-18T14:34:44Z</time>
      </trkpt>
      <trkpt lat="47.65425" lon="6.18251">
        <ele>232</ele>
        <time>2020-10-18T14:34:45Z</time>
      </trkpt>
      <trkpt lat="47.65418" lon="6.18247">
        <ele>229</ele>
        <time>2020-10-18T14:34:46Z</time>
      </trkpt>
      <trkpt lat="47.65411" lon="6.18242">
        <ele>230</ele>
        <time>2020-10-18T14:34:47Z</time>
      </trkpt>
      <trkpt lat="47.65404" lon="6.18237">
        <ele>230</ele>
        <time>2020-10-18T14:34:48Z</time>
      </trkpt>
      <trkpt lat="47.65397" lon="6.18232">
        <ele>231</ele>
        <time>2020-10-18T14:34:49Z</time>
      </trkpt>
      <trkpt lat="47.6539" lon="6.18227">
        <ele>231</ele>
        <time>2020-10-18T14:34:50Z</time>
      </trkpt>
      <trkpt lat="47.65384" lon="6.18222">
        <ele>232</ele>
        <time>2020-10-18T14:34:51Z</time>
      </trkpt>
      <trkpt lat="47.65377" lon="6.18216">
        <ele>232</ele>
        <time>2020-10-18T14:34:52Z</time>
      </trkpt>
      <trkpt lat="47.65371" lon="6.1821">
        <ele>232</ele>
        <time>2020-10-18T14:34:53Z</time>
      </trkpt>
      <trkpt lat="47.65365" lon="6.18205">
        <ele>232</ele>
        <time>2020-10-18T14:34:54Z</time>
      </trkpt>
      <trkpt lat="47.6536" lon="6.182">
        <ele>232</ele>
        <time>2020-10-18T14:34:55Z</time>
      </trkpt>
      <trkpt lat="47.65354" lon="6.18195">
        <ele>232</ele>
        <time>2020-10-18T14:34:56Z</time>
      </trkpt>
      <trkpt lat="47.65349" lon="6.18189">
        <ele>231</ele>
        <time>2020-10-18T14:34:57Z</time>
      </trkpt>
      <trkpt lat="47.65344" lon="6.18183">
        <ele>231</ele>
        <time>2020-10-18T14:34:58Z</time>
      </trkpt>
      <trkpt lat="47.65339" lon="6.18177">
        <ele>231</ele>
        <time>2020-10-18T14:34:59Z</time>
      </trkpt>
      <trkpt lat="47.65335" lon="6.18171">
        <ele>230</ele>
        <time>2020-10-18T14:35:00Z</time>
      </trkpt>
      <trkpt lat="47.65331" lon="6.18165">
        <ele>231</ele>
        <time>2020-10-18T14:35:01Z</time>
      </trkpt>
      <trkpt lat="47.65327" lon="6.18158">
        <ele>233</ele>
        <time>2020-10-18T14:35:02Z</time>
      </trkpt>
      <trkpt lat="47.65323" lon="6.18151">
        <ele>234</ele>
        <time>2020-10-18T14:35:03Z</time>
      </trkpt>
      <trkpt lat="47.6532" lon="6.18144">
        <ele>234</ele>
        <time>2020-10-18T14:35:04Z</time>
      </trkpt>
      <trkpt lat="47.65316" lon="6.18137">
        <ele>235</ele>
        <time>2020-10-18T14:35:05Z</time>
      </trkpt>
      <trkpt lat="47.65313" lon="6.18129">
        <ele>235</ele>
        <time>2020-10-18T14:35:06Z</time>
      </trkpt>
      <trkpt lat="47.6531" lon="6.1812">
        <ele>235</ele>
        <time>2020-10-18T14:35:07Z</time>
      </trkpt>
      <trkpt lat="47.65308" lon="6.18111">
        <ele>235</ele>
        <time>2020-10-18T14:35:08Z</time>
      </trkpt>
      <trkpt lat="47.65306" lon="6.18102">
        <ele>235</ele>
        <time>2020-10-18T14:35:09Z</time>
      </trkpt>
      <trkpt lat="47.65304" lon="6.18094">
        <ele>234</ele>
        <time>2020-10-18T14:35:10Z</time>
      </trkpt>
      <trkpt lat="47.65303" lon="6.18086">
        <ele>234</ele>
        <time>2020-10-18T14:35:11Z</time>
      </trkpt>
      <trkpt lat="47.65303" lon="6.18077">
        <ele>230</ele>
        <time>2020-10-18T14:35:12Z</time>
      </trkpt>
      <trkpt lat="47.65302" lon="6.1807">
        <ele>230</ele>
        <time>2020-10-18T14:35:13Z</time>
      </trkpt>
      <trkpt lat="47.65301" lon="6.18063">
        <ele>230</ele>
        <time>2020-10-18T14:35:14Z</time>
      </trkpt>
      <trkpt lat="47.653" lon="6.18056">
        <ele>230</ele>
        <time>2020-10-18T14:35:15Z</time>
      </trkpt>
      <trkpt lat="47.65299" lon="6.18049">
        <ele>230</ele>
        <time>2020-10-18T14:35:16Z</time>
      </trkpt>
      <trkpt lat="47.65297" lon="6.18042">
        <ele>230</ele>
        <time>2020-10-18T14:35:17Z</time>
      </trkpt>
      <trkpt lat="47.65295" lon="6.18032">
        <ele>230</ele>
        <time>2020-10-18T14:35:19Z</time>
      </trkpt>
      <trkpt lat="47.65292" lon="6.18021">
        <ele>229</ele>
        <time>2020-10-18T14:35:21Z</time>
      </trkpt>
      <trkpt lat="47.65288" lon="6.18011">
        <ele>229</ele>
        <time>2020-10-18T14:35:23Z</time>
      </trkpt>
      <trkpt lat="47.65283" lon="6.18001">
        <ele>229</ele>
        <time>2020-10-18T14:35:25Z</time>
      </trkpt>
      <trkpt lat="47.65277" lon="6.17992">
        <ele>227</ele>
        <time>2020-10-18T14:35:27Z</time>
      </trkpt>
      <trkpt lat="47.65272" lon="6.17986">
        <ele>227</ele>
        <time>2020-10-18T14:35:29Z</time>
      </trkpt>
      <trkpt lat="47.65274" lon="6.17977">
        <ele>226</ele>
        <time>2020-10-18T14:35:31Z</time>
      </trkpt>
      <trkpt lat="47.65267" lon="6.17976">
        <ele>227</ele>
        <time>2020-10-18T14:35:33Z</time>
      </trkpt>
      <trkpt lat="47.65257" lon="6.17975">
        <ele>227</ele>
        <time>2020-10-18T14:35:33Z</time>
      </trkpt>
      <trkpt lat="47.65251" lon="6.17974">
        <ele>227</ele>
        <time>2020-10-18T14:35:36Z</time>
      </trkpt>
      <trkpt lat="47.65245" lon="6.17973">
        <ele>227</ele>
        <time>2020-10-18T14:35:36Z</time>
      </trkpt>
      <trkpt lat="47.65237" lon="6.17974">
        <ele>227</ele>
        <time>2020-10-18T14:35:39Z</time>
      </trkpt>
      <trkpt lat="47.65231" lon="6.17975">
        <ele>227</ele>
        <time>2020-10-18T14:35:41Z</time>
      </trkpt>
      <trkpt lat="47.65226" lon="6.17977">
        <ele>227</ele>
        <time>2020-10-18T14:35:42Z</time>
      </trkpt>
      <trkpt lat="47.65222" lon="6.1798">
        <ele>227</ele>
        <time>2020-10-18T14:35:43Z</time>
      </trkpt>
      <trkpt lat="47.65217" lon="6.17984">
        <ele>226</ele>
        <time>2020-10-18T14:35:43Z</time>
      </trkpt>
      <trkpt lat="47.65212" lon="6.17989">
        <ele>226</ele>
        <time>2020-10-18T14:35:44Z</time>
      </trkpt>
      <trkpt lat="47.65208" lon="6.17993">
        <ele>226</ele>
        <time>2020-10-18T14:35:45Z</time>
      </trkpt>
      <trkpt lat="47.65204" lon="6.17998">
        <ele>226</ele>
        <time>2020-10-18T14:35:46Z</time>
      </trkpt>
      <trkpt lat="47.652" lon="6.18003">
        <ele>230</ele>
        <time>2020-10-18T14:35:47Z</time>
      </trkpt>
      <trkpt lat="47.65196" lon="6.18009">
        <ele>230</ele>
        <time>2020-10-18T14:35:48Z</time>
      </trkpt>
      <trkpt lat="47.65192" lon="6.18016">
        <ele>230</ele>
        <time>2020-10-18T14:35:49Z</time>
      </trkpt>
      <trkpt lat="47.65188" lon="6.18023">
        <ele>230</ele>
        <time>2020-10-18T14:35:50Z</time>
      </trkpt>
      <trkpt lat="47.65184" lon="6.1803">
        <ele>230</ele>
        <time>2020-10-18T14:35:51Z</time>
      </trkpt>
      <trkpt lat="47.6518" lon="6.18037">
        <ele>231</ele>
        <time>2020-10-18T14:35:52Z</time>
      </trkpt>
      <trkpt lat="47.65176" lon="6.18043">
        <ele>231</ele>
        <time>2020-10-18T14:35:53Z</time>
      </trkpt>
      <trkpt lat="47.65172" lon="6.1805">
        <ele>232</ele>
        <time>2020-10-18T14:35:54Z</time>
      </trkpt>
      <trkpt lat="47.65168" lon="6.18056">
        <ele>232</ele>
        <time>2020-10-18T14:35:55Z</time>
      </trkpt>
      <trkpt lat="47.65164" lon="6.18062">
        <ele>231</ele>
        <time>2020-10-18T14:35:56Z</time>
      </trkpt>
      <trkpt lat="47.6516" lon="6.18069">
        <ele>232</ele>
        <time>2020-10-18T14:35:57Z</time>
      </trkpt>
      <trkpt lat="47.65156" lon="6.18074">
        <ele>232</ele>
        <time>2020-10-18T14:35:58Z</time>
      </trkpt>
      <trkpt lat="47.65151" lon="6.1808">
        <ele>232</ele>
        <time>2020-10-18T14:35:59Z</time>
      </trkpt>
      <trkpt lat="47.65147" lon="6.18085">
        <ele>237</ele>
        <time>2020-10-18T14:36:00Z</time>
      </trkpt>
      <trkpt lat="47.65142" lon="6.18089">
        <ele>237</ele>
        <time>2020-10-18T14:36:01Z</time>
      </trkpt>
      <trkpt lat="47.65138" lon="6.18093">
        <ele>238</ele>
        <time>2020-10-18T14:36:02Z</time>
      </trkpt>
      <trkpt lat="47.65133" lon="6.18097">
        <ele>238</ele>
        <time>2020-10-18T14:36:03Z</time>
      </trkpt>
      <trkpt lat="47.65129" lon="6.181">
        <ele>238</ele>
        <time>2020-10-18T14:36:04Z</time>
      </trkpt>
      <trkpt lat="47.65124" lon="6.18102">
        <ele>238</ele>
        <time>2020-10-18T14:36:05Z</time>
      </trkpt>
      <trkpt lat="47.6512" lon="6.18104">
        <ele>238</ele>
        <time>2020-10-18T14:36:06Z</time>
      </trkpt>
      <trkpt lat="47.65111" lon="6.18105">
        <ele>238</ele>
        <time>2020-10-18T14:36:08Z</time>
      </trkpt>
      <trkpt lat="47.65102" lon="6.18106">
        <ele>238</ele>
        <time>2020-10-18T14:36:10Z</time>
      </trkpt>
      <trkpt lat="47.65098" lon="6.18107">
        <ele>237</ele>
        <time>2020-10-18T14:36:11Z</time>
      </trkpt>
      <trkpt lat="47.65093" lon="6.18107">
        <ele>237</ele>
        <time>2020-10-18T14:36:12Z</time>
      </trkpt>
      <trkpt lat="47.65088" lon="6.18106">
        <ele>237</ele>
        <time>2020-10-18T14:36:13Z</time>
      </trkpt>
      <trkpt lat="47.65083" lon="6.18105">
        <ele>237</ele>
        <time>2020-10-18T14:36:14Z</time>
      </trkpt>
      <trkpt lat="47.65079" lon="6.18104">
        <ele>235</ele>
        <time>2020-10-18T14:36:15Z</time>
      </trkpt>
      <trkpt lat="47.65074" lon="6.18102">
        <ele>235</ele>
        <time>2020-10-18T14:36:16Z</time>
      </trkpt>
      <trkpt lat="47.6507" lon="6.18101">
        <ele>235</ele>
        <time>2020-10-18T14:36:17Z</time>
      </trkpt>
      <trkpt lat="47.65065" lon="6.18099">
        <ele>235</ele>
        <time>2020-10-18T14:36:18Z</time>
      </trkpt>
      <trkpt lat="47.65061" lon="6.18097">
        <ele>235</ele>
        <time>2020-10-18T14:36:19Z</time>
      </trkpt>
      <trkpt lat="47.65053" lon="6.18095">
        <ele>235</ele>
        <time>2020-10-18T14:36:21Z</time>
      </trkpt>
      <trkpt lat="47.65048" lon="6.18094">
        <ele>235</ele>
        <time>2020-10-18T14:36:22Z</time>
      </trkpt>
      <trkpt lat="47.65044" lon="6.18094">
        <ele>235</ele>
        <time>2020-10-18T14:36:23Z</time>
      </trkpt>
      <trkpt lat="47.65035" lon="6.18094">
        <ele>235</ele>
        <time>2020-10-18T14:36:25Z</time>
      </trkpt>
      <trkpt lat="47.65029" lon="6.18099">
        <ele>235</ele>
        <time>2020-10-18T14:36:28Z</time>
      </trkpt>
      <trkpt lat="47.65021" lon="6.18099">
        <ele>235</ele>
        <time>2020-10-18T14:36:28Z</time>
      </trkpt>
      <trkpt lat="47.65016" lon="6.18098">
        <ele>234</ele>
        <time>2020-10-18T14:36:29Z</time>
      </trkpt>
      <trkpt lat="47.6501" lon="6.18098">
        <ele>234</ele>
        <time>2020-10-18T14:36:30Z</time>
      </trkpt>
      <trkpt lat="47.65005" lon="6.18098">
        <ele>233</ele>
        <time>2020-10-18T14:36:31Z</time>
      </trkpt>
      <trkpt lat="47.65" lon="6.18097">
        <ele>233</ele>
        <time>2020-10-18T14:36:32Z</time>
      </trkpt>
      <trkpt lat="47.64996" lon="6.18097">
        <ele>232</ele>
        <time>2020-10-18T14:36:33Z</time>
      </trkpt>
      <trkpt lat="47.64991" lon="6.18097">
        <ele>232</ele>
        <time>2020-10-18T14:36:34Z</time>
      </trkpt>
      <trkpt lat="47.64986" lon="6.18098">
        <ele>232</ele>
        <time>2020-10-18T14:36:35Z</time>
      </trkpt>
      <trkpt lat="47.6498" lon="6.18098">
        <ele>232</ele>
        <time>2020-10-18T14:36:39Z</time>
      </trkpt>
      <trkpt lat="47.64974" lon="6.18099">
        <ele>232</ele>
        <time>2020-10-18T14:36:40Z</time>
      </trkpt>
      <trkpt lat="47.64968" lon="6.18099">
        <ele>232</ele>
        <time>2020-10-18T14:36:41Z</time>
      </trkpt>
      <trkpt lat="47.6496" lon="6.18099">
        <ele>232</ele>
        <time>2020-10-18T14:36:43Z</time>
      </trkpt>
      <trkpt lat="47.64955" lon="6.18099">
        <ele>232</ele>
        <time>2020-10-18T14:36:43Z</time>
      </trkpt>
      <trkpt lat="47.64949" lon="6.18099">
        <ele>232</ele>
        <time>2020-10-18T14:36:46Z</time>
      </trkpt>
      <trkpt lat="47.64942" lon="6.18099">
        <ele>232</ele>
        <time>2020-10-18T14:36:47Z</time>
      </trkpt>
      <trkpt lat="47.64929" lon="6.18097">
        <ele>230</ele>
        <time>2020-10-18T14:36:48Z</time>
      </trkpt>
      <trkpt lat="47.64924" lon="6.18096">
        <ele>230</ele>
        <time>2020-10-18T14:36:49Z</time>
      </trkpt>
      <trkpt lat="47.64919" lon="6.18097">
        <ele>230</ele>
        <time>2020-10-18T14:36:52Z</time>
      </trkpt>
      <trkpt lat="47.64913" lon="6.18096">
        <ele>229</ele>
        <time>2020-10-18T14:36:53Z</time>
      </trkpt>
      <trkpt lat="47.64909" lon="6.18094">
        <ele>229</ele>
        <time>2020-10-18T14:36:54Z</time>
      </trkpt>
      <trkpt lat="47.64904" lon="6.18092">
        <ele>229</ele>
        <time>2020-10-18T14:36:54Z</time>
      </trkpt>
      <trkpt lat="47.64897" lon="6.1809">
        <ele>229</ele>
        <time>2020-10-18T14:36:57Z</time>
      </trkpt>
      <trkpt lat="47.64891" lon="6.18088">
        <ele>229</ele>
        <time>2020-10-18T14:36:57Z</time>
      </trkpt>
      <trkpt lat="47.64884" lon="6.18086">
        <ele>229</ele>
        <time>2020-10-18T14:37:00Z</time>
      </trkpt>
      <trkpt lat="47.64875" lon="6.18083">
        <ele>226</ele>
        <time>2020-10-18T14:37:01Z</time>
      </trkpt>
      <trkpt lat="47.6487" lon="6.18081">
        <ele>226</ele>
        <time>2020-10-18T14:37:04Z</time>
      </trkpt>
      <trkpt lat="47.64863" lon="6.18079">
        <ele>225</ele>
        <time>2020-10-18T14:37:05Z</time>
      </trkpt>
      <trkpt lat="47.64858" lon="6.18076">
        <ele>225</ele>
        <time>2020-10-18T14:37:07Z</time>
      </trkpt>
      <trkpt lat="47.64853" lon="6.18075">
        <ele>225</ele>
        <time>2020-10-18T14:37:08Z</time>
      </trkpt>
      <trkpt lat="47.64847" lon="6.18074">
        <ele>225</ele>
        <time>2020-10-18T14:37:10Z</time>
      </trkpt>
      <trkpt lat="47.6484" lon="6.18072">
        <ele>225</ele>
        <time>2020-10-18T14:37:10Z</time>
      </trkpt>
      <trkpt lat="47.64832" lon="6.1807">
        <ele>226</ele>
        <time>2020-10-18T14:37:13Z</time>
      </trkpt>
      <trkpt lat="47.64825" lon="6.18068">
        <ele>226</ele>
        <time>2020-10-18T14:37:13Z</time>
      </trkpt>
      <trkpt lat="47.64819" lon="6.18067">
        <ele>226</ele>
        <time>2020-10-18T14:37:14Z</time>
      </trkpt>
      <trkpt lat="47.64813" lon="6.18066">
        <ele>226</ele>
        <time>2020-10-18T14:37:15Z</time>
      </trkpt>
      <trkpt lat="47.64806" lon="6.18064">
        <ele>226</ele>
        <time>2020-10-18T14:37:16Z</time>
      </trkpt>
      <trkpt lat="47.64801" lon="6.18062">
        <ele>227</ele>
        <time>2020-10-18T14:37:17Z</time>
      </trkpt>
      <trkpt lat="47.64796" lon="6.1806">
        <ele>227</ele>
        <time>2020-10-18T14:37:18Z</time>
      </trkpt>
      <trkpt lat="47.6479" lon="6.18058">
        <ele>227</ele>
        <time>2020-10-18T14:37:19Z</time>
      </trkpt>
      <trkpt lat="47.64786" lon="6.18056">
        <ele>227</ele>
        <time>2020-10-18T14:37:20Z</time>
      </trkpt>
      <trkpt lat="47.64781" lon="6.18054">
        <ele>227</ele>
        <time>2020-10-18T14:37:21Z</time>
      </trkpt>
      <trkpt lat="47.64777" lon="6.18051">
        <ele>227</ele>
        <time>2020-10-18T14:37:22Z</time>
      </trkpt>
      <trkpt lat="47.64773" lon="6.18047">
        <ele>227</ele>
        <time>2020-10-18T14:37:23Z</time>
      </trkpt>
      <trkpt lat="47.64766" lon="6.18041">
        <ele>227</ele>
        <time>2020-10-18T14:37:25Z</time>
      </trkpt>
      <trkpt lat="47.6476" lon="6.18033">
        <ele>226</ele>
        <time>2020-10-18T14:37:27Z</time>
      </trkpt>
      <trkpt lat="47.64755" lon="6.18026">
        <ele>225</ele>
        <time>2020-10-18T14:37:29Z</time>
      </trkpt>
      <trkpt lat="47.64752" lon="6.18019">
        <ele>224</ele>
        <time>2020-10-18T14:37:33Z</time>
      </trkpt>
      <trkpt lat="47.64746" lon="6.18012">
        <ele>226</ele>
        <time>2020-10-18T14:37:34Z</time>
      </trkpt>
      <trkpt lat="47.64741" lon="6.18005">
        <ele>225</ele>
        <time>2020-10-18T14:37:35Z</time>
      </trkpt>
      <trkpt lat="47.64738" lon="6.18">
        <ele>223</ele>
        <time>2020-10-18T14:37:36Z</time>
      </trkpt>
      <trkpt lat="47.64733" lon="6.17992">
        <ele>223</ele>
        <time>2020-10-18T14:37:38Z</time>
      </trkpt>
      <trkpt lat="47.64728" lon="6.17985">
        <ele>224</ele>
        <time>2020-10-18T14:37:40Z</time>
      </trkpt>
      <trkpt lat="47.64724" lon="6.17979">
        <ele>224</ele>
        <time>2020-10-18T14:37:42Z</time>
      </trkpt>
      <trkpt lat="47.64719" lon="6.17971">
        <ele>224</ele>
        <time>2020-10-18T14:37:43Z</time>
      </trkpt>
      <trkpt lat="47.64715" lon="6.17965">
        <ele>224</ele>
        <time>2020-10-18T14:37:46Z</time>
      </trkpt>
      <trkpt lat="47.64712" lon="6.1796">
        <ele>224</ele>
        <time>2020-10-18T14:37:47Z</time>
      </trkpt>
      <trkpt lat="47.64709" lon="6.17954">
        <ele>224</ele>
        <time>2020-10-18T14:37:49Z</time>
      </trkpt>
      <trkpt lat="47.64705" lon="6.17947">
        <ele>224</ele>
        <time>2020-10-18T14:37:53Z</time>
      </trkpt>
      <trkpt lat="47.647" lon="6.17942">
        <ele>224</ele>
        <time>2020-10-18T14:37:55Z</time>
      </trkpt>
      <trkpt lat="47.64697" lon="6.17937">
        <ele>224</ele>
        <time>2020-10-18T14:37:57Z</time>
      </trkpt>
      <trkpt lat="47.64693" lon="6.17931">
        <ele>224</ele>
        <time>2020-10-18T14:37:57Z</time>
      </trkpt>
      <trkpt lat="47.64688" lon="6.17925">
        <ele>223</ele>
        <time>2020-10-18T14:37:59Z</time>
      </trkpt>
      <trkpt lat="47.64682" lon="6.17919">
        <ele>223</ele>
        <time>2020-10-18T14:38:01Z</time>
      </trkpt>
      <trkpt lat="47.64676" lon="6.17913">
        <ele>222</ele>
        <time>2020-10-18T14:38:04Z</time>
      </trkpt>
      <trkpt lat="47.64671" lon="6.17908">
        <ele>222</ele>
        <time>2020-10-18T14:38:06Z</time>
      </trkpt>
      <trkpt lat="47.64665" lon="6.17905">
        <ele>222</ele>
        <time>2020-10-18T14:38:06Z</time>
      </trkpt>
      <trkpt lat="47.6466" lon="6.17902">
        <ele>222</ele>
        <time>2020-10-18T14:38:09Z</time>
      </trkpt>
      <trkpt lat="47.64654" lon="6.17898">
        <ele>223</ele>
        <time>2020-10-18T14:38:09Z</time>
      </trkpt>
      <trkpt lat="47.64649" lon="6.17896">
        <ele>223</ele>
        <time>2020-10-18T14:38:10Z</time>
      </trkpt>
      <trkpt lat="47.64643" lon="6.17893">
        <ele>223</ele>
        <time>2020-10-18T14:38:13Z</time>
      </trkpt>
      <trkpt lat="47.64636" lon="6.1789">
        <ele>223</ele>
        <time>2020-10-18T14:38:15Z</time>
      </trkpt>
      <trkpt lat="47.64631" lon="6.17888">
        <ele>223</ele>
        <time>2020-10-18T14:38:16Z</time>
      </trkpt>
      <trkpt lat="47.64624" lon="6.17885">
        <ele>223</ele>
        <time>2020-10-18T14:38:16Z</time>
      </trkpt>
      <trkpt lat="47.64619" lon="6.17884">
        <ele>223</ele>
        <time>2020-10-18T14:38:17Z</time>
      </trkpt>
      <trkpt lat="47.64613" lon="6.17885">
        <ele>223</ele>
        <time>2020-10-18T14:38:18Z</time>
      </trkpt>
      <trkpt lat="47.64608" lon="6.17886">
        <ele>223</ele>
        <time>2020-10-18T14:38:19Z</time>
      </trkpt>
      <trkpt lat="47.64603" lon="6.17889">
        <ele>223</ele>
        <time>2020-10-18T14:38:20Z</time>
      </trkpt>
      <trkpt lat="47.64599" lon="6.17892">
        <ele>223</ele>
        <time>2020-10-18T14:38:21Z</time>
      </trkpt>
      <trkpt lat="47.64595" lon="6.17895">
        <ele>223</ele>
        <time>2020-10-18T14:38:22Z</time>
      </trkpt>
      <trkpt lat="47.64589" lon="6.17899">
        <ele>224</ele>
        <time>2020-10-18T14:38:25Z</time>
      </trkpt>
      <trkpt lat="47.64585" lon="6.17903">
        <ele>224</ele>
        <time>2020-10-18T14:38:27Z</time>
      </trkpt>
      <trkpt lat="47.64581" lon="6.17908">
        <ele>224</ele>
        <time>2020-10-18T14:38:28Z</time>
      </trkpt>
      <trkpt lat="47.64578" lon="6.17912">
        <ele>224</ele>
        <time>2020-10-18T14:38:29Z</time>
      </trkpt>
      <trkpt lat="47.64571" lon="6.17921">
        <ele>225</ele>
        <time>2020-10-18T14:38:31Z</time>
      </trkpt>
      <trkpt lat="47.64566" lon="6.17927">
        <ele>225</ele>
        <time>2020-10-18T14:38:33Z</time>
      </trkpt>
      <trkpt lat="47.64563" lon="6.17933">
        <ele>225</ele>
        <time>2020-10-18T14:38:35Z</time>
      </trkpt>
      <trkpt lat="47.64561" lon="6.17941">
        <ele>225</ele>
        <time>2020-10-18T14:38:37Z</time>
      </trkpt>
      <trkpt lat="47.64559" lon="6.17948">
        <ele>226</ele>
        <time>2020-10-18T14:38:37Z</time>
      </trkpt>
      <trkpt lat="47.64557" lon="6.17958">
        <ele>226</ele>
        <time>2020-10-18T14:38:39Z</time>
      </trkpt>
      <trkpt lat="47.64555" lon="6.17965">
        <ele>226</ele>
        <time>2020-10-18T14:38:41Z</time>
      </trkpt>
      <trkpt lat="47.64552" lon="6.17975">
        <ele>227</ele>
        <time>2020-10-18T14:38:43Z</time>
      </trkpt>
      <trkpt lat="47.64549" lon="6.17985">
        <ele>227</ele>
        <time>2020-10-18T14:38:47Z</time>
      </trkpt>
      <trkpt lat="47.64548" lon="6.17992">
        <ele>227</ele>
        <time>2020-10-18T14:38:49Z</time>
      </trkpt>
      <trkpt lat="47.64545" lon="6.17999">
        <ele>227</ele>
        <time>2020-10-18T14:38:51Z</time>
      </trkpt>
      <trkpt lat="47.64544" lon="6.18006">
        <ele>229</ele>
        <time>2020-10-18T14:38:53Z</time>
      </trkpt>
      <trkpt lat="47.64541" lon="6.18012">
        <ele>229</ele>
        <time>2020-10-18T14:38:56Z</time>
      </trkpt>
      <trkpt lat="47.64538" lon="6.18018">
        <ele>229</ele>
        <time>2020-10-18T14:38:56Z</time>
      </trkpt>
      <trkpt lat="47.64535" lon="6.18026">
        <ele>229</ele>
        <time>2020-10-18T14:38:59Z</time>
      </trkpt>
      <trkpt lat="47.64529" lon="6.18034">
        <ele>229</ele>
        <time>2020-10-18T14:39:01Z</time>
      </trkpt>
      <trkpt lat="47.64525" lon="6.18038">
        <ele>228</ele>
        <time>2020-10-18T14:39:02Z</time>
      </trkpt>
      <trkpt lat="47.6452" lon="6.18042">
        <ele>228</ele>
        <time>2020-10-18T14:39:02Z</time>
      </trkpt>
      <trkpt lat="47.64513" lon="6.18051">
        <ele>228</ele>
        <time>2020-10-18T14:39:05Z</time>
      </trkpt>
      <trkpt lat="47.6451" lon="6.18056">
        <ele>227</ele>
        <time>2020-10-18T14:39:06Z</time>
      </trkpt>
      <trkpt lat="47.64508" lon="6.18063">
        <ele>227</ele>
        <time>2020-10-18T14:39:07Z</time>
      </trkpt>
      <trkpt lat="47.64506" lon="6.1807">
        <ele>226</ele>
        <time>2020-10-18T14:39:08Z</time>
      </trkpt>
      <trkpt lat="47.64504" lon="6.18077">
        <ele>225</ele>
        <time>2020-10-18T14:39:08Z</time>
      </trkpt>
      <trkpt lat="47.64501" lon="6.18088">
        <ele>225</ele>
        <time>2020-10-18T14:39:11Z</time>
      </trkpt>
      <trkpt lat="47.645" lon="6.18095">
        <ele>223</ele>
        <time>2020-10-18T14:39:12Z</time>
      </trkpt>
      <trkpt lat="47.64498" lon="6.18102">
        <ele>223</ele>
        <time>2020-10-18T14:39:12Z</time>
      </trkpt>
      <trkpt lat="47.64496" lon="6.18112">
        <ele>223</ele>
        <time>2020-10-18T14:39:15Z</time>
      </trkpt>
      <trkpt lat="47.64494" lon="6.18122">
        <ele>224</ele>
        <time>2020-10-18T14:39:17Z</time>
      </trkpt>
      <trkpt lat="47.64493" lon="6.18129">
        <ele>224</ele>
        <time>2020-10-18T14:39:18Z</time>
      </trkpt>
      <trkpt lat="47.64491" lon="6.18137">
        <ele>224</ele>
        <time>2020-10-18T14:39:19Z</time>
      </trkpt>
      <trkpt lat="47.6449" lon="6.18144">
        <ele>224</ele>
        <time>2020-10-18T14:39:20Z</time>
      </trkpt>
      <trkpt lat="47.64491" lon="6.18153">
        <ele>224</ele>
        <time>2020-10-18T14:39:20Z</time>
      </trkpt>
      <trkpt lat="47.64492" lon="6.18164">
        <ele>225</ele>
        <time>2020-10-18T14:39:23Z</time>
      </trkpt>
      <trkpt lat="47.64495" lon="6.18171">
        <ele>225</ele>
        <time>2020-10-18T14:39:24Z</time>
      </trkpt>
      <trkpt lat="47.64497" lon="6.18178">
        <ele>225</ele>
        <time>2020-10-18T14:39:26Z</time>
      </trkpt>
      <trkpt lat="47.64498" lon="6.18185">
        <ele>225</ele>
        <time>2020-10-18T14:39:27Z</time>
      </trkpt>
      <trkpt lat="47.64498" lon="6.18193">
        <ele>226</ele>
        <time>2020-10-18T14:39:28Z</time>
      </trkpt>
      <trkpt lat="47.64497" lon="6.18203">
        <ele>226</ele>
        <time>2020-10-18T14:39:30Z</time>
      </trkpt>
      <trkpt lat="47.64494" lon="6.1821">
        <ele>226</ele>
        <time>2020-10-18T14:39:32Z</time>
      </trkpt>
      <trkpt lat="47.64492" lon="6.18217">
        <ele>227</ele>
        <time>2020-10-18T14:39:34Z</time>
      </trkpt>
      <trkpt lat="47.64491" lon="6.18224">
        <ele>227</ele>
        <time>2020-10-18T14:39:36Z</time>
      </trkpt>
      <trkpt lat="47.64487" lon="6.18231">
        <ele>227</ele>
        <time>2020-10-18T14:39:38Z</time>
      </trkpt>
      <trkpt lat="47.64483" lon="6.18238">
        <ele>228</ele>
        <time>2020-10-18T14:39:40Z</time>
      </trkpt>
      <trkpt lat="47.6448" lon="6.18244">
        <ele>228</ele>
        <time>2020-10-18T14:39:41Z</time>
      </trkpt>
      <trkpt lat="47.64475" lon="6.18254">
        <ele>231</ele>
        <time>2020-10-18T14:39:43Z</time>
      </trkpt>
      <trkpt lat="47.64471" lon="6.18263">
        <ele>231</ele>
        <time>2020-10-18T14:39:45Z</time>
      </trkpt>
      <trkpt lat="47.64466" lon="6.18269">
        <ele>231</ele>
        <time>2020-10-18T14:39:47Z</time>
      </trkpt>
      <trkpt lat="47.64462" lon="6.18274">
        <ele>231</ele>
        <time>2020-10-18T14:39:49Z</time>
      </trkpt>
      <trkpt lat="47.64458" lon="6.18281">
        <ele>231</ele>
        <time>2020-10-18T14:39:51Z</time>
      </trkpt>
      <trkpt lat="47.64455" lon="6.18286">
        <ele>231</ele>
        <time>2020-10-18T14:39:54Z</time>
      </trkpt>
      <trkpt lat="47.6445" lon="6.18292">
        <ele>231</ele>
        <time>2020-10-18T14:39:58Z</time>
      </trkpt>
      <trkpt lat="47.64446" lon="6.18295">
        <ele>231</ele>
        <time>2020-10-18T14:40:00Z</time>
      </trkpt>
      <trkpt lat="47.64441" lon="6.183">
        <ele>230</ele>
        <time>2020-10-18T14:40:02Z</time>
      </trkpt>
      <trkpt lat="47.64436" lon="6.18302">
        <ele>230</ele>
        <time>2020-10-18T14:40:03Z</time>
      </trkpt>
      <trkpt lat="47.64433" lon="6.18309">
        <ele>230</ele>
        <time>2020-10-18T14:40:08Z</time>
      </trkpt>
      <trkpt lat="47.64437" lon="6.18304">
        <ele>230</ele>
        <time>2020-10-18T14:40:11Z</time>
      </trkpt>
      <trkpt lat="47.64434" lon="6.18296">
        <ele>230</ele>
        <time>2020-10-18T14:40:15Z</time>
      </trkpt>
      <trkpt lat="47.6443" lon="6.18291">
        <ele>229</ele>
        <time>2020-10-18T14:40:17Z</time>
      </trkpt>
      <trkpt lat="47.64429" lon="6.18298">
        <ele>230</ele>
        <time>2020-10-18T14:40:21Z</time>
      </trkpt>
      <trkpt lat="47.64436" lon="6.18302">
        <ele>230</ele>
        <time>2020-10-18T14:40:24Z</time>
      </trkpt>
      <trkpt lat="47.6444" lon="6.18305">
        <ele>230</ele>
        <time>2020-10-18T14:40:26Z</time>
      </trkpt>
      <trkpt lat="47.64444" lon="6.18312">
        <ele>231</ele>
        <time>2020-10-18T14:40:29Z</time>
      </trkpt>
      <trkpt lat="47.64444" lon="6.1832">
        <ele>231</ele>
        <time>2020-10-18T14:40:32Z</time>
      </trkpt>
      <trkpt lat="47.64441" lon="6.18326">
        <ele>231</ele>
        <time>2020-10-18T14:40:37Z</time>
      </trkpt>
    </trkseg>
  </trk>
</gpx>